<?xml version="1.0" encoding="UTF-8" standalone="no" ?>
<gpx xmlns="http://www.topografix.com/GPX/1/1" xmlns:xsi="http://www.w3.org/2001/XMLSchema-instance" xsi:schemaLocation="http://www.topografix.com/GPX/1/1 http://www.topografix.com/GPX/1/1/gpx.xsd" version="1.1" creator="VisuGPX - https://www.visugpx.com">
  <metadata>
    <name>ONmove 220 - 11/08/2019</name>
  </metadata>
  <trk>
    <name><![CDATA[ONmove 220 - 11/08/2019]]></name>
    <trkseg>
      <trkpt lat="44.48937" lon="-1.09128">
        <ele>18</ele>
        <time>2019-08-11T10:29:10Z</time>
      </trkpt>
      <trkpt lat="44.48913" lon="-1.0915">
        <ele>18</ele>
        <time>2019-08-11T10:29:20Z</time>
      </trkpt>
      <trkpt lat="44.48901" lon="-1.09161">
        <ele>18</ele>
        <time>2019-08-11T10:29:25Z</time>
      </trkpt>
      <trkpt lat="44.48877" lon="-1.09181">
        <ele>18</ele>
        <time>2019-08-11T10:29:35Z</time>
      </trkpt>
      <trkpt lat="44.48864" lon="-1.09191">
        <ele>18</ele>
        <time>2019-08-11T10:29:40Z</time>
      </trkpt>
      <trkpt lat="44.4884" lon="-1.09211">
        <ele>18</ele>
        <time>2019-08-11T10:29:50Z</time>
      </trkpt>
      <trkpt lat="44.48827" lon="-1.09219">
        <ele>18</ele>
        <time>2019-08-11T10:29:55Z</time>
      </trkpt>
      <trkpt lat="44.48826" lon="-1.09238">
        <ele>18</ele>
        <time>2019-08-11T10:30:05Z</time>
      </trkpt>
      <trkpt lat="44.48835" lon="-1.09244">
        <ele>18</ele>
        <time>2019-08-11T10:30:10Z</time>
      </trkpt>
      <trkpt lat="44.48859" lon="-1.09257">
        <ele>18</ele>
        <time>2019-08-11T10:30:20Z</time>
      </trkpt>
      <trkpt lat="44.48871" lon="-1.09265">
        <ele>18</ele>
        <time>2019-08-11T10:30:25Z</time>
      </trkpt>
      <trkpt lat="44.48896" lon="-1.09282">
        <ele>18</ele>
        <time>2019-08-11T10:30:35Z</time>
      </trkpt>
      <trkpt lat="44.4892" lon="-1.09302">
        <ele>18</ele>
        <time>2019-08-11T10:30:45Z</time>
      </trkpt>
      <trkpt lat="44.48931" lon="-1.09312">
        <ele>18</ele>
        <time>2019-08-11T10:30:50Z</time>
      </trkpt>
      <trkpt lat="44.48951" lon="-1.09335">
        <ele>18</ele>
        <time>2019-08-11T10:31:00Z</time>
      </trkpt>
      <trkpt lat="44.48962" lon="-1.09345">
        <ele>18</ele>
        <time>2019-08-11T10:31:05Z</time>
      </trkpt>
      <trkpt lat="44.48982" lon="-1.09369">
        <ele>18</ele>
        <time>2019-08-11T10:31:15Z</time>
      </trkpt>
      <trkpt lat="44.48992" lon="-1.09381">
        <ele>18</ele>
        <time>2019-08-11T10:31:20Z</time>
      </trkpt>
      <trkpt lat="44.49013" lon="-1.09403">
        <ele>18</ele>
        <time>2019-08-11T10:31:30Z</time>
      </trkpt>
      <trkpt lat="44.49023" lon="-1.09415">
        <ele>18</ele>
        <time>2019-08-11T10:31:35Z</time>
      </trkpt>
      <trkpt lat="44.49043" lon="-1.0944">
        <ele>18</ele>
        <time>2019-08-11T10:31:45Z</time>
      </trkpt>
      <trkpt lat="44.49053" lon="-1.0945">
        <ele>18</ele>
        <time>2019-08-11T10:31:50Z</time>
      </trkpt>
      <trkpt lat="44.49075" lon="-1.09471">
        <ele>18</ele>
        <time>2019-08-11T10:32:00Z</time>
      </trkpt>
      <trkpt lat="44.49085" lon="-1.09482">
        <ele>18</ele>
        <time>2019-08-11T10:32:05Z</time>
      </trkpt>
      <trkpt lat="44.49102" lon="-1.09504">
        <ele>18</ele>
        <time>2019-08-11T10:32:15Z</time>
      </trkpt>
      <trkpt lat="44.49122" lon="-1.09525">
        <ele>18</ele>
        <time>2019-08-11T10:32:25Z</time>
      </trkpt>
      <trkpt lat="44.49132" lon="-1.09534">
        <ele>18</ele>
        <time>2019-08-11T10:32:30Z</time>
      </trkpt>
      <trkpt lat="44.49149" lon="-1.09553">
        <ele>18</ele>
        <time>2019-08-11T10:32:40Z</time>
      </trkpt>
      <trkpt lat="44.49157" lon="-1.09563">
        <ele>18</ele>
        <time>2019-08-11T10:32:45Z</time>
      </trkpt>
      <trkpt lat="44.4917" lon="-1.09586">
        <ele>18</ele>
        <time>2019-08-11T10:32:55Z</time>
      </trkpt>
      <trkpt lat="44.49168" lon="-1.09591">
        <ele>18</ele>
        <time>2019-08-11T10:33:00Z</time>
      </trkpt>
      <trkpt lat="44.49153" lon="-1.09603">
        <ele>18</ele>
        <time>2019-08-11T10:33:10Z</time>
      </trkpt>
      <trkpt lat="44.49144" lon="-1.09612">
        <ele>18</ele>
        <time>2019-08-11T10:33:15Z</time>
      </trkpt>
      <trkpt lat="44.49126" lon="-1.0963">
        <ele>18</ele>
        <time>2019-08-11T10:33:25Z</time>
      </trkpt>
      <trkpt lat="44.49117" lon="-1.09639">
        <ele>18</ele>
        <time>2019-08-11T10:33:30Z</time>
      </trkpt>
      <trkpt lat="44.491" lon="-1.09657">
        <ele>18</ele>
        <time>2019-08-11T10:33:40Z</time>
      </trkpt>
      <trkpt lat="44.49091" lon="-1.09664">
        <ele>18</ele>
        <time>2019-08-11T10:33:45Z</time>
      </trkpt>
      <trkpt lat="44.49074" lon="-1.09679">
        <ele>18</ele>
        <time>2019-08-11T10:33:55Z</time>
      </trkpt>
      <trkpt lat="44.49054" lon="-1.09695">
        <ele>18</ele>
        <time>2019-08-11T10:34:05Z</time>
      </trkpt>
      <trkpt lat="44.49045" lon="-1.09703">
        <ele>18</ele>
        <time>2019-08-11T10:34:10Z</time>
      </trkpt>
      <trkpt lat="44.49027" lon="-1.09713">
        <ele>18</ele>
        <time>2019-08-11T10:34:20Z</time>
      </trkpt>
      <trkpt lat="44.49018" lon="-1.09717">
        <ele>18</ele>
        <time>2019-08-11T10:34:25Z</time>
      </trkpt>
      <trkpt lat="44.48997" lon="-1.09727">
        <ele>18</ele>
        <time>2019-08-11T10:34:35Z</time>
      </trkpt>
      <trkpt lat="44.48988" lon="-1.09733">
        <ele>18</ele>
        <time>2019-08-11T10:34:40Z</time>
      </trkpt>
      <trkpt lat="44.48969" lon="-1.09746">
        <ele>18</ele>
        <time>2019-08-11T10:34:50Z</time>
      </trkpt>
      <trkpt lat="44.48959" lon="-1.09753">
        <ele>18</ele>
        <time>2019-08-11T10:34:55Z</time>
      </trkpt>
      <trkpt lat="44.48936" lon="-1.09769">
        <ele>18</ele>
        <time>2019-08-11T10:35:05Z</time>
      </trkpt>
      <trkpt lat="44.48922" lon="-1.09777">
        <ele>18</ele>
        <time>2019-08-11T10:35:10Z</time>
      </trkpt>
      <trkpt lat="44.48897" lon="-1.09796">
        <ele>18</ele>
        <time>2019-08-11T10:35:20Z</time>
      </trkpt>
      <trkpt lat="44.48884" lon="-1.09804">
        <ele>18</ele>
        <time>2019-08-11T10:35:25Z</time>
      </trkpt>
      <trkpt lat="44.48862" lon="-1.09821">
        <ele>18</ele>
        <time>2019-08-11T10:35:35Z</time>
      </trkpt>
      <trkpt lat="44.48844" lon="-1.09839">
        <ele>18</ele>
        <time>2019-08-11T10:35:45Z</time>
      </trkpt>
      <trkpt lat="44.48837" lon="-1.09847">
        <ele>18</ele>
        <time>2019-08-11T10:35:50Z</time>
      </trkpt>
      <trkpt lat="44.4882" lon="-1.09863">
        <ele>18</ele>
        <time>2019-08-11T10:36:00Z</time>
      </trkpt>
      <trkpt lat="44.48813" lon="-1.09874">
        <ele>18</ele>
        <time>2019-08-11T10:36:05Z</time>
      </trkpt>
      <trkpt lat="44.48797" lon="-1.09896">
        <ele>18</ele>
        <time>2019-08-11T10:36:15Z</time>
      </trkpt>
      <trkpt lat="44.4879" lon="-1.09906">
        <ele>18</ele>
        <time>2019-08-11T10:36:20Z</time>
      </trkpt>
      <trkpt lat="44.48775" lon="-1.09922">
        <ele>18</ele>
        <time>2019-08-11T10:36:30Z</time>
      </trkpt>
      <trkpt lat="44.48768" lon="-1.09932">
        <ele>18</ele>
        <time>2019-08-11T10:36:35Z</time>
      </trkpt>
      <trkpt lat="44.48763" lon="-1.09947">
        <ele>18</ele>
        <time>2019-08-11T10:36:45Z</time>
      </trkpt>
      <trkpt lat="44.48769" lon="-1.09951">
        <ele>18</ele>
        <time>2019-08-11T10:36:50Z</time>
      </trkpt>
      <trkpt lat="44.48786" lon="-1.09966">
        <ele>18</ele>
        <time>2019-08-11T10:37:00Z</time>
      </trkpt>
      <trkpt lat="44.48808" lon="-1.09982">
        <ele>18</ele>
        <time>2019-08-11T10:37:10Z</time>
      </trkpt>
      <trkpt lat="44.4882" lon="-1.09989">
        <ele>18</ele>
        <time>2019-08-11T10:37:15Z</time>
      </trkpt>
      <trkpt lat="44.48846" lon="-1.10001">
        <ele>18</ele>
        <time>2019-08-11T10:37:25Z</time>
      </trkpt>
      <trkpt lat="44.48859" lon="-1.10006">
        <ele>18</ele>
        <time>2019-08-11T10:37:30Z</time>
      </trkpt>
      <trkpt lat="44.48885" lon="-1.10012">
        <ele>18</ele>
        <time>2019-08-11T10:37:40Z</time>
      </trkpt>
      <trkpt lat="44.48898" lon="-1.10012">
        <ele>18</ele>
        <time>2019-08-11T10:37:45Z</time>
      </trkpt>
      <trkpt lat="44.48924" lon="-1.10017">
        <ele>18</ele>
        <time>2019-08-11T10:37:55Z</time>
      </trkpt>
      <trkpt lat="44.48937" lon="-1.1002">
        <ele>18</ele>
        <time>2019-08-11T10:38:00Z</time>
      </trkpt>
      <trkpt lat="44.48962" lon="-1.10024">
        <ele>18</ele>
        <time>2019-08-11T10:38:10Z</time>
      </trkpt>
      <trkpt lat="44.48974" lon="-1.10032">
        <ele>18</ele>
        <time>2019-08-11T10:38:15Z</time>
      </trkpt>
      <trkpt lat="44.48995" lon="-1.1005">
        <ele>18</ele>
        <time>2019-08-11T10:38:25Z</time>
      </trkpt>
      <trkpt lat="44.49005" lon="-1.10059">
        <ele>18</ele>
        <time>2019-08-11T10:38:30Z</time>
      </trkpt>
      <trkpt lat="44.49023" lon="-1.10079">
        <ele>18</ele>
        <time>2019-08-11T10:38:40Z</time>
      </trkpt>
      <trkpt lat="44.49038" lon="-1.10101">
        <ele>18</ele>
        <time>2019-08-11T10:38:50Z</time>
      </trkpt>
      <trkpt lat="44.49045" lon="-1.10109">
        <ele>18</ele>
        <time>2019-08-11T10:38:55Z</time>
      </trkpt>
      <trkpt lat="44.49064" lon="-1.10124">
        <ele>18</ele>
        <time>2019-08-11T10:39:05Z</time>
      </trkpt>
      <trkpt lat="44.49075" lon="-1.10132">
        <ele>18</ele>
        <time>2019-08-11T10:39:10Z</time>
      </trkpt>
      <trkpt lat="44.49094" lon="-1.10148">
        <ele>18</ele>
        <time>2019-08-11T10:39:20Z</time>
      </trkpt>
      <trkpt lat="44.49103" lon="-1.10157">
        <ele>18</ele>
        <time>2019-08-11T10:39:25Z</time>
      </trkpt>
      <trkpt lat="44.49121" lon="-1.10172">
        <ele>18</ele>
        <time>2019-08-11T10:39:35Z</time>
      </trkpt>
      <trkpt lat="44.49129" lon="-1.1018">
        <ele>18</ele>
        <time>2019-08-11T10:39:40Z</time>
      </trkpt>
      <trkpt lat="44.49147" lon="-1.10197">
        <ele>18</ele>
        <time>2019-08-11T10:39:50Z</time>
      </trkpt>
      <trkpt lat="44.49156" lon="-1.10205">
        <ele>18</ele>
        <time>2019-08-11T10:39:55Z</time>
      </trkpt>
      <trkpt lat="44.49178" lon="-1.10221">
        <ele>18</ele>
        <time>2019-08-11T10:40:05Z</time>
      </trkpt>
      <trkpt lat="44.49189" lon="-1.1023">
        <ele>18</ele>
        <time>2019-08-11T10:40:10Z</time>
      </trkpt>
      <trkpt lat="44.49211" lon="-1.10245">
        <ele>18</ele>
        <time>2019-08-11T10:40:20Z</time>
      </trkpt>
      <trkpt lat="44.49232" lon="-1.1026">
        <ele>18</ele>
        <time>2019-08-11T10:40:30Z</time>
      </trkpt>
      <trkpt lat="44.49242" lon="-1.10267">
        <ele>18</ele>
        <time>2019-08-11T10:40:35Z</time>
      </trkpt>
      <trkpt lat="44.49262" lon="-1.10282">
        <ele>18</ele>
        <time>2019-08-11T10:40:45Z</time>
      </trkpt>
      <trkpt lat="44.49271" lon="-1.10291">
        <ele>18</ele>
        <time>2019-08-11T10:40:50Z</time>
      </trkpt>
      <trkpt lat="44.4929" lon="-1.10309">
        <ele>18</ele>
        <time>2019-08-11T10:41:00Z</time>
      </trkpt>
      <trkpt lat="44.493" lon="-1.10317">
        <ele>18</ele>
        <time>2019-08-11T10:41:05Z</time>
      </trkpt>
      <trkpt lat="44.49318" lon="-1.10338">
        <ele>18</ele>
        <time>2019-08-11T10:41:15Z</time>
      </trkpt>
      <trkpt lat="44.49327" lon="-1.10348">
        <ele>18</ele>
        <time>2019-08-11T10:41:20Z</time>
      </trkpt>
      <trkpt lat="44.49343" lon="-1.10366">
        <ele>18</ele>
        <time>2019-08-11T10:41:30Z</time>
      </trkpt>
      <trkpt lat="44.4935" lon="-1.10374">
        <ele>18</ele>
        <time>2019-08-11T10:41:35Z</time>
      </trkpt>
      <trkpt lat="44.49366" lon="-1.10387">
        <ele>18</ele>
        <time>2019-08-11T10:41:45Z</time>
      </trkpt>
      <trkpt lat="44.49376" lon="-1.10393">
        <ele>18</ele>
        <time>2019-08-11T10:41:50Z</time>
      </trkpt>
      <trkpt lat="44.49393" lon="-1.10405">
        <ele>18</ele>
        <time>2019-08-11T10:42:00Z</time>
      </trkpt>
      <trkpt lat="44.49411" lon="-1.10412">
        <ele>18</ele>
        <time>2019-08-11T10:42:10Z</time>
      </trkpt>
      <trkpt lat="44.49423" lon="-1.10414">
        <ele>18</ele>
        <time>2019-08-11T10:42:15Z</time>
      </trkpt>
      <trkpt lat="44.49447" lon="-1.10422">
        <ele>18</ele>
        <time>2019-08-11T10:42:25Z</time>
      </trkpt>
      <trkpt lat="44.49459" lon="-1.10428">
        <ele>18</ele>
        <time>2019-08-11T10:42:30Z</time>
      </trkpt>
      <trkpt lat="44.49482" lon="-1.10441">
        <ele>18</ele>
        <time>2019-08-11T10:42:40Z</time>
      </trkpt>
      <trkpt lat="44.49493" lon="-1.10447">
        <ele>18</ele>
        <time>2019-08-11T10:42:45Z</time>
      </trkpt>
      <trkpt lat="44.49516" lon="-1.1046">
        <ele>18</ele>
        <time>2019-08-11T10:42:55Z</time>
      </trkpt>
      <trkpt lat="44.49526" lon="-1.10466">
        <ele>18</ele>
        <time>2019-08-11T10:43:00Z</time>
      </trkpt>
      <trkpt lat="44.49546" lon="-1.10479">
        <ele>18</ele>
        <time>2019-08-11T10:43:10Z</time>
      </trkpt>
      <trkpt lat="44.49556" lon="-1.10486">
        <ele>18</ele>
        <time>2019-08-11T10:43:15Z</time>
      </trkpt>
      <trkpt lat="44.49576" lon="-1.10502">
        <ele>18</ele>
        <time>2019-08-11T10:43:25Z</time>
      </trkpt>
      <trkpt lat="44.49585" lon="-1.10511">
        <ele>18</ele>
        <time>2019-08-11T10:43:30Z</time>
      </trkpt>
      <trkpt lat="44.49605" lon="-1.10528">
        <ele>18</ele>
        <time>2019-08-11T10:43:40Z</time>
      </trkpt>
      <trkpt lat="44.49625" lon="-1.10543">
        <ele>18</ele>
        <time>2019-08-11T10:43:50Z</time>
      </trkpt>
      <trkpt lat="44.49633" lon="-1.10551">
        <ele>18</ele>
        <time>2019-08-11T10:43:55Z</time>
      </trkpt>
      <trkpt lat="44.49648" lon="-1.10566">
        <ele>18</ele>
        <time>2019-08-11T10:44:05Z</time>
      </trkpt>
      <trkpt lat="44.49656" lon="-1.10572">
        <ele>18</ele>
        <time>2019-08-11T10:44:10Z</time>
      </trkpt>
      <trkpt lat="44.49675" lon="-1.10576">
        <ele>18</ele>
        <time>2019-08-11T10:44:20Z</time>
      </trkpt>
      <trkpt lat="44.49686" lon="-1.10578">
        <ele>18</ele>
        <time>2019-08-11T10:44:25Z</time>
      </trkpt>
      <trkpt lat="44.49709" lon="-1.10586">
        <ele>18</ele>
        <time>2019-08-11T10:44:35Z</time>
      </trkpt>
      <trkpt lat="44.49719" lon="-1.10591">
        <ele>18</ele>
        <time>2019-08-11T10:44:40Z</time>
      </trkpt>
      <trkpt lat="44.49738" lon="-1.10603">
        <ele>18</ele>
        <time>2019-08-11T10:44:50Z</time>
      </trkpt>
      <trkpt lat="44.49748" lon="-1.10607">
        <ele>18</ele>
        <time>2019-08-11T10:44:55Z</time>
      </trkpt>
      <trkpt lat="44.49769" lon="-1.10617">
        <ele>18</ele>
        <time>2019-08-11T10:45:05Z</time>
      </trkpt>
      <trkpt lat="44.49791" lon="-1.10629">
        <ele>18</ele>
        <time>2019-08-11T10:45:15Z</time>
      </trkpt>
      <trkpt lat="44.49801" lon="-1.10636">
        <ele>18</ele>
        <time>2019-08-11T10:45:20Z</time>
      </trkpt>
      <trkpt lat="44.4982" lon="-1.10647">
        <ele>18</ele>
        <time>2019-08-11T10:45:30Z</time>
      </trkpt>
      <trkpt lat="44.49831" lon="-1.10652">
        <ele>18</ele>
        <time>2019-08-11T10:45:35Z</time>
      </trkpt>
      <trkpt lat="44.49851" lon="-1.10661">
        <ele>18</ele>
        <time>2019-08-11T10:45:45Z</time>
      </trkpt>
      <trkpt lat="44.49861" lon="-1.10666">
        <ele>18</ele>
        <time>2019-08-11T10:45:50Z</time>
      </trkpt>
      <trkpt lat="44.4988" lon="-1.10673">
        <ele>18</ele>
        <time>2019-08-11T10:46:00Z</time>
      </trkpt>
      <trkpt lat="44.49887" lon="-1.10677">
        <ele>18</ele>
        <time>2019-08-11T10:46:05Z</time>
      </trkpt>
      <trkpt lat="44.49885" lon="-1.10684">
        <ele>18</ele>
        <time>2019-08-11T10:46:15Z</time>
      </trkpt>
      <trkpt lat="44.49881" lon="-1.10685">
        <ele>18</ele>
        <time>2019-08-11T10:46:20Z</time>
      </trkpt>
      <trkpt lat="44.49867" lon="-1.10689">
        <ele>18</ele>
        <time>2019-08-11T10:46:30Z</time>
      </trkpt>
      <trkpt lat="44.49859" lon="-1.1069">
        <ele>18</ele>
        <time>2019-08-11T10:46:35Z</time>
      </trkpt>
      <trkpt lat="44.49841" lon="-1.10686">
        <ele>18</ele>
        <time>2019-08-11T10:46:45Z</time>
      </trkpt>
      <trkpt lat="44.49823" lon="-1.10683">
        <ele>18</ele>
        <time>2019-08-11T10:46:55Z</time>
      </trkpt>
      <trkpt lat="44.49812" lon="-1.10684">
        <ele>18</ele>
        <time>2019-08-11T10:47:00Z</time>
      </trkpt>
      <trkpt lat="44.49799" lon="-1.10698">
        <ele>18</ele>
        <time>2019-08-11T10:47:10Z</time>
      </trkpt>
      <trkpt lat="44.49793" lon="-1.10707">
        <ele>18</ele>
        <time>2019-08-11T10:47:15Z</time>
      </trkpt>
      <trkpt lat="44.49784" lon="-1.10726">
        <ele>18</ele>
        <time>2019-08-11T10:47:25Z</time>
      </trkpt>
      <trkpt lat="44.49779" lon="-1.10735">
        <ele>18</ele>
        <time>2019-08-11T10:47:30Z</time>
      </trkpt>
      <trkpt lat="44.49769" lon="-1.10756">
        <ele>18</ele>
        <time>2019-08-11T10:47:40Z</time>
      </trkpt>
      <trkpt lat="44.49763" lon="-1.10763">
        <ele>18</ele>
        <time>2019-08-11T10:47:45Z</time>
      </trkpt>
      <trkpt lat="44.49748" lon="-1.10777">
        <ele>18</ele>
        <time>2019-08-11T10:47:55Z</time>
      </trkpt>
      <trkpt lat="44.49739" lon="-1.10786">
        <ele>18</ele>
        <time>2019-08-11T10:48:00Z</time>
      </trkpt>
      <trkpt lat="44.49719" lon="-1.10801">
        <ele>18</ele>
        <time>2019-08-11T10:48:10Z</time>
      </trkpt>
      <trkpt lat="44.49708" lon="-1.10809">
        <ele>18</ele>
        <time>2019-08-11T10:48:15Z</time>
      </trkpt>
      <trkpt lat="44.49685" lon="-1.10824">
        <ele>18</ele>
        <time>2019-08-11T10:48:25Z</time>
      </trkpt>
      <trkpt lat="44.4966" lon="-1.10838">
        <ele>18</ele>
        <time>2019-08-11T10:48:35Z</time>
      </trkpt>
      <trkpt lat="44.49648" lon="-1.10846">
        <ele>18</ele>
        <time>2019-08-11T10:48:40Z</time>
      </trkpt>
      <trkpt lat="44.49627" lon="-1.10862">
        <ele>18</ele>
        <time>2019-08-11T10:48:50Z</time>
      </trkpt>
      <trkpt lat="44.49616" lon="-1.10868">
        <ele>18</ele>
        <time>2019-08-11T10:48:55Z</time>
      </trkpt>
      <trkpt lat="44.49594" lon="-1.10884">
        <ele>18</ele>
        <time>2019-08-11T10:49:05Z</time>
      </trkpt>
      <trkpt lat="44.49585" lon="-1.10894">
        <ele>18</ele>
        <time>2019-08-11T10:49:10Z</time>
      </trkpt>
      <trkpt lat="44.49567" lon="-1.10915">
        <ele>18</ele>
        <time>2019-08-11T10:49:20Z</time>
      </trkpt>
      <trkpt lat="44.49559" lon="-1.10926">
        <ele>18</ele>
        <time>2019-08-11T10:49:25Z</time>
      </trkpt>
      <trkpt lat="44.49542" lon="-1.10945">
        <ele>18</ele>
        <time>2019-08-11T10:49:35Z</time>
      </trkpt>
      <trkpt lat="44.49533" lon="-1.10951">
        <ele>18</ele>
        <time>2019-08-11T10:49:40Z</time>
      </trkpt>
      <trkpt lat="44.49512" lon="-1.10964">
        <ele>18</ele>
        <time>2019-08-11T10:49:50Z</time>
      </trkpt>
      <trkpt lat="44.49502" lon="-1.10971">
        <ele>18</ele>
        <time>2019-08-11T10:49:55Z</time>
      </trkpt>
      <trkpt lat="44.49484" lon="-1.10989">
        <ele>18</ele>
        <time>2019-08-11T10:50:05Z</time>
      </trkpt>
      <trkpt lat="44.49467" lon="-1.11009">
        <ele>18</ele>
        <time>2019-08-11T10:50:15Z</time>
      </trkpt>
      <trkpt lat="44.49459" lon="-1.11018">
        <ele>18</ele>
        <time>2019-08-11T10:50:20Z</time>
      </trkpt>
      <trkpt lat="44.49442" lon="-1.11037">
        <ele>18</ele>
        <time>2019-08-11T10:50:30Z</time>
      </trkpt>
      <trkpt lat="44.49434" lon="-1.11044">
        <ele>18</ele>
        <time>2019-08-11T10:50:35Z</time>
      </trkpt>
      <trkpt lat="44.49415" lon="-1.11052">
        <ele>18</ele>
        <time>2019-08-11T10:50:45Z</time>
      </trkpt>
      <trkpt lat="44.49404" lon="-1.11058">
        <ele>18</ele>
        <time>2019-08-11T10:50:50Z</time>
      </trkpt>
      <trkpt lat="44.49383" lon="-1.11065">
        <ele>18</ele>
        <time>2019-08-11T10:51:00Z</time>
      </trkpt>
      <trkpt lat="44.49372" lon="-1.11069">
        <ele>18</ele>
        <time>2019-08-11T10:51:05Z</time>
      </trkpt>
      <trkpt lat="44.49349" lon="-1.11077">
        <ele>18</ele>
        <time>2019-08-11T10:51:15Z</time>
      </trkpt>
      <trkpt lat="44.49338" lon="-1.11081">
        <ele>18</ele>
        <time>2019-08-11T10:51:20Z</time>
      </trkpt>
      <trkpt lat="44.49315" lon="-1.11092">
        <ele>18</ele>
        <time>2019-08-11T10:51:30Z</time>
      </trkpt>
      <trkpt lat="44.49304" lon="-1.11096">
        <ele>18</ele>
        <time>2019-08-11T10:51:35Z</time>
      </trkpt>
      <trkpt lat="44.49283" lon="-1.11108">
        <ele>18</ele>
        <time>2019-08-11T10:51:45Z</time>
      </trkpt>
      <trkpt lat="44.49263" lon="-1.11115">
        <ele>18</ele>
        <time>2019-08-11T10:51:55Z</time>
      </trkpt>
      <trkpt lat="44.49254" lon="-1.11119">
        <ele>18</ele>
        <time>2019-08-11T10:52:00Z</time>
      </trkpt>
      <trkpt lat="44.49238" lon="-1.11123">
        <ele>18</ele>
        <time>2019-08-11T10:52:10Z</time>
      </trkpt>
      <trkpt lat="44.49231" lon="-1.11128">
        <ele>18</ele>
        <time>2019-08-11T10:52:15Z</time>
      </trkpt>
      <trkpt lat="44.4922" lon="-1.11144">
        <ele>18</ele>
        <time>2019-08-11T10:52:25Z</time>
      </trkpt>
      <trkpt lat="44.49216" lon="-1.11155">
        <ele>18</ele>
        <time>2019-08-11T10:52:30Z</time>
      </trkpt>
      <trkpt lat="44.49207" lon="-1.11175">
        <ele>18</ele>
        <time>2019-08-11T10:52:40Z</time>
      </trkpt>
      <trkpt lat="44.49202" lon="-1.11184">
        <ele>18</ele>
        <time>2019-08-11T10:52:45Z</time>
      </trkpt>
      <trkpt lat="44.49191" lon="-1.11203">
        <ele>18</ele>
        <time>2019-08-11T10:52:55Z</time>
      </trkpt>
      <trkpt lat="44.49187" lon="-1.11213">
        <ele>18</ele>
        <time>2019-08-11T10:53:00Z</time>
      </trkpt>
      <trkpt lat="44.49176" lon="-1.11233">
        <ele>18</ele>
        <time>2019-08-11T10:53:10Z</time>
      </trkpt>
      <trkpt lat="44.49164" lon="-1.1125">
        <ele>18</ele>
        <time>2019-08-11T10:53:20Z</time>
      </trkpt>
      <trkpt lat="44.49158" lon="-1.11257">
        <ele>18</ele>
        <time>2019-08-11T10:53:25Z</time>
      </trkpt>
      <trkpt lat="44.49146" lon="-1.11273">
        <ele>18</ele>
        <time>2019-08-11T10:53:35Z</time>
      </trkpt>
      <trkpt lat="44.4914" lon="-1.11281">
        <ele>18</ele>
        <time>2019-08-11T10:53:40Z</time>
      </trkpt>
      <trkpt lat="44.49128" lon="-1.11292">
        <ele>18</ele>
        <time>2019-08-11T10:53:50Z</time>
      </trkpt>
      <trkpt lat="44.49121" lon="-1.11297">
        <ele>18</ele>
        <time>2019-08-11T10:53:55Z</time>
      </trkpt>
      <trkpt lat="44.49112" lon="-1.11312">
        <ele>18</ele>
        <time>2019-08-11T10:54:05Z</time>
      </trkpt>
      <trkpt lat="44.49108" lon="-1.11321">
        <ele>18</ele>
        <time>2019-08-11T10:54:10Z</time>
      </trkpt>
      <trkpt lat="44.49101" lon="-1.11333">
        <ele>18</ele>
        <time>2019-08-11T10:54:20Z</time>
      </trkpt>
      <trkpt lat="44.49097" lon="-1.11339">
        <ele>18</ele>
        <time>2019-08-11T10:54:25Z</time>
      </trkpt>
      <trkpt lat="44.49087" lon="-1.11349">
        <ele>18</ele>
        <time>2019-08-11T10:54:35Z</time>
      </trkpt>
      <trkpt lat="44.49082" lon="-1.11353">
        <ele>18</ele>
        <time>2019-08-11T10:54:40Z</time>
      </trkpt>
      <trkpt lat="44.49072" lon="-1.11363">
        <ele>18</ele>
        <time>2019-08-11T10:54:50Z</time>
      </trkpt>
      <trkpt lat="44.49061" lon="-1.11372">
        <ele>18</ele>
        <time>2019-08-11T10:55:00Z</time>
      </trkpt>
      <trkpt lat="44.49054" lon="-1.11376">
        <ele>18</ele>
        <time>2019-08-11T10:55:05Z</time>
      </trkpt>
      <trkpt lat="44.4904" lon="-1.11388">
        <ele>18</ele>
        <time>2019-08-11T10:55:15Z</time>
      </trkpt>
      <trkpt lat="44.49033" lon="-1.11396">
        <ele>18</ele>
        <time>2019-08-11T10:55:20Z</time>
      </trkpt>
      <trkpt lat="44.4902" lon="-1.11411">
        <ele>18</ele>
        <time>2019-08-11T10:55:30Z</time>
      </trkpt>
      <trkpt lat="44.49014" lon="-1.1142">
        <ele>18</ele>
        <time>2019-08-11T10:55:35Z</time>
      </trkpt>
      <trkpt lat="44.49001" lon="-1.11438">
        <ele>18</ele>
        <time>2019-08-11T10:55:45Z</time>
      </trkpt>
      <trkpt lat="44.48996" lon="-1.11448">
        <ele>18</ele>
        <time>2019-08-11T10:55:50Z</time>
      </trkpt>
      <trkpt lat="44.48985" lon="-1.11465">
        <ele>18</ele>
        <time>2019-08-11T10:56:00Z</time>
      </trkpt>
      <trkpt lat="44.48979" lon="-1.11473">
        <ele>18</ele>
        <time>2019-08-11T10:56:05Z</time>
      </trkpt>
      <trkpt lat="44.48968" lon="-1.11492">
        <ele>18</ele>
        <time>2019-08-11T10:56:15Z</time>
      </trkpt>
      <trkpt lat="44.48963" lon="-1.11501">
        <ele>18</ele>
        <time>2019-08-11T10:56:20Z</time>
      </trkpt>
      <trkpt lat="44.48953" lon="-1.11518">
        <ele>18</ele>
        <time>2019-08-11T10:56:30Z</time>
      </trkpt>
      <trkpt lat="44.48943" lon="-1.11537">
        <ele>18</ele>
        <time>2019-08-11T10:56:40Z</time>
      </trkpt>
      <trkpt lat="44.4894" lon="-1.11543">
        <ele>18</ele>
        <time>2019-08-11T10:56:45Z</time>
      </trkpt>
      <trkpt lat="44.48932" lon="-1.11553">
        <ele>18</ele>
        <time>2019-08-11T10:56:55Z</time>
      </trkpt>
      <trkpt lat="44.48928" lon="-1.11557">
        <ele>18</ele>
        <time>2019-08-11T10:57:00Z</time>
      </trkpt>
      <trkpt lat="44.48918" lon="-1.11563">
        <ele>18</ele>
        <time>2019-08-11T10:57:10Z</time>
      </trkpt>
      <trkpt lat="44.48911" lon="-1.11566">
        <ele>18</ele>
        <time>2019-08-11T10:57:15Z</time>
      </trkpt>
      <trkpt lat="44.48898" lon="-1.11573">
        <ele>18</ele>
        <time>2019-08-11T10:57:25Z</time>
      </trkpt>
      <trkpt lat="44.48891" lon="-1.11576">
        <ele>18</ele>
        <time>2019-08-11T10:57:30Z</time>
      </trkpt>
      <trkpt lat="44.48876" lon="-1.11583">
        <ele>18</ele>
        <time>2019-08-11T10:57:40Z</time>
      </trkpt>
      <trkpt lat="44.48868" lon="-1.11586">
        <ele>18</ele>
        <time>2019-08-11T10:57:45Z</time>
      </trkpt>
      <trkpt lat="44.48852" lon="-1.11596">
        <ele>18</ele>
        <time>2019-08-11T10:57:55Z</time>
      </trkpt>
      <trkpt lat="44.48843" lon="-1.11602">
        <ele>18</ele>
        <time>2019-08-11T10:58:00Z</time>
      </trkpt>
      <trkpt lat="44.48827" lon="-1.11616">
        <ele>18</ele>
        <time>2019-08-11T10:58:10Z</time>
      </trkpt>
      <trkpt lat="44.4881" lon="-1.11628">
        <ele>18</ele>
        <time>2019-08-11T10:58:20Z</time>
      </trkpt>
      <trkpt lat="44.48803" lon="-1.11635">
        <ele>18</ele>
        <time>2019-08-11T10:58:25Z</time>
      </trkpt>
      <trkpt lat="44.48789" lon="-1.11648">
        <ele>18</ele>
        <time>2019-08-11T10:58:35Z</time>
      </trkpt>
      <trkpt lat="44.48783" lon="-1.11654">
        <ele>18</ele>
        <time>2019-08-11T10:58:40Z</time>
      </trkpt>
      <trkpt lat="44.4877" lon="-1.11666">
        <ele>18</ele>
        <time>2019-08-11T10:58:50Z</time>
      </trkpt>
      <trkpt lat="44.48763" lon="-1.11672">
        <ele>18</ele>
        <time>2019-08-11T10:58:55Z</time>
      </trkpt>
      <trkpt lat="44.4875" lon="-1.11683">
        <ele>18</ele>
        <time>2019-08-11T10:59:05Z</time>
      </trkpt>
      <trkpt lat="44.48745" lon="-1.1169">
        <ele>18</ele>
        <time>2019-08-11T10:59:10Z</time>
      </trkpt>
      <trkpt lat="44.48734" lon="-1.11704">
        <ele>18</ele>
        <time>2019-08-11T10:59:20Z</time>
      </trkpt>
      <trkpt lat="44.48728" lon="-1.1171">
        <ele>18</ele>
        <time>2019-08-11T10:59:25Z</time>
      </trkpt>
      <trkpt lat="44.48714" lon="-1.11723">
        <ele>18</ele>
        <time>2019-08-11T10:59:35Z</time>
      </trkpt>
      <trkpt lat="44.487" lon="-1.11742">
        <ele>18</ele>
        <time>2019-08-11T10:59:45Z</time>
      </trkpt>
      <trkpt lat="44.48693" lon="-1.11751">
        <ele>18</ele>
        <time>2019-08-11T10:59:50Z</time>
      </trkpt>
      <trkpt lat="44.48678" lon="-1.11769">
        <ele>18</ele>
        <time>2019-08-11T11:00:00Z</time>
      </trkpt>
      <trkpt lat="44.48672" lon="-1.11779">
        <ele>18</ele>
        <time>2019-08-11T11:00:05Z</time>
      </trkpt>
      <trkpt lat="44.48658" lon="-1.11802">
        <ele>18</ele>
        <time>2019-08-11T11:00:15Z</time>
      </trkpt>
      <trkpt lat="44.48653" lon="-1.11814">
        <ele>18</ele>
        <time>2019-08-11T11:00:20Z</time>
      </trkpt>
      <trkpt lat="44.48642" lon="-1.11841">
        <ele>18</ele>
        <time>2019-08-11T11:00:30Z</time>
      </trkpt>
      <trkpt lat="44.48637" lon="-1.11853">
        <ele>18</ele>
        <time>2019-08-11T11:00:35Z</time>
      </trkpt>
      <trkpt lat="44.48627" lon="-1.11876">
        <ele>18</ele>
        <time>2019-08-11T11:00:45Z</time>
      </trkpt>
      <trkpt lat="44.48623" lon="-1.11885">
        <ele>18</ele>
        <time>2019-08-11T11:00:50Z</time>
      </trkpt>
      <trkpt lat="44.48614" lon="-1.11905">
        <ele>18</ele>
        <time>2019-08-11T11:01:00Z</time>
      </trkpt>
      <trkpt lat="44.4861" lon="-1.11915">
        <ele>18</ele>
        <time>2019-08-11T11:01:05Z</time>
      </trkpt>
      <trkpt lat="44.48604" lon="-1.11934">
        <ele>18</ele>
        <time>2019-08-11T11:01:15Z</time>
      </trkpt>
      <trkpt lat="44.48598" lon="-1.1195">
        <ele>18</ele>
        <time>2019-08-11T11:01:25Z</time>
      </trkpt>
      <trkpt lat="44.48594" lon="-1.11959">
        <ele>18</ele>
        <time>2019-08-11T11:01:30Z</time>
      </trkpt>
      <trkpt lat="44.48586" lon="-1.11975">
        <ele>18</ele>
        <time>2019-08-11T11:01:40Z</time>
      </trkpt>
      <trkpt lat="44.48584" lon="-1.11982">
        <ele>18</ele>
        <time>2019-08-11T11:01:45Z</time>
      </trkpt>
      <trkpt lat="44.48576" lon="-1.11993">
        <ele>18</ele>
        <time>2019-08-11T11:01:55Z</time>
      </trkpt>
      <trkpt lat="44.48571" lon="-1.12">
        <ele>18</ele>
        <time>2019-08-11T11:02:00Z</time>
      </trkpt>
      <trkpt lat="44.48559" lon="-1.12019">
        <ele>18</ele>
        <time>2019-08-11T11:02:10Z</time>
      </trkpt>
      <trkpt lat="44.48553" lon="-1.12028">
        <ele>18</ele>
        <time>2019-08-11T11:02:15Z</time>
      </trkpt>
      <trkpt lat="44.48543" lon="-1.12046">
        <ele>18</ele>
        <time>2019-08-11T11:02:25Z</time>
      </trkpt>
      <trkpt lat="44.48538" lon="-1.12054">
        <ele>18</ele>
        <time>2019-08-11T11:02:30Z</time>
      </trkpt>
      <trkpt lat="44.48527" lon="-1.1207">
        <ele>18</ele>
        <time>2019-08-11T11:02:40Z</time>
      </trkpt>
      <trkpt lat="44.48521" lon="-1.12078">
        <ele>18</ele>
        <time>2019-08-11T11:02:45Z</time>
      </trkpt>
      <trkpt lat="44.48508" lon="-1.12092">
        <ele>18</ele>
        <time>2019-08-11T11:02:55Z</time>
      </trkpt>
      <trkpt lat="44.48496" lon="-1.12105">
        <ele>18</ele>
        <time>2019-08-11T11:03:05Z</time>
      </trkpt>
      <trkpt lat="44.4849" lon="-1.12111">
        <ele>18</ele>
        <time>2019-08-11T11:03:10Z</time>
      </trkpt>
      <trkpt lat="44.48479" lon="-1.12121">
        <ele>18</ele>
        <time>2019-08-11T11:03:20Z</time>
      </trkpt>
      <trkpt lat="44.48475" lon="-1.12127">
        <ele>18</ele>
        <time>2019-08-11T11:03:25Z</time>
      </trkpt>
      <trkpt lat="44.48474" lon="-1.12138">
        <ele>18</ele>
        <time>2019-08-11T11:03:35Z</time>
      </trkpt>
      <trkpt lat="44.48476" lon="-1.12141">
        <ele>18</ele>
        <time>2019-08-11T11:03:40Z</time>
      </trkpt>
      <trkpt lat="44.48482" lon="-1.12139">
        <ele>18</ele>
        <time>2019-08-11T11:03:50Z</time>
      </trkpt>
      <trkpt lat="44.48485" lon="-1.12139">
        <ele>18</ele>
        <time>2019-08-11T11:03:55Z</time>
      </trkpt>
      <trkpt lat="44.48495" lon="-1.1214">
        <ele>18</ele>
        <time>2019-08-11T11:04:05Z</time>
      </trkpt>
      <trkpt lat="44.485" lon="-1.12143">
        <ele>18</ele>
        <time>2019-08-11T11:04:10Z</time>
      </trkpt>
      <trkpt lat="44.48512" lon="-1.12141">
        <ele>18</ele>
        <time>2019-08-11T11:04:20Z</time>
      </trkpt>
      <trkpt lat="44.48521" lon="-1.1214">
        <ele>18</ele>
        <time>2019-08-11T11:04:25Z</time>
      </trkpt>
      <trkpt lat="44.48541" lon="-1.12139">
        <ele>18</ele>
        <time>2019-08-11T11:04:35Z</time>
      </trkpt>
      <trkpt lat="44.48562" lon="-1.1214">
        <ele>18</ele>
        <time>2019-08-11T11:04:45Z</time>
      </trkpt>
      <trkpt lat="44.48573" lon="-1.12139">
        <ele>18</ele>
        <time>2019-08-11T11:04:50Z</time>
      </trkpt>
      <trkpt lat="44.48593" lon="-1.12139">
        <ele>18</ele>
        <time>2019-08-11T11:05:00Z</time>
      </trkpt>
      <trkpt lat="44.48602" lon="-1.12135">
        <ele>18</ele>
        <time>2019-08-11T11:05:05Z</time>
      </trkpt>
      <trkpt lat="44.48618" lon="-1.12123">
        <ele>18</ele>
        <time>2019-08-11T11:05:15Z</time>
      </trkpt>
      <trkpt lat="44.48627" lon="-1.12117">
        <ele>18</ele>
        <time>2019-08-11T11:05:20Z</time>
      </trkpt>
      <trkpt lat="44.48643" lon="-1.12104">
        <ele>18</ele>
        <time>2019-08-11T11:05:30Z</time>
      </trkpt>
      <trkpt lat="44.48652" lon="-1.121">
        <ele>18</ele>
        <time>2019-08-11T11:05:35Z</time>
      </trkpt>
      <trkpt lat="44.48671" lon="-1.12093">
        <ele>18</ele>
        <time>2019-08-11T11:05:45Z</time>
      </trkpt>
      <trkpt lat="44.4868" lon="-1.1209">
        <ele>18</ele>
        <time>2019-08-11T11:05:50Z</time>
      </trkpt>
      <trkpt lat="44.487" lon="-1.12085">
        <ele>18</ele>
        <time>2019-08-11T11:06:00Z</time>
      </trkpt>
      <trkpt lat="44.48709" lon="-1.12081">
        <ele>18</ele>
        <time>2019-08-11T11:06:05Z</time>
      </trkpt>
      <trkpt lat="44.48726" lon="-1.1207">
        <ele>18</ele>
        <time>2019-08-11T11:06:15Z</time>
      </trkpt>
      <trkpt lat="44.48742" lon="-1.12059">
        <ele>18</ele>
        <time>2019-08-11T11:06:25Z</time>
      </trkpt>
      <trkpt lat="44.4875" lon="-1.12055">
        <ele>18</ele>
        <time>2019-08-11T11:06:30Z</time>
      </trkpt>
      <trkpt lat="44.48767" lon="-1.12051">
        <ele>18</ele>
        <time>2019-08-11T11:06:40Z</time>
      </trkpt>
      <trkpt lat="44.48776" lon="-1.12052">
        <ele>18</ele>
        <time>2019-08-11T11:06:45Z</time>
      </trkpt>
      <trkpt lat="44.4879" lon="-1.12058">
        <ele>18</ele>
        <time>2019-08-11T11:06:55Z</time>
      </trkpt>
      <trkpt lat="44.48797" lon="-1.12061">
        <ele>18</ele>
        <time>2019-08-11T11:07:00Z</time>
      </trkpt>
      <trkpt lat="44.48811" lon="-1.12069">
        <ele>18</ele>
        <time>2019-08-11T11:07:10Z</time>
      </trkpt>
      <trkpt lat="44.48818" lon="-1.12072">
        <ele>18</ele>
        <time>2019-08-11T11:07:15Z</time>
      </trkpt>
      <trkpt lat="44.48831" lon="-1.12077">
        <ele>18</ele>
        <time>2019-08-11T11:07:25Z</time>
      </trkpt>
      <trkpt lat="44.48838" lon="-1.12078">
        <ele>18</ele>
        <time>2019-08-11T11:07:30Z</time>
      </trkpt>
      <trkpt lat="44.48852" lon="-1.12079">
        <ele>18</ele>
        <time>2019-08-11T11:07:40Z</time>
      </trkpt>
      <trkpt lat="44.48867" lon="-1.1208">
        <ele>18</ele>
        <time>2019-08-11T11:07:50Z</time>
      </trkpt>
      <trkpt lat="44.48874" lon="-1.12081">
        <ele>18</ele>
        <time>2019-08-11T11:07:55Z</time>
      </trkpt>
      <trkpt lat="44.48888" lon="-1.12083">
        <ele>18</ele>
        <time>2019-08-11T11:08:05Z</time>
      </trkpt>
      <trkpt lat="44.48895" lon="-1.12084">
        <ele>18</ele>
        <time>2019-08-11T11:08:10Z</time>
      </trkpt>
      <trkpt lat="44.48908" lon="-1.1209">
        <ele>18</ele>
        <time>2019-08-11T11:08:20Z</time>
      </trkpt>
      <trkpt lat="44.48913" lon="-1.12093">
        <ele>18</ele>
        <time>2019-08-11T11:08:25Z</time>
      </trkpt>
      <trkpt lat="44.48923" lon="-1.12098">
        <ele>18</ele>
        <time>2019-08-11T11:08:35Z</time>
      </trkpt>
      <trkpt lat="44.48927" lon="-1.12098">
        <ele>18</ele>
        <time>2019-08-11T11:08:40Z</time>
      </trkpt>
      <trkpt lat="44.48939" lon="-1.121">
        <ele>18</ele>
        <time>2019-08-11T11:08:50Z</time>
      </trkpt>
      <trkpt lat="44.48944" lon="-1.12103">
        <ele>18</ele>
        <time>2019-08-11T11:08:55Z</time>
      </trkpt>
      <trkpt lat="44.48954" lon="-1.12108">
        <ele>18</ele>
        <time>2019-08-11T11:09:05Z</time>
      </trkpt>
      <trkpt lat="44.48959" lon="-1.12111">
        <ele>18</ele>
        <time>2019-08-11T11:09:10Z</time>
      </trkpt>
      <trkpt lat="44.48967" lon="-1.12113">
        <ele>18</ele>
        <time>2019-08-11T11:09:20Z</time>
      </trkpt>
      <trkpt lat="44.48978" lon="-1.12113">
        <ele>18</ele>
        <time>2019-08-11T11:09:30Z</time>
      </trkpt>
      <trkpt lat="44.48984" lon="-1.12113">
        <ele>18</ele>
        <time>2019-08-11T11:09:35Z</time>
      </trkpt>
      <trkpt lat="44.48996" lon="-1.12113">
        <ele>18</ele>
        <time>2019-08-11T11:09:45Z</time>
      </trkpt>
      <trkpt lat="44.49003" lon="-1.12113">
        <ele>18</ele>
        <time>2019-08-11T11:09:50Z</time>
      </trkpt>
      <trkpt lat="44.49014" lon="-1.12112">
        <ele>18</ele>
        <time>2019-08-11T11:10:00Z</time>
      </trkpt>
      <trkpt lat="44.4902" lon="-1.12112">
        <ele>18</ele>
        <time>2019-08-11T11:10:05Z</time>
      </trkpt>
      <trkpt lat="44.49031" lon="-1.12111">
        <ele>18</ele>
        <time>2019-08-11T11:10:15Z</time>
      </trkpt>
      <trkpt lat="44.49036" lon="-1.12111">
        <ele>18</ele>
        <time>2019-08-11T11:10:20Z</time>
      </trkpt>
      <trkpt lat="44.49048" lon="-1.1211">
        <ele>18</ele>
        <time>2019-08-11T11:10:30Z</time>
      </trkpt>
      <trkpt lat="44.49054" lon="-1.12109">
        <ele>18</ele>
        <time>2019-08-11T11:10:35Z</time>
      </trkpt>
      <trkpt lat="44.49067" lon="-1.1211">
        <ele>18</ele>
        <time>2019-08-11T11:10:45Z</time>
      </trkpt>
      <trkpt lat="44.49073" lon="-1.1211">
        <ele>18</ele>
        <time>2019-08-11T11:10:50Z</time>
      </trkpt>
      <trkpt lat="44.49087" lon="-1.12107">
        <ele>18</ele>
        <time>2019-08-11T11:11:00Z</time>
      </trkpt>
      <trkpt lat="44.49098" lon="-1.12095">
        <ele>18</ele>
        <time>2019-08-11T11:11:10Z</time>
      </trkpt>
      <trkpt lat="44.49103" lon="-1.12089">
        <ele>18</ele>
        <time>2019-08-11T11:11:15Z</time>
      </trkpt>
      <trkpt lat="44.49112" lon="-1.12074">
        <ele>18</ele>
        <time>2019-08-11T11:11:25Z</time>
      </trkpt>
      <trkpt lat="44.49117" lon="-1.12066">
        <ele>18</ele>
        <time>2019-08-11T11:11:30Z</time>
      </trkpt>
      <trkpt lat="44.49127" lon="-1.1205">
        <ele>18</ele>
        <time>2019-08-11T11:11:40Z</time>
      </trkpt>
      <trkpt lat="44.49133" lon="-1.12042">
        <ele>18</ele>
        <time>2019-08-11T11:11:45Z</time>
      </trkpt>
      <trkpt lat="44.49146" lon="-1.12026">
        <ele>18</ele>
        <time>2019-08-11T11:11:55Z</time>
      </trkpt>
      <trkpt lat="44.4915" lon="-1.12017">
        <ele>18</ele>
        <time>2019-08-11T11:12:00Z</time>
      </trkpt>
      <trkpt lat="44.49161" lon="-1.11998">
        <ele>18</ele>
        <time>2019-08-11T11:12:10Z</time>
      </trkpt>
      <trkpt lat="44.49168" lon="-1.11989">
        <ele>18</ele>
        <time>2019-08-11T11:12:15Z</time>
      </trkpt>
      <trkpt lat="44.49179" lon="-1.11973">
        <ele>18</ele>
        <time>2019-08-11T11:12:25Z</time>
      </trkpt>
      <trkpt lat="44.49184" lon="-1.11965">
        <ele>18</ele>
        <time>2019-08-11T11:12:30Z</time>
      </trkpt>
      <trkpt lat="44.49191" lon="-1.11947">
        <ele>18</ele>
        <time>2019-08-11T11:12:40Z</time>
      </trkpt>
      <trkpt lat="44.49198" lon="-1.11932">
        <ele>18</ele>
        <time>2019-08-11T11:12:50Z</time>
      </trkpt>
      <trkpt lat="44.49203" lon="-1.11925">
        <ele>18</ele>
        <time>2019-08-11T11:12:55Z</time>
      </trkpt>
      <trkpt lat="44.49213" lon="-1.11912">
        <ele>18</ele>
        <time>2019-08-11T11:13:05Z</time>
      </trkpt>
      <trkpt lat="44.49218" lon="-1.11905">
        <ele>18</ele>
        <time>2019-08-11T11:13:10Z</time>
      </trkpt>
      <trkpt lat="44.49226" lon="-1.11892">
        <ele>18</ele>
        <time>2019-08-11T11:13:20Z</time>
      </trkpt>
      <trkpt lat="44.4923" lon="-1.11885">
        <ele>18</ele>
        <time>2019-08-11T11:13:25Z</time>
      </trkpt>
      <trkpt lat="44.49238" lon="-1.11872">
        <ele>18</ele>
        <time>2019-08-11T11:13:35Z</time>
      </trkpt>
      <trkpt lat="44.49241" lon="-1.11865">
        <ele>18</ele>
        <time>2019-08-11T11:13:40Z</time>
      </trkpt>
      <trkpt lat="44.49249" lon="-1.11854">
        <ele>18</ele>
        <time>2019-08-11T11:13:50Z</time>
      </trkpt>
      <trkpt lat="44.49253" lon="-1.11848">
        <ele>18</ele>
        <time>2019-08-11T11:13:55Z</time>
      </trkpt>
      <trkpt lat="44.49261" lon="-1.11837">
        <ele>18</ele>
        <time>2019-08-11T11:14:05Z</time>
      </trkpt>
      <trkpt lat="44.49264" lon="-1.11832">
        <ele>18</ele>
        <time>2019-08-11T11:14:10Z</time>
      </trkpt>
      <trkpt lat="44.49269" lon="-1.1182">
        <ele>18</ele>
        <time>2019-08-11T11:14:20Z</time>
      </trkpt>
      <trkpt lat="44.49273" lon="-1.11809">
        <ele>18</ele>
        <time>2019-08-11T11:14:30Z</time>
      </trkpt>
      <trkpt lat="44.49275" lon="-1.11803">
        <ele>18</ele>
        <time>2019-08-11T11:14:35Z</time>
      </trkpt>
      <trkpt lat="44.49281" lon="-1.11793">
        <ele>18</ele>
        <time>2019-08-11T11:14:45Z</time>
      </trkpt>
      <trkpt lat="44.49285" lon="-1.11789">
        <ele>18</ele>
        <time>2019-08-11T11:14:50Z</time>
      </trkpt>
      <trkpt lat="44.49293" lon="-1.11778">
        <ele>18</ele>
        <time>2019-08-11T11:15:00Z</time>
      </trkpt>
      <trkpt lat="44.49298" lon="-1.11773">
        <ele>18</ele>
        <time>2019-08-11T11:15:05Z</time>
      </trkpt>
      <trkpt lat="44.49305" lon="-1.11761">
        <ele>18</ele>
        <time>2019-08-11T11:15:15Z</time>
      </trkpt>
      <trkpt lat="44.49308" lon="-1.11755">
        <ele>18</ele>
        <time>2019-08-11T11:15:20Z</time>
      </trkpt>
      <trkpt lat="44.49314" lon="-1.11746">
        <ele>18</ele>
        <time>2019-08-11T11:15:30Z</time>
      </trkpt>
      <trkpt lat="44.49317" lon="-1.11742">
        <ele>18</ele>
        <time>2019-08-11T11:15:35Z</time>
      </trkpt>
      <trkpt lat="44.49323" lon="-1.11734">
        <ele>18</ele>
        <time>2019-08-11T11:15:45Z</time>
      </trkpt>
      <trkpt lat="44.49327" lon="-1.11726">
        <ele>18</ele>
        <time>2019-08-11T11:15:55Z</time>
      </trkpt>
      <trkpt lat="44.49329" lon="-1.11722">
        <ele>18</ele>
        <time>2019-08-11T11:16:00Z</time>
      </trkpt>
      <trkpt lat="44.49334" lon="-1.11712">
        <ele>18</ele>
        <time>2019-08-11T11:16:10Z</time>
      </trkpt>
      <trkpt lat="44.49336" lon="-1.11708">
        <ele>18</ele>
        <time>2019-08-11T11:16:15Z</time>
      </trkpt>
      <trkpt lat="44.49341" lon="-1.11699">
        <ele>18</ele>
        <time>2019-08-11T11:16:25Z</time>
      </trkpt>
      <trkpt lat="44.49343" lon="-1.11695">
        <ele>18</ele>
        <time>2019-08-11T11:16:30Z</time>
      </trkpt>
      <trkpt lat="44.49349" lon="-1.11686">
        <ele>18</ele>
        <time>2019-08-11T11:16:40Z</time>
      </trkpt>
      <trkpt lat="44.49351" lon="-1.11682">
        <ele>18</ele>
        <time>2019-08-11T11:16:45Z</time>
      </trkpt>
      <trkpt lat="44.49355" lon="-1.11675">
        <ele>18</ele>
        <time>2019-08-11T11:16:55Z</time>
      </trkpt>
      <trkpt lat="44.49358" lon="-1.11672">
        <ele>18</ele>
        <time>2019-08-11T11:17:00Z</time>
      </trkpt>
      <trkpt lat="44.49363" lon="-1.11664">
        <ele>18</ele>
        <time>2019-08-11T11:17:10Z</time>
      </trkpt>
      <trkpt lat="44.49365" lon="-1.11661">
        <ele>18</ele>
        <time>2019-08-11T11:17:15Z</time>
      </trkpt>
      <trkpt lat="44.49369" lon="-1.11651">
        <ele>18</ele>
        <time>2019-08-11T11:17:25Z</time>
      </trkpt>
      <trkpt lat="44.49375" lon="-1.11641">
        <ele>18</ele>
        <time>2019-08-11T11:17:35Z</time>
      </trkpt>
      <trkpt lat="44.49379" lon="-1.11636">
        <ele>18</ele>
        <time>2019-08-11T11:17:40Z</time>
      </trkpt>
      <trkpt lat="44.49388" lon="-1.11624">
        <ele>18</ele>
        <time>2019-08-11T11:17:50Z</time>
      </trkpt>
      <trkpt lat="44.49394" lon="-1.11617">
        <ele>18</ele>
        <time>2019-08-11T11:17:55Z</time>
      </trkpt>
      <trkpt lat="44.49407" lon="-1.11602">
        <ele>18</ele>
        <time>2019-08-11T11:18:05Z</time>
      </trkpt>
      <trkpt lat="44.49414" lon="-1.11593">
        <ele>18</ele>
        <time>2019-08-11T11:18:10Z</time>
      </trkpt>
      <trkpt lat="44.49428" lon="-1.11572">
        <ele>18</ele>
        <time>2019-08-11T11:18:20Z</time>
      </trkpt>
      <trkpt lat="44.49434" lon="-1.11561">
        <ele>18</ele>
        <time>2019-08-11T11:18:25Z</time>
      </trkpt>
      <trkpt lat="44.49447" lon="-1.11542">
        <ele>18</ele>
        <time>2019-08-11T11:18:35Z</time>
      </trkpt>
      <trkpt lat="44.49453" lon="-1.11532">
        <ele>18</ele>
        <time>2019-08-11T11:18:40Z</time>
      </trkpt>
      <trkpt lat="44.49464" lon="-1.11513">
        <ele>18</ele>
        <time>2019-08-11T11:18:50Z</time>
      </trkpt>
      <trkpt lat="44.49469" lon="-1.11504">
        <ele>18</ele>
        <time>2019-08-11T11:18:55Z</time>
      </trkpt>
      <trkpt lat="44.49481" lon="-1.11488">
        <ele>18</ele>
        <time>2019-08-11T11:19:05Z</time>
      </trkpt>
      <trkpt lat="44.49493" lon="-1.1147">
        <ele>18</ele>
        <time>2019-08-11T11:19:15Z</time>
      </trkpt>
      <trkpt lat="44.49498" lon="-1.1146">
        <ele>18</ele>
        <time>2019-08-11T11:19:20Z</time>
      </trkpt>
      <trkpt lat="44.49509" lon="-1.1144">
        <ele>18</ele>
        <time>2019-08-11T11:19:30Z</time>
      </trkpt>
      <trkpt lat="44.49513" lon="-1.1143">
        <ele>18</ele>
        <time>2019-08-11T11:19:35Z</time>
      </trkpt>
      <trkpt lat="44.49525" lon="-1.1141">
        <ele>18</ele>
        <time>2019-08-11T11:19:45Z</time>
      </trkpt>
      <trkpt lat="44.49531" lon="-1.114">
        <ele>18</ele>
        <time>2019-08-11T11:19:50Z</time>
      </trkpt>
      <trkpt lat="44.49541" lon="-1.11382">
        <ele>18</ele>
        <time>2019-08-11T11:20:00Z</time>
      </trkpt>
      <trkpt lat="44.49546" lon="-1.11373">
        <ele>18</ele>
        <time>2019-08-11T11:20:05Z</time>
      </trkpt>
      <trkpt lat="44.49556" lon="-1.11357">
        <ele>18</ele>
        <time>2019-08-11T11:20:15Z</time>
      </trkpt>
      <trkpt lat="44.4956" lon="-1.11349">
        <ele>18</ele>
        <time>2019-08-11T11:20:20Z</time>
      </trkpt>
      <trkpt lat="44.49568" lon="-1.11334">
        <ele>18</ele>
        <time>2019-08-11T11:20:30Z</time>
      </trkpt>
      <trkpt lat="44.49572" lon="-1.11326">
        <ele>18</ele>
        <time>2019-08-11T11:20:35Z</time>
      </trkpt>
      <trkpt lat="44.49582" lon="-1.11311">
        <ele>18</ele>
        <time>2019-08-11T11:20:45Z</time>
      </trkpt>
      <trkpt lat="44.49594" lon="-1.11294">
        <ele>18</ele>
        <time>2019-08-11T11:20:55Z</time>
      </trkpt>
      <trkpt lat="44.496" lon="-1.11286">
        <ele>18</ele>
        <time>2019-08-11T11:21:00Z</time>
      </trkpt>
      <trkpt lat="44.49612" lon="-1.1127">
        <ele>18</ele>
        <time>2019-08-11T11:21:10Z</time>
      </trkpt>
      <trkpt lat="44.49617" lon="-1.11262">
        <ele>18</ele>
        <time>2019-08-11T11:21:15Z</time>
      </trkpt>
      <trkpt lat="44.49627" lon="-1.11247">
        <ele>18</ele>
        <time>2019-08-11T11:21:25Z</time>
      </trkpt>
      <trkpt lat="44.49632" lon="-1.11241">
        <ele>18</ele>
        <time>2019-08-11T11:21:30Z</time>
      </trkpt>
      <trkpt lat="44.49641" lon="-1.11228">
        <ele>18</ele>
        <time>2019-08-11T11:21:40Z</time>
      </trkpt>
      <trkpt lat="44.49646" lon="-1.11221">
        <ele>18</ele>
        <time>2019-08-11T11:21:45Z</time>
      </trkpt>
      <trkpt lat="44.49655" lon="-1.11205">
        <ele>18</ele>
        <time>2019-08-11T11:21:55Z</time>
      </trkpt>
      <trkpt lat="44.49659" lon="-1.11197">
        <ele>18</ele>
        <time>2019-08-11T11:22:00Z</time>
      </trkpt>
      <trkpt lat="44.4967" lon="-1.1118">
        <ele>18</ele>
        <time>2019-08-11T11:22:10Z</time>
      </trkpt>
      <trkpt lat="44.49676" lon="-1.11171">
        <ele>18</ele>
        <time>2019-08-11T11:22:15Z</time>
      </trkpt>
      <trkpt lat="44.49687" lon="-1.11158">
        <ele>18</ele>
        <time>2019-08-11T11:22:25Z</time>
      </trkpt>
      <trkpt lat="44.49698" lon="-1.11144">
        <ele>18</ele>
        <time>2019-08-11T11:22:35Z</time>
      </trkpt>
      <trkpt lat="44.49704" lon="-1.11139">
        <ele>18</ele>
        <time>2019-08-11T11:22:40Z</time>
      </trkpt>
      <trkpt lat="44.49715" lon="-1.11129">
        <ele>18</ele>
        <time>2019-08-11T11:22:50Z</time>
      </trkpt>
      <trkpt lat="44.4972" lon="-1.11123">
        <ele>18</ele>
        <time>2019-08-11T11:22:55Z</time>
      </trkpt>
      <trkpt lat="44.4973" lon="-1.1111">
        <ele>18</ele>
        <time>2019-08-11T11:23:05Z</time>
      </trkpt>
      <trkpt lat="44.49735" lon="-1.11104">
        <ele>18</ele>
        <time>2019-08-11T11:23:10Z</time>
      </trkpt>
      <trkpt lat="44.49743" lon="-1.11092">
        <ele>18</ele>
        <time>2019-08-11T11:23:20Z</time>
      </trkpt>
      <trkpt lat="44.49748" lon="-1.11084">
        <ele>18</ele>
        <time>2019-08-11T11:23:25Z</time>
      </trkpt>
      <trkpt lat="44.49758" lon="-1.1107">
        <ele>18</ele>
        <time>2019-08-11T11:23:35Z</time>
      </trkpt>
      <trkpt lat="44.49763" lon="-1.11063">
        <ele>18</ele>
        <time>2019-08-11T11:23:40Z</time>
      </trkpt>
      <trkpt lat="44.49774" lon="-1.1105">
        <ele>18</ele>
        <time>2019-08-11T11:23:50Z</time>
      </trkpt>
      <trkpt lat="44.49784" lon="-1.11036">
        <ele>18</ele>
        <time>2019-08-11T11:24:00Z</time>
      </trkpt>
      <trkpt lat="44.49788" lon="-1.1103">
        <ele>18</ele>
        <time>2019-08-11T11:24:05Z</time>
      </trkpt>
      <trkpt lat="44.49796" lon="-1.11017">
        <ele>18</ele>
        <time>2019-08-11T11:24:15Z</time>
      </trkpt>
      <trkpt lat="44.498" lon="-1.11011">
        <ele>18</ele>
        <time>2019-08-11T11:24:20Z</time>
      </trkpt>
      <trkpt lat="44.49809" lon="-1.11001">
        <ele>18</ele>
        <time>2019-08-11T11:24:30Z</time>
      </trkpt>
      <trkpt lat="44.49813" lon="-1.10995">
        <ele>18</ele>
        <time>2019-08-11T11:24:35Z</time>
      </trkpt>
      <trkpt lat="44.49818" lon="-1.10984">
        <ele>18</ele>
        <time>2019-08-11T11:24:45Z</time>
      </trkpt>
      <trkpt lat="44.4982" lon="-1.1098">
        <ele>18</ele>
        <time>2019-08-11T11:24:50Z</time>
      </trkpt>
      <trkpt lat="44.49824" lon="-1.10972">
        <ele>18</ele>
        <time>2019-08-11T11:25:00Z</time>
      </trkpt>
      <trkpt lat="44.49826" lon="-1.10969">
        <ele>18</ele>
        <time>2019-08-11T11:25:05Z</time>
      </trkpt>
      <trkpt lat="44.49827" lon="-1.1096">
        <ele>18</ele>
        <time>2019-08-11T11:25:15Z</time>
      </trkpt>
      <trkpt lat="44.49828" lon="-1.10957">
        <ele>18</ele>
        <time>2019-08-11T11:25:20Z</time>
      </trkpt>
      <trkpt lat="44.49831" lon="-1.10951">
        <ele>18</ele>
        <time>2019-08-11T11:25:30Z</time>
      </trkpt>
      <trkpt lat="44.49835" lon="-1.10943">
        <ele>18</ele>
        <time>2019-08-11T11:25:40Z</time>
      </trkpt>
      <trkpt lat="44.49837" lon="-1.10938">
        <ele>18</ele>
        <time>2019-08-11T11:25:45Z</time>
      </trkpt>
      <trkpt lat="44.49843" lon="-1.10928">
        <ele>18</ele>
        <time>2019-08-11T11:25:55Z</time>
      </trkpt>
      <trkpt lat="44.49847" lon="-1.10924">
        <ele>18</ele>
        <time>2019-08-11T11:26:00Z</time>
      </trkpt>
      <trkpt lat="44.49855" lon="-1.10916">
        <ele>18</ele>
        <time>2019-08-11T11:26:10Z</time>
      </trkpt>
      <trkpt lat="44.49859" lon="-1.10912">
        <ele>18</ele>
        <time>2019-08-11T11:26:15Z</time>
      </trkpt>
      <trkpt lat="44.49868" lon="-1.10905">
        <ele>18</ele>
        <time>2019-08-11T11:26:25Z</time>
      </trkpt>
      <trkpt lat="44.49873" lon="-1.10902">
        <ele>18</ele>
        <time>2019-08-11T11:26:30Z</time>
      </trkpt>
      <trkpt lat="44.49881" lon="-1.10893">
        <ele>18</ele>
        <time>2019-08-11T11:26:40Z</time>
      </trkpt>
      <trkpt lat="44.49885" lon="-1.10888">
        <ele>18</ele>
        <time>2019-08-11T11:26:45Z</time>
      </trkpt>
      <trkpt lat="44.49895" lon="-1.10877">
        <ele>18</ele>
        <time>2019-08-11T11:26:55Z</time>
      </trkpt>
      <trkpt lat="44.499" lon="-1.10872">
        <ele>18</ele>
        <time>2019-08-11T11:27:00Z</time>
      </trkpt>
      <trkpt lat="44.49909" lon="-1.1086">
        <ele>18</ele>
        <time>2019-08-11T11:27:10Z</time>
      </trkpt>
      <trkpt lat="44.49918" lon="-1.10849">
        <ele>18</ele>
        <time>2019-08-11T11:27:20Z</time>
      </trkpt>
      <trkpt lat="44.49924" lon="-1.10843">
        <ele>18</ele>
        <time>2019-08-11T11:27:25Z</time>
      </trkpt>
      <trkpt lat="44.49936" lon="-1.10831">
        <ele>18</ele>
        <time>2019-08-11T11:27:35Z</time>
      </trkpt>
      <trkpt lat="44.49943" lon="-1.10825">
        <ele>18</ele>
        <time>2019-08-11T11:27:40Z</time>
      </trkpt>
      <trkpt lat="44.49957" lon="-1.10814">
        <ele>18</ele>
        <time>2019-08-11T11:27:50Z</time>
      </trkpt>
      <trkpt lat="44.49963" lon="-1.10807">
        <ele>18</ele>
        <time>2019-08-11T11:27:55Z</time>
      </trkpt>
      <trkpt lat="44.49975" lon="-1.10791">
        <ele>18</ele>
        <time>2019-08-11T11:28:05Z</time>
      </trkpt>
      <trkpt lat="44.4998" lon="-1.10784">
        <ele>18</ele>
        <time>2019-08-11T11:28:10Z</time>
      </trkpt>
      <trkpt lat="44.49991" lon="-1.10768">
        <ele>18</ele>
        <time>2019-08-11T11:28:20Z</time>
      </trkpt>
      <trkpt lat="44.49997" lon="-1.1076">
        <ele>18</ele>
        <time>2019-08-11T11:28:25Z</time>
      </trkpt>
      <trkpt lat="44.50008" lon="-1.10744">
        <ele>18</ele>
        <time>2019-08-11T11:28:35Z</time>
      </trkpt>
      <trkpt lat="44.50016" lon="-1.10736">
        <ele>18</ele>
        <time>2019-08-11T11:28:40Z</time>
      </trkpt>
      <trkpt lat="44.50032" lon="-1.10716">
        <ele>18</ele>
        <time>2019-08-11T11:28:50Z</time>
      </trkpt>
      <trkpt lat="44.50051" lon="-1.10695">
        <ele>18</ele>
        <time>2019-08-11T11:29:00Z</time>
      </trkpt>
      <trkpt lat="44.5006" lon="-1.10684">
        <ele>18</ele>
        <time>2019-08-11T11:29:05Z</time>
      </trkpt>
      <trkpt lat="44.50082" lon="-1.10674">
        <ele>18</ele>
        <time>2019-08-11T11:29:15Z</time>
      </trkpt>
      <trkpt lat="44.50093" lon="-1.10673">
        <ele>18</ele>
        <time>2019-08-11T11:29:20Z</time>
      </trkpt>
      <trkpt lat="44.50114" lon="-1.10665">
        <ele>18</ele>
        <time>2019-08-11T11:29:30Z</time>
      </trkpt>
      <trkpt lat="44.5012" lon="-1.10661">
        <ele>18</ele>
        <time>2019-08-11T11:29:35Z</time>
      </trkpt>
      <trkpt lat="44.50126" lon="-1.10661">
        <ele>18</ele>
        <time>2019-08-11T11:29:45Z</time>
      </trkpt>
      <trkpt lat="44.50126" lon="-1.10661">
        <ele>18</ele>
        <time>2019-08-11T11:29:50Z</time>
      </trkpt>
      <trkpt lat="44.50128" lon="-1.1066">
        <ele>18</ele>
        <time>2019-08-11T11:30:00Z</time>
      </trkpt>
      <trkpt lat="44.50131" lon="-1.10661">
        <ele>18</ele>
        <time>2019-08-11T11:30:05Z</time>
      </trkpt>
      <trkpt lat="44.50133" lon="-1.10659">
        <ele>18</ele>
        <time>2019-08-11T11:30:15Z</time>
      </trkpt>
      <trkpt lat="44.50133" lon="-1.10659">
        <ele>18</ele>
        <time>2019-08-11T11:30:25Z</time>
      </trkpt>
      <trkpt lat="44.50133" lon="-1.10659">
        <ele>18</ele>
        <time>2019-08-11T11:30:30Z</time>
      </trkpt>
      <trkpt lat="44.50133" lon="-1.10659">
        <ele>18</ele>
        <time>2019-08-11T11:30:40Z</time>
      </trkpt>
      <trkpt lat="44.50133" lon="-1.10659">
        <ele>18</ele>
        <time>2019-08-11T11:30:45Z</time>
      </trkpt>
      <trkpt lat="44.50133" lon="-1.10658">
        <ele>18</ele>
        <time>2019-08-11T11:30:55Z</time>
      </trkpt>
      <trkpt lat="44.50133" lon="-1.10658">
        <ele>18</ele>
        <time>2019-08-11T11:31:00Z</time>
      </trkpt>
      <trkpt lat="44.50133" lon="-1.10656">
        <ele>18</ele>
        <time>2019-08-11T11:31:10Z</time>
      </trkpt>
      <trkpt lat="44.50135" lon="-1.10655">
        <ele>18</ele>
        <time>2019-08-11T11:31:15Z</time>
      </trkpt>
      <trkpt lat="44.50139" lon="-1.10654">
        <ele>18</ele>
        <time>2019-08-11T11:31:25Z</time>
      </trkpt>
      <trkpt lat="44.50141" lon="-1.10653">
        <ele>18</ele>
        <time>2019-08-11T11:31:30Z</time>
      </trkpt>
      <trkpt lat="44.50145" lon="-1.1065">
        <ele>18</ele>
        <time>2019-08-11T11:31:40Z</time>
      </trkpt>
      <trkpt lat="44.50147" lon="-1.10649">
        <ele>18</ele>
        <time>2019-08-11T11:31:45Z</time>
      </trkpt>
      <trkpt lat="44.50152" lon="-1.10648">
        <ele>18</ele>
        <time>2019-08-11T11:31:55Z</time>
      </trkpt>
      <trkpt lat="44.50155" lon="-1.1065">
        <ele>18</ele>
        <time>2019-08-11T11:32:05Z</time>
      </trkpt>
      <trkpt lat="44.50155" lon="-1.1065">
        <ele>18</ele>
        <time>2019-08-11T11:32:10Z</time>
      </trkpt>
      <trkpt lat="44.50156" lon="-1.10648">
        <ele>18</ele>
        <time>2019-08-11T11:32:20Z</time>
      </trkpt>
      <trkpt lat="44.50157" lon="-1.1065">
        <ele>18</ele>
        <time>2019-08-11T11:32:25Z</time>
      </trkpt>
      <trkpt lat="44.50156" lon="-1.10645">
        <ele>18</ele>
        <time>2019-08-11T11:32:35Z</time>
      </trkpt>
      <trkpt lat="44.50155" lon="-1.10644">
        <ele>18</ele>
        <time>2019-08-11T11:32:40Z</time>
      </trkpt>
      <trkpt lat="44.50155" lon="-1.10642">
        <ele>18</ele>
        <time>2019-08-11T11:32:50Z</time>
      </trkpt>
      <trkpt lat="44.50154" lon="-1.10642">
        <ele>18</ele>
        <time>2019-08-11T11:32:55Z</time>
      </trkpt>
      <trkpt lat="44.50154" lon="-1.1064">
        <ele>18</ele>
        <time>2019-08-11T11:33:05Z</time>
      </trkpt>
      <trkpt lat="44.50154" lon="-1.10641">
        <ele>18</ele>
        <time>2019-08-11T11:33:10Z</time>
      </trkpt>
      <trkpt lat="44.50154" lon="-1.1064">
        <ele>18</ele>
        <time>2019-08-11T11:33:20Z</time>
      </trkpt>
      <trkpt lat="44.50153" lon="-1.1064">
        <ele>18</ele>
        <time>2019-08-11T11:33:25Z</time>
      </trkpt>
      <trkpt lat="44.50153" lon="-1.10641">
        <ele>18</ele>
        <time>2019-08-11T11:33:35Z</time>
      </trkpt>
      <trkpt lat="44.50154" lon="-1.10641">
        <ele>18</ele>
        <time>2019-08-11T11:33:45Z</time>
      </trkpt>
      <trkpt lat="44.50154" lon="-1.10641">
        <ele>18</ele>
        <time>2019-08-11T11:33:50Z</time>
      </trkpt>
      <trkpt lat="44.50153" lon="-1.10638">
        <ele>18</ele>
        <time>2019-08-11T11:34:00Z</time>
      </trkpt>
      <trkpt lat="44.50153" lon="-1.10638">
        <ele>18</ele>
        <time>2019-08-11T11:34:05Z</time>
      </trkpt>
      <trkpt lat="44.50154" lon="-1.10637">
        <ele>18</ele>
        <time>2019-08-11T11:34:15Z</time>
      </trkpt>
      <trkpt lat="44.50154" lon="-1.10637">
        <ele>18</ele>
        <time>2019-08-11T11:34:20Z</time>
      </trkpt>
      <trkpt lat="44.50154" lon="-1.10637">
        <ele>18</ele>
        <time>2019-08-11T11:34:30Z</time>
      </trkpt>
      <trkpt lat="44.50154" lon="-1.1064">
        <ele>18</ele>
        <time>2019-08-11T11:34:35Z</time>
      </trkpt>
      <trkpt lat="44.50155" lon="-1.10648">
        <ele>18</ele>
        <time>2019-08-11T11:34:45Z</time>
      </trkpt>
      <trkpt lat="44.50154" lon="-1.10648">
        <ele>18</ele>
        <time>2019-08-11T11:34:50Z</time>
      </trkpt>
      <trkpt lat="44.50154" lon="-1.10645">
        <ele>18</ele>
        <time>2019-08-11T11:35:00Z</time>
      </trkpt>
      <trkpt lat="44.50155" lon="-1.10642">
        <ele>18</ele>
        <time>2019-08-11T11:35:05Z</time>
      </trkpt>
      <trkpt lat="44.50153" lon="-1.10636">
        <ele>18</ele>
        <time>2019-08-11T11:35:15Z</time>
      </trkpt>
      <trkpt lat="44.5015" lon="-1.10632">
        <ele>18</ele>
        <time>2019-08-11T11:35:25Z</time>
      </trkpt>
      <trkpt lat="44.50149" lon="-1.10629">
        <ele>18</ele>
        <time>2019-08-11T11:35:30Z</time>
      </trkpt>
      <trkpt lat="44.5015" lon="-1.10629">
        <ele>18</ele>
        <time>2019-08-11T11:35:40Z</time>
      </trkpt>
      <trkpt lat="44.5015" lon="-1.10629">
        <ele>18</ele>
        <time>2019-08-11T11:35:45Z</time>
      </trkpt>
      <trkpt lat="44.5015" lon="-1.10629">
        <ele>18</ele>
        <time>2019-08-11T11:35:55Z</time>
      </trkpt>
      <trkpt lat="44.5015" lon="-1.10629">
        <ele>18</ele>
        <time>2019-08-11T11:36:00Z</time>
      </trkpt>
      <trkpt lat="44.50151" lon="-1.10629">
        <ele>18</ele>
        <time>2019-08-11T11:36:10Z</time>
      </trkpt>
      <trkpt lat="44.50151" lon="-1.10629">
        <ele>18</ele>
        <time>2019-08-11T11:36:15Z</time>
      </trkpt>
      <trkpt lat="44.50151" lon="-1.10629">
        <ele>18</ele>
        <time>2019-08-11T11:36:25Z</time>
      </trkpt>
      <trkpt lat="44.50151" lon="-1.10629">
        <ele>18</ele>
        <time>2019-08-11T11:36:30Z</time>
      </trkpt>
      <trkpt lat="44.50151" lon="-1.10629">
        <ele>18</ele>
        <time>2019-08-11T11:36:40Z</time>
      </trkpt>
      <trkpt lat="44.50151" lon="-1.10629">
        <ele>18</ele>
        <time>2019-08-11T11:36:45Z</time>
      </trkpt>
      <trkpt lat="44.5015" lon="-1.10629">
        <ele>18</ele>
        <time>2019-08-11T11:36:55Z</time>
      </trkpt>
      <trkpt lat="44.50149" lon="-1.10629">
        <ele>18</ele>
        <time>2019-08-11T11:37:05Z</time>
      </trkpt>
      <trkpt lat="44.5015" lon="-1.10632">
        <ele>18</ele>
        <time>2019-08-11T11:37:10Z</time>
      </trkpt>
      <trkpt lat="44.50151" lon="-1.10633">
        <ele>18</ele>
        <time>2019-08-11T11:37:20Z</time>
      </trkpt>
      <trkpt lat="44.50152" lon="-1.10633">
        <ele>18</ele>
        <time>2019-08-11T11:37:25Z</time>
      </trkpt>
      <trkpt lat="44.50152" lon="-1.1063">
        <ele>18</ele>
        <time>2019-08-11T11:37:35Z</time>
      </trkpt>
      <trkpt lat="44.50153" lon="-1.1063">
        <ele>18</ele>
        <time>2019-08-11T11:37:40Z</time>
      </trkpt>
      <trkpt lat="44.50153" lon="-1.1063">
        <ele>18</ele>
        <time>2019-08-11T11:37:50Z</time>
      </trkpt>
      <trkpt lat="44.50152" lon="-1.1063">
        <ele>18</ele>
        <time>2019-08-11T11:37:55Z</time>
      </trkpt>
      <trkpt lat="44.50153" lon="-1.10635">
        <ele>18</ele>
        <time>2019-08-11T11:38:05Z</time>
      </trkpt>
      <trkpt lat="44.50153" lon="-1.10635">
        <ele>18</ele>
        <time>2019-08-11T11:38:10Z</time>
      </trkpt>
      <trkpt lat="44.50153" lon="-1.10635">
        <ele>18</ele>
        <time>2019-08-11T11:38:20Z</time>
      </trkpt>
      <trkpt lat="44.50153" lon="-1.10633">
        <ele>18</ele>
        <time>2019-08-11T11:38:30Z</time>
      </trkpt>
      <trkpt lat="44.50154" lon="-1.10632">
        <ele>18</ele>
        <time>2019-08-11T11:38:35Z</time>
      </trkpt>
      <trkpt lat="44.50154" lon="-1.10633">
        <ele>18</ele>
        <time>2019-08-11T11:38:45Z</time>
      </trkpt>
      <trkpt lat="44.50154" lon="-1.10633">
        <ele>18</ele>
        <time>2019-08-11T11:38:50Z</time>
      </trkpt>
      <trkpt lat="44.50154" lon="-1.10632">
        <ele>18</ele>
        <time>2019-08-11T11:39:00Z</time>
      </trkpt>
      <trkpt lat="44.50153" lon="-1.10635">
        <ele>18</ele>
        <time>2019-08-11T11:39:05Z</time>
      </trkpt>
      <trkpt lat="44.50153" lon="-1.10636">
        <ele>18</ele>
        <time>2019-08-11T11:39:15Z</time>
      </trkpt>
      <trkpt lat="44.50153" lon="-1.10636">
        <ele>18</ele>
        <time>2019-08-11T11:39:20Z</time>
      </trkpt>
      <trkpt lat="44.50153" lon="-1.10636">
        <ele>18</ele>
        <time>2019-08-11T11:39:30Z</time>
      </trkpt>
      <trkpt lat="44.50153" lon="-1.10636">
        <ele>18</ele>
        <time>2019-08-11T11:39:35Z</time>
      </trkpt>
      <trkpt lat="44.50153" lon="-1.10636">
        <ele>18</ele>
        <time>2019-08-11T11:39:45Z</time>
      </trkpt>
      <trkpt lat="44.50153" lon="-1.10636">
        <ele>18</ele>
        <time>2019-08-11T11:39:50Z</time>
      </trkpt>
      <trkpt lat="44.50153" lon="-1.10636">
        <ele>18</ele>
        <time>2019-08-11T11:40:00Z</time>
      </trkpt>
      <trkpt lat="44.50153" lon="-1.10636">
        <ele>18</ele>
        <time>2019-08-11T11:40:10Z</time>
      </trkpt>
      <trkpt lat="44.50153" lon="-1.10636">
        <ele>18</ele>
        <time>2019-08-11T11:40:15Z</time>
      </trkpt>
      <trkpt lat="44.50153" lon="-1.10633">
        <ele>18</ele>
        <time>2019-08-11T11:40:25Z</time>
      </trkpt>
      <trkpt lat="44.50153" lon="-1.10632">
        <ele>18</ele>
        <time>2019-08-11T11:40:30Z</time>
      </trkpt>
      <trkpt lat="44.50153" lon="-1.10632">
        <ele>18</ele>
        <time>2019-08-11T11:40:40Z</time>
      </trkpt>
      <trkpt lat="44.50153" lon="-1.10633">
        <ele>18</ele>
        <time>2019-08-11T11:40:45Z</time>
      </trkpt>
      <trkpt lat="44.50153" lon="-1.10633">
        <ele>18</ele>
        <time>2019-08-11T11:40:55Z</time>
      </trkpt>
      <trkpt lat="44.50153" lon="-1.10633">
        <ele>18</ele>
        <time>2019-08-11T11:41:00Z</time>
      </trkpt>
      <trkpt lat="44.50153" lon="-1.10633">
        <ele>18</ele>
        <time>2019-08-11T11:41:10Z</time>
      </trkpt>
      <trkpt lat="44.50153" lon="-1.10633">
        <ele>18</ele>
        <time>2019-08-11T11:41:15Z</time>
      </trkpt>
      <trkpt lat="44.50153" lon="-1.10633">
        <ele>18</ele>
        <time>2019-08-11T11:41:25Z</time>
      </trkpt>
      <trkpt lat="44.50153" lon="-1.10633">
        <ele>18</ele>
        <time>2019-08-11T11:41:30Z</time>
      </trkpt>
      <trkpt lat="44.50153" lon="-1.10633">
        <ele>18</ele>
        <time>2019-08-11T11:41:40Z</time>
      </trkpt>
      <trkpt lat="44.50153" lon="-1.10632">
        <ele>18</ele>
        <time>2019-08-11T11:41:50Z</time>
      </trkpt>
      <trkpt lat="44.50153" lon="-1.10632">
        <ele>18</ele>
        <time>2019-08-11T11:41:55Z</time>
      </trkpt>
      <trkpt lat="44.50153" lon="-1.10632">
        <ele>18</ele>
        <time>2019-08-11T11:42:05Z</time>
      </trkpt>
      <trkpt lat="44.50153" lon="-1.10632">
        <ele>18</ele>
        <time>2019-08-11T11:42:10Z</time>
      </trkpt>
      <trkpt lat="44.50152" lon="-1.10631">
        <ele>18</ele>
        <time>2019-08-11T11:42:20Z</time>
      </trkpt>
      <trkpt lat="44.50151" lon="-1.10635">
        <ele>18</ele>
        <time>2019-08-11T11:42:25Z</time>
      </trkpt>
      <trkpt lat="44.50153" lon="-1.10636">
        <ele>18</ele>
        <time>2019-08-11T11:42:35Z</time>
      </trkpt>
      <trkpt lat="44.50153" lon="-1.10636">
        <ele>18</ele>
        <time>2019-08-11T11:42:40Z</time>
      </trkpt>
      <trkpt lat="44.50153" lon="-1.10636">
        <ele>18</ele>
        <time>2019-08-11T11:42:50Z</time>
      </trkpt>
      <trkpt lat="44.50153" lon="-1.10636">
        <ele>18</ele>
        <time>2019-08-11T11:42:55Z</time>
      </trkpt>
      <trkpt lat="44.50153" lon="-1.10631">
        <ele>18</ele>
        <time>2019-08-11T11:43:05Z</time>
      </trkpt>
      <trkpt lat="44.50154" lon="-1.1063">
        <ele>18</ele>
        <time>2019-08-11T11:43:10Z</time>
      </trkpt>
      <trkpt lat="44.50154" lon="-1.10632">
        <ele>18</ele>
        <time>2019-08-11T11:43:20Z</time>
      </trkpt>
      <trkpt lat="44.50154" lon="-1.10633">
        <ele>18</ele>
        <time>2019-08-11T11:43:30Z</time>
      </trkpt>
      <trkpt lat="44.50153" lon="-1.10633">
        <ele>18</ele>
        <time>2019-08-11T11:43:35Z</time>
      </trkpt>
      <trkpt lat="44.50271" lon="-1.10618">
        <ele>20</ele>
        <time>2019-08-11T11:43:45Z</time>
      </trkpt>
      <trkpt lat="44.50271" lon="-1.10618">
        <ele>20</ele>
        <time>2019-08-11T11:43:50Z</time>
      </trkpt>
      <trkpt lat="44.50272" lon="-1.10618">
        <ele>20</ele>
        <time>2019-08-11T11:44:00Z</time>
      </trkpt>
      <trkpt lat="44.50272" lon="-1.10617">
        <ele>20</ele>
        <time>2019-08-11T11:44:05Z</time>
      </trkpt>
      <trkpt lat="44.50272" lon="-1.10617">
        <ele>20</ele>
        <time>2019-08-11T11:44:15Z</time>
      </trkpt>
      <trkpt lat="44.50272" lon="-1.10617">
        <ele>20</ele>
        <time>2019-08-11T11:44:20Z</time>
      </trkpt>
      <trkpt lat="44.50272" lon="-1.10618">
        <ele>20</ele>
        <time>2019-08-11T11:44:30Z</time>
      </trkpt>
      <trkpt lat="44.50272" lon="-1.10617">
        <ele>20</ele>
        <time>2019-08-11T11:44:35Z</time>
      </trkpt>
      <trkpt lat="44.50272" lon="-1.10617">
        <ele>20</ele>
        <time>2019-08-11T11:44:45Z</time>
      </trkpt>
      <trkpt lat="44.50272" lon="-1.10617">
        <ele>20</ele>
        <time>2019-08-11T11:44:50Z</time>
      </trkpt>
      <trkpt lat="44.50272" lon="-1.10618">
        <ele>20</ele>
        <time>2019-08-11T11:45:00Z</time>
      </trkpt>
      <trkpt lat="44.50271" lon="-1.10619">
        <ele>20</ele>
        <time>2019-08-11T11:45:10Z</time>
      </trkpt>
      <trkpt lat="44.50271" lon="-1.10619">
        <ele>20</ele>
        <time>2019-08-11T11:45:15Z</time>
      </trkpt>
      <trkpt lat="44.50271" lon="-1.10619">
        <ele>20</ele>
        <time>2019-08-11T11:45:25Z</time>
      </trkpt>
      <trkpt lat="44.50271" lon="-1.10619">
        <ele>20</ele>
        <time>2019-08-11T11:45:30Z</time>
      </trkpt>
      <trkpt lat="44.50272" lon="-1.10619">
        <ele>20</ele>
        <time>2019-08-11T11:45:40Z</time>
      </trkpt>
      <trkpt lat="44.50272" lon="-1.10619">
        <ele>20</ele>
        <time>2019-08-11T11:45:45Z</time>
      </trkpt>
      <trkpt lat="44.50272" lon="-1.1062">
        <ele>20</ele>
        <time>2019-08-11T11:45:55Z</time>
      </trkpt>
      <trkpt lat="44.50273" lon="-1.1062">
        <ele>20</ele>
        <time>2019-08-11T11:46:00Z</time>
      </trkpt>
      <trkpt lat="44.50273" lon="-1.10621">
        <ele>20</ele>
        <time>2019-08-11T11:46:10Z</time>
      </trkpt>
      <trkpt lat="44.50273" lon="-1.10621">
        <ele>20</ele>
        <time>2019-08-11T11:46:15Z</time>
      </trkpt>
      <trkpt lat="44.50274" lon="-1.10621">
        <ele>20</ele>
        <time>2019-08-11T11:46:25Z</time>
      </trkpt>
      <trkpt lat="44.50275" lon="-1.10622">
        <ele>20</ele>
        <time>2019-08-11T11:46:35Z</time>
      </trkpt>
      <trkpt lat="44.50276" lon="-1.10623">
        <ele>22</ele>
        <time>2019-08-11T11:46:40Z</time>
      </trkpt>
      <trkpt lat="44.50276" lon="-1.10623">
        <ele>22</ele>
        <time>2019-08-11T11:46:50Z</time>
      </trkpt>
      <trkpt lat="44.50276" lon="-1.10623">
        <ele>22</ele>
        <time>2019-08-11T11:46:55Z</time>
      </trkpt>
      <trkpt lat="44.50277" lon="-1.10624">
        <ele>22</ele>
        <time>2019-08-11T11:47:05Z</time>
      </trkpt>
      <trkpt lat="44.50277" lon="-1.10624">
        <ele>22</ele>
        <time>2019-08-11T11:47:10Z</time>
      </trkpt>
      <trkpt lat="44.50277" lon="-1.10625">
        <ele>22</ele>
        <time>2019-08-11T11:47:20Z</time>
      </trkpt>
      <trkpt lat="44.50278" lon="-1.10625">
        <ele>22</ele>
        <time>2019-08-11T11:47:25Z</time>
      </trkpt>
      <trkpt lat="44.50278" lon="-1.10626">
        <ele>22</ele>
        <time>2019-08-11T11:47:35Z</time>
      </trkpt>
      <trkpt lat="44.50278" lon="-1.10626">
        <ele>22</ele>
        <time>2019-08-11T11:47:40Z</time>
      </trkpt>
      <trkpt lat="44.50278" lon="-1.10626">
        <ele>22</ele>
        <time>2019-08-11T11:47:50Z</time>
      </trkpt>
      <trkpt lat="44.50279" lon="-1.10626">
        <ele>22</ele>
        <time>2019-08-11T11:47:55Z</time>
      </trkpt>
      <trkpt lat="44.50279" lon="-1.10627">
        <ele>22</ele>
        <time>2019-08-11T11:48:05Z</time>
      </trkpt>
      <trkpt lat="44.50279" lon="-1.10629">
        <ele>22</ele>
        <time>2019-08-11T11:48:15Z</time>
      </trkpt>
      <trkpt lat="44.50279" lon="-1.1063">
        <ele>22</ele>
        <time>2019-08-11T11:48:20Z</time>
      </trkpt>
      <trkpt lat="44.50279" lon="-1.1063">
        <ele>22</ele>
        <time>2019-08-11T11:48:30Z</time>
      </trkpt>
      <trkpt lat="44.50279" lon="-1.1063">
        <ele>22</ele>
        <time>2019-08-11T11:48:35Z</time>
      </trkpt>
      <trkpt lat="44.50279" lon="-1.10629">
        <ele>22</ele>
        <time>2019-08-11T11:48:45Z</time>
      </trkpt>
      <trkpt lat="44.50279" lon="-1.10629">
        <ele>22</ele>
        <time>2019-08-11T11:48:50Z</time>
      </trkpt>
      <trkpt lat="44.50278" lon="-1.10629">
        <ele>22</ele>
        <time>2019-08-11T11:49:00Z</time>
      </trkpt>
      <trkpt lat="44.50277" lon="-1.10629">
        <ele>22</ele>
        <time>2019-08-11T11:49:05Z</time>
      </trkpt>
      <trkpt lat="44.50264" lon="-1.10634">
        <ele>19</ele>
        <time>2019-08-11T11:49:15Z</time>
      </trkpt>
      <trkpt lat="44.50264" lon="-1.10634">
        <ele>19</ele>
        <time>2019-08-11T11:49:20Z</time>
      </trkpt>
      <trkpt lat="44.50264" lon="-1.10635">
        <ele>19</ele>
        <time>2019-08-11T11:49:30Z</time>
      </trkpt>
      <trkpt lat="44.50264" lon="-1.10635">
        <ele>19</ele>
        <time>2019-08-11T11:49:35Z</time>
      </trkpt>
      <trkpt lat="44.50264" lon="-1.10635">
        <ele>19</ele>
        <time>2019-08-11T11:49:45Z</time>
      </trkpt>
      <trkpt lat="44.50264" lon="-1.10635">
        <ele>19</ele>
        <time>2019-08-11T11:49:55Z</time>
      </trkpt>
      <trkpt lat="44.50263" lon="-1.10634">
        <ele>19</ele>
        <time>2019-08-11T11:50:00Z</time>
      </trkpt>
      <trkpt lat="44.50263" lon="-1.10634">
        <ele>19</ele>
        <time>2019-08-11T11:50:10Z</time>
      </trkpt>
      <trkpt lat="44.50263" lon="-1.10634">
        <ele>19</ele>
        <time>2019-08-11T11:50:15Z</time>
      </trkpt>
      <trkpt lat="44.50263" lon="-1.10634">
        <ele>19</ele>
        <time>2019-08-11T11:50:25Z</time>
      </trkpt>
      <trkpt lat="44.50263" lon="-1.10634">
        <ele>19</ele>
        <time>2019-08-11T11:50:30Z</time>
      </trkpt>
      <trkpt lat="44.50264" lon="-1.10634">
        <ele>19</ele>
        <time>2019-08-11T11:50:40Z</time>
      </trkpt>
      <trkpt lat="44.50264" lon="-1.10634">
        <ele>19</ele>
        <time>2019-08-11T11:50:45Z</time>
      </trkpt>
      <trkpt lat="44.50264" lon="-1.10634">
        <ele>19</ele>
        <time>2019-08-11T11:50:55Z</time>
      </trkpt>
      <trkpt lat="44.50264" lon="-1.10634">
        <ele>19</ele>
        <time>2019-08-11T11:51:00Z</time>
      </trkpt>
      <trkpt lat="44.50263" lon="-1.10634">
        <ele>19</ele>
        <time>2019-08-11T11:51:10Z</time>
      </trkpt>
      <trkpt lat="44.50263" lon="-1.10634">
        <ele>19</ele>
        <time>2019-08-11T11:51:15Z</time>
      </trkpt>
      <trkpt lat="44.50263" lon="-1.10634">
        <ele>19</ele>
        <time>2019-08-11T11:51:25Z</time>
      </trkpt>
      <trkpt lat="44.50264" lon="-1.10632">
        <ele>19</ele>
        <time>2019-08-11T11:51:35Z</time>
      </trkpt>
      <trkpt lat="44.50265" lon="-1.10631">
        <ele>19</ele>
        <time>2019-08-11T11:51:40Z</time>
      </trkpt>
      <trkpt lat="44.50265" lon="-1.10631">
        <ele>19</ele>
        <time>2019-08-11T11:51:50Z</time>
      </trkpt>
      <trkpt lat="44.50265" lon="-1.10631">
        <ele>19</ele>
        <time>2019-08-11T11:51:55Z</time>
      </trkpt>
      <trkpt lat="44.50264" lon="-1.1063">
        <ele>19</ele>
        <time>2019-08-11T11:52:05Z</time>
      </trkpt>
      <trkpt lat="44.50264" lon="-1.1063">
        <ele>19</ele>
        <time>2019-08-11T11:52:10Z</time>
      </trkpt>
      <trkpt lat="44.50264" lon="-1.1063">
        <ele>19</ele>
        <time>2019-08-11T11:52:20Z</time>
      </trkpt>
      <trkpt lat="44.50264" lon="-1.10629">
        <ele>19</ele>
        <time>2019-08-11T11:52:25Z</time>
      </trkpt>
      <trkpt lat="44.50263" lon="-1.10628">
        <ele>19</ele>
        <time>2019-08-11T11:52:35Z</time>
      </trkpt>
      <trkpt lat="44.50263" lon="-1.10628">
        <ele>18</ele>
        <time>2019-08-11T11:52:40Z</time>
      </trkpt>
      <trkpt lat="44.50263" lon="-1.10626">
        <ele>19</ele>
        <time>2019-08-11T11:52:50Z</time>
      </trkpt>
      <trkpt lat="44.50263" lon="-1.10626">
        <ele>19</ele>
        <time>2019-08-11T11:52:55Z</time>
      </trkpt>
      <trkpt lat="44.50263" lon="-1.10626">
        <ele>19</ele>
        <time>2019-08-11T11:53:05Z</time>
      </trkpt>
      <trkpt lat="44.50263" lon="-1.10624">
        <ele>19</ele>
        <time>2019-08-11T11:53:15Z</time>
      </trkpt>
      <trkpt lat="44.50263" lon="-1.10624">
        <ele>19</ele>
        <time>2019-08-11T11:53:20Z</time>
      </trkpt>
      <trkpt lat="44.50263" lon="-1.10623">
        <ele>19</ele>
        <time>2019-08-11T11:53:30Z</time>
      </trkpt>
      <trkpt lat="44.50263" lon="-1.10624">
        <ele>19</ele>
        <time>2019-08-11T11:53:35Z</time>
      </trkpt>
      <trkpt lat="44.50263" lon="-1.10624">
        <ele>19</ele>
        <time>2019-08-11T11:53:45Z</time>
      </trkpt>
      <trkpt lat="44.50263" lon="-1.10623">
        <ele>19</ele>
        <time>2019-08-11T11:53:50Z</time>
      </trkpt>
      <trkpt lat="44.50263" lon="-1.10623">
        <ele>19</ele>
        <time>2019-08-11T11:54:00Z</time>
      </trkpt>
      <trkpt lat="44.50263" lon="-1.10623">
        <ele>19</ele>
        <time>2019-08-11T11:54:05Z</time>
      </trkpt>
      <trkpt lat="44.50263" lon="-1.10623">
        <ele>19</ele>
        <time>2019-08-11T11:54:15Z</time>
      </trkpt>
      <trkpt lat="44.50263" lon="-1.10623">
        <ele>19</ele>
        <time>2019-08-11T11:54:20Z</time>
      </trkpt>
      <trkpt lat="44.50263" lon="-1.10623">
        <ele>19</ele>
        <time>2019-08-11T11:54:30Z</time>
      </trkpt>
      <trkpt lat="44.50264" lon="-1.10622">
        <ele>19</ele>
        <time>2019-08-11T11:54:40Z</time>
      </trkpt>
      <trkpt lat="44.50264" lon="-1.10622">
        <ele>19</ele>
        <time>2019-08-11T11:54:45Z</time>
      </trkpt>
      <trkpt lat="44.50265" lon="-1.10622">
        <ele>19</ele>
        <time>2019-08-11T11:54:55Z</time>
      </trkpt>
      <trkpt lat="44.50266" lon="-1.10621">
        <ele>19</ele>
        <time>2019-08-11T11:55:00Z</time>
      </trkpt>
      <trkpt lat="44.50267" lon="-1.10621">
        <ele>19</ele>
        <time>2019-08-11T11:55:10Z</time>
      </trkpt>
      <trkpt lat="44.50267" lon="-1.10621">
        <ele>19</ele>
        <time>2019-08-11T11:55:15Z</time>
      </trkpt>
      <trkpt lat="44.50267" lon="-1.10621">
        <ele>19</ele>
        <time>2019-08-11T11:55:25Z</time>
      </trkpt>
      <trkpt lat="44.50267" lon="-1.10621">
        <ele>19</ele>
        <time>2019-08-11T11:55:30Z</time>
      </trkpt>
      <trkpt lat="44.50267" lon="-1.10621">
        <ele>19</ele>
        <time>2019-08-11T11:55:40Z</time>
      </trkpt>
      <trkpt lat="44.50266" lon="-1.10622">
        <ele>19</ele>
        <time>2019-08-11T11:55:45Z</time>
      </trkpt>
      <trkpt lat="44.50265" lon="-1.10622">
        <ele>19</ele>
        <time>2019-08-11T11:55:55Z</time>
      </trkpt>
      <trkpt lat="44.50265" lon="-1.10621">
        <ele>19</ele>
        <time>2019-08-11T11:56:00Z</time>
      </trkpt>
      <trkpt lat="44.50263" lon="-1.10621">
        <ele>18</ele>
        <time>2019-08-11T11:56:10Z</time>
      </trkpt>
      <trkpt lat="44.50261" lon="-1.10622">
        <ele>18</ele>
        <time>2019-08-11T11:56:20Z</time>
      </trkpt>
      <trkpt lat="44.50261" lon="-1.10622">
        <ele>18</ele>
        <time>2019-08-11T11:56:25Z</time>
      </trkpt>
      <trkpt lat="44.50261" lon="-1.10622">
        <ele>18</ele>
        <time>2019-08-11T11:56:35Z</time>
      </trkpt>
      <trkpt lat="44.50261" lon="-1.10622">
        <ele>18</ele>
        <time>2019-08-11T11:56:40Z</time>
      </trkpt>
      <trkpt lat="44.5026" lon="-1.10621">
        <ele>18</ele>
        <time>2019-08-11T11:56:50Z</time>
      </trkpt>
      <trkpt lat="44.5026" lon="-1.10621">
        <ele>18</ele>
        <time>2019-08-11T11:56:55Z</time>
      </trkpt>
      <trkpt lat="44.5026" lon="-1.10621">
        <ele>18</ele>
        <time>2019-08-11T11:57:05Z</time>
      </trkpt>
      <trkpt lat="44.5026" lon="-1.10621">
        <ele>18</ele>
        <time>2019-08-11T11:57:10Z</time>
      </trkpt>
      <trkpt lat="44.5026" lon="-1.10621">
        <ele>18</ele>
        <time>2019-08-11T11:57:20Z</time>
      </trkpt>
      <trkpt lat="44.5026" lon="-1.10621">
        <ele>18</ele>
        <time>2019-08-11T11:57:25Z</time>
      </trkpt>
      <trkpt lat="44.50259" lon="-1.10621">
        <ele>18</ele>
        <time>2019-08-11T11:57:35Z</time>
      </trkpt>
      <trkpt lat="44.50258" lon="-1.1062">
        <ele>18</ele>
        <time>2019-08-11T11:57:40Z</time>
      </trkpt>
      <trkpt lat="44.50258" lon="-1.1062">
        <ele>18</ele>
        <time>2019-08-11T11:57:50Z</time>
      </trkpt>
      <trkpt lat="44.50257" lon="-1.1062">
        <ele>18</ele>
        <time>2019-08-11T11:58:00Z</time>
      </trkpt>
      <trkpt lat="44.50257" lon="-1.1062">
        <ele>18</ele>
        <time>2019-08-11T11:58:05Z</time>
      </trkpt>
      <trkpt lat="44.50257" lon="-1.1062">
        <ele>18</ele>
        <time>2019-08-11T11:58:15Z</time>
      </trkpt>
      <trkpt lat="44.50257" lon="-1.1062">
        <ele>18</ele>
        <time>2019-08-11T11:58:20Z</time>
      </trkpt>
      <trkpt lat="44.50257" lon="-1.10619">
        <ele>18</ele>
        <time>2019-08-11T11:58:30Z</time>
      </trkpt>
      <trkpt lat="44.50257" lon="-1.10619">
        <ele>18</ele>
        <time>2019-08-11T11:58:35Z</time>
      </trkpt>
      <trkpt lat="44.50257" lon="-1.10619">
        <ele>18</ele>
        <time>2019-08-11T11:58:45Z</time>
      </trkpt>
      <trkpt lat="44.50256" lon="-1.10619">
        <ele>18</ele>
        <time>2019-08-11T11:58:50Z</time>
      </trkpt>
      <trkpt lat="44.50256" lon="-1.10619">
        <ele>18</ele>
        <time>2019-08-11T11:59:00Z</time>
      </trkpt>
      <trkpt lat="44.50256" lon="-1.10619">
        <ele>18</ele>
        <time>2019-08-11T11:59:05Z</time>
      </trkpt>
      <trkpt lat="44.50257" lon="-1.10618">
        <ele>19</ele>
        <time>2019-08-11T11:59:15Z</time>
      </trkpt>
      <trkpt lat="44.50257" lon="-1.10618">
        <ele>19</ele>
        <time>2019-08-11T11:59:20Z</time>
      </trkpt>
      <trkpt lat="44.50257" lon="-1.10618">
        <ele>19</ele>
        <time>2019-08-11T11:59:30Z</time>
      </trkpt>
      <trkpt lat="44.50256" lon="-1.10618">
        <ele>18</ele>
        <time>2019-08-11T11:59:40Z</time>
      </trkpt>
      <trkpt lat="44.50256" lon="-1.10618">
        <ele>18</ele>
        <time>2019-08-11T11:59:45Z</time>
      </trkpt>
      <trkpt lat="44.50256" lon="-1.10618">
        <ele>18</ele>
        <time>2019-08-11T11:59:55Z</time>
      </trkpt>
      <trkpt lat="44.50256" lon="-1.10617">
        <ele>18</ele>
        <time>2019-08-11T12:00:00Z</time>
      </trkpt>
      <trkpt lat="44.50256" lon="-1.10618">
        <ele>18</ele>
        <time>2019-08-11T12:00:10Z</time>
      </trkpt>
      <trkpt lat="44.50256" lon="-1.10618">
        <ele>18</ele>
        <time>2019-08-11T12:00:15Z</time>
      </trkpt>
      <trkpt lat="44.50256" lon="-1.10617">
        <ele>18</ele>
        <time>2019-08-11T12:00:25Z</time>
      </trkpt>
      <trkpt lat="44.50256" lon="-1.10617">
        <ele>18</ele>
        <time>2019-08-11T12:00:30Z</time>
      </trkpt>
      <trkpt lat="44.50256" lon="-1.10616">
        <ele>18</ele>
        <time>2019-08-11T12:00:40Z</time>
      </trkpt>
      <trkpt lat="44.50256" lon="-1.10616">
        <ele>18</ele>
        <time>2019-08-11T12:00:45Z</time>
      </trkpt>
      <trkpt lat="44.50255" lon="-1.10616">
        <ele>18</ele>
        <time>2019-08-11T12:00:55Z</time>
      </trkpt>
      <trkpt lat="44.50255" lon="-1.10616">
        <ele>18</ele>
        <time>2019-08-11T12:01:05Z</time>
      </trkpt>
      <trkpt lat="44.50255" lon="-1.10616">
        <ele>18</ele>
        <time>2019-08-11T12:01:10Z</time>
      </trkpt>
      <trkpt lat="44.50255" lon="-1.10616">
        <ele>18</ele>
        <time>2019-08-11T12:01:20Z</time>
      </trkpt>
      <trkpt lat="44.50255" lon="-1.10616">
        <ele>18</ele>
        <time>2019-08-11T12:01:25Z</time>
      </trkpt>
      <trkpt lat="44.50255" lon="-1.10615">
        <ele>18</ele>
        <time>2019-08-11T12:01:35Z</time>
      </trkpt>
      <trkpt lat="44.50258" lon="-1.10614">
        <ele>19</ele>
        <time>2019-08-11T12:01:40Z</time>
      </trkpt>
      <trkpt lat="44.50258" lon="-1.10612">
        <ele>19</ele>
        <time>2019-08-11T12:01:50Z</time>
      </trkpt>
      <trkpt lat="44.50259" lon="-1.10612">
        <ele>19</ele>
        <time>2019-08-11T12:01:55Z</time>
      </trkpt>
      <trkpt lat="44.5026" lon="-1.10611">
        <ele>19</ele>
        <time>2019-08-11T12:02:05Z</time>
      </trkpt>
      <trkpt lat="44.50262" lon="-1.1061">
        <ele>19</ele>
        <time>2019-08-11T12:02:10Z</time>
      </trkpt>
      <trkpt lat="44.50263" lon="-1.10609">
        <ele>19</ele>
        <time>2019-08-11T12:02:20Z</time>
      </trkpt>
      <trkpt lat="44.50263" lon="-1.10608">
        <ele>19</ele>
        <time>2019-08-11T12:02:25Z</time>
      </trkpt>
      <trkpt lat="44.50263" lon="-1.10607">
        <ele>19</ele>
        <time>2019-08-11T12:02:35Z</time>
      </trkpt>
      <trkpt lat="44.50263" lon="-1.10607">
        <ele>19</ele>
        <time>2019-08-11T12:02:45Z</time>
      </trkpt>
      <trkpt lat="44.50263" lon="-1.10607">
        <ele>19</ele>
        <time>2019-08-11T12:02:50Z</time>
      </trkpt>
      <trkpt lat="44.50267" lon="-1.106">
        <ele>20</ele>
        <time>2019-08-11T12:03:00Z</time>
      </trkpt>
      <trkpt lat="44.50267" lon="-1.106">
        <ele>20</ele>
        <time>2019-08-11T12:03:05Z</time>
      </trkpt>
      <trkpt lat="44.50267" lon="-1.106">
        <ele>20</ele>
        <time>2019-08-11T12:03:15Z</time>
      </trkpt>
      <trkpt lat="44.50268" lon="-1.106">
        <ele>20</ele>
        <time>2019-08-11T12:03:20Z</time>
      </trkpt>
      <trkpt lat="44.50269" lon="-1.10598">
        <ele>21</ele>
        <time>2019-08-11T12:03:30Z</time>
      </trkpt>
      <trkpt lat="44.50269" lon="-1.10598">
        <ele>21</ele>
        <time>2019-08-11T12:03:35Z</time>
      </trkpt>
      <trkpt lat="44.5027" lon="-1.10597">
        <ele>21</ele>
        <time>2019-08-11T12:03:45Z</time>
      </trkpt>
      <trkpt lat="44.5027" lon="-1.10597">
        <ele>21</ele>
        <time>2019-08-11T12:03:50Z</time>
      </trkpt>
      <trkpt lat="44.5027" lon="-1.10596">
        <ele>21</ele>
        <time>2019-08-11T12:04:00Z</time>
      </trkpt>
      <trkpt lat="44.50271" lon="-1.10595">
        <ele>21</ele>
        <time>2019-08-11T12:04:05Z</time>
      </trkpt>
      <trkpt lat="44.5027" lon="-1.10596">
        <ele>21</ele>
        <time>2019-08-11T12:04:15Z</time>
      </trkpt>
      <trkpt lat="44.50271" lon="-1.10596">
        <ele>21</ele>
        <time>2019-08-11T12:04:25Z</time>
      </trkpt>
      <trkpt lat="44.50271" lon="-1.10596">
        <ele>21</ele>
        <time>2019-08-11T12:04:30Z</time>
      </trkpt>
      <trkpt lat="44.50271" lon="-1.10596">
        <ele>21</ele>
        <time>2019-08-11T12:04:40Z</time>
      </trkpt>
      <trkpt lat="44.50271" lon="-1.10596">
        <ele>21</ele>
        <time>2019-08-11T12:04:45Z</time>
      </trkpt>
      <trkpt lat="44.50271" lon="-1.10596">
        <ele>21</ele>
        <time>2019-08-11T12:04:55Z</time>
      </trkpt>
      <trkpt lat="44.50271" lon="-1.10597">
        <ele>21</ele>
        <time>2019-08-11T12:05:00Z</time>
      </trkpt>
      <trkpt lat="44.50271" lon="-1.10598">
        <ele>21</ele>
        <time>2019-08-11T12:05:10Z</time>
      </trkpt>
      <trkpt lat="44.50271" lon="-1.10598">
        <ele>21</ele>
        <time>2019-08-11T12:05:15Z</time>
      </trkpt>
      <trkpt lat="44.50271" lon="-1.10598">
        <ele>21</ele>
        <time>2019-08-11T12:05:25Z</time>
      </trkpt>
      <trkpt lat="44.50272" lon="-1.10598">
        <ele>21</ele>
        <time>2019-08-11T12:05:30Z</time>
      </trkpt>
      <trkpt lat="44.50272" lon="-1.10598">
        <ele>21</ele>
        <time>2019-08-11T12:05:40Z</time>
      </trkpt>
      <trkpt lat="44.50272" lon="-1.10598">
        <ele>21</ele>
        <time>2019-08-11T12:05:45Z</time>
      </trkpt>
      <trkpt lat="44.50272" lon="-1.10599">
        <ele>21</ele>
        <time>2019-08-11T12:05:55Z</time>
      </trkpt>
      <trkpt lat="44.50265" lon="-1.1059">
        <ele>20</ele>
        <time>2019-08-11T12:06:05Z</time>
      </trkpt>
      <trkpt lat="44.50261" lon="-1.10583">
        <ele>20</ele>
        <time>2019-08-11T12:06:10Z</time>
      </trkpt>
      <trkpt lat="44.5026" lon="-1.10583">
        <ele>20</ele>
        <time>2019-08-11T12:06:20Z</time>
      </trkpt>
      <trkpt lat="44.5026" lon="-1.10583">
        <ele>20</ele>
        <time>2019-08-11T12:06:25Z</time>
      </trkpt>
      <trkpt lat="44.5026" lon="-1.10583">
        <ele>20</ele>
        <time>2019-08-11T12:06:35Z</time>
      </trkpt>
      <trkpt lat="44.5026" lon="-1.10583">
        <ele>20</ele>
        <time>2019-08-11T12:06:40Z</time>
      </trkpt>
      <trkpt lat="44.5026" lon="-1.10584">
        <ele>20</ele>
        <time>2019-08-11T12:06:50Z</time>
      </trkpt>
      <trkpt lat="44.5026" lon="-1.10584">
        <ele>20</ele>
        <time>2019-08-11T12:06:55Z</time>
      </trkpt>
      <trkpt lat="44.5026" lon="-1.10584">
        <ele>20</ele>
        <time>2019-08-11T12:07:05Z</time>
      </trkpt>
      <trkpt lat="44.5026" lon="-1.10584">
        <ele>20</ele>
        <time>2019-08-11T12:07:10Z</time>
      </trkpt>
      <trkpt lat="44.50269" lon="-1.10582">
        <ele>20</ele>
        <time>2019-08-11T12:07:20Z</time>
      </trkpt>
      <trkpt lat="44.50269" lon="-1.10582">
        <ele>20</ele>
        <time>2019-08-11T12:07:25Z</time>
      </trkpt>
      <trkpt lat="44.50269" lon="-1.10582">
        <ele>20</ele>
        <time>2019-08-11T12:07:35Z</time>
      </trkpt>
      <trkpt lat="44.50269" lon="-1.10582">
        <ele>20</ele>
        <time>2019-08-11T12:07:45Z</time>
      </trkpt>
      <trkpt lat="44.50269" lon="-1.10582">
        <ele>20</ele>
        <time>2019-08-11T12:07:50Z</time>
      </trkpt>
      <trkpt lat="44.50268" lon="-1.10582">
        <ele>20</ele>
        <time>2019-08-11T12:08:00Z</time>
      </trkpt>
      <trkpt lat="44.50268" lon="-1.10582">
        <ele>20</ele>
        <time>2019-08-11T12:08:05Z</time>
      </trkpt>
      <trkpt lat="44.50268" lon="-1.10582">
        <ele>20</ele>
        <time>2019-08-11T12:08:15Z</time>
      </trkpt>
      <trkpt lat="44.50268" lon="-1.10582">
        <ele>20</ele>
        <time>2019-08-11T12:08:20Z</time>
      </trkpt>
      <trkpt lat="44.50268" lon="-1.10582">
        <ele>20</ele>
        <time>2019-08-11T12:08:30Z</time>
      </trkpt>
      <trkpt lat="44.50268" lon="-1.10582">
        <ele>20</ele>
        <time>2019-08-11T12:08:35Z</time>
      </trkpt>
      <trkpt lat="44.50268" lon="-1.10582">
        <ele>20</ele>
        <time>2019-08-11T12:08:45Z</time>
      </trkpt>
      <trkpt lat="44.50268" lon="-1.10582">
        <ele>20</ele>
        <time>2019-08-11T12:08:50Z</time>
      </trkpt>
      <trkpt lat="44.50268" lon="-1.10581">
        <ele>20</ele>
        <time>2019-08-11T12:09:00Z</time>
      </trkpt>
      <trkpt lat="44.50268" lon="-1.10581">
        <ele>20</ele>
        <time>2019-08-11T12:09:10Z</time>
      </trkpt>
      <trkpt lat="44.50268" lon="-1.10581">
        <ele>20</ele>
        <time>2019-08-11T12:09:15Z</time>
      </trkpt>
      <trkpt lat="44.50268" lon="-1.10581">
        <ele>20</ele>
        <time>2019-08-11T12:09:25Z</time>
      </trkpt>
      <trkpt lat="44.50268" lon="-1.10581">
        <ele>20</ele>
        <time>2019-08-11T12:09:30Z</time>
      </trkpt>
      <trkpt lat="44.50268" lon="-1.10581">
        <ele>20</ele>
        <time>2019-08-11T12:09:40Z</time>
      </trkpt>
      <trkpt lat="44.50268" lon="-1.1058">
        <ele>20</ele>
        <time>2019-08-11T12:09:45Z</time>
      </trkpt>
      <trkpt lat="44.50268" lon="-1.1058">
        <ele>20</ele>
        <time>2019-08-11T12:09:55Z</time>
      </trkpt>
      <trkpt lat="44.50268" lon="-1.10579">
        <ele>20</ele>
        <time>2019-08-11T12:10:00Z</time>
      </trkpt>
      <trkpt lat="44.50268" lon="-1.10578">
        <ele>20</ele>
        <time>2019-08-11T12:10:10Z</time>
      </trkpt>
      <trkpt lat="44.50268" lon="-1.10577">
        <ele>20</ele>
        <time>2019-08-11T12:10:15Z</time>
      </trkpt>
      <trkpt lat="44.50269" lon="-1.10576">
        <ele>20</ele>
        <time>2019-08-11T12:10:25Z</time>
      </trkpt>
      <trkpt lat="44.50268" lon="-1.10576">
        <ele>20</ele>
        <time>2019-08-11T12:10:30Z</time>
      </trkpt>
      <trkpt lat="44.50268" lon="-1.10577">
        <ele>20</ele>
        <time>2019-08-11T12:10:40Z</time>
      </trkpt>
      <trkpt lat="44.50269" lon="-1.10577">
        <ele>20</ele>
        <time>2019-08-11T12:10:50Z</time>
      </trkpt>
      <trkpt lat="44.50268" lon="-1.10577">
        <ele>20</ele>
        <time>2019-08-11T12:10:55Z</time>
      </trkpt>
      <trkpt lat="44.50269" lon="-1.10577">
        <ele>20</ele>
        <time>2019-08-11T12:11:05Z</time>
      </trkpt>
      <trkpt lat="44.50269" lon="-1.10577">
        <ele>20</ele>
        <time>2019-08-11T12:11:10Z</time>
      </trkpt>
      <trkpt lat="44.50268" lon="-1.10577">
        <ele>20</ele>
        <time>2019-08-11T12:11:20Z</time>
      </trkpt>
      <trkpt lat="44.50268" lon="-1.10577">
        <ele>20</ele>
        <time>2019-08-11T12:11:25Z</time>
      </trkpt>
      <trkpt lat="44.50268" lon="-1.10577">
        <ele>20</ele>
        <time>2019-08-11T12:11:35Z</time>
      </trkpt>
      <trkpt lat="44.50268" lon="-1.10577">
        <ele>20</ele>
        <time>2019-08-11T12:11:40Z</time>
      </trkpt>
      <trkpt lat="44.50269" lon="-1.10575">
        <ele>21</ele>
        <time>2019-08-11T12:11:50Z</time>
      </trkpt>
      <trkpt lat="44.50269" lon="-1.10575">
        <ele>21</ele>
        <time>2019-08-11T12:11:55Z</time>
      </trkpt>
      <trkpt lat="44.50269" lon="-1.10575">
        <ele>21</ele>
        <time>2019-08-11T12:12:05Z</time>
      </trkpt>
      <trkpt lat="44.50269" lon="-1.10575">
        <ele>21</ele>
        <time>2019-08-11T12:12:10Z</time>
      </trkpt>
      <trkpt lat="44.50269" lon="-1.10573">
        <ele>21</ele>
        <time>2019-08-11T12:12:20Z</time>
      </trkpt>
      <trkpt lat="44.5027" lon="-1.10573">
        <ele>21</ele>
        <time>2019-08-11T12:12:30Z</time>
      </trkpt>
      <trkpt lat="44.5027" lon="-1.10573">
        <ele>21</ele>
        <time>2019-08-11T12:12:35Z</time>
      </trkpt>
      <trkpt lat="44.5027" lon="-1.10573">
        <ele>21</ele>
        <time>2019-08-11T12:12:45Z</time>
      </trkpt>
      <trkpt lat="44.5027" lon="-1.10573">
        <ele>21</ele>
        <time>2019-08-11T12:12:50Z</time>
      </trkpt>
      <trkpt lat="44.50271" lon="-1.10573">
        <ele>21</ele>
        <time>2019-08-11T12:13:00Z</time>
      </trkpt>
      <trkpt lat="44.50271" lon="-1.10573">
        <ele>21</ele>
        <time>2019-08-11T12:13:05Z</time>
      </trkpt>
      <trkpt lat="44.5027" lon="-1.10572">
        <ele>21</ele>
        <time>2019-08-11T12:13:15Z</time>
      </trkpt>
      <trkpt lat="44.5027" lon="-1.10572">
        <ele>21</ele>
        <time>2019-08-11T12:13:20Z</time>
      </trkpt>
      <trkpt lat="44.5027" lon="-1.10572">
        <ele>21</ele>
        <time>2019-08-11T12:13:30Z</time>
      </trkpt>
      <trkpt lat="44.5027" lon="-1.10572">
        <ele>21</ele>
        <time>2019-08-11T12:13:35Z</time>
      </trkpt>
      <trkpt lat="44.5027" lon="-1.10571">
        <ele>21</ele>
        <time>2019-08-11T12:13:45Z</time>
      </trkpt>
      <trkpt lat="44.5027" lon="-1.1057">
        <ele>21</ele>
        <time>2019-08-11T12:13:50Z</time>
      </trkpt>
      <trkpt lat="44.5027" lon="-1.1057">
        <ele>21</ele>
        <time>2019-08-11T12:14:00Z</time>
      </trkpt>
      <trkpt lat="44.50269" lon="-1.10568">
        <ele>21</ele>
        <time>2019-08-11T12:14:10Z</time>
      </trkpt>
      <trkpt lat="44.5027" lon="-1.10567">
        <ele>22</ele>
        <time>2019-08-11T12:14:15Z</time>
      </trkpt>
      <trkpt lat="44.5027" lon="-1.10566">
        <ele>22</ele>
        <time>2019-08-11T12:14:25Z</time>
      </trkpt>
      <trkpt lat="44.5027" lon="-1.10565">
        <ele>22</ele>
        <time>2019-08-11T12:14:30Z</time>
      </trkpt>
      <trkpt lat="44.50271" lon="-1.10565">
        <ele>22</ele>
        <time>2019-08-11T12:14:40Z</time>
      </trkpt>
      <trkpt lat="44.50271" lon="-1.10563">
        <ele>22</ele>
        <time>2019-08-11T12:14:45Z</time>
      </trkpt>
      <trkpt lat="44.50268" lon="-1.1058">
        <ele>20</ele>
        <time>2019-08-11T12:14:55Z</time>
      </trkpt>
      <trkpt lat="44.50267" lon="-1.10582">
        <ele>20</ele>
        <time>2019-08-11T12:15:00Z</time>
      </trkpt>
      <trkpt lat="44.50268" lon="-1.10618">
        <ele>19</ele>
        <time>2019-08-11T12:15:10Z</time>
      </trkpt>
      <trkpt lat="44.50271" lon="-1.10625">
        <ele>20</ele>
        <time>2019-08-11T12:15:15Z</time>
      </trkpt>
      <trkpt lat="44.5027" lon="-1.10649">
        <ele>21</ele>
        <time>2019-08-11T12:15:25Z</time>
      </trkpt>
      <trkpt lat="44.50274" lon="-1.10659">
        <ele>21</ele>
        <time>2019-08-11T12:15:30Z</time>
      </trkpt>
      <trkpt lat="44.50286" lon="-1.10664">
        <ele>23</ele>
        <time>2019-08-11T12:15:40Z</time>
      </trkpt>
      <trkpt lat="44.50296" lon="-1.10666">
        <ele>25</ele>
        <time>2019-08-11T12:15:50Z</time>
      </trkpt>
      <trkpt lat="44.50299" lon="-1.10666">
        <ele>25</ele>
        <time>2019-08-11T12:15:55Z</time>
      </trkpt>
      <trkpt lat="44.50306" lon="-1.10659">
        <ele>28</ele>
        <time>2019-08-11T12:16:05Z</time>
      </trkpt>
      <trkpt lat="44.50306" lon="-1.10661">
        <ele>28</ele>
        <time>2019-08-11T12:16:10Z</time>
      </trkpt>
      <trkpt lat="44.50307" lon="-1.10665">
        <ele>27</ele>
        <time>2019-08-11T12:16:20Z</time>
      </trkpt>
      <trkpt lat="44.50307" lon="-1.10665">
        <ele>27</ele>
        <time>2019-08-11T12:16:25Z</time>
      </trkpt>
      <trkpt lat="44.50307" lon="-1.10665">
        <ele>27</ele>
        <time>2019-08-11T12:16:35Z</time>
      </trkpt>
      <trkpt lat="44.50307" lon="-1.10665">
        <ele>27</ele>
        <time>2019-08-11T12:16:40Z</time>
      </trkpt>
      <trkpt lat="44.50307" lon="-1.10665">
        <ele>27</ele>
        <time>2019-08-11T12:16:50Z</time>
      </trkpt>
      <trkpt lat="44.50307" lon="-1.10665">
        <ele>27</ele>
        <time>2019-08-11T12:16:55Z</time>
      </trkpt>
      <trkpt lat="44.50307" lon="-1.10665">
        <ele>27</ele>
        <time>2019-08-11T12:17:05Z</time>
      </trkpt>
      <trkpt lat="44.50306" lon="-1.10665">
        <ele>27</ele>
        <time>2019-08-11T12:17:15Z</time>
      </trkpt>
      <trkpt lat="44.50306" lon="-1.10665">
        <ele>27</ele>
        <time>2019-08-11T12:17:20Z</time>
      </trkpt>
      <trkpt lat="44.50305" lon="-1.1066">
        <ele>26</ele>
        <time>2019-08-11T12:17:30Z</time>
      </trkpt>
      <trkpt lat="44.50302" lon="-1.10653">
        <ele>26</ele>
        <time>2019-08-11T12:17:35Z</time>
      </trkpt>
      <trkpt lat="44.50293" lon="-1.10648">
        <ele>25</ele>
        <time>2019-08-11T12:17:45Z</time>
      </trkpt>
      <trkpt lat="44.50288" lon="-1.10648">
        <ele>25</ele>
        <time>2019-08-11T12:17:50Z</time>
      </trkpt>
      <trkpt lat="44.50283" lon="-1.10641">
        <ele>23</ele>
        <time>2019-08-11T12:18:00Z</time>
      </trkpt>
      <trkpt lat="44.50282" lon="-1.10636">
        <ele>23</ele>
        <time>2019-08-11T12:18:05Z</time>
      </trkpt>
      <trkpt lat="44.50282" lon="-1.10624">
        <ele>23</ele>
        <time>2019-08-11T12:18:15Z</time>
      </trkpt>
      <trkpt lat="44.50281" lon="-1.1062">
        <ele>22</ele>
        <time>2019-08-11T12:18:20Z</time>
      </trkpt>
      <trkpt lat="44.50279" lon="-1.10618">
        <ele>22</ele>
        <time>2019-08-11T12:18:30Z</time>
      </trkpt>
      <trkpt lat="44.50278" lon="-1.10619">
        <ele>22</ele>
        <time>2019-08-11T12:18:35Z</time>
      </trkpt>
      <trkpt lat="44.50277" lon="-1.10621">
        <ele>22</ele>
        <time>2019-08-11T12:18:45Z</time>
      </trkpt>
      <trkpt lat="44.50278" lon="-1.10621">
        <ele>22</ele>
        <time>2019-08-11T12:18:55Z</time>
      </trkpt>
      <trkpt lat="44.50277" lon="-1.10621">
        <ele>22</ele>
        <time>2019-08-11T12:19:00Z</time>
      </trkpt>
      <trkpt lat="44.50277" lon="-1.10621">
        <ele>22</ele>
        <time>2019-08-11T12:19:10Z</time>
      </trkpt>
      <trkpt lat="44.50277" lon="-1.10621">
        <ele>22</ele>
        <time>2019-08-11T12:19:15Z</time>
      </trkpt>
      <trkpt lat="44.50277" lon="-1.10621">
        <ele>22</ele>
        <time>2019-08-11T12:19:25Z</time>
      </trkpt>
      <trkpt lat="44.50277" lon="-1.10621">
        <ele>22</ele>
        <time>2019-08-11T12:19:30Z</time>
      </trkpt>
      <trkpt lat="44.50277" lon="-1.10621">
        <ele>22</ele>
        <time>2019-08-11T12:19:40Z</time>
      </trkpt>
      <trkpt lat="44.50277" lon="-1.10621">
        <ele>22</ele>
        <time>2019-08-11T12:19:45Z</time>
      </trkpt>
      <trkpt lat="44.50277" lon="-1.10621">
        <ele>22</ele>
        <time>2019-08-11T12:19:55Z</time>
      </trkpt>
      <trkpt lat="44.50277" lon="-1.10621">
        <ele>22</ele>
        <time>2019-08-11T12:20:00Z</time>
      </trkpt>
      <trkpt lat="44.50277" lon="-1.10621">
        <ele>22</ele>
        <time>2019-08-11T12:20:10Z</time>
      </trkpt>
      <trkpt lat="44.50277" lon="-1.10622">
        <ele>22</ele>
        <time>2019-08-11T12:20:15Z</time>
      </trkpt>
      <trkpt lat="44.50279" lon="-1.10624">
        <ele>22</ele>
        <time>2019-08-11T12:20:25Z</time>
      </trkpt>
      <trkpt lat="44.50279" lon="-1.10624">
        <ele>22</ele>
        <time>2019-08-11T12:20:35Z</time>
      </trkpt>
      <trkpt lat="44.50279" lon="-1.10624">
        <ele>22</ele>
        <time>2019-08-11T12:20:40Z</time>
      </trkpt>
      <trkpt lat="44.50279" lon="-1.10624">
        <ele>22</ele>
        <time>2019-08-11T12:20:50Z</time>
      </trkpt>
      <trkpt lat="44.50279" lon="-1.10624">
        <ele>22</ele>
        <time>2019-08-11T12:20:55Z</time>
      </trkpt>
      <trkpt lat="44.5028" lon="-1.10624">
        <ele>22</ele>
        <time>2019-08-11T12:21:05Z</time>
      </trkpt>
      <trkpt lat="44.5028" lon="-1.10624">
        <ele>22</ele>
        <time>2019-08-11T12:21:10Z</time>
      </trkpt>
      <trkpt lat="44.50279" lon="-1.10624">
        <ele>22</ele>
        <time>2019-08-11T12:21:20Z</time>
      </trkpt>
      <trkpt lat="44.50279" lon="-1.10624">
        <ele>22</ele>
        <time>2019-08-11T12:21:25Z</time>
      </trkpt>
      <trkpt lat="44.5028" lon="-1.10624">
        <ele>22</ele>
        <time>2019-08-11T12:21:35Z</time>
      </trkpt>
      <trkpt lat="44.5028" lon="-1.10624">
        <ele>22</ele>
        <time>2019-08-11T12:21:40Z</time>
      </trkpt>
      <trkpt lat="44.5028" lon="-1.10624">
        <ele>22</ele>
        <time>2019-08-11T12:21:50Z</time>
      </trkpt>
      <trkpt lat="44.5028" lon="-1.10624">
        <ele>22</ele>
        <time>2019-08-11T12:21:55Z</time>
      </trkpt>
      <trkpt lat="44.5028" lon="-1.10624">
        <ele>22</ele>
        <time>2019-08-11T12:22:05Z</time>
      </trkpt>
      <trkpt lat="44.5028" lon="-1.10624">
        <ele>22</ele>
        <time>2019-08-11T12:22:15Z</time>
      </trkpt>
      <trkpt lat="44.5028" lon="-1.10624">
        <ele>22</ele>
        <time>2019-08-11T12:22:20Z</time>
      </trkpt>
      <trkpt lat="44.5028" lon="-1.10624">
        <ele>22</ele>
        <time>2019-08-11T12:22:30Z</time>
      </trkpt>
      <trkpt lat="44.5028" lon="-1.10624">
        <ele>22</ele>
        <time>2019-08-11T12:22:35Z</time>
      </trkpt>
      <trkpt lat="44.5028" lon="-1.10624">
        <ele>22</ele>
        <time>2019-08-11T12:22:45Z</time>
      </trkpt>
      <trkpt lat="44.5028" lon="-1.10624">
        <ele>22</ele>
        <time>2019-08-11T12:22:50Z</time>
      </trkpt>
      <trkpt lat="44.5028" lon="-1.10624">
        <ele>22</ele>
        <time>2019-08-11T12:23:00Z</time>
      </trkpt>
      <trkpt lat="44.5028" lon="-1.10625">
        <ele>22</ele>
        <time>2019-08-11T12:23:05Z</time>
      </trkpt>
      <trkpt lat="44.50278" lon="-1.10634">
        <ele>22</ele>
        <time>2019-08-11T12:23:15Z</time>
      </trkpt>
      <trkpt lat="44.50279" lon="-1.10639">
        <ele>22</ele>
        <time>2019-08-11T12:23:20Z</time>
      </trkpt>
      <trkpt lat="44.50277" lon="-1.10645">
        <ele>22</ele>
        <time>2019-08-11T12:23:30Z</time>
      </trkpt>
      <trkpt lat="44.50274" lon="-1.10642">
        <ele>21</ele>
        <time>2019-08-11T12:23:35Z</time>
      </trkpt>
      <trkpt lat="44.50269" lon="-1.10641">
        <ele>19</ele>
        <time>2019-08-11T12:23:45Z</time>
      </trkpt>
      <trkpt lat="44.50264" lon="-1.10644">
        <ele>19</ele>
        <time>2019-08-11T12:23:55Z</time>
      </trkpt>
      <trkpt lat="44.50261" lon="-1.10647">
        <ele>19</ele>
        <time>2019-08-11T12:24:00Z</time>
      </trkpt>
      <trkpt lat="44.50255" lon="-1.10648">
        <ele>18</ele>
        <time>2019-08-11T12:24:10Z</time>
      </trkpt>
      <trkpt lat="44.50252" lon="-1.10648">
        <ele>18</ele>
        <time>2019-08-11T12:24:15Z</time>
      </trkpt>
      <trkpt lat="44.50245" lon="-1.10649">
        <ele>18</ele>
        <time>2019-08-11T12:24:25Z</time>
      </trkpt>
      <trkpt lat="44.50242" lon="-1.10648">
        <ele>18</ele>
        <time>2019-08-11T12:24:30Z</time>
      </trkpt>
      <trkpt lat="44.50234" lon="-1.10646">
        <ele>18</ele>
        <time>2019-08-11T12:24:40Z</time>
      </trkpt>
      <trkpt lat="44.50231" lon="-1.10645">
        <ele>18</ele>
        <time>2019-08-11T12:24:45Z</time>
      </trkpt>
      <trkpt lat="44.50223" lon="-1.10643">
        <ele>18</ele>
        <time>2019-08-11T12:24:55Z</time>
      </trkpt>
      <trkpt lat="44.5022" lon="-1.10644">
        <ele>18</ele>
        <time>2019-08-11T12:25:00Z</time>
      </trkpt>
      <trkpt lat="44.50215" lon="-1.10644">
        <ele>18</ele>
        <time>2019-08-11T12:25:10Z</time>
      </trkpt>
      <trkpt lat="44.5021" lon="-1.10643">
        <ele>18</ele>
        <time>2019-08-11T12:25:20Z</time>
      </trkpt>
      <trkpt lat="44.50208" lon="-1.10642">
        <ele>18</ele>
        <time>2019-08-11T12:25:25Z</time>
      </trkpt>
      <trkpt lat="44.50203" lon="-1.10643">
        <ele>18</ele>
        <time>2019-08-11T12:25:35Z</time>
      </trkpt>
      <trkpt lat="44.50202" lon="-1.10642">
        <ele>18</ele>
        <time>2019-08-11T12:25:40Z</time>
      </trkpt>
      <trkpt lat="44.50198" lon="-1.10641">
        <ele>18</ele>
        <time>2019-08-11T12:25:50Z</time>
      </trkpt>
      <trkpt lat="44.50196" lon="-1.10641">
        <ele>18</ele>
        <time>2019-08-11T12:25:55Z</time>
      </trkpt>
      <trkpt lat="44.50192" lon="-1.10641">
        <ele>18</ele>
        <time>2019-08-11T12:26:05Z</time>
      </trkpt>
      <trkpt lat="44.5019" lon="-1.1064">
        <ele>18</ele>
        <time>2019-08-11T12:26:10Z</time>
      </trkpt>
      <trkpt lat="44.50185" lon="-1.10639">
        <ele>18</ele>
        <time>2019-08-11T12:26:20Z</time>
      </trkpt>
      <trkpt lat="44.50183" lon="-1.10639">
        <ele>18</ele>
        <time>2019-08-11T12:26:25Z</time>
      </trkpt>
      <trkpt lat="44.50179" lon="-1.10638">
        <ele>18</ele>
        <time>2019-08-11T12:26:35Z</time>
      </trkpt>
      <trkpt lat="44.50177" lon="-1.10638">
        <ele>18</ele>
        <time>2019-08-11T12:26:40Z</time>
      </trkpt>
      <trkpt lat="44.50173" lon="-1.10636">
        <ele>18</ele>
        <time>2019-08-11T12:26:50Z</time>
      </trkpt>
      <trkpt lat="44.50169" lon="-1.10634">
        <ele>18</ele>
        <time>2019-08-11T12:27:00Z</time>
      </trkpt>
      <trkpt lat="44.50167" lon="-1.10633">
        <ele>18</ele>
        <time>2019-08-11T12:27:05Z</time>
      </trkpt>
      <trkpt lat="44.50164" lon="-1.10632">
        <ele>18</ele>
        <time>2019-08-11T12:27:15Z</time>
      </trkpt>
      <trkpt lat="44.50162" lon="-1.10631">
        <ele>18</ele>
        <time>2019-08-11T12:27:20Z</time>
      </trkpt>
      <trkpt lat="44.50161" lon="-1.10628">
        <ele>18</ele>
        <time>2019-08-11T12:27:30Z</time>
      </trkpt>
      <trkpt lat="44.5016" lon="-1.10627">
        <ele>18</ele>
        <time>2019-08-11T12:27:35Z</time>
      </trkpt>
      <trkpt lat="44.50158" lon="-1.10625">
        <ele>18</ele>
        <time>2019-08-11T12:27:45Z</time>
      </trkpt>
      <trkpt lat="44.50157" lon="-1.10626">
        <ele>18</ele>
        <time>2019-08-11T12:27:50Z</time>
      </trkpt>
      <trkpt lat="44.50156" lon="-1.10629">
        <ele>18</ele>
        <time>2019-08-11T12:28:00Z</time>
      </trkpt>
      <trkpt lat="44.50156" lon="-1.10632">
        <ele>18</ele>
        <time>2019-08-11T12:28:05Z</time>
      </trkpt>
      <trkpt lat="44.50156" lon="-1.10635">
        <ele>18</ele>
        <time>2019-08-11T12:28:15Z</time>
      </trkpt>
      <trkpt lat="44.50156" lon="-1.10635">
        <ele>18</ele>
        <time>2019-08-11T12:28:20Z</time>
      </trkpt>
      <trkpt lat="44.50156" lon="-1.10635">
        <ele>18</ele>
        <time>2019-08-11T12:28:30Z</time>
      </trkpt>
      <trkpt lat="44.50156" lon="-1.10635">
        <ele>18</ele>
        <time>2019-08-11T12:28:40Z</time>
      </trkpt>
      <trkpt lat="44.50156" lon="-1.10635">
        <ele>18</ele>
        <time>2019-08-11T12:28:45Z</time>
      </trkpt>
      <trkpt lat="44.50156" lon="-1.10635">
        <ele>18</ele>
        <time>2019-08-11T12:28:55Z</time>
      </trkpt>
      <trkpt lat="44.50156" lon="-1.10635">
        <ele>18</ele>
        <time>2019-08-11T12:29:00Z</time>
      </trkpt>
      <trkpt lat="44.50156" lon="-1.10635">
        <ele>18</ele>
        <time>2019-08-11T12:29:10Z</time>
      </trkpt>
      <trkpt lat="44.50156" lon="-1.10635">
        <ele>18</ele>
        <time>2019-08-11T12:29:15Z</time>
      </trkpt>
      <trkpt lat="44.50156" lon="-1.10635">
        <ele>18</ele>
        <time>2019-08-11T12:29:25Z</time>
      </trkpt>
      <trkpt lat="44.50156" lon="-1.10635">
        <ele>18</ele>
        <time>2019-08-11T12:29:30Z</time>
      </trkpt>
      <trkpt lat="44.50156" lon="-1.10635">
        <ele>18</ele>
        <time>2019-08-11T12:29:40Z</time>
      </trkpt>
      <trkpt lat="44.50156" lon="-1.10635">
        <ele>18</ele>
        <time>2019-08-11T12:29:45Z</time>
      </trkpt>
      <trkpt lat="44.50156" lon="-1.10635">
        <ele>18</ele>
        <time>2019-08-11T12:29:55Z</time>
      </trkpt>
      <trkpt lat="44.50156" lon="-1.10635">
        <ele>18</ele>
        <time>2019-08-11T12:30:00Z</time>
      </trkpt>
      <trkpt lat="44.50156" lon="-1.10635">
        <ele>18</ele>
        <time>2019-08-11T12:30:10Z</time>
      </trkpt>
      <trkpt lat="44.50156" lon="-1.10637">
        <ele>18</ele>
        <time>2019-08-11T12:30:20Z</time>
      </trkpt>
      <trkpt lat="44.50156" lon="-1.10637">
        <ele>18</ele>
        <time>2019-08-11T12:30:25Z</time>
      </trkpt>
      <trkpt lat="44.50156" lon="-1.10636">
        <ele>18</ele>
        <time>2019-08-11T12:30:35Z</time>
      </trkpt>
      <trkpt lat="44.50156" lon="-1.10636">
        <ele>18</ele>
        <time>2019-08-11T12:30:40Z</time>
      </trkpt>
      <trkpt lat="44.50157" lon="-1.10636">
        <ele>18</ele>
        <time>2019-08-11T12:30:50Z</time>
      </trkpt>
      <trkpt lat="44.50156" lon="-1.10638">
        <ele>18</ele>
        <time>2019-08-11T12:30:55Z</time>
      </trkpt>
      <trkpt lat="44.50156" lon="-1.10638">
        <ele>18</ele>
        <time>2019-08-11T12:31:05Z</time>
      </trkpt>
      <trkpt lat="44.50156" lon="-1.10638">
        <ele>18</ele>
        <time>2019-08-11T12:31:10Z</time>
      </trkpt>
      <trkpt lat="44.50156" lon="-1.10638">
        <ele>18</ele>
        <time>2019-08-11T12:31:20Z</time>
      </trkpt>
      <trkpt lat="44.50154" lon="-1.10643">
        <ele>18</ele>
        <time>2019-08-11T12:31:25Z</time>
      </trkpt>
      <trkpt lat="44.50153" lon="-1.10649">
        <ele>18</ele>
        <time>2019-08-11T12:31:35Z</time>
      </trkpt>
      <trkpt lat="44.50151" lon="-1.10648">
        <ele>18</ele>
        <time>2019-08-11T12:31:45Z</time>
      </trkpt>
      <trkpt lat="44.50148" lon="-1.10647">
        <ele>18</ele>
        <time>2019-08-11T12:31:50Z</time>
      </trkpt>
      <trkpt lat="44.50143" lon="-1.10649">
        <ele>18</ele>
        <time>2019-08-11T12:32:00Z</time>
      </trkpt>
      <trkpt lat="44.50141" lon="-1.10651">
        <ele>18</ele>
        <time>2019-08-11T12:32:05Z</time>
      </trkpt>
      <trkpt lat="44.50137" lon="-1.10652">
        <ele>18</ele>
        <time>2019-08-11T12:32:15Z</time>
      </trkpt>
      <trkpt lat="44.50135" lon="-1.10653">
        <ele>18</ele>
        <time>2019-08-11T12:32:20Z</time>
      </trkpt>
      <trkpt lat="44.50132" lon="-1.10657">
        <ele>18</ele>
        <time>2019-08-11T12:32:30Z</time>
      </trkpt>
      <trkpt lat="44.50131" lon="-1.10658">
        <ele>18</ele>
        <time>2019-08-11T12:32:35Z</time>
      </trkpt>
      <trkpt lat="44.50127" lon="-1.10663">
        <ele>18</ele>
        <time>2019-08-11T12:32:45Z</time>
      </trkpt>
      <trkpt lat="44.50125" lon="-1.10666">
        <ele>18</ele>
        <time>2019-08-11T12:32:50Z</time>
      </trkpt>
      <trkpt lat="44.50122" lon="-1.1067">
        <ele>18</ele>
        <time>2019-08-11T12:33:00Z</time>
      </trkpt>
      <trkpt lat="44.50122" lon="-1.1067">
        <ele>18</ele>
        <time>2019-08-11T12:33:05Z</time>
      </trkpt>
      <trkpt lat="44.50122" lon="-1.10671">
        <ele>18</ele>
        <time>2019-08-11T12:33:15Z</time>
      </trkpt>
      <trkpt lat="44.50121" lon="-1.10673">
        <ele>18</ele>
        <time>2019-08-11T12:33:25Z</time>
      </trkpt>
      <trkpt lat="44.50121" lon="-1.10674">
        <ele>18</ele>
        <time>2019-08-11T12:33:30Z</time>
      </trkpt>
      <trkpt lat="44.5012" lon="-1.10676">
        <ele>18</ele>
        <time>2019-08-11T12:33:40Z</time>
      </trkpt>
      <trkpt lat="44.50119" lon="-1.10677">
        <ele>18</ele>
        <time>2019-08-11T12:33:45Z</time>
      </trkpt>
      <trkpt lat="44.50118" lon="-1.10685">
        <ele>18</ele>
        <time>2019-08-11T12:33:55Z</time>
      </trkpt>
      <trkpt lat="44.50118" lon="-1.10687">
        <ele>18</ele>
        <time>2019-08-11T12:34:00Z</time>
      </trkpt>
      <trkpt lat="44.5012" lon="-1.10694">
        <ele>18</ele>
        <time>2019-08-11T12:34:10Z</time>
      </trkpt>
      <trkpt lat="44.50122" lon="-1.10698">
        <ele>18</ele>
        <time>2019-08-11T12:34:15Z</time>
      </trkpt>
      <trkpt lat="44.50125" lon="-1.107">
        <ele>18</ele>
        <time>2019-08-11T12:34:25Z</time>
      </trkpt>
      <trkpt lat="44.50125" lon="-1.10698">
        <ele>18</ele>
        <time>2019-08-11T12:34:30Z</time>
      </trkpt>
      <trkpt lat="44.50125" lon="-1.10693">
        <ele>18</ele>
        <time>2019-08-11T12:34:40Z</time>
      </trkpt>
      <trkpt lat="44.50125" lon="-1.10691">
        <ele>18</ele>
        <time>2019-08-11T12:34:45Z</time>
      </trkpt>
      <trkpt lat="44.50125" lon="-1.10684">
        <ele>18</ele>
        <time>2019-08-11T12:34:55Z</time>
      </trkpt>
      <trkpt lat="44.50123" lon="-1.10678">
        <ele>18</ele>
        <time>2019-08-11T12:35:05Z</time>
      </trkpt>
      <trkpt lat="44.50122" lon="-1.10679">
        <ele>18</ele>
        <time>2019-08-11T12:35:10Z</time>
      </trkpt>
      <trkpt lat="44.50122" lon="-1.1068">
        <ele>18</ele>
        <time>2019-08-11T12:35:20Z</time>
      </trkpt>
      <trkpt lat="44.50122" lon="-1.10681">
        <ele>18</ele>
        <time>2019-08-11T12:35:25Z</time>
      </trkpt>
      <trkpt lat="44.50123" lon="-1.10682">
        <ele>18</ele>
        <time>2019-08-11T12:35:35Z</time>
      </trkpt>
      <trkpt lat="44.50124" lon="-1.10682">
        <ele>18</ele>
        <time>2019-08-11T12:35:40Z</time>
      </trkpt>
      <trkpt lat="44.50124" lon="-1.10681">
        <ele>18</ele>
        <time>2019-08-11T12:35:50Z</time>
      </trkpt>
      <trkpt lat="44.50124" lon="-1.10682">
        <ele>18</ele>
        <time>2019-08-11T12:35:55Z</time>
      </trkpt>
      <trkpt lat="44.50126" lon="-1.10682">
        <ele>18</ele>
        <time>2019-08-11T12:36:05Z</time>
      </trkpt>
      <trkpt lat="44.50126" lon="-1.10682">
        <ele>18</ele>
        <time>2019-08-11T12:36:10Z</time>
      </trkpt>
      <trkpt lat="44.50126" lon="-1.10683">
        <ele>18</ele>
        <time>2019-08-11T12:36:20Z</time>
      </trkpt>
      <trkpt lat="44.50126" lon="-1.10683">
        <ele>18</ele>
        <time>2019-08-11T12:36:25Z</time>
      </trkpt>
      <trkpt lat="44.50126" lon="-1.10686">
        <ele>18</ele>
        <time>2019-08-11T12:36:35Z</time>
      </trkpt>
      <trkpt lat="44.50125" lon="-1.10689">
        <ele>18</ele>
        <time>2019-08-11T12:36:45Z</time>
      </trkpt>
      <trkpt lat="44.50125" lon="-1.10689">
        <ele>18</ele>
        <time>2019-08-11T12:36:50Z</time>
      </trkpt>
      <trkpt lat="44.50125" lon="-1.10689">
        <ele>18</ele>
        <time>2019-08-11T12:37:00Z</time>
      </trkpt>
      <trkpt lat="44.50125" lon="-1.10689">
        <ele>18</ele>
        <time>2019-08-11T12:37:05Z</time>
      </trkpt>
      <trkpt lat="44.50125" lon="-1.10689">
        <ele>18</ele>
        <time>2019-08-11T12:37:15Z</time>
      </trkpt>
      <trkpt lat="44.50125" lon="-1.10689">
        <ele>18</ele>
        <time>2019-08-11T12:37:20Z</time>
      </trkpt>
      <trkpt lat="44.50125" lon="-1.10689">
        <ele>18</ele>
        <time>2019-08-11T12:37:30Z</time>
      </trkpt>
      <trkpt lat="44.50125" lon="-1.10689">
        <ele>18</ele>
        <time>2019-08-11T12:37:35Z</time>
      </trkpt>
      <trkpt lat="44.50125" lon="-1.10689">
        <ele>18</ele>
        <time>2019-08-11T12:37:45Z</time>
      </trkpt>
      <trkpt lat="44.50125" lon="-1.1069">
        <ele>18</ele>
        <time>2019-08-11T12:37:50Z</time>
      </trkpt>
      <trkpt lat="44.50124" lon="-1.1069">
        <ele>18</ele>
        <time>2019-08-11T12:38:00Z</time>
      </trkpt>
      <trkpt lat="44.50124" lon="-1.1069">
        <ele>18</ele>
        <time>2019-08-11T12:38:05Z</time>
      </trkpt>
      <trkpt lat="44.50123" lon="-1.10689">
        <ele>18</ele>
        <time>2019-08-11T12:38:15Z</time>
      </trkpt>
      <trkpt lat="44.50124" lon="-1.10689">
        <ele>18</ele>
        <time>2019-08-11T12:38:25Z</time>
      </trkpt>
      <trkpt lat="44.50123" lon="-1.10689">
        <ele>18</ele>
        <time>2019-08-11T12:38:30Z</time>
      </trkpt>
      <trkpt lat="44.50123" lon="-1.10689">
        <ele>18</ele>
        <time>2019-08-11T12:38:40Z</time>
      </trkpt>
      <trkpt lat="44.50123" lon="-1.10689">
        <ele>18</ele>
        <time>2019-08-11T12:38:45Z</time>
      </trkpt>
      <trkpt lat="44.50124" lon="-1.10688">
        <ele>18</ele>
        <time>2019-08-11T12:38:55Z</time>
      </trkpt>
      <trkpt lat="44.50124" lon="-1.10688">
        <ele>18</ele>
        <time>2019-08-11T12:39:00Z</time>
      </trkpt>
      <trkpt lat="44.50124" lon="-1.10689">
        <ele>18</ele>
        <time>2019-08-11T12:39:10Z</time>
      </trkpt>
      <trkpt lat="44.50124" lon="-1.10689">
        <ele>18</ele>
        <time>2019-08-11T12:39:15Z</time>
      </trkpt>
      <trkpt lat="44.50124" lon="-1.10689">
        <ele>18</ele>
        <time>2019-08-11T12:39:25Z</time>
      </trkpt>
      <trkpt lat="44.50124" lon="-1.10689">
        <ele>18</ele>
        <time>2019-08-11T12:39:30Z</time>
      </trkpt>
      <trkpt lat="44.49182" lon="-1.11522">
        <ele>18</ele>
        <time>2019-08-11T12:39:40Z</time>
      </trkpt>
      <trkpt lat="44.49116" lon="-1.11598">
        <ele>18</ele>
        <time>2019-08-11T12:39:50Z</time>
      </trkpt>
      <trkpt lat="44.4911" lon="-1.11601">
        <ele>18</ele>
        <time>2019-08-11T12:39:55Z</time>
      </trkpt>
      <trkpt lat="44.49095" lon="-1.11606">
        <ele>18</ele>
        <time>2019-08-11T12:40:05Z</time>
      </trkpt>
      <trkpt lat="44.49085" lon="-1.11605">
        <ele>18</ele>
        <time>2019-08-11T12:40:10Z</time>
      </trkpt>
      <trkpt lat="44.49066" lon="-1.11597">
        <ele>18</ele>
        <time>2019-08-11T12:40:20Z</time>
      </trkpt>
      <trkpt lat="44.49058" lon="-1.11591">
        <ele>18</ele>
        <time>2019-08-11T12:40:25Z</time>
      </trkpt>
      <trkpt lat="44.49041" lon="-1.11582">
        <ele>18</ele>
        <time>2019-08-11T12:40:35Z</time>
      </trkpt>
      <trkpt lat="44.49032" lon="-1.11581">
        <ele>18</ele>
        <time>2019-08-11T12:40:40Z</time>
      </trkpt>
      <trkpt lat="44.49012" lon="-1.11587">
        <ele>18</ele>
        <time>2019-08-11T12:40:50Z</time>
      </trkpt>
      <trkpt lat="44.49002" lon="-1.11595">
        <ele>18</ele>
        <time>2019-08-11T12:40:55Z</time>
      </trkpt>
      <trkpt lat="44.48987" lon="-1.11613">
        <ele>18</ele>
        <time>2019-08-11T12:41:05Z</time>
      </trkpt>
      <trkpt lat="44.4898" lon="-1.11621">
        <ele>18</ele>
        <time>2019-08-11T12:41:10Z</time>
      </trkpt>
      <trkpt lat="44.48967" lon="-1.11637">
        <ele>18</ele>
        <time>2019-08-11T12:41:20Z</time>
      </trkpt>
      <trkpt lat="44.48954" lon="-1.11651">
        <ele>18</ele>
        <time>2019-08-11T12:41:30Z</time>
      </trkpt>
      <trkpt lat="44.48948" lon="-1.11658">
        <ele>18</ele>
        <time>2019-08-11T12:41:35Z</time>
      </trkpt>
      <trkpt lat="44.48935" lon="-1.11671">
        <ele>18</ele>
        <time>2019-08-11T12:41:45Z</time>
      </trkpt>
      <trkpt lat="44.48929" lon="-1.11677">
        <ele>18</ele>
        <time>2019-08-11T12:41:50Z</time>
      </trkpt>
      <trkpt lat="44.48916" lon="-1.11688">
        <ele>18</ele>
        <time>2019-08-11T12:42:00Z</time>
      </trkpt>
      <trkpt lat="44.4891" lon="-1.11695">
        <ele>18</ele>
        <time>2019-08-11T12:42:05Z</time>
      </trkpt>
      <trkpt lat="44.48895" lon="-1.11709">
        <ele>18</ele>
        <time>2019-08-11T12:42:15Z</time>
      </trkpt>
      <trkpt lat="44.48888" lon="-1.11717">
        <ele>18</ele>
        <time>2019-08-11T12:42:20Z</time>
      </trkpt>
      <trkpt lat="44.48872" lon="-1.11733">
        <ele>18</ele>
        <time>2019-08-11T12:42:30Z</time>
      </trkpt>
      <trkpt lat="44.48864" lon="-1.11741">
        <ele>18</ele>
        <time>2019-08-11T12:42:35Z</time>
      </trkpt>
      <trkpt lat="44.48849" lon="-1.11756">
        <ele>18</ele>
        <time>2019-08-11T12:42:45Z</time>
      </trkpt>
      <trkpt lat="44.48841" lon="-1.11763">
        <ele>18</ele>
        <time>2019-08-11T12:42:50Z</time>
      </trkpt>
      <trkpt lat="44.48828" lon="-1.11777">
        <ele>18</ele>
        <time>2019-08-11T12:43:00Z</time>
      </trkpt>
      <trkpt lat="44.48814" lon="-1.11789">
        <ele>18</ele>
        <time>2019-08-11T12:43:10Z</time>
      </trkpt>
      <trkpt lat="44.48807" lon="-1.11794">
        <ele>18</ele>
        <time>2019-08-11T12:43:15Z</time>
      </trkpt>
      <trkpt lat="44.48791" lon="-1.11805">
        <ele>18</ele>
        <time>2019-08-11T12:43:25Z</time>
      </trkpt>
      <trkpt lat="44.48783" lon="-1.11813">
        <ele>18</ele>
        <time>2019-08-11T12:43:30Z</time>
      </trkpt>
      <trkpt lat="44.48768" lon="-1.11831">
        <ele>18</ele>
        <time>2019-08-11T12:43:40Z</time>
      </trkpt>
      <trkpt lat="44.48761" lon="-1.11841">
        <ele>18</ele>
        <time>2019-08-11T12:43:45Z</time>
      </trkpt>
      <trkpt lat="44.48748" lon="-1.11857">
        <ele>18</ele>
        <time>2019-08-11T12:43:55Z</time>
      </trkpt>
      <trkpt lat="44.48741" lon="-1.11865">
        <ele>18</ele>
        <time>2019-08-11T12:44:00Z</time>
      </trkpt>
      <trkpt lat="44.48727" lon="-1.11883">
        <ele>18</ele>
        <time>2019-08-11T12:44:10Z</time>
      </trkpt>
      <trkpt lat="44.48721" lon="-1.11891">
        <ele>18</ele>
        <time>2019-08-11T12:44:15Z</time>
      </trkpt>
      <trkpt lat="44.48708" lon="-1.11909">
        <ele>18</ele>
        <time>2019-08-11T12:44:25Z</time>
      </trkpt>
      <trkpt lat="44.48702" lon="-1.11918">
        <ele>18</ele>
        <time>2019-08-11T12:44:30Z</time>
      </trkpt>
      <trkpt lat="44.48692" lon="-1.11937">
        <ele>18</ele>
        <time>2019-08-11T12:44:40Z</time>
      </trkpt>
      <trkpt lat="44.4868" lon="-1.11956">
        <ele>18</ele>
        <time>2019-08-11T12:44:50Z</time>
      </trkpt>
      <trkpt lat="44.48673" lon="-1.11966">
        <ele>18</ele>
        <time>2019-08-11T12:44:55Z</time>
      </trkpt>
      <trkpt lat="44.48659" lon="-1.11984">
        <ele>18</ele>
        <time>2019-08-11T12:45:05Z</time>
      </trkpt>
      <trkpt lat="44.48651" lon="-1.11993">
        <ele>18</ele>
        <time>2019-08-11T12:45:10Z</time>
      </trkpt>
      <trkpt lat="44.48636" lon="-1.12011">
        <ele>18</ele>
        <time>2019-08-11T12:45:20Z</time>
      </trkpt>
      <trkpt lat="44.48629" lon="-1.12019">
        <ele>18</ele>
        <time>2019-08-11T12:45:25Z</time>
      </trkpt>
      <trkpt lat="44.48612" lon="-1.12037">
        <ele>18</ele>
        <time>2019-08-11T12:45:35Z</time>
      </trkpt>
      <trkpt lat="44.48604" lon="-1.12048">
        <ele>18</ele>
        <time>2019-08-11T12:45:40Z</time>
      </trkpt>
      <trkpt lat="44.48587" lon="-1.12071">
        <ele>18</ele>
        <time>2019-08-11T12:45:50Z</time>
      </trkpt>
      <trkpt lat="44.48578" lon="-1.12082">
        <ele>18</ele>
        <time>2019-08-11T12:45:55Z</time>
      </trkpt>
      <trkpt lat="44.48561" lon="-1.12103">
        <ele>18</ele>
        <time>2019-08-11T12:46:05Z</time>
      </trkpt>
      <trkpt lat="44.48552" lon="-1.12113">
        <ele>18</ele>
        <time>2019-08-11T12:46:10Z</time>
      </trkpt>
      <trkpt lat="44.48536" lon="-1.12136">
        <ele>18</ele>
        <time>2019-08-11T12:46:20Z</time>
      </trkpt>
      <trkpt lat="44.48521" lon="-1.12159">
        <ele>18</ele>
        <time>2019-08-11T12:46:30Z</time>
      </trkpt>
      <trkpt lat="44.48513" lon="-1.12169">
        <ele>18</ele>
        <time>2019-08-11T12:46:35Z</time>
      </trkpt>
      <trkpt lat="44.48498" lon="-1.12189">
        <ele>18</ele>
        <time>2019-08-11T12:46:45Z</time>
      </trkpt>
      <trkpt lat="44.4849" lon="-1.12198">
        <ele>18</ele>
        <time>2019-08-11T12:46:50Z</time>
      </trkpt>
      <trkpt lat="44.48475" lon="-1.12217">
        <ele>18</ele>
        <time>2019-08-11T12:47:00Z</time>
      </trkpt>
      <trkpt lat="44.48467" lon="-1.12227">
        <ele>18</ele>
        <time>2019-08-11T12:47:05Z</time>
      </trkpt>
      <trkpt lat="44.48452" lon="-1.12244">
        <ele>18</ele>
        <time>2019-08-11T12:47:15Z</time>
      </trkpt>
      <trkpt lat="44.48443" lon="-1.12252">
        <ele>18</ele>
        <time>2019-08-11T12:47:20Z</time>
      </trkpt>
      <trkpt lat="44.48426" lon="-1.12268">
        <ele>18</ele>
        <time>2019-08-11T12:47:30Z</time>
      </trkpt>
      <trkpt lat="44.48417" lon="-1.12275">
        <ele>18</ele>
        <time>2019-08-11T12:47:35Z</time>
      </trkpt>
      <trkpt lat="44.48398" lon="-1.12288">
        <ele>18</ele>
        <time>2019-08-11T12:47:45Z</time>
      </trkpt>
      <trkpt lat="44.48381" lon="-1.12303">
        <ele>18</ele>
        <time>2019-08-11T12:47:55Z</time>
      </trkpt>
      <trkpt lat="44.48373" lon="-1.12309">
        <ele>18</ele>
        <time>2019-08-11T12:48:00Z</time>
      </trkpt>
      <trkpt lat="44.48356" lon="-1.12325">
        <ele>18</ele>
        <time>2019-08-11T12:48:10Z</time>
      </trkpt>
      <trkpt lat="44.48348" lon="-1.12335">
        <ele>18</ele>
        <time>2019-08-11T12:48:15Z</time>
      </trkpt>
      <trkpt lat="44.4833" lon="-1.12355">
        <ele>18</ele>
        <time>2019-08-11T12:48:25Z</time>
      </trkpt>
      <trkpt lat="44.4832" lon="-1.12367">
        <ele>18</ele>
        <time>2019-08-11T12:48:30Z</time>
      </trkpt>
      <trkpt lat="44.48305" lon="-1.12393">
        <ele>18</ele>
        <time>2019-08-11T12:48:40Z</time>
      </trkpt>
      <trkpt lat="44.48297" lon="-1.12404">
        <ele>18</ele>
        <time>2019-08-11T12:48:45Z</time>
      </trkpt>
      <trkpt lat="44.48284" lon="-1.12426">
        <ele>18</ele>
        <time>2019-08-11T12:48:55Z</time>
      </trkpt>
      <trkpt lat="44.48277" lon="-1.12437">
        <ele>18</ele>
        <time>2019-08-11T12:49:00Z</time>
      </trkpt>
      <trkpt lat="44.48262" lon="-1.1246">
        <ele>18</ele>
        <time>2019-08-11T12:49:10Z</time>
      </trkpt>
      <trkpt lat="44.48254" lon="-1.12471">
        <ele>18</ele>
        <time>2019-08-11T12:49:15Z</time>
      </trkpt>
      <trkpt lat="44.48239" lon="-1.12491">
        <ele>18</ele>
        <time>2019-08-11T12:49:25Z</time>
      </trkpt>
      <trkpt lat="44.4822" lon="-1.12508">
        <ele>18</ele>
        <time>2019-08-11T12:49:35Z</time>
      </trkpt>
      <trkpt lat="44.4821" lon="-1.12518">
        <ele>18</ele>
        <time>2019-08-11T12:49:40Z</time>
      </trkpt>
      <trkpt lat="44.48189" lon="-1.12539">
        <ele>18</ele>
        <time>2019-08-11T12:49:50Z</time>
      </trkpt>
      <trkpt lat="44.48178" lon="-1.12548">
        <ele>18</ele>
        <time>2019-08-11T12:49:55Z</time>
      </trkpt>
      <trkpt lat="44.48157" lon="-1.12565">
        <ele>18</ele>
        <time>2019-08-11T12:50:05Z</time>
      </trkpt>
      <trkpt lat="44.48147" lon="-1.12575">
        <ele>18</ele>
        <time>2019-08-11T12:50:10Z</time>
      </trkpt>
      <trkpt lat="44.48127" lon="-1.12594">
        <ele>18</ele>
        <time>2019-08-11T12:50:20Z</time>
      </trkpt>
      <trkpt lat="44.48118" lon="-1.12604">
        <ele>18</ele>
        <time>2019-08-11T12:50:25Z</time>
      </trkpt>
      <trkpt lat="44.481" lon="-1.12623">
        <ele>18</ele>
        <time>2019-08-11T12:50:35Z</time>
      </trkpt>
      <trkpt lat="44.4809" lon="-1.12633">
        <ele>18</ele>
        <time>2019-08-11T12:50:40Z</time>
      </trkpt>
      <trkpt lat="44.48075" lon="-1.12652">
        <ele>18</ele>
        <time>2019-08-11T12:50:50Z</time>
      </trkpt>
      <trkpt lat="44.48068" lon="-1.12662">
        <ele>18</ele>
        <time>2019-08-11T12:50:55Z</time>
      </trkpt>
      <trkpt lat="44.48054" lon="-1.1268">
        <ele>18</ele>
        <time>2019-08-11T12:51:05Z</time>
      </trkpt>
      <trkpt lat="44.48039" lon="-1.12699">
        <ele>18</ele>
        <time>2019-08-11T12:51:15Z</time>
      </trkpt>
      <trkpt lat="44.48032" lon="-1.12708">
        <ele>18</ele>
        <time>2019-08-11T12:51:20Z</time>
      </trkpt>
      <trkpt lat="44.48018" lon="-1.12728">
        <ele>18</ele>
        <time>2019-08-11T12:51:30Z</time>
      </trkpt>
      <trkpt lat="44.48011" lon="-1.12738">
        <ele>18</ele>
        <time>2019-08-11T12:51:35Z</time>
      </trkpt>
      <trkpt lat="44.47996" lon="-1.1276">
        <ele>18</ele>
        <time>2019-08-11T12:51:45Z</time>
      </trkpt>
      <trkpt lat="44.47989" lon="-1.12771">
        <ele>18</ele>
        <time>2019-08-11T12:51:50Z</time>
      </trkpt>
      <trkpt lat="44.47976" lon="-1.12794">
        <ele>18</ele>
        <time>2019-08-11T12:52:00Z</time>
      </trkpt>
      <trkpt lat="44.4797" lon="-1.12806">
        <ele>18</ele>
        <time>2019-08-11T12:52:05Z</time>
      </trkpt>
      <trkpt lat="44.47957" lon="-1.12827">
        <ele>18</ele>
        <time>2019-08-11T12:52:15Z</time>
      </trkpt>
      <trkpt lat="44.4795" lon="-1.12837">
        <ele>18</ele>
        <time>2019-08-11T12:52:20Z</time>
      </trkpt>
      <trkpt lat="44.47933" lon="-1.12858">
        <ele>18</ele>
        <time>2019-08-11T12:52:30Z</time>
      </trkpt>
      <trkpt lat="44.47925" lon="-1.1287">
        <ele>18</ele>
        <time>2019-08-11T12:52:35Z</time>
      </trkpt>
      <trkpt lat="44.47906" lon="-1.1289">
        <ele>18</ele>
        <time>2019-08-11T12:52:45Z</time>
      </trkpt>
      <trkpt lat="44.47888" lon="-1.12912">
        <ele>18</ele>
        <time>2019-08-11T12:52:55Z</time>
      </trkpt>
      <trkpt lat="44.47879" lon="-1.12923">
        <ele>18</ele>
        <time>2019-08-11T12:53:00Z</time>
      </trkpt>
      <trkpt lat="44.4786" lon="-1.12946">
        <ele>18</ele>
        <time>2019-08-11T12:53:10Z</time>
      </trkpt>
      <trkpt lat="44.4785" lon="-1.12957">
        <ele>18</ele>
        <time>2019-08-11T12:53:15Z</time>
      </trkpt>
      <trkpt lat="44.47831" lon="-1.1298">
        <ele>18</ele>
        <time>2019-08-11T12:53:25Z</time>
      </trkpt>
      <trkpt lat="44.47822" lon="-1.1299">
        <ele>18</ele>
        <time>2019-08-11T12:53:30Z</time>
      </trkpt>
      <trkpt lat="44.47802" lon="-1.13009">
        <ele>18</ele>
        <time>2019-08-11T12:53:40Z</time>
      </trkpt>
      <trkpt lat="44.47792" lon="-1.1302">
        <ele>18</ele>
        <time>2019-08-11T12:53:45Z</time>
      </trkpt>
      <trkpt lat="44.47776" lon="-1.13041">
        <ele>18</ele>
        <time>2019-08-11T12:53:55Z</time>
      </trkpt>
      <trkpt lat="44.47766" lon="-1.13049">
        <ele>18</ele>
        <time>2019-08-11T12:54:00Z</time>
      </trkpt>
      <trkpt lat="44.47746" lon="-1.13065">
        <ele>18</ele>
        <time>2019-08-11T12:54:10Z</time>
      </trkpt>
      <trkpt lat="44.47736" lon="-1.13074">
        <ele>18</ele>
        <time>2019-08-11T12:54:15Z</time>
      </trkpt>
      <trkpt lat="44.47716" lon="-1.13088">
        <ele>18</ele>
        <time>2019-08-11T12:54:25Z</time>
      </trkpt>
      <trkpt lat="44.477" lon="-1.13102">
        <ele>18</ele>
        <time>2019-08-11T12:54:35Z</time>
      </trkpt>
      <trkpt lat="44.47698" lon="-1.13112">
        <ele>18</ele>
        <time>2019-08-11T12:54:40Z</time>
      </trkpt>
      <trkpt lat="44.47704" lon="-1.1312">
        <ele>18</ele>
        <time>2019-08-11T12:54:50Z</time>
      </trkpt>
      <trkpt lat="44.4771" lon="-1.13122">
        <ele>18</ele>
        <time>2019-08-11T12:54:55Z</time>
      </trkpt>
      <trkpt lat="44.47725" lon="-1.13123">
        <ele>18</ele>
        <time>2019-08-11T12:55:05Z</time>
      </trkpt>
      <trkpt lat="44.47735" lon="-1.13122">
        <ele>18</ele>
        <time>2019-08-11T12:55:10Z</time>
      </trkpt>
      <trkpt lat="44.47754" lon="-1.13115">
        <ele>18</ele>
        <time>2019-08-11T12:55:20Z</time>
      </trkpt>
      <trkpt lat="44.47763" lon="-1.13109">
        <ele>18</ele>
        <time>2019-08-11T12:55:25Z</time>
      </trkpt>
      <trkpt lat="44.47782" lon="-1.13099">
        <ele>18</ele>
        <time>2019-08-11T12:55:35Z</time>
      </trkpt>
      <trkpt lat="44.4779" lon="-1.13091">
        <ele>18</ele>
        <time>2019-08-11T12:55:40Z</time>
      </trkpt>
      <trkpt lat="44.47804" lon="-1.13072">
        <ele>18</ele>
        <time>2019-08-11T12:55:50Z</time>
      </trkpt>
      <trkpt lat="44.47817" lon="-1.13054">
        <ele>18</ele>
        <time>2019-08-11T12:56:00Z</time>
      </trkpt>
      <trkpt lat="44.47824" lon="-1.13045">
        <ele>18</ele>
        <time>2019-08-11T12:56:05Z</time>
      </trkpt>
      <trkpt lat="44.47836" lon="-1.13028">
        <ele>18</ele>
        <time>2019-08-11T12:56:15Z</time>
      </trkpt>
      <trkpt lat="44.47844" lon="-1.13017">
        <ele>18</ele>
        <time>2019-08-11T12:56:20Z</time>
      </trkpt>
      <trkpt lat="44.47854" lon="-1.12999">
        <ele>18</ele>
        <time>2019-08-11T12:56:30Z</time>
      </trkpt>
      <trkpt lat="44.47858" lon="-1.12991">
        <ele>18</ele>
        <time>2019-08-11T12:56:35Z</time>
      </trkpt>
      <trkpt lat="44.47867" lon="-1.12975">
        <ele>18</ele>
        <time>2019-08-11T12:56:45Z</time>
      </trkpt>
      <trkpt lat="44.47872" lon="-1.12966">
        <ele>18</ele>
        <time>2019-08-11T12:56:50Z</time>
      </trkpt>
      <trkpt lat="44.47883" lon="-1.12947">
        <ele>18</ele>
        <time>2019-08-11T12:57:00Z</time>
      </trkpt>
      <trkpt lat="44.47889" lon="-1.12938">
        <ele>18</ele>
        <time>2019-08-11T12:57:05Z</time>
      </trkpt>
      <trkpt lat="44.47902" lon="-1.12919">
        <ele>18</ele>
        <time>2019-08-11T12:57:15Z</time>
      </trkpt>
      <trkpt lat="44.47909" lon="-1.12909">
        <ele>18</ele>
        <time>2019-08-11T12:57:20Z</time>
      </trkpt>
      <trkpt lat="44.47922" lon="-1.12889">
        <ele>18</ele>
        <time>2019-08-11T12:57:30Z</time>
      </trkpt>
      <trkpt lat="44.47931" lon="-1.12866">
        <ele>18</ele>
        <time>2019-08-11T12:57:40Z</time>
      </trkpt>
      <trkpt lat="44.47933" lon="-1.12854">
        <ele>18</ele>
        <time>2019-08-11T12:57:45Z</time>
      </trkpt>
      <trkpt lat="44.47939" lon="-1.1283">
        <ele>18</ele>
        <time>2019-08-11T12:57:55Z</time>
      </trkpt>
      <trkpt lat="44.47941" lon="-1.12821">
        <ele>18</ele>
        <time>2019-08-11T12:58:00Z</time>
      </trkpt>
      <trkpt lat="44.47945" lon="-1.12805">
        <ele>18</ele>
        <time>2019-08-11T12:58:10Z</time>
      </trkpt>
      <trkpt lat="44.47947" lon="-1.12793">
        <ele>18</ele>
        <time>2019-08-11T12:58:15Z</time>
      </trkpt>
      <trkpt lat="44.4795" lon="-1.12778">
        <ele>18</ele>
        <time>2019-08-11T12:58:25Z</time>
      </trkpt>
      <trkpt lat="44.47952" lon="-1.12771">
        <ele>18</ele>
        <time>2019-08-11T12:58:30Z</time>
      </trkpt>
      <trkpt lat="44.47959" lon="-1.12758">
        <ele>18</ele>
        <time>2019-08-11T12:58:40Z</time>
      </trkpt>
      <trkpt lat="44.47963" lon="-1.1275">
        <ele>18</ele>
        <time>2019-08-11T12:58:45Z</time>
      </trkpt>
      <trkpt lat="44.47971" lon="-1.12731">
        <ele>18</ele>
        <time>2019-08-11T12:58:55Z</time>
      </trkpt>
      <trkpt lat="44.47975" lon="-1.12721">
        <ele>18</ele>
        <time>2019-08-11T12:59:00Z</time>
      </trkpt>
      <trkpt lat="44.4798" lon="-1.12701">
        <ele>18</ele>
        <time>2019-08-11T12:59:10Z</time>
      </trkpt>
      <trkpt lat="44.47985" lon="-1.12684">
        <ele>18</ele>
        <time>2019-08-11T12:59:20Z</time>
      </trkpt>
      <trkpt lat="44.47989" lon="-1.12675">
        <ele>18</ele>
        <time>2019-08-11T12:59:25Z</time>
      </trkpt>
      <trkpt lat="44.47995" lon="-1.12657">
        <ele>18</ele>
        <time>2019-08-11T12:59:35Z</time>
      </trkpt>
      <trkpt lat="44.47998" lon="-1.12645">
        <ele>18</ele>
        <time>2019-08-11T12:59:40Z</time>
      </trkpt>
      <trkpt lat="44.48004" lon="-1.12624">
        <ele>18</ele>
        <time>2019-08-11T12:59:50Z</time>
      </trkpt>
      <trkpt lat="44.48007" lon="-1.12614">
        <ele>18</ele>
        <time>2019-08-11T12:59:55Z</time>
      </trkpt>
      <trkpt lat="44.48013" lon="-1.12592">
        <ele>18</ele>
        <time>2019-08-11T13:00:05Z</time>
      </trkpt>
      <trkpt lat="44.48016" lon="-1.12582">
        <ele>18</ele>
        <time>2019-08-11T13:00:10Z</time>
      </trkpt>
      <trkpt lat="44.48022" lon="-1.12562">
        <ele>18</ele>
        <time>2019-08-11T13:00:20Z</time>
      </trkpt>
      <trkpt lat="44.48026" lon="-1.12553">
        <ele>18</ele>
        <time>2019-08-11T13:00:25Z</time>
      </trkpt>
      <trkpt lat="44.48033" lon="-1.12536">
        <ele>18</ele>
        <time>2019-08-11T13:00:35Z</time>
      </trkpt>
      <trkpt lat="44.48036" lon="-1.12529">
        <ele>18</ele>
        <time>2019-08-11T13:00:40Z</time>
      </trkpt>
      <trkpt lat="44.4804" lon="-1.12515">
        <ele>18</ele>
        <time>2019-08-11T13:00:50Z</time>
      </trkpt>
      <trkpt lat="44.48046" lon="-1.12498">
        <ele>18</ele>
        <time>2019-08-11T13:01:00Z</time>
      </trkpt>
      <trkpt lat="44.48049" lon="-1.12488">
        <ele>18</ele>
        <time>2019-08-11T13:01:05Z</time>
      </trkpt>
      <trkpt lat="44.48057" lon="-1.12468">
        <ele>18</ele>
        <time>2019-08-11T13:01:15Z</time>
      </trkpt>
      <trkpt lat="44.48061" lon="-1.12458">
        <ele>18</ele>
        <time>2019-08-11T13:01:20Z</time>
      </trkpt>
      <trkpt lat="44.48067" lon="-1.12441">
        <ele>18</ele>
        <time>2019-08-11T13:01:30Z</time>
      </trkpt>
      <trkpt lat="44.48069" lon="-1.12432">
        <ele>18</ele>
        <time>2019-08-11T13:01:35Z</time>
      </trkpt>
      <trkpt lat="44.48071" lon="-1.12415">
        <ele>18</ele>
        <time>2019-08-11T13:01:45Z</time>
      </trkpt>
      <trkpt lat="44.48074" lon="-1.12407">
        <ele>18</ele>
        <time>2019-08-11T13:01:50Z</time>
      </trkpt>
      <trkpt lat="44.48076" lon="-1.12391">
        <ele>18</ele>
        <time>2019-08-11T13:02:00Z</time>
      </trkpt>
      <trkpt lat="44.48076" lon="-1.12384">
        <ele>18</ele>
        <time>2019-08-11T13:02:05Z</time>
      </trkpt>
      <trkpt lat="44.48076" lon="-1.12368">
        <ele>18</ele>
        <time>2019-08-11T13:02:15Z</time>
      </trkpt>
      <trkpt lat="44.48077" lon="-1.1235">
        <ele>18</ele>
        <time>2019-08-11T13:02:25Z</time>
      </trkpt>
      <trkpt lat="44.48079" lon="-1.1234">
        <ele>18</ele>
        <time>2019-08-11T13:02:30Z</time>
      </trkpt>
      <trkpt lat="44.48086" lon="-1.12319">
        <ele>18</ele>
        <time>2019-08-11T13:02:40Z</time>
      </trkpt>
      <trkpt lat="44.4809" lon="-1.12309">
        <ele>18</ele>
        <time>2019-08-11T13:02:45Z</time>
      </trkpt>
      <trkpt lat="44.48095" lon="-1.12293">
        <ele>18</ele>
        <time>2019-08-11T13:02:55Z</time>
      </trkpt>
      <trkpt lat="44.48098" lon="-1.12282">
        <ele>18</ele>
        <time>2019-08-11T13:03:00Z</time>
      </trkpt>
      <trkpt lat="44.48103" lon="-1.12263">
        <ele>18</ele>
        <time>2019-08-11T13:03:10Z</time>
      </trkpt>
      <trkpt lat="44.48108" lon="-1.12252">
        <ele>18</ele>
        <time>2019-08-11T13:03:15Z</time>
      </trkpt>
      <trkpt lat="44.48115" lon="-1.12229">
        <ele>18</ele>
        <time>2019-08-11T13:03:25Z</time>
      </trkpt>
      <trkpt lat="44.48119" lon="-1.12217">
        <ele>18</ele>
        <time>2019-08-11T13:03:30Z</time>
      </trkpt>
      <trkpt lat="44.4813" lon="-1.12193">
        <ele>18</ele>
        <time>2019-08-11T13:03:40Z</time>
      </trkpt>
      <trkpt lat="44.48133" lon="-1.12184">
        <ele>18</ele>
        <time>2019-08-11T13:03:45Z</time>
      </trkpt>
      <trkpt lat="44.48142" lon="-1.12158">
        <ele>18</ele>
        <time>2019-08-11T13:03:55Z</time>
      </trkpt>
      <trkpt lat="44.4815" lon="-1.12139">
        <ele>18</ele>
        <time>2019-08-11T13:04:05Z</time>
      </trkpt>
      <trkpt lat="44.48151" lon="-1.12129">
        <ele>18</ele>
        <time>2019-08-11T13:04:10Z</time>
      </trkpt>
      <trkpt lat="44.48158" lon="-1.12108">
        <ele>18</ele>
        <time>2019-08-11T13:04:20Z</time>
      </trkpt>
      <trkpt lat="44.4816" lon="-1.12099">
        <ele>18</ele>
        <time>2019-08-11T13:04:25Z</time>
      </trkpt>
      <trkpt lat="44.48166" lon="-1.12079">
        <ele>18</ele>
        <time>2019-08-11T13:04:35Z</time>
      </trkpt>
      <trkpt lat="44.4817" lon="-1.12067">
        <ele>18</ele>
        <time>2019-08-11T13:04:40Z</time>
      </trkpt>
      <trkpt lat="44.48177" lon="-1.12048">
        <ele>18</ele>
        <time>2019-08-11T13:04:50Z</time>
      </trkpt>
      <trkpt lat="44.4818" lon="-1.12038">
        <ele>18</ele>
        <time>2019-08-11T13:04:55Z</time>
      </trkpt>
      <trkpt lat="44.48184" lon="-1.12017">
        <ele>18</ele>
        <time>2019-08-11T13:05:05Z</time>
      </trkpt>
      <trkpt lat="44.48188" lon="-1.12008">
        <ele>18</ele>
        <time>2019-08-11T13:05:10Z</time>
      </trkpt>
      <trkpt lat="44.48199" lon="-1.11989">
        <ele>18</ele>
        <time>2019-08-11T13:05:20Z</time>
      </trkpt>
      <trkpt lat="44.48204" lon="-1.11981">
        <ele>18</ele>
        <time>2019-08-11T13:05:25Z</time>
      </trkpt>
      <trkpt lat="44.48214" lon="-1.11965">
        <ele>18</ele>
        <time>2019-08-11T13:05:35Z</time>
      </trkpt>
      <trkpt lat="44.48219" lon="-1.11952">
        <ele>18</ele>
        <time>2019-08-11T13:05:45Z</time>
      </trkpt>
      <trkpt lat="44.48224" lon="-1.11946">
        <ele>18</ele>
        <time>2019-08-11T13:05:50Z</time>
      </trkpt>
      <trkpt lat="44.48233" lon="-1.11933">
        <ele>18</ele>
        <time>2019-08-11T13:06:00Z</time>
      </trkpt>
      <trkpt lat="44.48238" lon="-1.11926">
        <ele>18</ele>
        <time>2019-08-11T13:06:05Z</time>
      </trkpt>
      <trkpt lat="44.48244" lon="-1.11907">
        <ele>18</ele>
        <time>2019-08-11T13:06:15Z</time>
      </trkpt>
      <trkpt lat="44.48247" lon="-1.119">
        <ele>18</ele>
        <time>2019-08-11T13:06:20Z</time>
      </trkpt>
      <trkpt lat="44.48253" lon="-1.11886">
        <ele>18</ele>
        <time>2019-08-11T13:06:30Z</time>
      </trkpt>
      <trkpt lat="44.48257" lon="-1.11878">
        <ele>18</ele>
        <time>2019-08-11T13:06:35Z</time>
      </trkpt>
      <trkpt lat="44.48264" lon="-1.11862">
        <ele>18</ele>
        <time>2019-08-11T13:06:45Z</time>
      </trkpt>
      <trkpt lat="44.48266" lon="-1.11852">
        <ele>18</ele>
        <time>2019-08-11T13:06:50Z</time>
      </trkpt>
      <trkpt lat="44.48272" lon="-1.11835">
        <ele>18</ele>
        <time>2019-08-11T13:07:00Z</time>
      </trkpt>
      <trkpt lat="44.48276" lon="-1.11828">
        <ele>18</ele>
        <time>2019-08-11T13:07:05Z</time>
      </trkpt>
      <trkpt lat="44.48286" lon="-1.11813">
        <ele>18</ele>
        <time>2019-08-11T13:07:15Z</time>
      </trkpt>
      <trkpt lat="44.48298" lon="-1.11797">
        <ele>18</ele>
        <time>2019-08-11T13:07:25Z</time>
      </trkpt>
      <trkpt lat="44.48303" lon="-1.11788">
        <ele>18</ele>
        <time>2019-08-11T13:07:30Z</time>
      </trkpt>
      <trkpt lat="44.48314" lon="-1.11771">
        <ele>18</ele>
        <time>2019-08-11T13:07:40Z</time>
      </trkpt>
      <trkpt lat="44.48321" lon="-1.11763">
        <ele>18</ele>
        <time>2019-08-11T13:07:45Z</time>
      </trkpt>
      <trkpt lat="44.48329" lon="-1.11748">
        <ele>18</ele>
        <time>2019-08-11T13:07:55Z</time>
      </trkpt>
      <trkpt lat="44.48331" lon="-1.11743">
        <ele>18</ele>
        <time>2019-08-11T13:08:00Z</time>
      </trkpt>
      <trkpt lat="44.48336" lon="-1.11736">
        <ele>18</ele>
        <time>2019-08-11T13:08:10Z</time>
      </trkpt>
      <trkpt lat="44.48338" lon="-1.11733">
        <ele>18</ele>
        <time>2019-08-11T13:08:15Z</time>
      </trkpt>
      <trkpt lat="44.48344" lon="-1.11728">
        <ele>18</ele>
        <time>2019-08-11T13:08:25Z</time>
      </trkpt>
      <trkpt lat="44.48349" lon="-1.11724">
        <ele>18</ele>
        <time>2019-08-11T13:08:30Z</time>
      </trkpt>
      <trkpt lat="44.48361" lon="-1.11715">
        <ele>18</ele>
        <time>2019-08-11T13:08:40Z</time>
      </trkpt>
      <trkpt lat="44.48368" lon="-1.11711">
        <ele>18</ele>
        <time>2019-08-11T13:08:45Z</time>
      </trkpt>
      <trkpt lat="44.48385" lon="-1.11705">
        <ele>18</ele>
        <time>2019-08-11T13:08:55Z</time>
      </trkpt>
      <trkpt lat="44.48404" lon="-1.11694">
        <ele>18</ele>
        <time>2019-08-11T13:09:05Z</time>
      </trkpt>
      <trkpt lat="44.48414" lon="-1.11686">
        <ele>18</ele>
        <time>2019-08-11T13:09:10Z</time>
      </trkpt>
      <trkpt lat="44.48434" lon="-1.11672">
        <ele>18</ele>
        <time>2019-08-11T13:09:20Z</time>
      </trkpt>
      <trkpt lat="44.48444" lon="-1.11668">
        <ele>18</ele>
        <time>2019-08-11T13:09:25Z</time>
      </trkpt>
      <trkpt lat="44.48464" lon="-1.11657">
        <ele>18</ele>
        <time>2019-08-11T13:09:35Z</time>
      </trkpt>
      <trkpt lat="44.48471" lon="-1.11652">
        <ele>18</ele>
        <time>2019-08-11T13:09:40Z</time>
      </trkpt>
      <trkpt lat="44.48492" lon="-1.1164">
        <ele>18</ele>
        <time>2019-08-11T13:09:50Z</time>
      </trkpt>
      <trkpt lat="44.485" lon="-1.11637">
        <ele>18</ele>
        <time>2019-08-11T13:09:55Z</time>
      </trkpt>
      <trkpt lat="44.48518" lon="-1.11624">
        <ele>18</ele>
        <time>2019-08-11T13:10:05Z</time>
      </trkpt>
      <trkpt lat="44.48527" lon="-1.11614">
        <ele>18</ele>
        <time>2019-08-11T13:10:10Z</time>
      </trkpt>
      <trkpt lat="44.48546" lon="-1.11595">
        <ele>18</ele>
        <time>2019-08-11T13:10:20Z</time>
      </trkpt>
      <trkpt lat="44.48562" lon="-1.11576">
        <ele>18</ele>
        <time>2019-08-11T13:10:30Z</time>
      </trkpt>
      <trkpt lat="44.4857" lon="-1.11567">
        <ele>18</ele>
        <time>2019-08-11T13:10:35Z</time>
      </trkpt>
      <trkpt lat="44.48585" lon="-1.11549">
        <ele>18</ele>
        <time>2019-08-11T13:10:45Z</time>
      </trkpt>
      <trkpt lat="44.48591" lon="-1.11542">
        <ele>18</ele>
        <time>2019-08-11T13:10:50Z</time>
      </trkpt>
      <trkpt lat="44.48605" lon="-1.11522">
        <ele>18</ele>
        <time>2019-08-11T13:11:00Z</time>
      </trkpt>
      <trkpt lat="44.48611" lon="-1.11513">
        <ele>18</ele>
        <time>2019-08-11T13:11:05Z</time>
      </trkpt>
      <trkpt lat="44.48623" lon="-1.11494">
        <ele>18</ele>
        <time>2019-08-11T13:11:15Z</time>
      </trkpt>
      <trkpt lat="44.48629" lon="-1.11485">
        <ele>18</ele>
        <time>2019-08-11T13:11:20Z</time>
      </trkpt>
      <trkpt lat="44.48641" lon="-1.11467">
        <ele>18</ele>
        <time>2019-08-11T13:11:30Z</time>
      </trkpt>
      <trkpt lat="44.48645" lon="-1.1146">
        <ele>18</ele>
        <time>2019-08-11T13:11:35Z</time>
      </trkpt>
      <trkpt lat="44.48654" lon="-1.11441">
        <ele>18</ele>
        <time>2019-08-11T13:11:45Z</time>
      </trkpt>
      <trkpt lat="44.48658" lon="-1.11431">
        <ele>18</ele>
        <time>2019-08-11T13:11:50Z</time>
      </trkpt>
      <trkpt lat="44.48666" lon="-1.11413">
        <ele>18</ele>
        <time>2019-08-11T13:12:00Z</time>
      </trkpt>
      <trkpt lat="44.48677" lon="-1.11395">
        <ele>18</ele>
        <time>2019-08-11T13:12:10Z</time>
      </trkpt>
      <trkpt lat="44.48682" lon="-1.11386">
        <ele>18</ele>
        <time>2019-08-11T13:12:15Z</time>
      </trkpt>
      <trkpt lat="44.48689" lon="-1.11368">
        <ele>18</ele>
        <time>2019-08-11T13:12:25Z</time>
      </trkpt>
      <trkpt lat="44.48693" lon="-1.11357">
        <ele>18</ele>
        <time>2019-08-11T13:12:30Z</time>
      </trkpt>
      <trkpt lat="44.487" lon="-1.1134">
        <ele>18</ele>
        <time>2019-08-11T13:12:40Z</time>
      </trkpt>
      <trkpt lat="44.48702" lon="-1.11333">
        <ele>18</ele>
        <time>2019-08-11T13:12:45Z</time>
      </trkpt>
      <trkpt lat="44.4871" lon="-1.11317">
        <ele>18</ele>
        <time>2019-08-11T13:12:55Z</time>
      </trkpt>
      <trkpt lat="44.48714" lon="-1.11309">
        <ele>18</ele>
        <time>2019-08-11T13:13:00Z</time>
      </trkpt>
      <trkpt lat="44.4872" lon="-1.11295">
        <ele>18</ele>
        <time>2019-08-11T13:13:10Z</time>
      </trkpt>
      <trkpt lat="44.48724" lon="-1.11286">
        <ele>18</ele>
        <time>2019-08-11T13:13:15Z</time>
      </trkpt>
      <trkpt lat="44.48728" lon="-1.11273">
        <ele>18</ele>
        <time>2019-08-11T13:13:25Z</time>
      </trkpt>
      <trkpt lat="44.48731" lon="-1.11266">
        <ele>18</ele>
        <time>2019-08-11T13:13:30Z</time>
      </trkpt>
      <trkpt lat="44.48738" lon="-1.11251">
        <ele>18</ele>
        <time>2019-08-11T13:13:40Z</time>
      </trkpt>
      <trkpt lat="44.48745" lon="-1.11238">
        <ele>18</ele>
        <time>2019-08-11T13:13:50Z</time>
      </trkpt>
      <trkpt lat="44.48748" lon="-1.11231">
        <ele>18</ele>
        <time>2019-08-11T13:13:55Z</time>
      </trkpt>
      <trkpt lat="44.48756" lon="-1.11219">
        <ele>18</ele>
        <time>2019-08-11T13:14:05Z</time>
      </trkpt>
      <trkpt lat="44.4876" lon="-1.11214">
        <ele>18</ele>
        <time>2019-08-11T13:14:10Z</time>
      </trkpt>
      <trkpt lat="44.48767" lon="-1.11204">
        <ele>18</ele>
        <time>2019-08-11T13:14:20Z</time>
      </trkpt>
      <trkpt lat="44.4877" lon="-1.11198">
        <ele>18</ele>
        <time>2019-08-11T13:14:25Z</time>
      </trkpt>
      <trkpt lat="44.48777" lon="-1.11186">
        <ele>18</ele>
        <time>2019-08-11T13:14:35Z</time>
      </trkpt>
      <trkpt lat="44.4878" lon="-1.11178">
        <ele>18</ele>
        <time>2019-08-11T13:14:40Z</time>
      </trkpt>
      <trkpt lat="44.48785" lon="-1.11167">
        <ele>18</ele>
        <time>2019-08-11T13:14:50Z</time>
      </trkpt>
      <trkpt lat="44.48788" lon="-1.1116">
        <ele>18</ele>
        <time>2019-08-11T13:14:55Z</time>
      </trkpt>
      <trkpt lat="44.48792" lon="-1.11149">
        <ele>18</ele>
        <time>2019-08-11T13:15:05Z</time>
      </trkpt>
      <trkpt lat="44.48795" lon="-1.11144">
        <ele>18</ele>
        <time>2019-08-11T13:15:10Z</time>
      </trkpt>
      <trkpt lat="44.48804" lon="-1.11132">
        <ele>18</ele>
        <time>2019-08-11T13:15:20Z</time>
      </trkpt>
      <trkpt lat="44.48813" lon="-1.11121">
        <ele>18</ele>
        <time>2019-08-11T13:15:30Z</time>
      </trkpt>
      <trkpt lat="44.48817" lon="-1.11115">
        <ele>18</ele>
        <time>2019-08-11T13:15:35Z</time>
      </trkpt>
      <trkpt lat="44.48826" lon="-1.11102">
        <ele>18</ele>
        <time>2019-08-11T13:15:45Z</time>
      </trkpt>
      <trkpt lat="44.48829" lon="-1.11096">
        <ele>18</ele>
        <time>2019-08-11T13:15:50Z</time>
      </trkpt>
      <trkpt lat="44.48837" lon="-1.11084">
        <ele>18</ele>
        <time>2019-08-11T13:16:00Z</time>
      </trkpt>
      <trkpt lat="44.48841" lon="-1.11079">
        <ele>18</ele>
        <time>2019-08-11T13:16:05Z</time>
      </trkpt>
      <trkpt lat="44.48848" lon="-1.11067">
        <ele>18</ele>
        <time>2019-08-11T13:16:15Z</time>
      </trkpt>
      <trkpt lat="44.48852" lon="-1.1106">
        <ele>18</ele>
        <time>2019-08-11T13:16:20Z</time>
      </trkpt>
      <trkpt lat="44.48859" lon="-1.11045">
        <ele>18</ele>
        <time>2019-08-11T13:16:30Z</time>
      </trkpt>
      <trkpt lat="44.48864" lon="-1.11039">
        <ele>18</ele>
        <time>2019-08-11T13:16:35Z</time>
      </trkpt>
      <trkpt lat="44.48874" lon="-1.11024">
        <ele>18</ele>
        <time>2019-08-11T13:16:45Z</time>
      </trkpt>
      <trkpt lat="44.48877" lon="-1.11017">
        <ele>18</ele>
        <time>2019-08-11T13:16:50Z</time>
      </trkpt>
      <trkpt lat="44.48884" lon="-1.11004">
        <ele>18</ele>
        <time>2019-08-11T13:17:00Z</time>
      </trkpt>
      <trkpt lat="44.48891" lon="-1.10993">
        <ele>18</ele>
        <time>2019-08-11T13:17:10Z</time>
      </trkpt>
      <trkpt lat="44.48895" lon="-1.10984">
        <ele>18</ele>
        <time>2019-08-11T13:17:15Z</time>
      </trkpt>
      <trkpt lat="44.489" lon="-1.10972">
        <ele>18</ele>
        <time>2019-08-11T13:17:25Z</time>
      </trkpt>
      <trkpt lat="44.48903" lon="-1.10964">
        <ele>18</ele>
        <time>2019-08-11T13:17:30Z</time>
      </trkpt>
      <trkpt lat="44.4891" lon="-1.10947">
        <ele>18</ele>
        <time>2019-08-11T13:17:40Z</time>
      </trkpt>
      <trkpt lat="44.48915" lon="-1.10939">
        <ele>18</ele>
        <time>2019-08-11T13:17:45Z</time>
      </trkpt>
      <trkpt lat="44.48925" lon="-1.10922">
        <ele>18</ele>
        <time>2019-08-11T13:17:55Z</time>
      </trkpt>
      <trkpt lat="44.4893" lon="-1.10913">
        <ele>18</ele>
        <time>2019-08-11T13:18:00Z</time>
      </trkpt>
      <trkpt lat="44.4894" lon="-1.10893">
        <ele>18</ele>
        <time>2019-08-11T13:18:10Z</time>
      </trkpt>
      <trkpt lat="44.48946" lon="-1.10884">
        <ele>18</ele>
        <time>2019-08-11T13:18:15Z</time>
      </trkpt>
      <trkpt lat="44.48955" lon="-1.10866">
        <ele>18</ele>
        <time>2019-08-11T13:18:25Z</time>
      </trkpt>
      <trkpt lat="44.48964" lon="-1.10848">
        <ele>18</ele>
        <time>2019-08-11T13:18:35Z</time>
      </trkpt>
      <trkpt lat="44.48968" lon="-1.10841">
        <ele>18</ele>
        <time>2019-08-11T13:18:40Z</time>
      </trkpt>
      <trkpt lat="44.48979" lon="-1.10825">
        <ele>18</ele>
        <time>2019-08-11T13:18:50Z</time>
      </trkpt>
      <trkpt lat="44.48984" lon="-1.10817">
        <ele>18</ele>
        <time>2019-08-11T13:18:55Z</time>
      </trkpt>
      <trkpt lat="44.48992" lon="-1.108">
        <ele>18</ele>
        <time>2019-08-11T13:19:05Z</time>
      </trkpt>
      <trkpt lat="44.48997" lon="-1.10789">
        <ele>18</ele>
        <time>2019-08-11T13:19:10Z</time>
      </trkpt>
      <trkpt lat="44.49007" lon="-1.10767">
        <ele>18</ele>
        <time>2019-08-11T13:19:20Z</time>
      </trkpt>
      <trkpt lat="44.49013" lon="-1.10756">
        <ele>18</ele>
        <time>2019-08-11T13:19:25Z</time>
      </trkpt>
      <trkpt lat="44.49024" lon="-1.10734">
        <ele>18</ele>
        <time>2019-08-11T13:19:35Z</time>
      </trkpt>
      <trkpt lat="44.49028" lon="-1.10723">
        <ele>18</ele>
        <time>2019-08-11T13:19:40Z</time>
      </trkpt>
      <trkpt lat="44.49035" lon="-1.10699">
        <ele>18</ele>
        <time>2019-08-11T13:19:50Z</time>
      </trkpt>
      <trkpt lat="44.49038" lon="-1.10687">
        <ele>18</ele>
        <time>2019-08-11T13:19:55Z</time>
      </trkpt>
      <trkpt lat="44.49045" lon="-1.10663">
        <ele>18</ele>
        <time>2019-08-11T13:20:05Z</time>
      </trkpt>
      <trkpt lat="44.49049" lon="-1.1064">
        <ele>18</ele>
        <time>2019-08-11T13:20:15Z</time>
      </trkpt>
      <trkpt lat="44.4905" lon="-1.10629">
        <ele>18</ele>
        <time>2019-08-11T13:20:20Z</time>
      </trkpt>
      <trkpt lat="44.49053" lon="-1.10608">
        <ele>18</ele>
        <time>2019-08-11T13:20:30Z</time>
      </trkpt>
      <trkpt lat="44.49055" lon="-1.10597">
        <ele>18</ele>
        <time>2019-08-11T13:20:35Z</time>
      </trkpt>
      <trkpt lat="44.49058" lon="-1.10578">
        <ele>18</ele>
        <time>2019-08-11T13:20:45Z</time>
      </trkpt>
      <trkpt lat="44.49059" lon="-1.10571">
        <ele>18</ele>
        <time>2019-08-11T13:20:50Z</time>
      </trkpt>
      <trkpt lat="44.49063" lon="-1.10555">
        <ele>18</ele>
        <time>2019-08-11T13:21:00Z</time>
      </trkpt>
      <trkpt lat="44.49064" lon="-1.10547">
        <ele>18</ele>
        <time>2019-08-11T13:21:05Z</time>
      </trkpt>
      <trkpt lat="44.49067" lon="-1.10533">
        <ele>18</ele>
        <time>2019-08-11T13:21:15Z</time>
      </trkpt>
      <trkpt lat="44.49068" lon="-1.10526">
        <ele>18</ele>
        <time>2019-08-11T13:21:20Z</time>
      </trkpt>
      <trkpt lat="44.4907" lon="-1.10512">
        <ele>18</ele>
        <time>2019-08-11T13:21:30Z</time>
      </trkpt>
      <trkpt lat="44.49071" lon="-1.10505">
        <ele>18</ele>
        <time>2019-08-11T13:21:35Z</time>
      </trkpt>
      <trkpt lat="44.49073" lon="-1.10489">
        <ele>18</ele>
        <time>2019-08-11T13:21:45Z</time>
      </trkpt>
      <trkpt lat="44.49074" lon="-1.10471">
        <ele>18</ele>
        <time>2019-08-11T13:21:55Z</time>
      </trkpt>
      <trkpt lat="44.49075" lon="-1.10465">
        <ele>18</ele>
        <time>2019-08-11T13:22:00Z</time>
      </trkpt>
      <trkpt lat="44.49076" lon="-1.10449">
        <ele>18</ele>
        <time>2019-08-11T13:22:10Z</time>
      </trkpt>
      <trkpt lat="44.49077" lon="-1.10444">
        <ele>18</ele>
        <time>2019-08-11T13:22:15Z</time>
      </trkpt>
      <trkpt lat="44.49078" lon="-1.10431">
        <ele>18</ele>
        <time>2019-08-11T13:22:25Z</time>
      </trkpt>
      <trkpt lat="44.49079" lon="-1.10426">
        <ele>18</ele>
        <time>2019-08-11T13:22:30Z</time>
      </trkpt>
      <trkpt lat="44.4908" lon="-1.10416">
        <ele>18</ele>
        <time>2019-08-11T13:22:40Z</time>
      </trkpt>
      <trkpt lat="44.49081" lon="-1.10411">
        <ele>18</ele>
        <time>2019-08-11T13:22:45Z</time>
      </trkpt>
      <trkpt lat="44.49084" lon="-1.10401">
        <ele>18</ele>
        <time>2019-08-11T13:22:55Z</time>
      </trkpt>
      <trkpt lat="44.49086" lon="-1.10395">
        <ele>18</ele>
        <time>2019-08-11T13:23:00Z</time>
      </trkpt>
      <trkpt lat="44.4909" lon="-1.10381">
        <ele>18</ele>
        <time>2019-08-11T13:23:10Z</time>
      </trkpt>
      <trkpt lat="44.49093" lon="-1.10376">
        <ele>18</ele>
        <time>2019-08-11T13:23:15Z</time>
      </trkpt>
      <trkpt lat="44.49101" lon="-1.10363">
        <ele>18</ele>
        <time>2019-08-11T13:23:25Z</time>
      </trkpt>
      <trkpt lat="44.49106" lon="-1.10347">
        <ele>18</ele>
        <time>2019-08-11T13:23:35Z</time>
      </trkpt>
      <trkpt lat="44.49108" lon="-1.10339">
        <ele>18</ele>
        <time>2019-08-11T13:23:40Z</time>
      </trkpt>
      <trkpt lat="44.49111" lon="-1.10324">
        <ele>18</ele>
        <time>2019-08-11T13:23:50Z</time>
      </trkpt>
      <trkpt lat="44.49113" lon="-1.10317">
        <ele>18</ele>
        <time>2019-08-11T13:23:55Z</time>
      </trkpt>
      <trkpt lat="44.49114" lon="-1.10303">
        <ele>18</ele>
        <time>2019-08-11T13:24:05Z</time>
      </trkpt>
      <trkpt lat="44.49114" lon="-1.10297">
        <ele>18</ele>
        <time>2019-08-11T13:24:10Z</time>
      </trkpt>
      <trkpt lat="44.49115" lon="-1.10286">
        <ele>18</ele>
        <time>2019-08-11T13:24:20Z</time>
      </trkpt>
      <trkpt lat="44.49115" lon="-1.1028">
        <ele>18</ele>
        <time>2019-08-11T13:24:25Z</time>
      </trkpt>
      <trkpt lat="44.49118" lon="-1.10268">
        <ele>18</ele>
        <time>2019-08-11T13:24:35Z</time>
      </trkpt>
      <trkpt lat="44.49119" lon="-1.10262">
        <ele>18</ele>
        <time>2019-08-11T13:24:40Z</time>
      </trkpt>
      <trkpt lat="44.49119" lon="-1.10252">
        <ele>18</ele>
        <time>2019-08-11T13:24:50Z</time>
      </trkpt>
      <trkpt lat="44.49118" lon="-1.10247">
        <ele>18</ele>
        <time>2019-08-11T13:24:55Z</time>
      </trkpt>
      <trkpt lat="44.49118" lon="-1.10237">
        <ele>18</ele>
        <time>2019-08-11T13:25:05Z</time>
      </trkpt>
      <trkpt lat="44.49118" lon="-1.10226">
        <ele>18</ele>
        <time>2019-08-11T13:25:15Z</time>
      </trkpt>
      <trkpt lat="44.49119" lon="-1.10219">
        <ele>18</ele>
        <time>2019-08-11T13:25:20Z</time>
      </trkpt>
      <trkpt lat="44.49118" lon="-1.10207">
        <ele>18</ele>
        <time>2019-08-11T13:25:30Z</time>
      </trkpt>
      <trkpt lat="44.49117" lon="-1.10202">
        <ele>18</ele>
        <time>2019-08-11T13:25:35Z</time>
      </trkpt>
      <trkpt lat="44.49115" lon="-1.10191">
        <ele>18</ele>
        <time>2019-08-11T13:25:45Z</time>
      </trkpt>
      <trkpt lat="44.49113" lon="-1.10186">
        <ele>18</ele>
        <time>2019-08-11T13:25:50Z</time>
      </trkpt>
      <trkpt lat="44.49108" lon="-1.10176">
        <ele>18</ele>
        <time>2019-08-11T13:26:00Z</time>
      </trkpt>
      <trkpt lat="44.49107" lon="-1.10171">
        <ele>18</ele>
        <time>2019-08-11T13:26:05Z</time>
      </trkpt>
      <trkpt lat="44.49103" lon="-1.10161">
        <ele>18</ele>
        <time>2019-08-11T13:26:15Z</time>
      </trkpt>
      <trkpt lat="44.49101" lon="-1.10155">
        <ele>18</ele>
        <time>2019-08-11T13:26:20Z</time>
      </trkpt>
      <trkpt lat="44.49098" lon="-1.10142">
        <ele>18</ele>
        <time>2019-08-11T13:26:30Z</time>
      </trkpt>
      <trkpt lat="44.49094" lon="-1.10128">
        <ele>18</ele>
        <time>2019-08-11T13:26:40Z</time>
      </trkpt>
      <trkpt lat="44.49092" lon="-1.10121">
        <ele>18</ele>
        <time>2019-08-11T13:26:45Z</time>
      </trkpt>
      <trkpt lat="44.4909" lon="-1.10108">
        <ele>18</ele>
        <time>2019-08-11T13:26:55Z</time>
      </trkpt>
      <trkpt lat="44.49088" lon="-1.10102">
        <ele>18</ele>
        <time>2019-08-11T13:27:00Z</time>
      </trkpt>
      <trkpt lat="44.49086" lon="-1.1009">
        <ele>18</ele>
        <time>2019-08-11T13:27:10Z</time>
      </trkpt>
      <trkpt lat="44.49084" lon="-1.10083">
        <ele>18</ele>
        <time>2019-08-11T13:27:15Z</time>
      </trkpt>
      <trkpt lat="44.4908" lon="-1.10068">
        <ele>18</ele>
        <time>2019-08-11T13:27:25Z</time>
      </trkpt>
      <trkpt lat="44.49078" lon="-1.1006">
        <ele>18</ele>
        <time>2019-08-11T13:27:30Z</time>
      </trkpt>
      <trkpt lat="44.49074" lon="-1.10045">
        <ele>18</ele>
        <time>2019-08-11T13:27:40Z</time>
      </trkpt>
      <trkpt lat="44.49072" lon="-1.10037">
        <ele>18</ele>
        <time>2019-08-11T13:27:45Z</time>
      </trkpt>
      <trkpt lat="44.4907" lon="-1.1002">
        <ele>18</ele>
        <time>2019-08-11T13:27:55Z</time>
      </trkpt>
      <trkpt lat="44.49068" lon="-1.10013">
        <ele>18</ele>
        <time>2019-08-11T13:28:00Z</time>
      </trkpt>
      <trkpt lat="44.49065" lon="-1.09998">
        <ele>18</ele>
        <time>2019-08-11T13:28:10Z</time>
      </trkpt>
      <trkpt lat="44.49062" lon="-1.09984">
        <ele>18</ele>
        <time>2019-08-11T13:28:20Z</time>
      </trkpt>
      <trkpt lat="44.49061" lon="-1.09977">
        <ele>18</ele>
        <time>2019-08-11T13:28:25Z</time>
      </trkpt>
      <trkpt lat="44.49058" lon="-1.09963">
        <ele>18</ele>
        <time>2019-08-11T13:28:35Z</time>
      </trkpt>
      <trkpt lat="44.49056" lon="-1.09955">
        <ele>18</ele>
        <time>2019-08-11T13:28:40Z</time>
      </trkpt>
      <trkpt lat="44.4905" lon="-1.09941">
        <ele>18</ele>
        <time>2019-08-11T13:28:50Z</time>
      </trkpt>
      <trkpt lat="44.49048" lon="-1.09934">
        <ele>18</ele>
        <time>2019-08-11T13:28:55Z</time>
      </trkpt>
      <trkpt lat="44.49043" lon="-1.0992">
        <ele>18</ele>
        <time>2019-08-11T13:29:05Z</time>
      </trkpt>
      <trkpt lat="44.49041" lon="-1.09912">
        <ele>18</ele>
        <time>2019-08-11T13:29:10Z</time>
      </trkpt>
      <trkpt lat="44.49035" lon="-1.09897">
        <ele>18</ele>
        <time>2019-08-11T13:29:20Z</time>
      </trkpt>
      <trkpt lat="44.49032" lon="-1.09889">
        <ele>18</ele>
        <time>2019-08-11T13:29:25Z</time>
      </trkpt>
      <trkpt lat="44.49026" lon="-1.09872">
        <ele>18</ele>
        <time>2019-08-11T13:29:35Z</time>
      </trkpt>
      <trkpt lat="44.49023" lon="-1.09863">
        <ele>18</ele>
        <time>2019-08-11T13:29:40Z</time>
      </trkpt>
      <trkpt lat="44.49017" lon="-1.09847">
        <ele>18</ele>
        <time>2019-08-11T13:29:50Z</time>
      </trkpt>
      <trkpt lat="44.49013" lon="-1.09832">
        <ele>18</ele>
        <time>2019-08-11T13:30:00Z</time>
      </trkpt>
      <trkpt lat="44.49012" lon="-1.09825">
        <ele>18</ele>
        <time>2019-08-11T13:30:05Z</time>
      </trkpt>
      <trkpt lat="44.49008" lon="-1.09811">
        <ele>18</ele>
        <time>2019-08-11T13:30:15Z</time>
      </trkpt>
      <trkpt lat="44.49006" lon="-1.09804">
        <ele>18</ele>
        <time>2019-08-11T13:30:20Z</time>
      </trkpt>
      <trkpt lat="44.49001" lon="-1.09792">
        <ele>18</ele>
        <time>2019-08-11T13:30:30Z</time>
      </trkpt>
      <trkpt lat="44.48999" lon="-1.09785">
        <ele>18</ele>
        <time>2019-08-11T13:30:35Z</time>
      </trkpt>
      <trkpt lat="44.48994" lon="-1.09771">
        <ele>18</ele>
        <time>2019-08-11T13:30:45Z</time>
      </trkpt>
      <trkpt lat="44.48992" lon="-1.09764">
        <ele>18</ele>
        <time>2019-08-11T13:30:50Z</time>
      </trkpt>
      <trkpt lat="44.48985" lon="-1.0975">
        <ele>18</ele>
        <time>2019-08-11T13:31:00Z</time>
      </trkpt>
      <trkpt lat="44.48982" lon="-1.09743">
        <ele>18</ele>
        <time>2019-08-11T13:31:05Z</time>
      </trkpt>
      <trkpt lat="44.48977" lon="-1.09728">
        <ele>18</ele>
        <time>2019-08-11T13:31:15Z</time>
      </trkpt>
      <trkpt lat="44.48976" lon="-1.0972">
        <ele>18</ele>
        <time>2019-08-11T13:31:20Z</time>
      </trkpt>
      <trkpt lat="44.48972" lon="-1.09705">
        <ele>18</ele>
        <time>2019-08-11T13:31:30Z</time>
      </trkpt>
      <trkpt lat="44.48969" lon="-1.09691">
        <ele>18</ele>
        <time>2019-08-11T13:31:40Z</time>
      </trkpt>
      <trkpt lat="44.48968" lon="-1.09685">
        <ele>18</ele>
        <time>2019-08-11T13:31:45Z</time>
      </trkpt>
      <trkpt lat="44.48965" lon="-1.09672">
        <ele>18</ele>
        <time>2019-08-11T13:31:55Z</time>
      </trkpt>
      <trkpt lat="44.48964" lon="-1.09666">
        <ele>18</ele>
        <time>2019-08-11T13:32:00Z</time>
      </trkpt>
      <trkpt lat="44.48962" lon="-1.09655">
        <ele>18</ele>
        <time>2019-08-11T13:32:10Z</time>
      </trkpt>
      <trkpt lat="44.48961" lon="-1.0965">
        <ele>18</ele>
        <time>2019-08-11T13:32:15Z</time>
      </trkpt>
      <trkpt lat="44.48959" lon="-1.09638">
        <ele>18</ele>
        <time>2019-08-11T13:32:25Z</time>
      </trkpt>
      <trkpt lat="44.48958" lon="-1.09632">
        <ele>18</ele>
        <time>2019-08-11T13:32:30Z</time>
      </trkpt>
      <trkpt lat="44.48956" lon="-1.0962">
        <ele>18</ele>
        <time>2019-08-11T13:32:40Z</time>
      </trkpt>
      <trkpt lat="44.48954" lon="-1.09613">
        <ele>18</ele>
        <time>2019-08-11T13:32:45Z</time>
      </trkpt>
      <trkpt lat="44.48952" lon="-1.096">
        <ele>18</ele>
        <time>2019-08-11T13:32:55Z</time>
      </trkpt>
      <trkpt lat="44.4895" lon="-1.09588">
        <ele>18</ele>
        <time>2019-08-11T13:33:05Z</time>
      </trkpt>
      <trkpt lat="44.48949" lon="-1.09582">
        <ele>18</ele>
        <time>2019-08-11T13:33:10Z</time>
      </trkpt>
      <trkpt lat="44.48948" lon="-1.09572">
        <ele>18</ele>
        <time>2019-08-11T13:33:20Z</time>
      </trkpt>
      <trkpt lat="44.48947" lon="-1.09567">
        <ele>18</ele>
        <time>2019-08-11T13:33:25Z</time>
      </trkpt>
      <trkpt lat="44.48945" lon="-1.09556">
        <ele>18</ele>
        <time>2019-08-11T13:33:35Z</time>
      </trkpt>
      <trkpt lat="44.48944" lon="-1.0955">
        <ele>18</ele>
        <time>2019-08-11T13:33:40Z</time>
      </trkpt>
      <trkpt lat="44.48941" lon="-1.09539">
        <ele>18</ele>
        <time>2019-08-11T13:33:50Z</time>
      </trkpt>
      <trkpt lat="44.48941" lon="-1.09533">
        <ele>18</ele>
        <time>2019-08-11T13:33:55Z</time>
      </trkpt>
      <trkpt lat="44.48939" lon="-1.09522">
        <ele>18</ele>
        <time>2019-08-11T13:34:05Z</time>
      </trkpt>
      <trkpt lat="44.48938" lon="-1.09516">
        <ele>18</ele>
        <time>2019-08-11T13:34:10Z</time>
      </trkpt>
      <trkpt lat="44.48936" lon="-1.09507">
        <ele>18</ele>
        <time>2019-08-11T13:34:20Z</time>
      </trkpt>
      <trkpt lat="44.48935" lon="-1.09501">
        <ele>18</ele>
        <time>2019-08-11T13:34:25Z</time>
      </trkpt>
      <trkpt lat="44.48934" lon="-1.09489">
        <ele>18</ele>
        <time>2019-08-11T13:34:35Z</time>
      </trkpt>
      <trkpt lat="44.48933" lon="-1.09477">
        <ele>18</ele>
        <time>2019-08-11T13:34:45Z</time>
      </trkpt>
      <trkpt lat="44.48932" lon="-1.09471">
        <ele>18</ele>
        <time>2019-08-11T13:34:50Z</time>
      </trkpt>
      <trkpt lat="44.48931" lon="-1.09457">
        <ele>18</ele>
        <time>2019-08-11T13:35:00Z</time>
      </trkpt>
      <trkpt lat="44.4893" lon="-1.0945">
        <ele>18</ele>
        <time>2019-08-11T13:35:05Z</time>
      </trkpt>
      <trkpt lat="44.48929" lon="-1.09437">
        <ele>18</ele>
        <time>2019-08-11T13:35:15Z</time>
      </trkpt>
      <trkpt lat="44.48929" lon="-1.0943">
        <ele>18</ele>
        <time>2019-08-11T13:35:20Z</time>
      </trkpt>
      <trkpt lat="44.48929" lon="-1.09419">
        <ele>18</ele>
        <time>2019-08-11T13:35:30Z</time>
      </trkpt>
      <trkpt lat="44.48928" lon="-1.09411">
        <ele>18</ele>
        <time>2019-08-11T13:35:35Z</time>
      </trkpt>
      <trkpt lat="44.48927" lon="-1.09393">
        <ele>18</ele>
        <time>2019-08-11T13:35:45Z</time>
      </trkpt>
      <trkpt lat="44.48927" lon="-1.09386">
        <ele>18</ele>
        <time>2019-08-11T13:35:50Z</time>
      </trkpt>
      <trkpt lat="44.48927" lon="-1.0937">
        <ele>18</ele>
        <time>2019-08-11T13:36:00Z</time>
      </trkpt>
      <trkpt lat="44.48926" lon="-1.09362">
        <ele>18</ele>
        <time>2019-08-11T13:36:05Z</time>
      </trkpt>
      <trkpt lat="44.48926" lon="-1.09348">
        <ele>18</ele>
        <time>2019-08-11T13:36:15Z</time>
      </trkpt>
      <trkpt lat="44.48924" lon="-1.09328">
        <ele>18</ele>
        <time>2019-08-11T13:36:25Z</time>
      </trkpt>
      <trkpt lat="44.48926" lon="-1.09319">
        <ele>18</ele>
        <time>2019-08-11T13:36:30Z</time>
      </trkpt>
      <trkpt lat="44.4893" lon="-1.09303">
        <ele>18</ele>
        <time>2019-08-11T13:36:40Z</time>
      </trkpt>
      <trkpt lat="44.48933" lon="-1.09294">
        <ele>18</ele>
        <time>2019-08-11T13:36:45Z</time>
      </trkpt>
      <trkpt lat="44.48936" lon="-1.09276">
        <ele>18</ele>
        <time>2019-08-11T13:36:55Z</time>
      </trkpt>
      <trkpt lat="44.48938" lon="-1.09267">
        <ele>18</ele>
        <time>2019-08-11T13:37:00Z</time>
      </trkpt>
      <trkpt lat="44.48941" lon="-1.0925">
        <ele>18</ele>
        <time>2019-08-11T13:37:10Z</time>
      </trkpt>
      <trkpt lat="44.48943" lon="-1.09242">
        <ele>18</ele>
        <time>2019-08-11T13:37:15Z</time>
      </trkpt>
      <trkpt lat="44.48947" lon="-1.09227">
        <ele>18</ele>
        <time>2019-08-11T13:37:25Z</time>
      </trkpt>
      <trkpt lat="44.48948" lon="-1.09221">
        <ele>18</ele>
        <time>2019-08-11T13:37:30Z</time>
      </trkpt>
      <trkpt lat="44.48951" lon="-1.09207">
        <ele>18</ele>
        <time>2019-08-11T13:37:40Z</time>
      </trkpt>
      <trkpt lat="44.48952" lon="-1.09201">
        <ele>18</ele>
        <time>2019-08-11T13:37:45Z</time>
      </trkpt>
      <trkpt lat="44.48955" lon="-1.09189">
        <ele>18</ele>
        <time>2019-08-11T13:37:55Z</time>
      </trkpt>
      <trkpt lat="44.4896" lon="-1.09177">
        <ele>18</ele>
        <time>2019-08-11T13:38:05Z</time>
      </trkpt>
      <trkpt lat="44.48963" lon="-1.0917">
        <ele>18</ele>
        <time>2019-08-11T13:38:10Z</time>
      </trkpt>
      <trkpt lat="44.48968" lon="-1.09156">
        <ele>18</ele>
        <time>2019-08-11T13:38:20Z</time>
      </trkpt>
      <trkpt lat="44.48969" lon="-1.09149">
        <ele>18</ele>
        <time>2019-08-11T13:38:25Z</time>
      </trkpt>
      <trkpt lat="44.48973" lon="-1.09134">
        <ele>18</ele>
        <time>2019-08-11T13:38:35Z</time>
      </trkpt>
      <trkpt lat="44.48976" lon="-1.09128">
        <ele>18</ele>
        <time>2019-08-11T13:38:40Z</time>
      </trkpt>
      <trkpt lat="44.48981" lon="-1.09113">
        <ele>18</ele>
        <time>2019-08-11T13:38:50Z</time>
      </trkpt>
      <trkpt lat="44.48983" lon="-1.09106">
        <ele>18</ele>
        <time>2019-08-11T13:38:55Z</time>
      </trkpt>
      <trkpt lat="44.48986" lon="-1.09091">
        <ele>18</ele>
        <time>2019-08-11T13:39:05Z</time>
      </trkpt>
      <trkpt lat="44.48987" lon="-1.09083">
        <ele>18</ele>
        <time>2019-08-11T13:39:10Z</time>
      </trkpt>
      <trkpt lat="44.48992" lon="-1.09068">
        <ele>18</ele>
        <time>2019-08-11T13:39:20Z</time>
      </trkpt>
      <trkpt lat="44.48995" lon="-1.09059">
        <ele>18</ele>
        <time>2019-08-11T13:39:25Z</time>
      </trkpt>
      <trkpt lat="44.48999" lon="-1.0904">
        <ele>18</ele>
        <time>2019-08-11T13:39:35Z</time>
      </trkpt>
      <trkpt lat="44.49002" lon="-1.09023">
        <ele>18</ele>
        <time>2019-08-11T13:39:45Z</time>
      </trkpt>
      <trkpt lat="44.49004" lon="-1.09013">
        <ele>18</ele>
        <time>2019-08-11T13:39:50Z</time>
      </trkpt>
      <trkpt lat="44.4901" lon="-1.08995">
        <ele>18</ele>
        <time>2019-08-11T13:40:00Z</time>
      </trkpt>
      <trkpt lat="44.49013" lon="-1.08986">
        <ele>18</ele>
        <time>2019-08-11T13:40:05Z</time>
      </trkpt>
      <trkpt lat="44.49017" lon="-1.08969">
        <ele>18</ele>
        <time>2019-08-11T13:40:15Z</time>
      </trkpt>
      <trkpt lat="44.49019" lon="-1.0896">
        <ele>18</ele>
        <time>2019-08-11T13:40:20Z</time>
      </trkpt>
      <trkpt lat="44.49023" lon="-1.08944">
        <ele>18</ele>
        <time>2019-08-11T13:40:30Z</time>
      </trkpt>
      <trkpt lat="44.49025" lon="-1.08936">
        <ele>18</ele>
        <time>2019-08-11T13:40:35Z</time>
      </trkpt>
      <trkpt lat="44.49028" lon="-1.08919">
        <ele>18</ele>
        <time>2019-08-11T13:40:45Z</time>
      </trkpt>
      <trkpt lat="44.4903" lon="-1.08912">
        <ele>18</ele>
        <time>2019-08-11T13:40:50Z</time>
      </trkpt>
      <trkpt lat="44.49034" lon="-1.08897">
        <ele>18</ele>
        <time>2019-08-11T13:41:00Z</time>
      </trkpt>
      <trkpt lat="44.49037" lon="-1.08882">
        <ele>18</ele>
        <time>2019-08-11T13:41:10Z</time>
      </trkpt>
      <trkpt lat="44.49038" lon="-1.08875">
        <ele>18</ele>
        <time>2019-08-11T13:41:15Z</time>
      </trkpt>
      <trkpt lat="44.49042" lon="-1.08861">
        <ele>18</ele>
        <time>2019-08-11T13:41:25Z</time>
      </trkpt>
      <trkpt lat="44.49043" lon="-1.08853">
        <ele>18</ele>
        <time>2019-08-11T13:41:30Z</time>
      </trkpt>
      <trkpt lat="44.49047" lon="-1.08839">
        <ele>18</ele>
        <time>2019-08-11T13:41:40Z</time>
      </trkpt>
      <trkpt lat="44.49049" lon="-1.08831">
        <ele>18</ele>
        <time>2019-08-11T13:41:45Z</time>
      </trkpt>
      <trkpt lat="44.49054" lon="-1.08815">
        <ele>18</ele>
        <time>2019-08-11T13:41:55Z</time>
      </trkpt>
      <trkpt lat="44.49056" lon="-1.08807">
        <ele>18</ele>
        <time>2019-08-11T13:42:00Z</time>
      </trkpt>
      <trkpt lat="44.49062" lon="-1.08792">
        <ele>18</ele>
        <time>2019-08-11T13:42:10Z</time>
      </trkpt>
      <trkpt lat="44.49065" lon="-1.08783">
        <ele>18</ele>
        <time>2019-08-11T13:42:15Z</time>
      </trkpt>
      <trkpt lat="44.49071" lon="-1.08765">
        <ele>18</ele>
        <time>2019-08-11T13:42:25Z</time>
      </trkpt>
      <trkpt lat="44.49074" lon="-1.08755">
        <ele>18</ele>
        <time>2019-08-11T13:42:30Z</time>
      </trkpt>
      <trkpt lat="44.4908" lon="-1.08735">
        <ele>18</ele>
        <time>2019-08-11T13:42:40Z</time>
      </trkpt>
      <trkpt lat="44.49085" lon="-1.08715">
        <ele>18</ele>
        <time>2019-08-11T13:42:50Z</time>
      </trkpt>
      <trkpt lat="44.49088" lon="-1.08706">
        <ele>18</ele>
        <time>2019-08-11T13:42:55Z</time>
      </trkpt>
      <trkpt lat="44.49095" lon="-1.08688">
        <ele>18</ele>
        <time>2019-08-11T13:43:05Z</time>
      </trkpt>
      <trkpt lat="44.49099" lon="-1.08678">
        <ele>18</ele>
        <time>2019-08-11T13:43:10Z</time>
      </trkpt>
      <trkpt lat="44.49106" lon="-1.0866">
        <ele>18</ele>
        <time>2019-08-11T13:43:20Z</time>
      </trkpt>
      <trkpt lat="44.49109" lon="-1.08651">
        <ele>18</ele>
        <time>2019-08-11T13:43:25Z</time>
      </trkpt>
      <trkpt lat="44.49115" lon="-1.08634">
        <ele>18</ele>
        <time>2019-08-11T13:43:35Z</time>
      </trkpt>
      <trkpt lat="44.49118" lon="-1.08627">
        <ele>18</ele>
        <time>2019-08-11T13:43:40Z</time>
      </trkpt>
      <trkpt lat="44.49126" lon="-1.08611">
        <ele>18</ele>
        <time>2019-08-11T13:43:50Z</time>
      </trkpt>
      <trkpt lat="44.4913" lon="-1.08604">
        <ele>18</ele>
        <time>2019-08-11T13:43:55Z</time>
      </trkpt>
      <trkpt lat="44.49135" lon="-1.08587">
        <ele>18</ele>
        <time>2019-08-11T13:44:05Z</time>
      </trkpt>
      <trkpt lat="44.49137" lon="-1.08579">
        <ele>18</ele>
        <time>2019-08-11T13:44:10Z</time>
      </trkpt>
      <trkpt lat="44.49143" lon="-1.08565">
        <ele>18</ele>
        <time>2019-08-11T13:44:20Z</time>
      </trkpt>
      <trkpt lat="44.49149" lon="-1.08551">
        <ele>18</ele>
        <time>2019-08-11T13:44:30Z</time>
      </trkpt>
      <trkpt lat="44.49152" lon="-1.08544">
        <ele>18</ele>
        <time>2019-08-11T13:44:35Z</time>
      </trkpt>
      <trkpt lat="44.49157" lon="-1.0853">
        <ele>18</ele>
        <time>2019-08-11T13:44:45Z</time>
      </trkpt>
      <trkpt lat="44.4916" lon="-1.08523">
        <ele>18</ele>
        <time>2019-08-11T13:44:50Z</time>
      </trkpt>
      <trkpt lat="44.49164" lon="-1.08508">
        <ele>18</ele>
        <time>2019-08-11T13:45:00Z</time>
      </trkpt>
      <trkpt lat="44.49166" lon="-1.08501">
        <ele>18</ele>
        <time>2019-08-11T13:45:05Z</time>
      </trkpt>
      <trkpt lat="44.49171" lon="-1.08487">
        <ele>18</ele>
        <time>2019-08-11T13:45:15Z</time>
      </trkpt>
      <trkpt lat="44.49174" lon="-1.0848">
        <ele>18</ele>
        <time>2019-08-11T13:45:20Z</time>
      </trkpt>
      <trkpt lat="44.4918" lon="-1.08466">
        <ele>18</ele>
        <time>2019-08-11T13:45:30Z</time>
      </trkpt>
      <trkpt lat="44.49183" lon="-1.08459">
        <ele>18</ele>
        <time>2019-08-11T13:45:35Z</time>
      </trkpt>
      <trkpt lat="44.49188" lon="-1.08445">
        <ele>18</ele>
        <time>2019-08-11T13:45:45Z</time>
      </trkpt>
      <trkpt lat="44.49191" lon="-1.08438">
        <ele>18</ele>
        <time>2019-08-11T13:45:50Z</time>
      </trkpt>
      <trkpt lat="44.49198" lon="-1.08424">
        <ele>18</ele>
        <time>2019-08-11T13:46:00Z</time>
      </trkpt>
      <trkpt lat="44.49204" lon="-1.08411">
        <ele>18</ele>
        <time>2019-08-11T13:46:10Z</time>
      </trkpt>
      <trkpt lat="44.49207" lon="-1.08405">
        <ele>18</ele>
        <time>2019-08-11T13:46:15Z</time>
      </trkpt>
      <trkpt lat="44.49214" lon="-1.08392">
        <ele>18</ele>
        <time>2019-08-11T13:46:25Z</time>
      </trkpt>
      <trkpt lat="44.49217" lon="-1.08385">
        <ele>18</ele>
        <time>2019-08-11T13:46:30Z</time>
      </trkpt>
      <trkpt lat="44.49222" lon="-1.08371">
        <ele>18</ele>
        <time>2019-08-11T13:46:40Z</time>
      </trkpt>
      <trkpt lat="44.49225" lon="-1.08364">
        <ele>18</ele>
        <time>2019-08-11T13:46:45Z</time>
      </trkpt>
      <trkpt lat="44.49231" lon="-1.08351">
        <ele>18</ele>
        <time>2019-08-11T13:46:55Z</time>
      </trkpt>
      <trkpt lat="44.49234" lon="-1.08345">
        <ele>18</ele>
        <time>2019-08-11T13:47:00Z</time>
      </trkpt>
      <trkpt lat="44.49239" lon="-1.08331">
        <ele>18</ele>
        <time>2019-08-11T13:47:10Z</time>
      </trkpt>
      <trkpt lat="44.49242" lon="-1.08324">
        <ele>18</ele>
        <time>2019-08-11T13:47:15Z</time>
      </trkpt>
      <trkpt lat="44.49248" lon="-1.08311">
        <ele>18</ele>
        <time>2019-08-11T13:47:25Z</time>
      </trkpt>
      <trkpt lat="44.4925" lon="-1.08304">
        <ele>18</ele>
        <time>2019-08-11T13:47:30Z</time>
      </trkpt>
      <trkpt lat="44.49256" lon="-1.0829">
        <ele>18</ele>
        <time>2019-08-11T13:47:40Z</time>
      </trkpt>
      <trkpt lat="44.4926" lon="-1.08275">
        <ele>18</ele>
        <time>2019-08-11T13:47:50Z</time>
      </trkpt>
      <trkpt lat="44.49262" lon="-1.08268">
        <ele>18</ele>
        <time>2019-08-11T13:47:55Z</time>
      </trkpt>
      <trkpt lat="44.49267" lon="-1.08253">
        <ele>18</ele>
        <time>2019-08-11T13:48:05Z</time>
      </trkpt>
      <trkpt lat="44.49271" lon="-1.08246">
        <ele>18</ele>
        <time>2019-08-11T13:48:10Z</time>
      </trkpt>
      <trkpt lat="44.49278" lon="-1.0823">
        <ele>18</ele>
        <time>2019-08-11T13:48:20Z</time>
      </trkpt>
      <trkpt lat="44.49283" lon="-1.08221">
        <ele>18</ele>
        <time>2019-08-11T13:48:25Z</time>
      </trkpt>
      <trkpt lat="44.49292" lon="-1.08201">
        <ele>18</ele>
        <time>2019-08-11T13:48:35Z</time>
      </trkpt>
      <trkpt lat="44.49296" lon="-1.08189">
        <ele>18</ele>
        <time>2019-08-11T13:48:40Z</time>
      </trkpt>
      <trkpt lat="44.49305" lon="-1.08167">
        <ele>18</ele>
        <time>2019-08-11T13:48:50Z</time>
      </trkpt>
      <trkpt lat="44.49309" lon="-1.08157">
        <ele>18</ele>
        <time>2019-08-11T13:48:55Z</time>
      </trkpt>
      <trkpt lat="44.49315" lon="-1.08135">
        <ele>18</ele>
        <time>2019-08-11T13:49:05Z</time>
      </trkpt>
      <trkpt lat="44.4932" lon="-1.08115">
        <ele>18</ele>
        <time>2019-08-11T13:49:15Z</time>
      </trkpt>
      <trkpt lat="44.49323" lon="-1.08106">
        <ele>18</ele>
        <time>2019-08-11T13:49:20Z</time>
      </trkpt>
      <trkpt lat="44.49331" lon="-1.08088">
        <ele>18</ele>
        <time>2019-08-11T13:49:30Z</time>
      </trkpt>
      <trkpt lat="44.49335" lon="-1.08079">
        <ele>18</ele>
        <time>2019-08-11T13:49:35Z</time>
      </trkpt>
      <trkpt lat="44.49343" lon="-1.08064">
        <ele>18</ele>
        <time>2019-08-11T13:49:45Z</time>
      </trkpt>
      <trkpt lat="44.49347" lon="-1.08056">
        <ele>18</ele>
        <time>2019-08-11T13:49:50Z</time>
      </trkpt>
      <trkpt lat="44.49353" lon="-1.08041">
        <ele>18</ele>
        <time>2019-08-11T13:50:00Z</time>
      </trkpt>
      <trkpt lat="44.49356" lon="-1.08035">
        <ele>18</ele>
        <time>2019-08-11T13:50:05Z</time>
      </trkpt>
      <trkpt lat="44.49361" lon="-1.08024">
        <ele>18</ele>
        <time>2019-08-11T13:50:15Z</time>
      </trkpt>
      <trkpt lat="44.49365" lon="-1.08018">
        <ele>18</ele>
        <time>2019-08-11T13:50:20Z</time>
      </trkpt>
      <trkpt lat="44.49373" lon="-1.08006">
        <ele>18</ele>
        <time>2019-08-11T13:50:30Z</time>
      </trkpt>
      <trkpt lat="44.49377" lon="-1.07999">
        <ele>18</ele>
        <time>2019-08-11T13:50:35Z</time>
      </trkpt>
      <trkpt lat="44.49384" lon="-1.07986">
        <ele>18</ele>
        <time>2019-08-11T13:50:45Z</time>
      </trkpt>
      <trkpt lat="44.49391" lon="-1.07973">
        <ele>18</ele>
        <time>2019-08-11T13:50:55Z</time>
      </trkpt>
      <trkpt lat="44.49394" lon="-1.07967">
        <ele>18</ele>
        <time>2019-08-11T13:51:00Z</time>
      </trkpt>
      <trkpt lat="44.49401" lon="-1.07954">
        <ele>18</ele>
        <time>2019-08-11T13:51:10Z</time>
      </trkpt>
      <trkpt lat="44.49403" lon="-1.07947">
        <ele>18</ele>
        <time>2019-08-11T13:51:15Z</time>
      </trkpt>
      <trkpt lat="44.49411" lon="-1.07938">
        <ele>18</ele>
        <time>2019-08-11T13:51:25Z</time>
      </trkpt>
      <trkpt lat="44.49415" lon="-1.07938">
        <ele>18</ele>
        <time>2019-08-11T13:51:30Z</time>
      </trkpt>
      <trkpt lat="44.4942" lon="-1.07944">
        <ele>18</ele>
        <time>2019-08-11T13:51:40Z</time>
      </trkpt>
      <trkpt lat="44.49423" lon="-1.07952">
        <ele>18</ele>
        <time>2019-08-11T13:51:45Z</time>
      </trkpt>
      <trkpt lat="44.4943" lon="-1.07956">
        <ele>18</ele>
        <time>2019-08-11T13:51:55Z</time>
      </trkpt>
      <trkpt lat="44.49431" lon="-1.07959">
        <ele>18</ele>
        <time>2019-08-11T13:52:00Z</time>
      </trkpt>
      <trkpt lat="44.4943" lon="-1.07964">
        <ele>18</ele>
        <time>2019-08-11T13:52:10Z</time>
      </trkpt>
      <trkpt lat="44.4943" lon="-1.07965">
        <ele>18</ele>
        <time>2019-08-11T13:52:15Z</time>
      </trkpt>
      <trkpt lat="44.49426" lon="-1.07964">
        <ele>18</ele>
        <time>2019-08-11T13:52:25Z</time>
      </trkpt>
      <trkpt lat="44.49424" lon="-1.07964">
        <ele>18</ele>
        <time>2019-08-11T13:52:35Z</time>
      </trkpt>
      <trkpt lat="44.49423" lon="-1.07963">
        <ele>18</ele>
        <time>2019-08-11T13:52:40Z</time>
      </trkpt>
      <trkpt lat="44.49422" lon="-1.0796">
        <ele>18</ele>
        <time>2019-08-11T13:52:50Z</time>
      </trkpt>
      <trkpt lat="44.49422" lon="-1.0796">
        <ele>18</ele>
        <time>2019-08-11T13:52:55Z</time>
      </trkpt>
      <trkpt lat="44.49422" lon="-1.07958">
        <ele>18</ele>
        <time>2019-08-11T13:53:05Z</time>
      </trkpt>
      <trkpt lat="44.49421" lon="-1.07957">
        <ele>18</ele>
        <time>2019-08-11T13:53:10Z</time>
      </trkpt>
      <trkpt lat="44.4942" lon="-1.07952">
        <ele>18</ele>
        <time>2019-08-11T13:53:20Z</time>
      </trkpt>
      <trkpt lat="44.4942" lon="-1.07951">
        <ele>18</ele>
        <time>2019-08-11T13:53:25Z</time>
      </trkpt>
      <trkpt lat="44.49421" lon="-1.07951">
        <ele>18</ele>
        <time>2019-08-11T13:53:35Z</time>
      </trkpt>
      <trkpt lat="44.49423" lon="-1.07951">
        <ele>18</ele>
        <time>2019-08-11T13:53:40Z</time>
      </trkpt>
      <trkpt lat="44.49424" lon="-1.07952">
        <ele>18</ele>
        <time>2019-08-11T13:53:50Z</time>
      </trkpt>
      <trkpt lat="44.49426" lon="-1.07951">
        <ele>18</ele>
        <time>2019-08-11T13:53:55Z</time>
      </trkpt>
      <trkpt lat="44.49426" lon="-1.07952">
        <ele>18</ele>
        <time>2019-08-11T13:54:05Z</time>
      </trkpt>
      <trkpt lat="44.49425" lon="-1.07952">
        <ele>18</ele>
        <time>2019-08-11T13:54:15Z</time>
      </trkpt>
      <trkpt lat="44.49425" lon="-1.07952">
        <ele>18</ele>
        <time>2019-08-11T13:54:20Z</time>
      </trkpt>
      <trkpt lat="44.49423" lon="-1.0795">
        <ele>18</ele>
        <time>2019-08-11T13:54:30Z</time>
      </trkpt>
      <trkpt lat="44.49423" lon="-1.07949">
        <ele>18</ele>
        <time>2019-08-11T13:54:35Z</time>
      </trkpt>
      <trkpt lat="44.49423" lon="-1.07948">
        <ele>18</ele>
        <time>2019-08-11T13:54:45Z</time>
      </trkpt>
      <trkpt lat="44.49423" lon="-1.07949">
        <ele>18</ele>
        <time>2019-08-11T13:54:50Z</time>
      </trkpt>
      <trkpt lat="44.49423" lon="-1.07951">
        <ele>18</ele>
        <time>2019-08-11T13:55:00Z</time>
      </trkpt>
      <trkpt lat="44.49422" lon="-1.07951">
        <ele>18</ele>
        <time>2019-08-11T13:55:05Z</time>
      </trkpt>
      <trkpt lat="44.49422" lon="-1.07952">
        <ele>18</ele>
        <time>2019-08-11T13:55:15Z</time>
      </trkpt>
      <trkpt lat="44.49421" lon="-1.07952">
        <ele>18</ele>
        <time>2019-08-11T13:55:20Z</time>
      </trkpt>
      <trkpt lat="44.49421" lon="-1.07952">
        <ele>18</ele>
        <time>2019-08-11T13:55:30Z</time>
      </trkpt>
      <trkpt lat="44.49421" lon="-1.07953">
        <ele>18</ele>
        <time>2019-08-11T13:55:35Z</time>
      </trkpt>
      <trkpt lat="44.49422" lon="-1.07953">
        <ele>18</ele>
        <time>2019-08-11T13:55:45Z</time>
      </trkpt>
      <trkpt lat="44.49423" lon="-1.07951">
        <ele>18</ele>
        <time>2019-08-11T13:55:55Z</time>
      </trkpt>
      <trkpt lat="44.49423" lon="-1.0795">
        <ele>18</ele>
        <time>2019-08-11T13:56:00Z</time>
      </trkpt>
      <trkpt lat="44.49423" lon="-1.0795">
        <ele>18</ele>
        <time>2019-08-11T13:56:10Z</time>
      </trkpt>
      <trkpt lat="44.49423" lon="-1.07949">
        <ele>18</ele>
        <time>2019-08-11T13:56:15Z</time>
      </trkpt>
      <trkpt lat="44.49422" lon="-1.07946">
        <ele>18</ele>
        <time>2019-08-11T13:56:25Z</time>
      </trkpt>
      <trkpt lat="44.49422" lon="-1.07946">
        <ele>18</ele>
        <time>2019-08-11T13:56:30Z</time>
      </trkpt>
      <trkpt lat="44.49421" lon="-1.07947">
        <ele>18</ele>
        <time>2019-08-11T13:56:40Z</time>
      </trkpt>
      <trkpt lat="44.49421" lon="-1.07946">
        <ele>18</ele>
        <time>2019-08-11T13:56:45Z</time>
      </trkpt>
      <trkpt lat="44.4942" lon="-1.07946">
        <ele>18</ele>
        <time>2019-08-11T13:56:55Z</time>
      </trkpt>
      <trkpt lat="44.4942" lon="-1.07948">
        <ele>18</ele>
        <time>2019-08-11T13:57:00Z</time>
      </trkpt>
      <trkpt lat="44.4942" lon="-1.07947">
        <ele>18</ele>
        <time>2019-08-11T13:57:10Z</time>
      </trkpt>
      <trkpt lat="44.49421" lon="-1.07949">
        <ele>18</ele>
        <time>2019-08-11T13:57:20Z</time>
      </trkpt>
      <trkpt lat="44.49421" lon="-1.07951">
        <ele>18</ele>
        <time>2019-08-11T13:57:25Z</time>
      </trkpt>
      <trkpt lat="44.49421" lon="-1.07951">
        <ele>18</ele>
        <time>2019-08-11T13:57:35Z</time>
      </trkpt>
      <trkpt lat="44.49421" lon="-1.07952">
        <ele>18</ele>
        <time>2019-08-11T13:57:40Z</time>
      </trkpt>
      <trkpt lat="44.49421" lon="-1.07952">
        <ele>18</ele>
        <time>2019-08-11T13:57:50Z</time>
      </trkpt>
      <trkpt lat="44.49421" lon="-1.07953">
        <ele>18</ele>
        <time>2019-08-11T13:57:55Z</time>
      </trkpt>
      <trkpt lat="44.4942" lon="-1.07953">
        <ele>18</ele>
        <time>2019-08-11T13:58:05Z</time>
      </trkpt>
      <trkpt lat="44.49421" lon="-1.07952">
        <ele>18</ele>
        <time>2019-08-11T13:58:10Z</time>
      </trkpt>
      <trkpt lat="44.49421" lon="-1.07952">
        <ele>18</ele>
        <time>2019-08-11T13:58:20Z</time>
      </trkpt>
      <trkpt lat="44.49421" lon="-1.07951">
        <ele>18</ele>
        <time>2019-08-11T13:58:25Z</time>
      </trkpt>
      <trkpt lat="44.49422" lon="-1.0795">
        <ele>18</ele>
        <time>2019-08-11T13:58:35Z</time>
      </trkpt>
      <trkpt lat="44.49422" lon="-1.0795">
        <ele>18</ele>
        <time>2019-08-11T13:58:40Z</time>
      </trkpt>
      <trkpt lat="44.49422" lon="-1.07951">
        <ele>18</ele>
        <time>2019-08-11T13:58:50Z</time>
      </trkpt>
      <trkpt lat="44.49422" lon="-1.07952">
        <ele>18</ele>
        <time>2019-08-11T13:59:00Z</time>
      </trkpt>
      <trkpt lat="44.49422" lon="-1.07952">
        <ele>18</ele>
        <time>2019-08-11T13:59:05Z</time>
      </trkpt>
      <trkpt lat="44.49422" lon="-1.07951">
        <ele>18</ele>
        <time>2019-08-11T13:59:15Z</time>
      </trkpt>
      <trkpt lat="44.49423" lon="-1.0795">
        <ele>18</ele>
        <time>2019-08-11T13:59:20Z</time>
      </trkpt>
      <trkpt lat="44.49423" lon="-1.07951">
        <ele>18</ele>
        <time>2019-08-11T13:59:30Z</time>
      </trkpt>
      <trkpt lat="44.49423" lon="-1.07951">
        <ele>18</ele>
        <time>2019-08-11T13:59:35Z</time>
      </trkpt>
      <trkpt lat="44.4942" lon="-1.07952">
        <ele>18</ele>
        <time>2019-08-11T13:59:45Z</time>
      </trkpt>
      <trkpt lat="44.4942" lon="-1.07954">
        <ele>18</ele>
        <time>2019-08-11T13:59:50Z</time>
      </trkpt>
      <trkpt lat="44.49419" lon="-1.07955">
        <ele>18</ele>
        <time>2019-08-11T14:00:00Z</time>
      </trkpt>
      <trkpt lat="44.49418" lon="-1.07956">
        <ele>18</ele>
        <time>2019-08-11T14:00:05Z</time>
      </trkpt>
      <trkpt lat="44.49418" lon="-1.07957">
        <ele>18</ele>
        <time>2019-08-11T14:00:15Z</time>
      </trkpt>
      <trkpt lat="44.49417" lon="-1.07958">
        <ele>18</ele>
        <time>2019-08-11T14:00:20Z</time>
      </trkpt>
      <trkpt lat="44.49418" lon="-1.07957">
        <ele>18</ele>
        <time>2019-08-11T14:00:30Z</time>
      </trkpt>
      <trkpt lat="44.49417" lon="-1.07957">
        <ele>18</ele>
        <time>2019-08-11T14:00:40Z</time>
      </trkpt>
      <trkpt lat="44.49418" lon="-1.07959">
        <ele>18</ele>
        <time>2019-08-11T14:00:45Z</time>
      </trkpt>
      <trkpt lat="44.49418" lon="-1.0796">
        <ele>18</ele>
        <time>2019-08-11T14:00:55Z</time>
      </trkpt>
      <trkpt lat="44.49418" lon="-1.07959">
        <ele>18</ele>
        <time>2019-08-11T14:01:00Z</time>
      </trkpt>
      <trkpt lat="44.49423" lon="-1.07951">
        <ele>18</ele>
        <time>2019-08-11T14:01:10Z</time>
      </trkpt>
      <trkpt lat="44.49422" lon="-1.07947">
        <ele>18</ele>
        <time>2019-08-11T14:01:15Z</time>
      </trkpt>
      <trkpt lat="44.49423" lon="-1.07948">
        <ele>18</ele>
        <time>2019-08-11T14:01:25Z</time>
      </trkpt>
      <trkpt lat="44.49423" lon="-1.07948">
        <ele>18</ele>
        <time>2019-08-11T14:01:30Z</time>
      </trkpt>
      <trkpt lat="44.49423" lon="-1.07947">
        <ele>18</ele>
        <time>2019-08-11T14:01:40Z</time>
      </trkpt>
      <trkpt lat="44.49423" lon="-1.07946">
        <ele>18</ele>
        <time>2019-08-11T14:01:45Z</time>
      </trkpt>
      <trkpt lat="44.49423" lon="-1.07946">
        <ele>18</ele>
        <time>2019-08-11T14:01:55Z</time>
      </trkpt>
      <trkpt lat="44.49423" lon="-1.07946">
        <ele>18</ele>
        <time>2019-08-11T14:02:00Z</time>
      </trkpt>
      <trkpt lat="44.49423" lon="-1.07947">
        <ele>18</ele>
        <time>2019-08-11T14:02:10Z</time>
      </trkpt>
      <trkpt lat="44.49423" lon="-1.07946">
        <ele>18</ele>
        <time>2019-08-11T14:02:20Z</time>
      </trkpt>
      <trkpt lat="44.49423" lon="-1.07945">
        <ele>18</ele>
        <time>2019-08-11T14:02:25Z</time>
      </trkpt>
      <trkpt lat="44.49423" lon="-1.07946">
        <ele>18</ele>
        <time>2019-08-11T14:02:35Z</time>
      </trkpt>
      <trkpt lat="44.49423" lon="-1.07946">
        <ele>18</ele>
        <time>2019-08-11T14:02:40Z</time>
      </trkpt>
      <trkpt lat="44.49422" lon="-1.07945">
        <ele>18</ele>
        <time>2019-08-11T14:02:50Z</time>
      </trkpt>
      <trkpt lat="44.49421" lon="-1.07944">
        <ele>18</ele>
        <time>2019-08-11T14:02:55Z</time>
      </trkpt>
      <trkpt lat="44.49419" lon="-1.07947">
        <ele>18</ele>
        <time>2019-08-11T14:03:05Z</time>
      </trkpt>
      <trkpt lat="44.49419" lon="-1.07949">
        <ele>18</ele>
        <time>2019-08-11T14:03:10Z</time>
      </trkpt>
      <trkpt lat="44.49419" lon="-1.07948">
        <ele>18</ele>
        <time>2019-08-11T14:03:20Z</time>
      </trkpt>
      <trkpt lat="44.49419" lon="-1.07948">
        <ele>18</ele>
        <time>2019-08-11T14:03:25Z</time>
      </trkpt>
      <trkpt lat="44.4942" lon="-1.07948">
        <ele>18</ele>
        <time>2019-08-11T14:03:35Z</time>
      </trkpt>
      <trkpt lat="44.4942" lon="-1.07948">
        <ele>18</ele>
        <time>2019-08-11T14:03:45Z</time>
      </trkpt>
      <trkpt lat="44.4942" lon="-1.07948">
        <ele>18</ele>
        <time>2019-08-11T14:03:50Z</time>
      </trkpt>
      <trkpt lat="44.49421" lon="-1.07947">
        <ele>18</ele>
        <time>2019-08-11T14:04:00Z</time>
      </trkpt>
      <trkpt lat="44.49421" lon="-1.07947">
        <ele>18</ele>
        <time>2019-08-11T14:04:05Z</time>
      </trkpt>
      <trkpt lat="44.49421" lon="-1.07949">
        <ele>18</ele>
        <time>2019-08-11T14:04:15Z</time>
      </trkpt>
      <trkpt lat="44.4942" lon="-1.07949">
        <ele>18</ele>
        <time>2019-08-11T14:04:20Z</time>
      </trkpt>
      <trkpt lat="44.4942" lon="-1.07949">
        <ele>18</ele>
        <time>2019-08-11T14:04:30Z</time>
      </trkpt>
      <trkpt lat="44.49419" lon="-1.07948">
        <ele>18</ele>
        <time>2019-08-11T14:04:35Z</time>
      </trkpt>
      <trkpt lat="44.49419" lon="-1.07948">
        <ele>18</ele>
        <time>2019-08-11T14:04:45Z</time>
      </trkpt>
      <trkpt lat="44.49419" lon="-1.07948">
        <ele>18</ele>
        <time>2019-08-11T14:04:50Z</time>
      </trkpt>
      <trkpt lat="44.49419" lon="-1.07948">
        <ele>18</ele>
        <time>2019-08-11T14:05:00Z</time>
      </trkpt>
      <trkpt lat="44.49418" lon="-1.0795">
        <ele>18</ele>
        <time>2019-08-11T14:05:05Z</time>
      </trkpt>
      <trkpt lat="44.49418" lon="-1.0795">
        <ele>18</ele>
        <time>2019-08-11T14:05:15Z</time>
      </trkpt>
      <trkpt lat="44.49419" lon="-1.07951">
        <ele>18</ele>
        <time>2019-08-11T14:05:25Z</time>
      </trkpt>
      <trkpt lat="44.49419" lon="-1.07951">
        <ele>18</ele>
        <time>2019-08-11T14:05:30Z</time>
      </trkpt>
      <trkpt lat="44.4942" lon="-1.0795">
        <ele>18</ele>
        <time>2019-08-11T14:05:40Z</time>
      </trkpt>
      <trkpt lat="44.49421" lon="-1.07948">
        <ele>18</ele>
        <time>2019-08-11T14:05:45Z</time>
      </trkpt>
      <trkpt lat="44.49422" lon="-1.07948">
        <ele>18</ele>
        <time>2019-08-11T14:05:55Z</time>
      </trkpt>
      <trkpt lat="44.49424" lon="-1.07945">
        <ele>18</ele>
        <time>2019-08-11T14:06:00Z</time>
      </trkpt>
      <trkpt lat="44.49425" lon="-1.07949">
        <ele>18</ele>
        <time>2019-08-11T14:06:10Z</time>
      </trkpt>
      <trkpt lat="44.49424" lon="-1.07949">
        <ele>18</ele>
        <time>2019-08-11T14:06:15Z</time>
      </trkpt>
      <trkpt lat="44.49424" lon="-1.07949">
        <ele>18</ele>
        <time>2019-08-11T14:06:25Z</time>
      </trkpt>
      <trkpt lat="44.49424" lon="-1.0795">
        <ele>18</ele>
        <time>2019-08-11T14:06:30Z</time>
      </trkpt>
      <trkpt lat="44.49424" lon="-1.07949">
        <ele>18</ele>
        <time>2019-08-11T14:06:40Z</time>
      </trkpt>
      <trkpt lat="44.49424" lon="-1.07949">
        <ele>18</ele>
        <time>2019-08-11T14:06:45Z</time>
      </trkpt>
      <trkpt lat="44.49424" lon="-1.07949">
        <ele>18</ele>
        <time>2019-08-11T14:06:55Z</time>
      </trkpt>
      <trkpt lat="44.49424" lon="-1.07949">
        <ele>18</ele>
        <time>2019-08-11T14:07:05Z</time>
      </trkpt>
      <trkpt lat="44.49424" lon="-1.07949">
        <ele>18</ele>
        <time>2019-08-11T14:07:10Z</time>
      </trkpt>
      <trkpt lat="44.49426" lon="-1.07947">
        <ele>18</ele>
        <time>2019-08-11T14:07:20Z</time>
      </trkpt>
      <trkpt lat="44.49426" lon="-1.07947">
        <ele>18</ele>
        <time>2019-08-11T14:07:25Z</time>
      </trkpt>
      <trkpt lat="44.49426" lon="-1.07946">
        <ele>18</ele>
        <time>2019-08-11T14:07:35Z</time>
      </trkpt>
      <trkpt lat="44.49425" lon="-1.07945">
        <ele>18</ele>
        <time>2019-08-11T14:07:40Z</time>
      </trkpt>
      <trkpt lat="44.49426" lon="-1.07945">
        <ele>18</ele>
        <time>2019-08-11T14:07:50Z</time>
      </trkpt>
      <trkpt lat="44.49426" lon="-1.07945">
        <ele>18</ele>
        <time>2019-08-11T14:07:55Z</time>
      </trkpt>
      <trkpt lat="44.49426" lon="-1.07944">
        <ele>18</ele>
        <time>2019-08-11T14:08:05Z</time>
      </trkpt>
      <trkpt lat="44.49426" lon="-1.07944">
        <ele>18</ele>
        <time>2019-08-11T14:08:10Z</time>
      </trkpt>
      <trkpt lat="44.49427" lon="-1.07941">
        <ele>18</ele>
        <time>2019-08-11T14:08:20Z</time>
      </trkpt>
      <trkpt lat="44.49427" lon="-1.07939">
        <ele>18</ele>
        <time>2019-08-11T14:08:25Z</time>
      </trkpt>
      <trkpt lat="44.49427" lon="-1.07939">
        <ele>18</ele>
        <time>2019-08-11T14:08:35Z</time>
      </trkpt>
      <trkpt lat="44.49427" lon="-1.07938">
        <ele>18</ele>
        <time>2019-08-11T14:08:45Z</time>
      </trkpt>
      <trkpt lat="44.49428" lon="-1.07938">
        <ele>18</ele>
        <time>2019-08-11T14:08:50Z</time>
      </trkpt>
      <trkpt lat="44.49429" lon="-1.07939">
        <ele>18</ele>
        <time>2019-08-11T14:09:00Z</time>
      </trkpt>
      <trkpt lat="44.49429" lon="-1.0794">
        <ele>18</ele>
        <time>2019-08-11T14:09:05Z</time>
      </trkpt>
      <trkpt lat="44.49427" lon="-1.0794">
        <ele>18</ele>
        <time>2019-08-11T14:09:15Z</time>
      </trkpt>
      <trkpt lat="44.49427" lon="-1.0794">
        <ele>18</ele>
        <time>2019-08-11T14:09:20Z</time>
      </trkpt>
      <trkpt lat="44.49428" lon="-1.07939">
        <ele>18</ele>
        <time>2019-08-11T14:09:30Z</time>
      </trkpt>
      <trkpt lat="44.49428" lon="-1.07939">
        <ele>18</ele>
        <time>2019-08-11T14:09:35Z</time>
      </trkpt>
      <trkpt lat="44.49429" lon="-1.0794">
        <ele>18</ele>
        <time>2019-08-11T14:09:45Z</time>
      </trkpt>
      <trkpt lat="44.4943" lon="-1.07939">
        <ele>18</ele>
        <time>2019-08-11T14:09:50Z</time>
      </trkpt>
      <trkpt lat="44.4943" lon="-1.07939">
        <ele>18</ele>
        <time>2019-08-11T14:10:00Z</time>
      </trkpt>
      <trkpt lat="44.4943" lon="-1.0794">
        <ele>18</ele>
        <time>2019-08-11T14:10:05Z</time>
      </trkpt>
      <trkpt lat="44.49429" lon="-1.07939">
        <ele>18</ele>
        <time>2019-08-11T14:10:15Z</time>
      </trkpt>
      <trkpt lat="44.49429" lon="-1.07942">
        <ele>18</ele>
        <time>2019-08-11T14:10:25Z</time>
      </trkpt>
      <trkpt lat="44.4943" lon="-1.07947">
        <ele>18</ele>
        <time>2019-08-11T14:10:30Z</time>
      </trkpt>
      <trkpt lat="44.49435" lon="-1.07945">
        <ele>18</ele>
        <time>2019-08-11T14:10:40Z</time>
      </trkpt>
      <trkpt lat="44.49434" lon="-1.07939">
        <ele>18</ele>
        <time>2019-08-11T14:10:45Z</time>
      </trkpt>
      <trkpt lat="44.49439" lon="-1.07923">
        <ele>18</ele>
        <time>2019-08-11T14:10:55Z</time>
      </trkpt>
      <trkpt lat="44.49442" lon="-1.07915">
        <ele>18</ele>
        <time>2019-08-11T14:11:00Z</time>
      </trkpt>
      <trkpt lat="44.49449" lon="-1.079">
        <ele>18</ele>
        <time>2019-08-11T14:11:10Z</time>
      </trkpt>
      <trkpt lat="44.49452" lon="-1.07896">
        <ele>18</ele>
        <time>2019-08-11T14:11:15Z</time>
      </trkpt>
      <trkpt lat="44.49453" lon="-1.07893">
        <ele>18</ele>
        <time>2019-08-11T14:11:25Z</time>
      </trkpt>
      <trkpt lat="44.49453" lon="-1.07892">
        <ele>18</ele>
        <time>2019-08-11T14:11:30Z</time>
      </trkpt>
      <trkpt lat="44.49454" lon="-1.07892">
        <ele>18</ele>
        <time>2019-08-11T14:11:40Z</time>
      </trkpt>
      <trkpt lat="44.49455" lon="-1.07891">
        <ele>18</ele>
        <time>2019-08-11T14:11:50Z</time>
      </trkpt>
      <trkpt lat="44.49455" lon="-1.07889">
        <ele>18</ele>
        <time>2019-08-11T14:11:55Z</time>
      </trkpt>
      <trkpt lat="44.49459" lon="-1.07882">
        <ele>18</ele>
        <time>2019-08-11T14:12:05Z</time>
      </trkpt>
      <trkpt lat="44.49459" lon="-1.07883">
        <ele>18</ele>
        <time>2019-08-11T14:12:10Z</time>
      </trkpt>
      <trkpt lat="44.49454" lon="-1.07892">
        <ele>18</ele>
        <time>2019-08-11T14:12:20Z</time>
      </trkpt>
      <trkpt lat="44.49454" lon="-1.07894">
        <ele>18</ele>
        <time>2019-08-11T14:12:25Z</time>
      </trkpt>
      <trkpt lat="44.4945" lon="-1.07896">
        <ele>18</ele>
        <time>2019-08-11T14:12:35Z</time>
      </trkpt>
      <trkpt lat="44.49447" lon="-1.07899">
        <ele>18</ele>
        <time>2019-08-11T14:12:40Z</time>
      </trkpt>
      <trkpt lat="44.49444" lon="-1.07913">
        <ele>18</ele>
        <time>2019-08-11T14:12:50Z</time>
      </trkpt>
      <trkpt lat="44.49441" lon="-1.07923">
        <ele>18</ele>
        <time>2019-08-11T14:12:55Z</time>
      </trkpt>
      <trkpt lat="44.49433" lon="-1.07936">
        <ele>18</ele>
        <time>2019-08-11T14:13:05Z</time>
      </trkpt>
      <trkpt lat="44.49428" lon="-1.07942">
        <ele>18</ele>
        <time>2019-08-11T14:13:10Z</time>
      </trkpt>
      <trkpt lat="44.49423" lon="-1.0795">
        <ele>18</ele>
        <time>2019-08-11T14:13:20Z</time>
      </trkpt>
      <trkpt lat="44.49423" lon="-1.0795">
        <ele>18</ele>
        <time>2019-08-11T14:13:30Z</time>
      </trkpt>
      <trkpt lat="44.49423" lon="-1.0795">
        <ele>18</ele>
        <time>2019-08-11T14:13:35Z</time>
      </trkpt>
      <trkpt lat="44.49423" lon="-1.07949">
        <ele>18</ele>
        <time>2019-08-11T14:13:45Z</time>
      </trkpt>
      <trkpt lat="44.49423" lon="-1.07948">
        <ele>18</ele>
        <time>2019-08-11T14:13:50Z</time>
      </trkpt>
      <trkpt lat="44.49424" lon="-1.07947">
        <ele>18</ele>
        <time>2019-08-11T14:14:00Z</time>
      </trkpt>
      <trkpt lat="44.49424" lon="-1.07947">
        <ele>18</ele>
        <time>2019-08-11T14:14:05Z</time>
      </trkpt>
      <trkpt lat="44.49424" lon="-1.07947">
        <ele>18</ele>
        <time>2019-08-11T14:14:15Z</time>
      </trkpt>
      <trkpt lat="44.49424" lon="-1.07947">
        <ele>18</ele>
        <time>2019-08-11T14:14:20Z</time>
      </trkpt>
      <trkpt lat="44.49425" lon="-1.07946">
        <ele>18</ele>
        <time>2019-08-11T14:14:30Z</time>
      </trkpt>
      <trkpt lat="44.49427" lon="-1.07942">
        <ele>18</ele>
        <time>2019-08-11T14:14:35Z</time>
      </trkpt>
      <trkpt lat="44.49438" lon="-1.07926">
        <ele>18</ele>
        <time>2019-08-11T14:14:45Z</time>
      </trkpt>
      <trkpt lat="44.49443" lon="-1.07919">
        <ele>18</ele>
        <time>2019-08-11T14:14:50Z</time>
      </trkpt>
      <trkpt lat="44.4945" lon="-1.07902">
        <ele>18</ele>
        <time>2019-08-11T14:15:00Z</time>
      </trkpt>
      <trkpt lat="44.49455" lon="-1.07891">
        <ele>18</ele>
        <time>2019-08-11T14:15:10Z</time>
      </trkpt>
      <trkpt lat="44.49456" lon="-1.07889">
        <ele>18</ele>
        <time>2019-08-11T14:15:15Z</time>
      </trkpt>
      <trkpt lat="44.49456" lon="-1.07889">
        <ele>18</ele>
        <time>2019-08-11T14:15:25Z</time>
      </trkpt>
      <trkpt lat="44.49456" lon="-1.07889">
        <ele>18</ele>
        <time>2019-08-11T14:15:30Z</time>
      </trkpt>
      <trkpt lat="44.49457" lon="-1.07889">
        <ele>18</ele>
        <time>2019-08-11T14:15:40Z</time>
      </trkpt>
      <trkpt lat="44.49456" lon="-1.07889">
        <ele>18</ele>
        <time>2019-08-11T14:15:45Z</time>
      </trkpt>
      <trkpt lat="44.49455" lon="-1.0789">
        <ele>18</ele>
        <time>2019-08-11T14:15:55Z</time>
      </trkpt>
      <trkpt lat="44.49455" lon="-1.0789">
        <ele>18</ele>
        <time>2019-08-11T14:16:00Z</time>
      </trkpt>
      <trkpt lat="44.49455" lon="-1.07889">
        <ele>18</ele>
        <time>2019-08-11T14:16:10Z</time>
      </trkpt>
      <trkpt lat="44.49455" lon="-1.0789">
        <ele>18</ele>
        <time>2019-08-11T14:16:15Z</time>
      </trkpt>
      <trkpt lat="44.49454" lon="-1.07891">
        <ele>18</ele>
        <time>2019-08-11T14:16:25Z</time>
      </trkpt>
      <trkpt lat="44.49453" lon="-1.07892">
        <ele>18</ele>
        <time>2019-08-11T14:16:30Z</time>
      </trkpt>
      <trkpt lat="44.4945" lon="-1.07894">
        <ele>18</ele>
        <time>2019-08-11T14:16:40Z</time>
      </trkpt>
      <trkpt lat="44.49447" lon="-1.07896">
        <ele>18</ele>
        <time>2019-08-11T14:16:50Z</time>
      </trkpt>
      <trkpt lat="44.49445" lon="-1.07894">
        <ele>18</ele>
        <time>2019-08-11T14:16:55Z</time>
      </trkpt>
      <trkpt lat="44.49442" lon="-1.07901">
        <ele>18</ele>
        <time>2019-08-11T14:17:05Z</time>
      </trkpt>
      <trkpt lat="44.4944" lon="-1.07909">
        <ele>18</ele>
        <time>2019-08-11T14:17:10Z</time>
      </trkpt>
      <trkpt lat="44.49434" lon="-1.07925">
        <ele>18</ele>
        <time>2019-08-11T14:17:20Z</time>
      </trkpt>
      <trkpt lat="44.49431" lon="-1.07933">
        <ele>18</ele>
        <time>2019-08-11T14:17:25Z</time>
      </trkpt>
      <trkpt lat="44.49427" lon="-1.07944">
        <ele>18</ele>
        <time>2019-08-11T14:17:35Z</time>
      </trkpt>
      <trkpt lat="44.49426" lon="-1.07948">
        <ele>18</ele>
        <time>2019-08-11T14:17:40Z</time>
      </trkpt>
      <trkpt lat="44.49424" lon="-1.07949">
        <ele>18</ele>
        <time>2019-08-11T14:17:50Z</time>
      </trkpt>
      <trkpt lat="44.49424" lon="-1.0795">
        <ele>18</ele>
        <time>2019-08-11T14:17:55Z</time>
      </trkpt>
      <trkpt lat="44.49423" lon="-1.0795">
        <ele>18</ele>
        <time>2019-08-11T14:18:05Z</time>
      </trkpt>
      <trkpt lat="44.49422" lon="-1.0795">
        <ele>18</ele>
        <time>2019-08-11T14:18:10Z</time>
      </trkpt>
      <trkpt lat="44.49421" lon="-1.07953">
        <ele>18</ele>
        <time>2019-08-11T14:18:20Z</time>
      </trkpt>
      <trkpt lat="44.49422" lon="-1.07951">
        <ele>18</ele>
        <time>2019-08-11T14:18:30Z</time>
      </trkpt>
      <trkpt lat="44.49422" lon="-1.0795">
        <ele>18</ele>
        <time>2019-08-11T14:18:35Z</time>
      </trkpt>
      <trkpt lat="44.49423" lon="-1.07952">
        <ele>18</ele>
        <time>2019-08-11T14:18:45Z</time>
      </trkpt>
      <trkpt lat="44.49423" lon="-1.07952">
        <ele>18</ele>
        <time>2019-08-11T14:18:50Z</time>
      </trkpt>
      <trkpt lat="44.49424" lon="-1.07952">
        <ele>18</ele>
        <time>2019-08-11T14:19:00Z</time>
      </trkpt>
      <trkpt lat="44.49424" lon="-1.07948">
        <ele>18</ele>
        <time>2019-08-11T14:19:05Z</time>
      </trkpt>
      <trkpt lat="44.49424" lon="-1.07946">
        <ele>18</ele>
        <time>2019-08-11T14:19:15Z</time>
      </trkpt>
      <trkpt lat="44.49424" lon="-1.07946">
        <ele>18</ele>
        <time>2019-08-11T14:19:20Z</time>
      </trkpt>
      <trkpt lat="44.49424" lon="-1.07947">
        <ele>18</ele>
        <time>2019-08-11T14:19:30Z</time>
      </trkpt>
      <trkpt lat="44.49423" lon="-1.07949">
        <ele>18</ele>
        <time>2019-08-11T14:19:35Z</time>
      </trkpt>
      <trkpt lat="44.49424" lon="-1.0795">
        <ele>18</ele>
        <time>2019-08-11T14:19:45Z</time>
      </trkpt>
      <trkpt lat="44.49424" lon="-1.07948">
        <ele>18</ele>
        <time>2019-08-11T14:19:55Z</time>
      </trkpt>
      <trkpt lat="44.49424" lon="-1.07948">
        <ele>18</ele>
        <time>2019-08-11T14:20:00Z</time>
      </trkpt>
      <trkpt lat="44.49424" lon="-1.07947">
        <ele>18</ele>
        <time>2019-08-11T14:20:10Z</time>
      </trkpt>
      <trkpt lat="44.49423" lon="-1.07947">
        <ele>18</ele>
        <time>2019-08-11T14:20:15Z</time>
      </trkpt>
      <trkpt lat="44.49424" lon="-1.07947">
        <ele>18</ele>
        <time>2019-08-11T14:20:25Z</time>
      </trkpt>
      <trkpt lat="44.49424" lon="-1.07947">
        <ele>18</ele>
        <time>2019-08-11T14:20:30Z</time>
      </trkpt>
      <trkpt lat="44.49426" lon="-1.07948">
        <ele>18</ele>
        <time>2019-08-11T14:20:40Z</time>
      </trkpt>
      <trkpt lat="44.49429" lon="-1.07944">
        <ele>18</ele>
        <time>2019-08-11T14:20:45Z</time>
      </trkpt>
      <trkpt lat="44.49427" lon="-1.07934">
        <ele>18</ele>
        <time>2019-08-11T14:20:55Z</time>
      </trkpt>
      <trkpt lat="44.49423" lon="-1.0793">
        <ele>18</ele>
        <time>2019-08-11T14:21:00Z</time>
      </trkpt>
      <trkpt lat="44.49417" lon="-1.07924">
        <ele>18</ele>
        <time>2019-08-11T14:21:10Z</time>
      </trkpt>
      <trkpt lat="44.49413" lon="-1.07922">
        <ele>18</ele>
        <time>2019-08-11T14:21:15Z</time>
      </trkpt>
      <trkpt lat="44.4941" lon="-1.07919">
        <ele>18</ele>
        <time>2019-08-11T14:21:25Z</time>
      </trkpt>
      <trkpt lat="44.4941" lon="-1.0792">
        <ele>18</ele>
        <time>2019-08-11T14:21:35Z</time>
      </trkpt>
      <trkpt lat="44.49411" lon="-1.0792">
        <ele>18</ele>
        <time>2019-08-11T14:21:40Z</time>
      </trkpt>
      <trkpt lat="44.49411" lon="-1.07922">
        <ele>18</ele>
        <time>2019-08-11T14:21:50Z</time>
      </trkpt>
      <trkpt lat="44.49412" lon="-1.07922">
        <ele>18</ele>
        <time>2019-08-11T14:21:55Z</time>
      </trkpt>
      <trkpt lat="44.49418" lon="-1.07919">
        <ele>18</ele>
        <time>2019-08-11T14:22:05Z</time>
      </trkpt>
      <trkpt lat="44.49423" lon="-1.07915">
        <ele>18</ele>
        <time>2019-08-11T14:22:10Z</time>
      </trkpt>
      <trkpt lat="44.49433" lon="-1.07909">
        <ele>18</ele>
        <time>2019-08-11T14:22:20Z</time>
      </trkpt>
      <trkpt lat="44.49439" lon="-1.07908">
        <ele>18</ele>
        <time>2019-08-11T14:22:25Z</time>
      </trkpt>
      <trkpt lat="44.49447" lon="-1.07897">
        <ele>18</ele>
        <time>2019-08-11T14:22:35Z</time>
      </trkpt>
      <trkpt lat="44.4945" lon="-1.07893">
        <ele>18</ele>
        <time>2019-08-11T14:22:40Z</time>
      </trkpt>
      <trkpt lat="44.49454" lon="-1.0789">
        <ele>18</ele>
        <time>2019-08-11T14:22:50Z</time>
      </trkpt>
      <trkpt lat="44.49455" lon="-1.07889">
        <ele>18</ele>
        <time>2019-08-11T14:22:55Z</time>
      </trkpt>
      <trkpt lat="44.49456" lon="-1.07889">
        <ele>18</ele>
        <time>2019-08-11T14:23:05Z</time>
      </trkpt>
      <trkpt lat="44.49457" lon="-1.07884">
        <ele>18</ele>
        <time>2019-08-11T14:23:15Z</time>
      </trkpt>
      <trkpt lat="44.49459" lon="-1.0788">
        <ele>18</ele>
        <time>2019-08-11T14:23:20Z</time>
      </trkpt>
      <trkpt lat="44.49455" lon="-1.0787">
        <ele>18</ele>
        <time>2019-08-11T14:23:30Z</time>
      </trkpt>
      <trkpt lat="44.49454" lon="-1.0787">
        <ele>18</ele>
        <time>2019-08-11T14:23:35Z</time>
      </trkpt>
      <trkpt lat="44.49454" lon="-1.0787">
        <ele>18</ele>
        <time>2019-08-11T14:23:45Z</time>
      </trkpt>
      <trkpt lat="44.49454" lon="-1.0787">
        <ele>18</ele>
        <time>2019-08-11T14:23:50Z</time>
      </trkpt>
      <trkpt lat="44.49454" lon="-1.0787">
        <ele>18</ele>
        <time>2019-08-11T14:24:00Z</time>
      </trkpt>
      <trkpt lat="44.49454" lon="-1.0787">
        <ele>18</ele>
        <time>2019-08-11T14:24:05Z</time>
      </trkpt>
      <trkpt lat="44.49454" lon="-1.07869">
        <ele>18</ele>
        <time>2019-08-11T14:24:15Z</time>
      </trkpt>
      <trkpt lat="44.49456" lon="-1.07869">
        <ele>18</ele>
        <time>2019-08-11T14:24:20Z</time>
      </trkpt>
      <trkpt lat="44.49453" lon="-1.07867">
        <ele>18</ele>
        <time>2019-08-11T14:24:30Z</time>
      </trkpt>
      <trkpt lat="44.49453" lon="-1.07878">
        <ele>18</ele>
        <time>2019-08-11T14:24:35Z</time>
      </trkpt>
      <trkpt lat="44.49461" lon="-1.07879">
        <ele>18</ele>
        <time>2019-08-11T14:24:45Z</time>
      </trkpt>
      <trkpt lat="44.49462" lon="-1.07876">
        <ele>18</ele>
        <time>2019-08-11T14:24:55Z</time>
      </trkpt>
      <trkpt lat="44.49462" lon="-1.07876">
        <ele>18</ele>
        <time>2019-08-11T14:25:00Z</time>
      </trkpt>
      <trkpt lat="44.49458" lon="-1.07877">
        <ele>18</ele>
        <time>2019-08-11T14:25:10Z</time>
      </trkpt>
      <trkpt lat="44.49456" lon="-1.07881">
        <ele>18</ele>
        <time>2019-08-11T14:25:15Z</time>
      </trkpt>
      <trkpt lat="44.49455" lon="-1.07882">
        <ele>18</ele>
        <time>2019-08-11T14:25:25Z</time>
      </trkpt>
      <trkpt lat="44.49457" lon="-1.07882">
        <ele>18</ele>
        <time>2019-08-11T14:25:30Z</time>
      </trkpt>
      <trkpt lat="44.49462" lon="-1.07875">
        <ele>18</ele>
        <time>2019-08-11T14:25:40Z</time>
      </trkpt>
      <trkpt lat="44.49464" lon="-1.07874">
        <ele>18</ele>
        <time>2019-08-11T14:25:45Z</time>
      </trkpt>
      <trkpt lat="44.49464" lon="-1.07873">
        <ele>18</ele>
        <time>2019-08-11T14:25:55Z</time>
      </trkpt>
      <trkpt lat="44.49464" lon="-1.07873">
        <ele>18</ele>
        <time>2019-08-11T14:26:00Z</time>
      </trkpt>
      <trkpt lat="44.49464" lon="-1.07872">
        <ele>18</ele>
        <time>2019-08-11T14:26:10Z</time>
      </trkpt>
      <trkpt lat="44.49464" lon="-1.07866">
        <ele>18</ele>
        <time>2019-08-11T14:26:15Z</time>
      </trkpt>
      <trkpt lat="44.49463" lon="-1.07849">
        <ele>18</ele>
        <time>2019-08-11T14:26:25Z</time>
      </trkpt>
      <trkpt lat="44.49458" lon="-1.07851">
        <ele>18</ele>
        <time>2019-08-11T14:26:35Z</time>
      </trkpt>
      <trkpt lat="44.49452" lon="-1.07857">
        <ele>18</ele>
        <time>2019-08-11T14:26:40Z</time>
      </trkpt>
      <trkpt lat="44.49447" lon="-1.0787">
        <ele>18</ele>
        <time>2019-08-11T14:26:50Z</time>
      </trkpt>
      <trkpt lat="44.49454" lon="-1.07875">
        <ele>18</ele>
        <time>2019-08-11T14:26:55Z</time>
      </trkpt>
      <trkpt lat="44.49455" lon="-1.07884">
        <ele>18</ele>
        <time>2019-08-11T14:27:05Z</time>
      </trkpt>
      <trkpt lat="44.49455" lon="-1.07886">
        <ele>18</ele>
        <time>2019-08-11T14:27:10Z</time>
      </trkpt>
      <trkpt lat="44.49456" lon="-1.07887">
        <ele>18</ele>
        <time>2019-08-11T14:27:20Z</time>
      </trkpt>
      <trkpt lat="44.49456" lon="-1.07887">
        <ele>18</ele>
        <time>2019-08-11T14:27:25Z</time>
      </trkpt>
      <trkpt lat="44.49456" lon="-1.07886">
        <ele>18</ele>
        <time>2019-08-11T14:27:35Z</time>
      </trkpt>
      <trkpt lat="44.49456" lon="-1.07885">
        <ele>18</ele>
        <time>2019-08-11T14:27:40Z</time>
      </trkpt>
      <trkpt lat="44.49461" lon="-1.07877">
        <ele>18</ele>
        <time>2019-08-11T14:27:50Z</time>
      </trkpt>
      <trkpt lat="44.49461" lon="-1.07853">
        <ele>18</ele>
        <time>2019-08-11T14:28:00Z</time>
      </trkpt>
      <trkpt lat="44.49458" lon="-1.07849">
        <ele>18</ele>
        <time>2019-08-11T14:28:05Z</time>
      </trkpt>
      <trkpt lat="44.4946" lon="-1.07848">
        <ele>18</ele>
        <time>2019-08-11T14:28:15Z</time>
      </trkpt>
      <trkpt lat="44.49463" lon="-1.07849">
        <ele>18</ele>
        <time>2019-08-11T14:28:20Z</time>
      </trkpt>
      <trkpt lat="44.49461" lon="-1.07845">
        <ele>18</ele>
        <time>2019-08-11T14:28:30Z</time>
      </trkpt>
      <trkpt lat="44.49459" lon="-1.07849">
        <ele>18</ele>
        <time>2019-08-11T14:28:35Z</time>
      </trkpt>
      <trkpt lat="44.49454" lon="-1.07848">
        <ele>18</ele>
        <time>2019-08-11T14:28:45Z</time>
      </trkpt>
      <trkpt lat="44.49455" lon="-1.07848">
        <ele>18</ele>
        <time>2019-08-11T14:28:50Z</time>
      </trkpt>
      <trkpt lat="44.49457" lon="-1.07849">
        <ele>18</ele>
        <time>2019-08-11T14:29:00Z</time>
      </trkpt>
      <trkpt lat="44.49457" lon="-1.0785">
        <ele>18</ele>
        <time>2019-08-11T14:29:05Z</time>
      </trkpt>
      <trkpt lat="44.49459" lon="-1.07859">
        <ele>18</ele>
        <time>2019-08-11T14:29:15Z</time>
      </trkpt>
      <trkpt lat="44.49459" lon="-1.07858">
        <ele>18</ele>
        <time>2019-08-11T14:29:20Z</time>
      </trkpt>
      <trkpt lat="44.49459" lon="-1.07859">
        <ele>18</ele>
        <time>2019-08-11T14:29:30Z</time>
      </trkpt>
      <trkpt lat="44.49459" lon="-1.07859">
        <ele>18</ele>
        <time>2019-08-11T14:29:40Z</time>
      </trkpt>
      <trkpt lat="44.4946" lon="-1.07851">
        <ele>18</ele>
        <time>2019-08-11T14:29:45Z</time>
      </trkpt>
      <trkpt lat="44.49458" lon="-1.07843">
        <ele>18</ele>
        <time>2019-08-11T14:29:55Z</time>
      </trkpt>
      <trkpt lat="44.4946" lon="-1.07843">
        <ele>18</ele>
        <time>2019-08-11T14:30:00Z</time>
      </trkpt>
      <trkpt lat="44.49466" lon="-1.07843">
        <ele>18</ele>
        <time>2019-08-11T14:30:10Z</time>
      </trkpt>
      <trkpt lat="44.49468" lon="-1.07846">
        <ele>19</ele>
        <time>2019-08-11T14:30:15Z</time>
      </trkpt>
      <trkpt lat="44.49464" lon="-1.07851">
        <ele>18</ele>
        <time>2019-08-11T14:30:25Z</time>
      </trkpt>
      <trkpt lat="44.49465" lon="-1.07854">
        <ele>18</ele>
        <time>2019-08-11T14:30:30Z</time>
      </trkpt>
      <trkpt lat="44.49466" lon="-1.07855">
        <ele>18</ele>
        <time>2019-08-11T14:30:40Z</time>
      </trkpt>
      <trkpt lat="44.49465" lon="-1.07854">
        <ele>18</ele>
        <time>2019-08-11T14:30:45Z</time>
      </trkpt>
      <trkpt lat="44.49462" lon="-1.07851">
        <ele>18</ele>
        <time>2019-08-11T14:30:55Z</time>
      </trkpt>
      <trkpt lat="44.49461" lon="-1.07854">
        <ele>18</ele>
        <time>2019-08-11T14:31:00Z</time>
      </trkpt>
      <trkpt lat="44.49462" lon="-1.07858">
        <ele>18</ele>
        <time>2019-08-11T14:31:10Z</time>
      </trkpt>
      <trkpt lat="44.49462" lon="-1.07858">
        <ele>18</ele>
        <time>2019-08-11T14:31:20Z</time>
      </trkpt>
      <trkpt lat="44.49462" lon="-1.07858">
        <ele>18</ele>
        <time>2019-08-11T14:31:25Z</time>
      </trkpt>
      <trkpt lat="44.49462" lon="-1.07858">
        <ele>18</ele>
        <time>2019-08-11T14:31:35Z</time>
      </trkpt>
      <trkpt lat="44.49462" lon="-1.07858">
        <ele>18</ele>
        <time>2019-08-11T14:31:40Z</time>
      </trkpt>
      <trkpt lat="44.49462" lon="-1.07858">
        <ele>18</ele>
        <time>2019-08-11T14:31:50Z</time>
      </trkpt>
      <trkpt lat="44.49462" lon="-1.07858">
        <ele>18</ele>
        <time>2019-08-11T14:31:55Z</time>
      </trkpt>
      <trkpt lat="44.49462" lon="-1.07858">
        <ele>18</ele>
        <time>2019-08-11T14:32:05Z</time>
      </trkpt>
      <trkpt lat="44.49462" lon="-1.07858">
        <ele>18</ele>
        <time>2019-08-11T14:32:10Z</time>
      </trkpt>
      <trkpt lat="44.49462" lon="-1.07858">
        <ele>18</ele>
        <time>2019-08-11T14:32:20Z</time>
      </trkpt>
      <trkpt lat="44.49462" lon="-1.07852">
        <ele>18</ele>
        <time>2019-08-11T14:32:25Z</time>
      </trkpt>
      <trkpt lat="44.4946" lon="-1.07854">
        <ele>18</ele>
        <time>2019-08-11T14:32:35Z</time>
      </trkpt>
      <trkpt lat="44.49458" lon="-1.07866">
        <ele>18</ele>
        <time>2019-08-11T14:32:40Z</time>
      </trkpt>
      <trkpt lat="44.49468" lon="-1.07868">
        <ele>19</ele>
        <time>2019-08-11T14:32:50Z</time>
      </trkpt>
      <trkpt lat="44.49472" lon="-1.07865">
        <ele>19</ele>
        <time>2019-08-11T14:33:00Z</time>
      </trkpt>
      <trkpt lat="44.49473" lon="-1.07866">
        <ele>19</ele>
        <time>2019-08-11T14:33:05Z</time>
      </trkpt>
      <trkpt lat="44.49472" lon="-1.07864">
        <ele>19</ele>
        <time>2019-08-11T14:33:15Z</time>
      </trkpt>
      <trkpt lat="44.49472" lon="-1.07862">
        <ele>19</ele>
        <time>2019-08-11T14:33:20Z</time>
      </trkpt>
      <trkpt lat="44.49472" lon="-1.07863">
        <ele>19</ele>
        <time>2019-08-11T14:33:30Z</time>
      </trkpt>
      <trkpt lat="44.49472" lon="-1.07863">
        <ele>19</ele>
        <time>2019-08-11T14:33:35Z</time>
      </trkpt>
      <trkpt lat="44.49472" lon="-1.07863">
        <ele>19</ele>
        <time>2019-08-11T14:33:45Z</time>
      </trkpt>
      <trkpt lat="44.49472" lon="-1.07863">
        <ele>19</ele>
        <time>2019-08-11T14:33:50Z</time>
      </trkpt>
      <trkpt lat="44.49471" lon="-1.07853">
        <ele>19</ele>
        <time>2019-08-11T14:34:00Z</time>
      </trkpt>
      <trkpt lat="44.49472" lon="-1.07842">
        <ele>19</ele>
        <time>2019-08-11T14:34:05Z</time>
      </trkpt>
      <trkpt lat="44.49478" lon="-1.07842">
        <ele>20</ele>
        <time>2019-08-11T14:34:15Z</time>
      </trkpt>
      <trkpt lat="44.49481" lon="-1.07853">
        <ele>21</ele>
        <time>2019-08-11T14:34:25Z</time>
      </trkpt>
      <trkpt lat="44.49482" lon="-1.07855">
        <ele>21</ele>
        <time>2019-08-11T14:34:30Z</time>
      </trkpt>
      <trkpt lat="44.49484" lon="-1.07849">
        <ele>21</ele>
        <time>2019-08-11T14:34:40Z</time>
      </trkpt>
      <trkpt lat="44.49482" lon="-1.07841">
        <ele>21</ele>
        <time>2019-08-11T14:34:45Z</time>
      </trkpt>
      <trkpt lat="44.49482" lon="-1.07806">
        <ele>24</ele>
        <time>2019-08-11T14:34:55Z</time>
      </trkpt>
      <trkpt lat="44.4949" lon="-1.07793">
        <ele>26</ele>
        <time>2019-08-11T14:35:00Z</time>
      </trkpt>
      <trkpt lat="44.49508" lon="-1.0777">
        <ele>29</ele>
        <time>2019-08-11T14:35:10Z</time>
      </trkpt>
      <trkpt lat="44.49511" lon="-1.07759">
        <ele>29</ele>
        <time>2019-08-11T14:35:15Z</time>
      </trkpt>
      <trkpt lat="44.49511" lon="-1.07759">
        <ele>29</ele>
        <time>2019-08-11T14:35:25Z</time>
      </trkpt>
      <trkpt lat="44.49512" lon="-1.07758">
        <ele>29</ele>
        <time>2019-08-11T14:35:30Z</time>
      </trkpt>
      <trkpt lat="44.49512" lon="-1.07752">
        <ele>29</ele>
        <time>2019-08-11T14:35:40Z</time>
      </trkpt>
      <trkpt lat="44.49509" lon="-1.07741">
        <ele>29</ele>
        <time>2019-08-11T14:35:45Z</time>
      </trkpt>
      <trkpt lat="44.49505" lon="-1.07697">
        <ele>30</ele>
        <time>2019-08-11T14:35:55Z</time>
      </trkpt>
      <trkpt lat="44.49506" lon="-1.07652">
        <ele>30</ele>
        <time>2019-08-11T14:36:05Z</time>
      </trkpt>
      <trkpt lat="44.49509" lon="-1.07635">
        <ele>29</ele>
        <time>2019-08-11T14:36:10Z</time>
      </trkpt>
      <trkpt lat="44.49508" lon="-1.07604">
        <ele>29</ele>
        <time>2019-08-11T14:36:20Z</time>
      </trkpt>
      <trkpt lat="44.495" lon="-1.07581">
        <ele>29</ele>
        <time>2019-08-11T14:36:25Z</time>
      </trkpt>
      <trkpt lat="44.49507" lon="-1.07573">
        <ele>29</ele>
        <time>2019-08-11T14:36:35Z</time>
      </trkpt>
      <trkpt lat="44.49514" lon="-1.07582">
        <ele>29</ele>
        <time>2019-08-11T14:36:40Z</time>
      </trkpt>
      <trkpt lat="44.49525" lon="-1.07593">
        <ele>29</ele>
        <time>2019-08-11T14:36:50Z</time>
      </trkpt>
      <trkpt lat="44.4953" lon="-1.07598">
        <ele>30</ele>
        <time>2019-08-11T14:36:55Z</time>
      </trkpt>
      <trkpt lat="44.49545" lon="-1.07587">
        <ele>30</ele>
        <time>2019-08-11T14:37:05Z</time>
      </trkpt>
      <trkpt lat="44.49554" lon="-1.07581">
        <ele>30</ele>
        <time>2019-08-11T14:37:10Z</time>
      </trkpt>
      <trkpt lat="44.49579" lon="-1.07587">
        <ele>31</ele>
        <time>2019-08-11T14:37:20Z</time>
      </trkpt>
      <trkpt lat="44.49583" lon="-1.07603">
        <ele>31</ele>
        <time>2019-08-11T14:37:25Z</time>
      </trkpt>
      <trkpt lat="44.49615" lon="-1.07604">
        <ele>31</ele>
        <time>2019-08-11T14:37:35Z</time>
      </trkpt>
      <trkpt lat="44.49654" lon="-1.076">
        <ele>32</ele>
        <time>2019-08-11T14:37:45Z</time>
      </trkpt>
      <trkpt lat="44.49673" lon="-1.07595">
        <ele>32</ele>
        <time>2019-08-11T14:37:50Z</time>
      </trkpt>
      <trkpt lat="44.49702" lon="-1.07571">
        <ele>33</ele>
        <time>2019-08-11T14:38:00Z</time>
      </trkpt>
      <trkpt lat="44.49709" lon="-1.07553">
        <ele>33</ele>
        <time>2019-08-11T14:38:05Z</time>
      </trkpt>
      <trkpt lat="44.49743" lon="-1.07536">
        <ele>33</ele>
        <time>2019-08-11T14:38:15Z</time>
      </trkpt>
      <trkpt lat="44.49762" lon="-1.07527">
        <ele>33</ele>
        <time>2019-08-11T14:38:20Z</time>
      </trkpt>
      <trkpt lat="44.49802" lon="-1.07506">
        <ele>32</ele>
        <time>2019-08-11T14:38:30Z</time>
      </trkpt>
      <trkpt lat="44.49808" lon="-1.07485">
        <ele>33</ele>
        <time>2019-08-11T14:38:35Z</time>
      </trkpt>
      <trkpt lat="44.49801" lon="-1.07441">
        <ele>33</ele>
        <time>2019-08-11T14:38:45Z</time>
      </trkpt>
      <trkpt lat="44.49813" lon="-1.0743">
        <ele>33</ele>
        <time>2019-08-11T14:38:50Z</time>
      </trkpt>
      <trkpt lat="44.49846" lon="-1.07412">
        <ele>33</ele>
        <time>2019-08-11T14:39:00Z</time>
      </trkpt>
      <trkpt lat="44.49853" lon="-1.07402">
        <ele>33</ele>
        <time>2019-08-11T14:39:05Z</time>
      </trkpt>
      <trkpt lat="44.49853" lon="-1.07399">
        <ele>33</ele>
        <time>2019-08-11T14:39:15Z</time>
      </trkpt>
      <trkpt lat="44.49853" lon="-1.07399">
        <ele>33</ele>
        <time>2019-08-11T14:39:25Z</time>
      </trkpt>
      <trkpt lat="44.49853" lon="-1.07399">
        <ele>33</ele>
        <time>2019-08-11T14:39:30Z</time>
      </trkpt>
      <trkpt lat="44.49853" lon="-1.07399">
        <ele>33</ele>
        <time>2019-08-11T14:39:40Z</time>
      </trkpt>
      <trkpt lat="44.49853" lon="-1.07399">
        <ele>33</ele>
        <time>2019-08-11T14:39:45Z</time>
      </trkpt>
      <trkpt lat="44.49855" lon="-1.07397">
        <ele>33</ele>
        <time>2019-08-11T14:39:55Z</time>
      </trkpt>
      <trkpt lat="44.49855" lon="-1.07398">
        <ele>33</ele>
        <time>2019-08-11T14:40:00Z</time>
      </trkpt>
      <trkpt lat="44.49854" lon="-1.07399">
        <ele>33</ele>
        <time>2019-08-11T14:40:10Z</time>
      </trkpt>
      <trkpt lat="44.49853" lon="-1.07398">
        <ele>33</ele>
        <time>2019-08-11T14:40:15Z</time>
      </trkpt>
      <trkpt lat="44.49853" lon="-1.07397">
        <ele>33</ele>
        <time>2019-08-11T14:40:25Z</time>
      </trkpt>
      <trkpt lat="44.49853" lon="-1.07397">
        <ele>33</ele>
        <time>2019-08-11T14:40:30Z</time>
      </trkpt>
      <trkpt lat="44.49854" lon="-1.07394">
        <ele>33</ele>
        <time>2019-08-11T14:40:40Z</time>
      </trkpt>
      <trkpt lat="44.49854" lon="-1.07394">
        <ele>33</ele>
        <time>2019-08-11T14:40:45Z</time>
      </trkpt>
      <trkpt lat="44.49852" lon="-1.07394">
        <ele>33</ele>
        <time>2019-08-11T14:40:55Z</time>
      </trkpt>
      <trkpt lat="44.49851" lon="-1.07394">
        <ele>33</ele>
        <time>2019-08-11T14:41:05Z</time>
      </trkpt>
      <trkpt lat="44.49851" lon="-1.07394">
        <ele>33</ele>
        <time>2019-08-11T14:41:10Z</time>
      </trkpt>
      <trkpt lat="44.4985" lon="-1.07394">
        <ele>33</ele>
        <time>2019-08-11T14:41:20Z</time>
      </trkpt>
      <trkpt lat="44.49851" lon="-1.07393">
        <ele>33</ele>
        <time>2019-08-11T14:41:25Z</time>
      </trkpt>
      <trkpt lat="44.49842" lon="-1.07379">
        <ele>34</ele>
        <time>2019-08-11T14:41:35Z</time>
      </trkpt>
      <trkpt lat="44.4984" lon="-1.0738">
        <ele>34</ele>
        <time>2019-08-11T14:41:40Z</time>
      </trkpt>
      <trkpt lat="44.49841" lon="-1.07387">
        <ele>34</ele>
        <time>2019-08-11T14:41:50Z</time>
      </trkpt>
      <trkpt lat="44.49841" lon="-1.07387">
        <ele>34</ele>
        <time>2019-08-11T14:41:55Z</time>
      </trkpt>
      <trkpt lat="44.49845" lon="-1.07396">
        <ele>34</ele>
        <time>2019-08-11T14:42:05Z</time>
      </trkpt>
      <trkpt lat="44.49846" lon="-1.07404">
        <ele>33</ele>
        <time>2019-08-11T14:42:10Z</time>
      </trkpt>
      <trkpt lat="44.49848" lon="-1.07419">
        <ele>33</ele>
        <time>2019-08-11T14:42:20Z</time>
      </trkpt>
      <trkpt lat="44.49853" lon="-1.07432">
        <ele>33</ele>
        <time>2019-08-11T14:42:30Z</time>
      </trkpt>
      <trkpt lat="44.49855" lon="-1.07439">
        <ele>33</ele>
        <time>2019-08-11T14:42:35Z</time>
      </trkpt>
      <trkpt lat="44.49858" lon="-1.07451">
        <ele>33</ele>
        <time>2019-08-11T14:42:45Z</time>
      </trkpt>
      <trkpt lat="44.49859" lon="-1.07457">
        <ele>33</ele>
        <time>2019-08-11T14:42:50Z</time>
      </trkpt>
      <trkpt lat="44.4986" lon="-1.07466">
        <ele>32</ele>
        <time>2019-08-11T14:43:00Z</time>
      </trkpt>
      <trkpt lat="44.49859" lon="-1.07465">
        <ele>32</ele>
        <time>2019-08-11T14:43:05Z</time>
      </trkpt>
      <trkpt lat="44.49858" lon="-1.07465">
        <ele>32</ele>
        <time>2019-08-11T14:43:15Z</time>
      </trkpt>
      <trkpt lat="44.49858" lon="-1.07462">
        <ele>32</ele>
        <time>2019-08-11T14:43:20Z</time>
      </trkpt>
      <trkpt lat="44.4986" lon="-1.0746">
        <ele>33</ele>
        <time>2019-08-11T14:43:30Z</time>
      </trkpt>
      <trkpt lat="44.49861" lon="-1.07459">
        <ele>33</ele>
        <time>2019-08-11T14:43:35Z</time>
      </trkpt>
      <trkpt lat="44.49861" lon="-1.07445">
        <ele>33</ele>
        <time>2019-08-11T14:43:45Z</time>
      </trkpt>
      <trkpt lat="44.49859" lon="-1.07437">
        <ele>33</ele>
        <time>2019-08-11T14:43:50Z</time>
      </trkpt>
      <trkpt lat="44.49855" lon="-1.07425">
        <ele>33</ele>
        <time>2019-08-11T14:44:00Z</time>
      </trkpt>
      <trkpt lat="44.49851" lon="-1.07413">
        <ele>33</ele>
        <time>2019-08-11T14:44:10Z</time>
      </trkpt>
      <trkpt lat="44.49851" lon="-1.07406">
        <ele>33</ele>
        <time>2019-08-11T14:44:15Z</time>
      </trkpt>
      <trkpt lat="44.49855" lon="-1.07395">
        <ele>33</ele>
        <time>2019-08-11T14:44:25Z</time>
      </trkpt>
      <trkpt lat="44.49857" lon="-1.07397">
        <ele>33</ele>
        <time>2019-08-11T14:44:30Z</time>
      </trkpt>
      <trkpt lat="44.49858" lon="-1.07397">
        <ele>33</ele>
        <time>2019-08-11T14:44:40Z</time>
      </trkpt>
      <trkpt lat="44.49858" lon="-1.07397">
        <ele>33</ele>
        <time>2019-08-11T14:44:45Z</time>
      </trkpt>
      <trkpt lat="44.49858" lon="-1.07397">
        <ele>33</ele>
        <time>2019-08-11T14:44:55Z</time>
      </trkpt>
      <trkpt lat="44.49858" lon="-1.07397">
        <ele>33</ele>
        <time>2019-08-11T14:45:00Z</time>
      </trkpt>
      <trkpt lat="44.49857" lon="-1.07397">
        <ele>33</ele>
        <time>2019-08-11T14:45:10Z</time>
      </trkpt>
      <trkpt lat="44.49854" lon="-1.07395">
        <ele>33</ele>
        <time>2019-08-11T14:45:15Z</time>
      </trkpt>
      <trkpt lat="44.49845" lon="-1.07393">
        <ele>34</ele>
        <time>2019-08-11T14:45:25Z</time>
      </trkpt>
      <trkpt lat="44.49843" lon="-1.07388">
        <ele>34</ele>
        <time>2019-08-11T14:45:30Z</time>
      </trkpt>
      <trkpt lat="44.49841" lon="-1.07394">
        <ele>34</ele>
        <time>2019-08-11T14:45:40Z</time>
      </trkpt>
      <trkpt lat="44.49841" lon="-1.07395">
        <ele>34</ele>
        <time>2019-08-11T14:45:50Z</time>
      </trkpt>
      <trkpt lat="44.49842" lon="-1.07396">
        <ele>34</ele>
        <time>2019-08-11T14:45:55Z</time>
      </trkpt>
      <trkpt lat="44.49842" lon="-1.07396">
        <ele>34</ele>
        <time>2019-08-11T14:46:05Z</time>
      </trkpt>
      <trkpt lat="44.49842" lon="-1.07397">
        <ele>34</ele>
        <time>2019-08-11T14:46:10Z</time>
      </trkpt>
      <trkpt lat="44.49842" lon="-1.07397">
        <ele>34</ele>
        <time>2019-08-11T14:46:20Z</time>
      </trkpt>
      <trkpt lat="44.49842" lon="-1.07397">
        <ele>34</ele>
        <time>2019-08-11T14:46:25Z</time>
      </trkpt>
      <trkpt lat="44.49843" lon="-1.07398">
        <ele>34</ele>
        <time>2019-08-11T14:46:35Z</time>
      </trkpt>
      <trkpt lat="44.49845" lon="-1.07399">
        <ele>34</ele>
        <time>2019-08-11T14:46:40Z</time>
      </trkpt>
      <trkpt lat="44.49846" lon="-1.07401">
        <ele>33</ele>
        <time>2019-08-11T14:46:50Z</time>
      </trkpt>
      <trkpt lat="44.49848" lon="-1.07402">
        <ele>33</ele>
        <time>2019-08-11T14:46:55Z</time>
      </trkpt>
      <trkpt lat="44.49852" lon="-1.07402">
        <ele>33</ele>
        <time>2019-08-11T14:47:05Z</time>
      </trkpt>
      <trkpt lat="44.49852" lon="-1.07403">
        <ele>33</ele>
        <time>2019-08-11T14:47:10Z</time>
      </trkpt>
      <trkpt lat="44.4985" lon="-1.07409">
        <ele>33</ele>
        <time>2019-08-11T14:47:20Z</time>
      </trkpt>
      <trkpt lat="44.49854" lon="-1.07429">
        <ele>33</ele>
        <time>2019-08-11T14:47:30Z</time>
      </trkpt>
      <trkpt lat="44.49858" lon="-1.07441">
        <ele>33</ele>
        <time>2019-08-11T14:47:35Z</time>
      </trkpt>
      <trkpt lat="44.49868" lon="-1.07462">
        <ele>32</ele>
        <time>2019-08-11T14:47:45Z</time>
      </trkpt>
      <trkpt lat="44.49866" lon="-1.07469">
        <ele>32</ele>
        <time>2019-08-11T14:47:50Z</time>
      </trkpt>
      <trkpt lat="44.49866" lon="-1.07471">
        <ele>32</ele>
        <time>2019-08-11T14:48:00Z</time>
      </trkpt>
      <trkpt lat="44.49866" lon="-1.07471">
        <ele>32</ele>
        <time>2019-08-11T14:48:05Z</time>
      </trkpt>
      <trkpt lat="44.49864" lon="-1.07466">
        <ele>32</ele>
        <time>2019-08-11T14:48:15Z</time>
      </trkpt>
      <trkpt lat="44.49863" lon="-1.07466">
        <ele>32</ele>
        <time>2019-08-11T14:48:20Z</time>
      </trkpt>
      <trkpt lat="44.49861" lon="-1.07465">
        <ele>32</ele>
        <time>2019-08-11T14:48:30Z</time>
      </trkpt>
      <trkpt lat="44.49861" lon="-1.07465">
        <ele>32</ele>
        <time>2019-08-11T14:48:35Z</time>
      </trkpt>
      <trkpt lat="44.49861" lon="-1.07465">
        <ele>32</ele>
        <time>2019-08-11T14:48:45Z</time>
      </trkpt>
      <trkpt lat="44.49861" lon="-1.07464">
        <ele>32</ele>
        <time>2019-08-11T14:48:50Z</time>
      </trkpt>
      <trkpt lat="44.49861" lon="-1.07462">
        <ele>32</ele>
        <time>2019-08-11T14:49:00Z</time>
      </trkpt>
      <trkpt lat="44.49861" lon="-1.07458">
        <ele>33</ele>
        <time>2019-08-11T14:49:10Z</time>
      </trkpt>
      <trkpt lat="44.49861" lon="-1.07449">
        <ele>33</ele>
        <time>2019-08-11T14:49:15Z</time>
      </trkpt>
      <trkpt lat="44.49859" lon="-1.07444">
        <ele>33</ele>
        <time>2019-08-11T14:49:25Z</time>
      </trkpt>
      <trkpt lat="44.49859" lon="-1.07442">
        <ele>33</ele>
        <time>2019-08-11T14:49:30Z</time>
      </trkpt>
      <trkpt lat="44.49859" lon="-1.07443">
        <ele>33</ele>
        <time>2019-08-11T14:49:40Z</time>
      </trkpt>
      <trkpt lat="44.49859" lon="-1.07443">
        <ele>33</ele>
        <time>2019-08-11T14:49:45Z</time>
      </trkpt>
      <trkpt lat="44.49858" lon="-1.07442">
        <ele>33</ele>
        <time>2019-08-11T14:49:55Z</time>
      </trkpt>
      <trkpt lat="44.49858" lon="-1.07441">
        <ele>33</ele>
        <time>2019-08-11T14:50:00Z</time>
      </trkpt>
      <trkpt lat="44.49865" lon="-1.07453">
        <ele>32</ele>
        <time>2019-08-11T14:50:10Z</time>
      </trkpt>
      <trkpt lat="44.49868" lon="-1.07451">
        <ele>32</ele>
        <time>2019-08-11T14:50:15Z</time>
      </trkpt>
      <trkpt lat="44.49866" lon="-1.07449">
        <ele>32</ele>
        <time>2019-08-11T14:50:25Z</time>
      </trkpt>
      <trkpt lat="44.49866" lon="-1.07448">
        <ele>32</ele>
        <time>2019-08-11T14:50:35Z</time>
      </trkpt>
      <trkpt lat="44.49866" lon="-1.0745">
        <ele>32</ele>
        <time>2019-08-11T14:50:40Z</time>
      </trkpt>
      <trkpt lat="44.49865" lon="-1.07452">
        <ele>32</ele>
        <time>2019-08-11T14:50:50Z</time>
      </trkpt>
      <trkpt lat="44.49865" lon="-1.07452">
        <ele>32</ele>
        <time>2019-08-11T14:50:55Z</time>
      </trkpt>
      <trkpt lat="44.49866" lon="-1.07451">
        <ele>32</ele>
        <time>2019-08-11T14:51:05Z</time>
      </trkpt>
      <trkpt lat="44.49866" lon="-1.07451">
        <ele>32</ele>
        <time>2019-08-11T14:51:10Z</time>
      </trkpt>
      <trkpt lat="44.49862" lon="-1.0745">
        <ele>33</ele>
        <time>2019-08-11T14:51:20Z</time>
      </trkpt>
      <trkpt lat="44.49859" lon="-1.0746">
        <ele>32</ele>
        <time>2019-08-11T14:51:25Z</time>
      </trkpt>
      <trkpt lat="44.49856" lon="-1.07462">
        <ele>32</ele>
        <time>2019-08-11T14:51:35Z</time>
      </trkpt>
      <trkpt lat="44.49856" lon="-1.07462">
        <ele>32</ele>
        <time>2019-08-11T14:51:40Z</time>
      </trkpt>
      <trkpt lat="44.49859" lon="-1.0746">
        <ele>32</ele>
        <time>2019-08-11T14:51:50Z</time>
      </trkpt>
      <trkpt lat="44.49861" lon="-1.07463">
        <ele>32</ele>
        <time>2019-08-11T14:51:55Z</time>
      </trkpt>
      <trkpt lat="44.49865" lon="-1.07464">
        <ele>32</ele>
        <time>2019-08-11T14:52:05Z</time>
      </trkpt>
      <trkpt lat="44.49867" lon="-1.07468">
        <ele>32</ele>
        <time>2019-08-11T14:52:15Z</time>
      </trkpt>
      <trkpt lat="44.49867" lon="-1.07467">
        <ele>32</ele>
        <time>2019-08-11T14:52:20Z</time>
      </trkpt>
      <trkpt lat="44.49865" lon="-1.07454">
        <ele>33</ele>
        <time>2019-08-11T14:52:30Z</time>
      </trkpt>
      <trkpt lat="44.49864" lon="-1.07447">
        <ele>33</ele>
        <time>2019-08-11T14:52:35Z</time>
      </trkpt>
      <trkpt lat="44.4986" lon="-1.07433">
        <ele>33</ele>
        <time>2019-08-11T14:52:45Z</time>
      </trkpt>
      <trkpt lat="44.49858" lon="-1.07427">
        <ele>33</ele>
        <time>2019-08-11T14:52:50Z</time>
      </trkpt>
      <trkpt lat="44.49853" lon="-1.07417">
        <ele>33</ele>
        <time>2019-08-11T14:53:00Z</time>
      </trkpt>
      <trkpt lat="44.49851" lon="-1.07418">
        <ele>33</ele>
        <time>2019-08-11T14:53:05Z</time>
      </trkpt>
      <trkpt lat="44.49851" lon="-1.07418">
        <ele>33</ele>
        <time>2019-08-11T14:53:15Z</time>
      </trkpt>
      <trkpt lat="44.4985" lon="-1.07418">
        <ele>33</ele>
        <time>2019-08-11T14:53:20Z</time>
      </trkpt>
      <trkpt lat="44.4985" lon="-1.07418">
        <ele>33</ele>
        <time>2019-08-11T14:53:30Z</time>
      </trkpt>
      <trkpt lat="44.4985" lon="-1.07418">
        <ele>33</ele>
        <time>2019-08-11T14:53:35Z</time>
      </trkpt>
      <trkpt lat="44.4985" lon="-1.07418">
        <ele>33</ele>
        <time>2019-08-11T14:53:45Z</time>
      </trkpt>
      <trkpt lat="44.4985" lon="-1.07418">
        <ele>33</ele>
        <time>2019-08-11T14:53:55Z</time>
      </trkpt>
      <trkpt lat="44.4985" lon="-1.07418">
        <ele>33</ele>
        <time>2019-08-11T14:54:00Z</time>
      </trkpt>
      <trkpt lat="44.4985" lon="-1.07418">
        <ele>33</ele>
        <time>2019-08-11T14:54:10Z</time>
      </trkpt>
      <trkpt lat="44.4985" lon="-1.07418">
        <ele>33</ele>
        <time>2019-08-11T14:54:15Z</time>
      </trkpt>
      <trkpt lat="44.4985" lon="-1.07418">
        <ele>33</ele>
        <time>2019-08-11T14:54:25Z</time>
      </trkpt>
      <trkpt lat="44.4985" lon="-1.07418">
        <ele>33</ele>
        <time>2019-08-11T14:54:30Z</time>
      </trkpt>
      <trkpt lat="44.4985" lon="-1.07418">
        <ele>33</ele>
        <time>2019-08-11T14:54:40Z</time>
      </trkpt>
      <trkpt lat="44.4985" lon="-1.07418">
        <ele>33</ele>
        <time>2019-08-11T14:54:45Z</time>
      </trkpt>
      <trkpt lat="44.49849" lon="-1.07418">
        <ele>33</ele>
        <time>2019-08-11T14:54:55Z</time>
      </trkpt>
      <trkpt lat="44.49849" lon="-1.07418">
        <ele>33</ele>
        <time>2019-08-11T14:55:00Z</time>
      </trkpt>
      <trkpt lat="44.49849" lon="-1.07418">
        <ele>33</ele>
        <time>2019-08-11T14:55:10Z</time>
      </trkpt>
      <trkpt lat="44.49849" lon="-1.07418">
        <ele>33</ele>
        <time>2019-08-11T14:55:15Z</time>
      </trkpt>
      <trkpt lat="44.49849" lon="-1.07418">
        <ele>33</ele>
        <time>2019-08-11T14:55:25Z</time>
      </trkpt>
      <trkpt lat="44.4985" lon="-1.07416">
        <ele>33</ele>
        <time>2019-08-11T14:55:35Z</time>
      </trkpt>
      <trkpt lat="44.4985" lon="-1.07416">
        <ele>33</ele>
        <time>2019-08-11T14:55:40Z</time>
      </trkpt>
      <trkpt lat="44.4985" lon="-1.07416">
        <ele>33</ele>
        <time>2019-08-11T14:55:50Z</time>
      </trkpt>
      <trkpt lat="44.4985" lon="-1.07416">
        <ele>33</ele>
        <time>2019-08-11T14:55:55Z</time>
      </trkpt>
      <trkpt lat="44.4985" lon="-1.07416">
        <ele>33</ele>
        <time>2019-08-11T14:56:05Z</time>
      </trkpt>
      <trkpt lat="44.4985" lon="-1.07416">
        <ele>33</ele>
        <time>2019-08-11T14:56:10Z</time>
      </trkpt>
      <trkpt lat="44.4985" lon="-1.07417">
        <ele>33</ele>
        <time>2019-08-11T14:56:20Z</time>
      </trkpt>
      <trkpt lat="44.4985" lon="-1.07416">
        <ele>33</ele>
        <time>2019-08-11T14:56:25Z</time>
      </trkpt>
      <trkpt lat="44.4985" lon="-1.07416">
        <ele>33</ele>
        <time>2019-08-11T14:56:35Z</time>
      </trkpt>
      <trkpt lat="44.4985" lon="-1.07416">
        <ele>33</ele>
        <time>2019-08-11T14:56:40Z</time>
      </trkpt>
      <trkpt lat="44.4985" lon="-1.07416">
        <ele>33</ele>
        <time>2019-08-11T14:56:50Z</time>
      </trkpt>
      <trkpt lat="44.4985" lon="-1.07415">
        <ele>33</ele>
        <time>2019-08-11T14:56:55Z</time>
      </trkpt>
      <trkpt lat="44.49849" lon="-1.07414">
        <ele>33</ele>
        <time>2019-08-11T14:57:05Z</time>
      </trkpt>
      <trkpt lat="44.49849" lon="-1.07414">
        <ele>33</ele>
        <time>2019-08-11T14:57:15Z</time>
      </trkpt>
      <trkpt lat="44.49849" lon="-1.07414">
        <ele>33</ele>
        <time>2019-08-11T14:57:20Z</time>
      </trkpt>
      <trkpt lat="44.49849" lon="-1.07414">
        <ele>33</ele>
        <time>2019-08-11T14:57:30Z</time>
      </trkpt>
      <trkpt lat="44.49849" lon="-1.07414">
        <ele>33</ele>
        <time>2019-08-11T14:57:35Z</time>
      </trkpt>
      <trkpt lat="44.49849" lon="-1.07414">
        <ele>33</ele>
        <time>2019-08-11T14:57:45Z</time>
      </trkpt>
      <trkpt lat="44.49849" lon="-1.07414">
        <ele>33</ele>
        <time>2019-08-11T14:57:50Z</time>
      </trkpt>
      <trkpt lat="44.49849" lon="-1.07413">
        <ele>33</ele>
        <time>2019-08-11T14:58:00Z</time>
      </trkpt>
      <trkpt lat="44.49848" lon="-1.07407">
        <ele>33</ele>
        <time>2019-08-11T14:58:05Z</time>
      </trkpt>
      <trkpt lat="44.49849" lon="-1.07409">
        <ele>33</ele>
        <time>2019-08-11T14:58:15Z</time>
      </trkpt>
      <trkpt lat="44.49848" lon="-1.07408">
        <ele>33</ele>
        <time>2019-08-11T14:58:20Z</time>
      </trkpt>
      <trkpt lat="44.49848" lon="-1.07408">
        <ele>33</ele>
        <time>2019-08-11T14:58:30Z</time>
      </trkpt>
      <trkpt lat="44.49848" lon="-1.07408">
        <ele>33</ele>
        <time>2019-08-11T14:58:40Z</time>
      </trkpt>
      <trkpt lat="44.49848" lon="-1.07408">
        <ele>33</ele>
        <time>2019-08-11T14:58:45Z</time>
      </trkpt>
      <trkpt lat="44.49847" lon="-1.07407">
        <ele>33</ele>
        <time>2019-08-11T14:58:55Z</time>
      </trkpt>
      <trkpt lat="44.49847" lon="-1.07407">
        <ele>33</ele>
        <time>2019-08-11T14:59:00Z</time>
      </trkpt>
      <trkpt lat="44.49847" lon="-1.07407">
        <ele>33</ele>
        <time>2019-08-11T14:59:10Z</time>
      </trkpt>
      <trkpt lat="44.49847" lon="-1.07407">
        <ele>33</ele>
        <time>2019-08-11T14:59:15Z</time>
      </trkpt>
      <trkpt lat="44.49848" lon="-1.07408">
        <ele>33</ele>
        <time>2019-08-11T14:59:25Z</time>
      </trkpt>
      <trkpt lat="44.49848" lon="-1.0741">
        <ele>33</ele>
        <time>2019-08-11T14:59:30Z</time>
      </trkpt>
      <trkpt lat="44.49855" lon="-1.07424">
        <ele>33</ele>
        <time>2019-08-11T14:59:40Z</time>
      </trkpt>
      <trkpt lat="44.49857" lon="-1.07432">
        <ele>33</ele>
        <time>2019-08-11T14:59:45Z</time>
      </trkpt>
      <trkpt lat="44.49861" lon="-1.07448">
        <ele>33</ele>
        <time>2019-08-11T14:59:55Z</time>
      </trkpt>
      <trkpt lat="44.49862" lon="-1.07454">
        <ele>33</ele>
        <time>2019-08-11T15:00:00Z</time>
      </trkpt>
      <trkpt lat="44.49863" lon="-1.07466">
        <ele>32</ele>
        <time>2019-08-11T15:00:10Z</time>
      </trkpt>
      <trkpt lat="44.49863" lon="-1.07468">
        <ele>32</ele>
        <time>2019-08-11T15:00:20Z</time>
      </trkpt>
      <trkpt lat="44.49863" lon="-1.07468">
        <ele>32</ele>
        <time>2019-08-11T15:00:25Z</time>
      </trkpt>
      <trkpt lat="44.49864" lon="-1.07468">
        <ele>32</ele>
        <time>2019-08-11T15:00:35Z</time>
      </trkpt>
      <trkpt lat="44.49864" lon="-1.07469">
        <ele>32</ele>
        <time>2019-08-11T15:00:40Z</time>
      </trkpt>
      <trkpt lat="44.49865" lon="-1.0747">
        <ele>32</ele>
        <time>2019-08-11T15:00:50Z</time>
      </trkpt>
      <trkpt lat="44.49865" lon="-1.07468">
        <ele>32</ele>
        <time>2019-08-11T15:00:55Z</time>
      </trkpt>
      <trkpt lat="44.49865" lon="-1.07466">
        <ele>32</ele>
        <time>2019-08-11T15:01:05Z</time>
      </trkpt>
      <trkpt lat="44.49862" lon="-1.07462">
        <ele>32</ele>
        <time>2019-08-11T15:01:10Z</time>
      </trkpt>
      <trkpt lat="44.4986" lon="-1.07459">
        <ele>33</ele>
        <time>2019-08-11T15:01:20Z</time>
      </trkpt>
      <trkpt lat="44.49859" lon="-1.0746">
        <ele>33</ele>
        <time>2019-08-11T15:01:25Z</time>
      </trkpt>
      <trkpt lat="44.4986" lon="-1.07463">
        <ele>32</ele>
        <time>2019-08-11T15:01:35Z</time>
      </trkpt>
      <trkpt lat="44.4986" lon="-1.07464">
        <ele>32</ele>
        <time>2019-08-11T15:01:40Z</time>
      </trkpt>
      <trkpt lat="44.49861" lon="-1.07465">
        <ele>32</ele>
        <time>2019-08-11T15:01:50Z</time>
      </trkpt>
      <trkpt lat="44.49861" lon="-1.07465">
        <ele>32</ele>
        <time>2019-08-11T15:02:00Z</time>
      </trkpt>
      <trkpt lat="44.49861" lon="-1.07466">
        <ele>32</ele>
        <time>2019-08-11T15:02:05Z</time>
      </trkpt>
      <trkpt lat="44.49866" lon="-1.07455">
        <ele>32</ele>
        <time>2019-08-11T15:02:15Z</time>
      </trkpt>
      <trkpt lat="44.49868" lon="-1.07461">
        <ele>32</ele>
        <time>2019-08-11T15:02:20Z</time>
      </trkpt>
      <trkpt lat="44.49866" lon="-1.07464">
        <ele>32</ele>
        <time>2019-08-11T15:02:30Z</time>
      </trkpt>
      <trkpt lat="44.49864" lon="-1.07464">
        <ele>32</ele>
        <time>2019-08-11T15:02:35Z</time>
      </trkpt>
      <trkpt lat="44.49864" lon="-1.07466">
        <ele>32</ele>
        <time>2019-08-11T15:02:45Z</time>
      </trkpt>
      <trkpt lat="44.49865" lon="-1.07466">
        <ele>32</ele>
        <time>2019-08-11T15:02:50Z</time>
      </trkpt>
      <trkpt lat="44.49865" lon="-1.07464">
        <ele>32</ele>
        <time>2019-08-11T15:03:00Z</time>
      </trkpt>
      <trkpt lat="44.49866" lon="-1.07456">
        <ele>32</ele>
        <time>2019-08-11T15:03:05Z</time>
      </trkpt>
      <trkpt lat="44.49868" lon="-1.07445">
        <ele>32</ele>
        <time>2019-08-11T15:03:15Z</time>
      </trkpt>
      <trkpt lat="44.49867" lon="-1.07441">
        <ele>33</ele>
        <time>2019-08-11T15:03:20Z</time>
      </trkpt>
      <trkpt lat="44.49867" lon="-1.07431">
        <ele>33</ele>
        <time>2019-08-11T15:03:30Z</time>
      </trkpt>
      <trkpt lat="44.49867" lon="-1.07433">
        <ele>33</ele>
        <time>2019-08-11T15:03:40Z</time>
      </trkpt>
      <trkpt lat="44.49866" lon="-1.07427">
        <ele>33</ele>
        <time>2019-08-11T15:03:45Z</time>
      </trkpt>
      <trkpt lat="44.49863" lon="-1.07414">
        <ele>33</ele>
        <time>2019-08-11T15:03:55Z</time>
      </trkpt>
      <trkpt lat="44.4986" lon="-1.07418">
        <ele>33</ele>
        <time>2019-08-11T15:04:00Z</time>
      </trkpt>
      <trkpt lat="44.49866" lon="-1.07441">
        <ele>33</ele>
        <time>2019-08-11T15:04:10Z</time>
      </trkpt>
      <trkpt lat="44.49867" lon="-1.07441">
        <ele>33</ele>
        <time>2019-08-11T15:04:15Z</time>
      </trkpt>
      <trkpt lat="44.49861" lon="-1.07443">
        <ele>33</ele>
        <time>2019-08-11T15:04:25Z</time>
      </trkpt>
      <trkpt lat="44.49861" lon="-1.07442">
        <ele>33</ele>
        <time>2019-08-11T15:04:30Z</time>
      </trkpt>
      <trkpt lat="44.49862" lon="-1.07441">
        <ele>33</ele>
        <time>2019-08-11T15:04:40Z</time>
      </trkpt>
      <trkpt lat="44.49862" lon="-1.0744">
        <ele>33</ele>
        <time>2019-08-11T15:04:45Z</time>
      </trkpt>
      <trkpt lat="44.49861" lon="-1.07443">
        <ele>33</ele>
        <time>2019-08-11T15:04:55Z</time>
      </trkpt>
      <trkpt lat="44.49862" lon="-1.07444">
        <ele>33</ele>
        <time>2019-08-11T15:05:05Z</time>
      </trkpt>
      <trkpt lat="44.49862" lon="-1.07446">
        <ele>33</ele>
        <time>2019-08-11T15:05:10Z</time>
      </trkpt>
      <trkpt lat="44.49864" lon="-1.07452">
        <ele>33</ele>
        <time>2019-08-11T15:05:20Z</time>
      </trkpt>
      <trkpt lat="44.49864" lon="-1.07454">
        <ele>33</ele>
        <time>2019-08-11T15:05:25Z</time>
      </trkpt>
      <trkpt lat="44.49866" lon="-1.07455">
        <ele>32</ele>
        <time>2019-08-11T15:05:35Z</time>
      </trkpt>
      <trkpt lat="44.49866" lon="-1.07455">
        <ele>32</ele>
        <time>2019-08-11T15:05:40Z</time>
      </trkpt>
      <trkpt lat="44.49866" lon="-1.07457">
        <ele>32</ele>
        <time>2019-08-11T15:05:50Z</time>
      </trkpt>
      <trkpt lat="44.49865" lon="-1.07458">
        <ele>32</ele>
        <time>2019-08-11T15:05:55Z</time>
      </trkpt>
      <trkpt lat="44.49864" lon="-1.07463">
        <ele>32</ele>
        <time>2019-08-11T15:06:05Z</time>
      </trkpt>
      <trkpt lat="44.49864" lon="-1.07464">
        <ele>32</ele>
        <time>2019-08-11T15:06:10Z</time>
      </trkpt>
      <trkpt lat="44.49863" lon="-1.07466">
        <ele>32</ele>
        <time>2019-08-11T15:06:20Z</time>
      </trkpt>
      <trkpt lat="44.49861" lon="-1.07462">
        <ele>32</ele>
        <time>2019-08-11T15:06:25Z</time>
      </trkpt>
      <trkpt lat="44.49859" lon="-1.07456">
        <ele>33</ele>
        <time>2019-08-11T15:06:35Z</time>
      </trkpt>
      <trkpt lat="44.49855" lon="-1.07452">
        <ele>33</ele>
        <time>2019-08-11T15:06:45Z</time>
      </trkpt>
      <trkpt lat="44.49854" lon="-1.07451">
        <ele>33</ele>
        <time>2019-08-11T15:06:50Z</time>
      </trkpt>
      <trkpt lat="44.49855" lon="-1.07452">
        <ele>33</ele>
        <time>2019-08-11T15:07:00Z</time>
      </trkpt>
      <trkpt lat="44.49852" lon="-1.07448">
        <ele>33</ele>
        <time>2019-08-11T15:07:05Z</time>
      </trkpt>
      <trkpt lat="44.49846" lon="-1.0744">
        <ele>33</ele>
        <time>2019-08-11T15:07:15Z</time>
      </trkpt>
      <trkpt lat="44.49849" lon="-1.07442">
        <ele>33</ele>
        <time>2019-08-11T15:07:20Z</time>
      </trkpt>
      <trkpt lat="44.49853" lon="-1.07449">
        <ele>33</ele>
        <time>2019-08-11T15:07:30Z</time>
      </trkpt>
      <trkpt lat="44.49854" lon="-1.07449">
        <ele>33</ele>
        <time>2019-08-11T15:07:35Z</time>
      </trkpt>
      <trkpt lat="44.49857" lon="-1.07452">
        <ele>33</ele>
        <time>2019-08-11T15:07:45Z</time>
      </trkpt>
      <trkpt lat="44.49857" lon="-1.07451">
        <ele>33</ele>
        <time>2019-08-11T15:07:50Z</time>
      </trkpt>
      <trkpt lat="44.49858" lon="-1.07453">
        <ele>33</ele>
        <time>2019-08-11T15:08:00Z</time>
      </trkpt>
      <trkpt lat="44.49858" lon="-1.07455">
        <ele>33</ele>
        <time>2019-08-11T15:08:05Z</time>
      </trkpt>
      <trkpt lat="44.49861" lon="-1.07459">
        <ele>33</ele>
        <time>2019-08-11T15:08:15Z</time>
      </trkpt>
      <trkpt lat="44.4986" lon="-1.07462">
        <ele>32</ele>
        <time>2019-08-11T15:08:25Z</time>
      </trkpt>
      <trkpt lat="44.4986" lon="-1.07463">
        <ele>32</ele>
        <time>2019-08-11T15:08:30Z</time>
      </trkpt>
      <trkpt lat="44.49859" lon="-1.07463">
        <ele>32</ele>
        <time>2019-08-11T15:08:40Z</time>
      </trkpt>
      <trkpt lat="44.49859" lon="-1.07464">
        <ele>32</ele>
        <time>2019-08-11T15:08:45Z</time>
      </trkpt>
      <trkpt lat="44.49859" lon="-1.07466">
        <ele>32</ele>
        <time>2019-08-11T15:08:55Z</time>
      </trkpt>
      <trkpt lat="44.4986" lon="-1.07466">
        <ele>32</ele>
        <time>2019-08-11T15:09:00Z</time>
      </trkpt>
      <trkpt lat="44.49862" lon="-1.07466">
        <ele>32</ele>
        <time>2019-08-11T15:09:10Z</time>
      </trkpt>
      <trkpt lat="44.49862" lon="-1.07466">
        <ele>32</ele>
        <time>2019-08-11T15:09:15Z</time>
      </trkpt>
      <trkpt lat="44.49862" lon="-1.07466">
        <ele>32</ele>
        <time>2019-08-11T15:09:25Z</time>
      </trkpt>
      <trkpt lat="44.49862" lon="-1.07466">
        <ele>32</ele>
        <time>2019-08-11T15:09:30Z</time>
      </trkpt>
      <trkpt lat="44.49862" lon="-1.07468">
        <ele>32</ele>
        <time>2019-08-11T15:09:40Z</time>
      </trkpt>
      <trkpt lat="44.49862" lon="-1.07468">
        <ele>32</ele>
        <time>2019-08-11T15:09:45Z</time>
      </trkpt>
      <trkpt lat="44.49862" lon="-1.07467">
        <ele>32</ele>
        <time>2019-08-11T15:09:55Z</time>
      </trkpt>
      <trkpt lat="44.49862" lon="-1.07468">
        <ele>32</ele>
        <time>2019-08-11T15:10:05Z</time>
      </trkpt>
      <trkpt lat="44.49863" lon="-1.07469">
        <ele>32</ele>
        <time>2019-08-11T15:10:10Z</time>
      </trkpt>
      <trkpt lat="44.49863" lon="-1.07467">
        <ele>32</ele>
        <time>2019-08-11T15:10:20Z</time>
      </trkpt>
      <trkpt lat="44.49863" lon="-1.07467">
        <ele>32</ele>
        <time>2019-08-11T15:10:25Z</time>
      </trkpt>
      <trkpt lat="44.49865" lon="-1.0747">
        <ele>32</ele>
        <time>2019-08-11T15:10:35Z</time>
      </trkpt>
      <trkpt lat="44.49862" lon="-1.07472">
        <ele>32</ele>
        <time>2019-08-11T15:10:40Z</time>
      </trkpt>
      <trkpt lat="44.49863" lon="-1.07472">
        <ele>32</ele>
        <time>2019-08-11T15:10:50Z</time>
      </trkpt>
      <trkpt lat="44.49865" lon="-1.07474">
        <ele>32</ele>
        <time>2019-08-11T15:10:55Z</time>
      </trkpt>
      <trkpt lat="44.49865" lon="-1.07478">
        <ele>32</ele>
        <time>2019-08-11T15:11:05Z</time>
      </trkpt>
      <trkpt lat="44.49865" lon="-1.07481">
        <ele>32</ele>
        <time>2019-08-11T15:11:10Z</time>
      </trkpt>
      <trkpt lat="44.49865" lon="-1.07481">
        <ele>32</ele>
        <time>2019-08-11T15:11:20Z</time>
      </trkpt>
      <trkpt lat="44.49864" lon="-1.07479">
        <ele>32</ele>
        <time>2019-08-11T15:11:25Z</time>
      </trkpt>
      <trkpt lat="44.49865" lon="-1.0748">
        <ele>32</ele>
        <time>2019-08-11T15:11:35Z</time>
      </trkpt>
      <trkpt lat="44.49862" lon="-1.07477">
        <ele>32</ele>
        <time>2019-08-11T15:11:45Z</time>
      </trkpt>
      <trkpt lat="44.49863" lon="-1.07472">
        <ele>32</ele>
        <time>2019-08-11T15:11:50Z</time>
      </trkpt>
      <trkpt lat="44.49864" lon="-1.0747">
        <ele>32</ele>
        <time>2019-08-11T15:12:00Z</time>
      </trkpt>
      <trkpt lat="44.49864" lon="-1.07462">
        <ele>32</ele>
        <time>2019-08-11T15:12:05Z</time>
      </trkpt>
      <trkpt lat="44.49861" lon="-1.07462">
        <ele>32</ele>
        <time>2019-08-11T15:12:15Z</time>
      </trkpt>
      <trkpt lat="44.49859" lon="-1.07465">
        <ele>32</ele>
        <time>2019-08-11T15:12:20Z</time>
      </trkpt>
      <trkpt lat="44.49862" lon="-1.0746">
        <ele>33</ele>
        <time>2019-08-11T15:12:30Z</time>
      </trkpt>
      <trkpt lat="44.4986" lon="-1.07455">
        <ele>33</ele>
        <time>2019-08-11T15:12:35Z</time>
      </trkpt>
      <trkpt lat="44.49861" lon="-1.07456">
        <ele>33</ele>
        <time>2019-08-11T15:12:45Z</time>
      </trkpt>
      <trkpt lat="44.49861" lon="-1.07456">
        <ele>33</ele>
        <time>2019-08-11T15:12:50Z</time>
      </trkpt>
      <trkpt lat="44.49862" lon="-1.07456">
        <ele>33</ele>
        <time>2019-08-11T15:13:00Z</time>
      </trkpt>
      <trkpt lat="44.49863" lon="-1.07458">
        <ele>33</ele>
        <time>2019-08-11T15:13:10Z</time>
      </trkpt>
      <trkpt lat="44.49862" lon="-1.0746">
        <ele>33</ele>
        <time>2019-08-11T15:13:15Z</time>
      </trkpt>
      <trkpt lat="44.49862" lon="-1.0746">
        <ele>33</ele>
        <time>2019-08-11T15:13:25Z</time>
      </trkpt>
      <trkpt lat="44.49862" lon="-1.07461">
        <ele>32</ele>
        <time>2019-08-11T15:13:30Z</time>
      </trkpt>
      <trkpt lat="44.49862" lon="-1.07459">
        <ele>33</ele>
        <time>2019-08-11T15:13:40Z</time>
      </trkpt>
      <trkpt lat="44.49863" lon="-1.0746">
        <ele>32</ele>
        <time>2019-08-11T15:13:45Z</time>
      </trkpt>
      <trkpt lat="44.49864" lon="-1.07452">
        <ele>33</ele>
        <time>2019-08-11T15:13:55Z</time>
      </trkpt>
      <trkpt lat="44.49865" lon="-1.07448">
        <ele>33</ele>
        <time>2019-08-11T15:14:00Z</time>
      </trkpt>
      <trkpt lat="44.49866" lon="-1.07452">
        <ele>32</ele>
        <time>2019-08-11T15:14:10Z</time>
      </trkpt>
      <trkpt lat="44.49867" lon="-1.07454">
        <ele>32</ele>
        <time>2019-08-11T15:14:15Z</time>
      </trkpt>
      <trkpt lat="44.49867" lon="-1.07451">
        <ele>32</ele>
        <time>2019-08-11T15:14:25Z</time>
      </trkpt>
      <trkpt lat="44.49867" lon="-1.07452">
        <ele>32</ele>
        <time>2019-08-11T15:14:30Z</time>
      </trkpt>
      <trkpt lat="44.49868" lon="-1.07454">
        <ele>32</ele>
        <time>2019-08-11T15:14:40Z</time>
      </trkpt>
      <trkpt lat="44.49869" lon="-1.07455">
        <ele>32</ele>
        <time>2019-08-11T15:14:50Z</time>
      </trkpt>
      <trkpt lat="44.49869" lon="-1.07454">
        <ele>32</ele>
        <time>2019-08-11T15:14:55Z</time>
      </trkpt>
      <trkpt lat="44.49871" lon="-1.07456">
        <ele>32</ele>
        <time>2019-08-11T15:15:05Z</time>
      </trkpt>
      <trkpt lat="44.49872" lon="-1.07456">
        <ele>32</ele>
        <time>2019-08-11T15:15:10Z</time>
      </trkpt>
      <trkpt lat="44.49872" lon="-1.07457">
        <ele>32</ele>
        <time>2019-08-11T15:15:20Z</time>
      </trkpt>
      <trkpt lat="44.49873" lon="-1.07458">
        <ele>32</ele>
        <time>2019-08-11T15:15:25Z</time>
      </trkpt>
      <trkpt lat="44.49872" lon="-1.07459">
        <ele>32</ele>
        <time>2019-08-11T15:15:35Z</time>
      </trkpt>
      <trkpt lat="44.49873" lon="-1.0746">
        <ele>32</ele>
        <time>2019-08-11T15:15:40Z</time>
      </trkpt>
      <trkpt lat="44.49873" lon="-1.07461">
        <ele>32</ele>
        <time>2019-08-11T15:15:50Z</time>
      </trkpt>
      <trkpt lat="44.49873" lon="-1.07462">
        <ele>32</ele>
        <time>2019-08-11T15:15:55Z</time>
      </trkpt>
      <trkpt lat="44.49868" lon="-1.07463">
        <ele>32</ele>
        <time>2019-08-11T15:16:05Z</time>
      </trkpt>
      <trkpt lat="44.4986" lon="-1.07458">
        <ele>33</ele>
        <time>2019-08-11T15:16:10Z</time>
      </trkpt>
      <trkpt lat="44.49858" lon="-1.0746">
        <ele>32</ele>
        <time>2019-08-11T15:16:20Z</time>
      </trkpt>
      <trkpt lat="44.49858" lon="-1.07466">
        <ele>32</ele>
        <time>2019-08-11T15:16:30Z</time>
      </trkpt>
      <trkpt lat="44.49858" lon="-1.07467">
        <ele>32</ele>
        <time>2019-08-11T15:16:35Z</time>
      </trkpt>
      <trkpt lat="44.49858" lon="-1.07468">
        <ele>32</ele>
        <time>2019-08-11T15:16:45Z</time>
      </trkpt>
      <trkpt lat="44.49858" lon="-1.07468">
        <ele>32</ele>
        <time>2019-08-11T15:16:50Z</time>
      </trkpt>
      <trkpt lat="44.49858" lon="-1.07467">
        <ele>32</ele>
        <time>2019-08-11T15:17:00Z</time>
      </trkpt>
      <trkpt lat="44.49858" lon="-1.07466">
        <ele>32</ele>
        <time>2019-08-11T15:17:05Z</time>
      </trkpt>
      <trkpt lat="44.49859" lon="-1.07467">
        <ele>32</ele>
        <time>2019-08-11T15:17:15Z</time>
      </trkpt>
      <trkpt lat="44.4986" lon="-1.0747">
        <ele>32</ele>
        <time>2019-08-11T15:17:20Z</time>
      </trkpt>
      <trkpt lat="44.4986" lon="-1.07471">
        <ele>32</ele>
        <time>2019-08-11T15:17:30Z</time>
      </trkpt>
      <trkpt lat="44.4986" lon="-1.07471">
        <ele>32</ele>
        <time>2019-08-11T15:17:35Z</time>
      </trkpt>
      <trkpt lat="44.49861" lon="-1.0747">
        <ele>32</ele>
        <time>2019-08-11T15:17:45Z</time>
      </trkpt>
      <trkpt lat="44.49861" lon="-1.0747">
        <ele>32</ele>
        <time>2019-08-11T15:17:50Z</time>
      </trkpt>
      <trkpt lat="44.49856" lon="-1.07464">
        <ele>32</ele>
        <time>2019-08-11T15:18:00Z</time>
      </trkpt>
      <trkpt lat="44.49856" lon="-1.07463">
        <ele>32</ele>
        <time>2019-08-11T15:18:10Z</time>
      </trkpt>
      <trkpt lat="44.49856" lon="-1.07462">
        <ele>32</ele>
        <time>2019-08-11T15:18:15Z</time>
      </trkpt>
      <trkpt lat="44.49858" lon="-1.07461">
        <ele>32</ele>
        <time>2019-08-11T15:18:25Z</time>
      </trkpt>
      <trkpt lat="44.49858" lon="-1.07462">
        <ele>32</ele>
        <time>2019-08-11T15:18:30Z</time>
      </trkpt>
      <trkpt lat="44.49861" lon="-1.07457">
        <ele>33</ele>
        <time>2019-08-11T15:18:40Z</time>
      </trkpt>
      <trkpt lat="44.49862" lon="-1.07452">
        <ele>33</ele>
        <time>2019-08-11T15:18:45Z</time>
      </trkpt>
      <trkpt lat="44.49869" lon="-1.07447">
        <ele>32</ele>
        <time>2019-08-11T15:18:55Z</time>
      </trkpt>
      <trkpt lat="44.49868" lon="-1.07446">
        <ele>32</ele>
        <time>2019-08-11T15:19:00Z</time>
      </trkpt>
      <trkpt lat="44.49865" lon="-1.07447">
        <ele>32</ele>
        <time>2019-08-11T15:19:10Z</time>
      </trkpt>
      <trkpt lat="44.49864" lon="-1.07445">
        <ele>33</ele>
        <time>2019-08-11T15:19:15Z</time>
      </trkpt>
      <trkpt lat="44.49865" lon="-1.07447">
        <ele>33</ele>
        <time>2019-08-11T15:19:25Z</time>
      </trkpt>
      <trkpt lat="44.49867" lon="-1.07457">
        <ele>32</ele>
        <time>2019-08-11T15:19:30Z</time>
      </trkpt>
      <trkpt lat="44.49868" lon="-1.07466">
        <ele>32</ele>
        <time>2019-08-11T15:19:40Z</time>
      </trkpt>
      <trkpt lat="44.49868" lon="-1.07464">
        <ele>32</ele>
        <time>2019-08-11T15:19:50Z</time>
      </trkpt>
      <trkpt lat="44.49866" lon="-1.0746">
        <ele>32</ele>
        <time>2019-08-11T15:19:55Z</time>
      </trkpt>
      <trkpt lat="44.49863" lon="-1.07445">
        <ele>33</ele>
        <time>2019-08-11T15:20:05Z</time>
      </trkpt>
      <trkpt lat="44.4986" lon="-1.07434">
        <ele>33</ele>
        <time>2019-08-11T15:20:10Z</time>
      </trkpt>
      <trkpt lat="44.49852" lon="-1.07408">
        <ele>33</ele>
        <time>2019-08-11T15:20:20Z</time>
      </trkpt>
      <trkpt lat="44.4985" lon="-1.07398">
        <ele>33</ele>
        <time>2019-08-11T15:20:25Z</time>
      </trkpt>
      <trkpt lat="44.49851" lon="-1.07402">
        <ele>33</ele>
        <time>2019-08-11T15:20:35Z</time>
      </trkpt>
      <trkpt lat="44.49851" lon="-1.07402">
        <ele>33</ele>
        <time>2019-08-11T15:20:40Z</time>
      </trkpt>
      <trkpt lat="44.49849" lon="-1.07396">
        <ele>33</ele>
        <time>2019-08-11T15:20:50Z</time>
      </trkpt>
      <trkpt lat="44.49845" lon="-1.07395">
        <ele>34</ele>
        <time>2019-08-11T15:20:55Z</time>
      </trkpt>
      <trkpt lat="44.49844" lon="-1.07395">
        <ele>34</ele>
        <time>2019-08-11T15:21:05Z</time>
      </trkpt>
      <trkpt lat="44.49845" lon="-1.07392">
        <ele>34</ele>
        <time>2019-08-11T15:21:15Z</time>
      </trkpt>
      <trkpt lat="44.49845" lon="-1.07392">
        <ele>34</ele>
        <time>2019-08-11T15:21:20Z</time>
      </trkpt>
      <trkpt lat="44.49847" lon="-1.07394">
        <ele>33</ele>
        <time>2019-08-11T15:21:30Z</time>
      </trkpt>
      <trkpt lat="44.49849" lon="-1.07397">
        <ele>33</ele>
        <time>2019-08-11T15:21:35Z</time>
      </trkpt>
      <trkpt lat="44.4985" lon="-1.07401">
        <ele>33</ele>
        <time>2019-08-11T15:21:45Z</time>
      </trkpt>
      <trkpt lat="44.4985" lon="-1.074">
        <ele>33</ele>
        <time>2019-08-11T15:21:50Z</time>
      </trkpt>
      <trkpt lat="44.4985" lon="-1.07403">
        <ele>33</ele>
        <time>2019-08-11T15:22:00Z</time>
      </trkpt>
      <trkpt lat="44.49849" lon="-1.07403">
        <ele>33</ele>
        <time>2019-08-11T15:22:05Z</time>
      </trkpt>
      <trkpt lat="44.4985" lon="-1.07403">
        <ele>33</ele>
        <time>2019-08-11T15:22:15Z</time>
      </trkpt>
      <trkpt lat="44.49849" lon="-1.07403">
        <ele>33</ele>
        <time>2019-08-11T15:22:20Z</time>
      </trkpt>
      <trkpt lat="44.49849" lon="-1.07403">
        <ele>33</ele>
        <time>2019-08-11T15:22:30Z</time>
      </trkpt>
      <trkpt lat="44.49849" lon="-1.07403">
        <ele>33</ele>
        <time>2019-08-11T15:22:35Z</time>
      </trkpt>
      <trkpt lat="44.49849" lon="-1.07407">
        <ele>33</ele>
        <time>2019-08-11T15:22:45Z</time>
      </trkpt>
      <trkpt lat="44.49848" lon="-1.07409">
        <ele>33</ele>
        <time>2019-08-11T15:22:55Z</time>
      </trkpt>
      <trkpt lat="44.49846" lon="-1.07411">
        <ele>33</ele>
        <time>2019-08-11T15:23:00Z</time>
      </trkpt>
      <trkpt lat="44.49828" lon="-1.07422">
        <ele>33</ele>
        <time>2019-08-11T15:23:10Z</time>
      </trkpt>
      <trkpt lat="44.49817" lon="-1.07428">
        <ele>33</ele>
        <time>2019-08-11T15:23:15Z</time>
      </trkpt>
      <trkpt lat="44.49797" lon="-1.07449">
        <ele>33</ele>
        <time>2019-08-11T15:23:25Z</time>
      </trkpt>
      <trkpt lat="44.49802" lon="-1.0747">
        <ele>33</ele>
        <time>2019-08-11T15:23:30Z</time>
      </trkpt>
      <trkpt lat="44.49797" lon="-1.0751">
        <ele>33</ele>
        <time>2019-08-11T15:23:40Z</time>
      </trkpt>
      <trkpt lat="44.4978" lon="-1.07518">
        <ele>33</ele>
        <time>2019-08-11T15:23:45Z</time>
      </trkpt>
      <trkpt lat="44.4974" lon="-1.07539">
        <ele>33</ele>
        <time>2019-08-11T15:23:55Z</time>
      </trkpt>
      <trkpt lat="44.49719" lon="-1.07549">
        <ele>33</ele>
        <time>2019-08-11T15:24:00Z</time>
      </trkpt>
      <trkpt lat="44.49696" lon="-1.07587">
        <ele>32</ele>
        <time>2019-08-11T15:24:10Z</time>
      </trkpt>
      <trkpt lat="44.4968" lon="-1.07593">
        <ele>32</ele>
        <time>2019-08-11T15:24:15Z</time>
      </trkpt>
      <trkpt lat="44.49643" lon="-1.076">
        <ele>32</ele>
        <time>2019-08-11T15:24:25Z</time>
      </trkpt>
      <trkpt lat="44.49603" lon="-1.07607">
        <ele>31</ele>
        <time>2019-08-11T15:24:35Z</time>
      </trkpt>
      <trkpt lat="44.49587" lon="-1.07608">
        <ele>31</ele>
        <time>2019-08-11T15:24:40Z</time>
      </trkpt>
      <trkpt lat="44.49576" lon="-1.07589">
        <ele>31</ele>
        <time>2019-08-11T15:24:50Z</time>
      </trkpt>
      <trkpt lat="44.49574" lon="-1.07585">
        <ele>31</ele>
        <time>2019-08-11T15:24:55Z</time>
      </trkpt>
      <trkpt lat="44.49574" lon="-1.07585">
        <ele>31</ele>
        <time>2019-08-11T15:25:05Z</time>
      </trkpt>
      <trkpt lat="44.49574" lon="-1.07587">
        <ele>31</ele>
        <time>2019-08-11T15:25:10Z</time>
      </trkpt>
      <trkpt lat="44.4957" lon="-1.07594">
        <ele>30</ele>
        <time>2019-08-11T15:25:20Z</time>
      </trkpt>
      <trkpt lat="44.49569" lon="-1.07603">
        <ele>31</ele>
        <time>2019-08-11T15:25:25Z</time>
      </trkpt>
      <trkpt lat="44.49573" lon="-1.076">
        <ele>31</ele>
        <time>2019-08-11T15:25:35Z</time>
      </trkpt>
      <trkpt lat="44.49577" lon="-1.076">
        <ele>31</ele>
        <time>2019-08-11T15:25:40Z</time>
      </trkpt>
      <trkpt lat="44.49588" lon="-1.07606">
        <ele>31</ele>
        <time>2019-08-11T15:25:50Z</time>
      </trkpt>
      <trkpt lat="44.49585" lon="-1.07601">
        <ele>31</ele>
        <time>2019-08-11T15:25:55Z</time>
      </trkpt>
      <trkpt lat="44.49581" lon="-1.0759">
        <ele>31</ele>
        <time>2019-08-11T15:26:05Z</time>
      </trkpt>
      <trkpt lat="44.49579" lon="-1.07584">
        <ele>31</ele>
        <time>2019-08-11T15:26:15Z</time>
      </trkpt>
      <trkpt lat="44.49577" lon="-1.07581">
        <ele>31</ele>
        <time>2019-08-11T15:26:20Z</time>
      </trkpt>
      <trkpt lat="44.49574" lon="-1.07577">
        <ele>30</ele>
        <time>2019-08-11T15:26:30Z</time>
      </trkpt>
      <trkpt lat="44.49568" lon="-1.07574">
        <ele>30</ele>
        <time>2019-08-11T15:26:35Z</time>
      </trkpt>
      <trkpt lat="44.49543" lon="-1.0759">
        <ele>30</ele>
        <time>2019-08-11T15:26:45Z</time>
      </trkpt>
      <trkpt lat="44.49531" lon="-1.07611">
        <ele>30</ele>
        <time>2019-08-11T15:26:50Z</time>
      </trkpt>
      <trkpt lat="44.49522" lon="-1.07652">
        <ele>30</ele>
        <time>2019-08-11T15:27:00Z</time>
      </trkpt>
      <trkpt lat="44.49525" lon="-1.07679">
        <ele>31</ele>
        <time>2019-08-11T15:27:05Z</time>
      </trkpt>
      <trkpt lat="44.4953" lon="-1.07736">
        <ele>31</ele>
        <time>2019-08-11T15:27:15Z</time>
      </trkpt>
      <trkpt lat="44.49518" lon="-1.07754">
        <ele>30</ele>
        <time>2019-08-11T15:27:20Z</time>
      </trkpt>
      <trkpt lat="44.49503" lon="-1.0778">
        <ele>28</ele>
        <time>2019-08-11T15:27:30Z</time>
      </trkpt>
      <trkpt lat="44.4949" lon="-1.07793">
        <ele>26</ele>
        <time>2019-08-11T15:27:35Z</time>
      </trkpt>
      <trkpt lat="44.49475" lon="-1.07835">
        <ele>20</ele>
        <time>2019-08-11T15:27:45Z</time>
      </trkpt>
      <trkpt lat="44.49476" lon="-1.07861">
        <ele>20</ele>
        <time>2019-08-11T15:27:55Z</time>
      </trkpt>
      <trkpt lat="44.49462" lon="-1.07849">
        <ele>18</ele>
        <time>2019-08-11T15:28:00Z</time>
      </trkpt>
      <trkpt lat="44.49453" lon="-1.07848">
        <ele>18</ele>
        <time>2019-08-11T15:28:10Z</time>
      </trkpt>
      <trkpt lat="44.49454" lon="-1.07848">
        <ele>18</ele>
        <time>2019-08-11T15:28:15Z</time>
      </trkpt>
      <trkpt lat="44.49454" lon="-1.07848">
        <ele>18</ele>
        <time>2019-08-11T15:28:25Z</time>
      </trkpt>
      <trkpt lat="44.49454" lon="-1.07848">
        <ele>18</ele>
        <time>2019-08-11T15:28:30Z</time>
      </trkpt>
      <trkpt lat="44.49454" lon="-1.07848">
        <ele>18</ele>
        <time>2019-08-11T15:28:40Z</time>
      </trkpt>
      <trkpt lat="44.49454" lon="-1.07849">
        <ele>18</ele>
        <time>2019-08-11T15:28:45Z</time>
      </trkpt>
      <trkpt lat="44.49454" lon="-1.07849">
        <ele>18</ele>
        <time>2019-08-11T15:28:55Z</time>
      </trkpt>
      <trkpt lat="44.49454" lon="-1.07849">
        <ele>18</ele>
        <time>2019-08-11T15:29:00Z</time>
      </trkpt>
      <trkpt lat="44.49454" lon="-1.07849">
        <ele>18</ele>
        <time>2019-08-11T15:29:10Z</time>
      </trkpt>
      <trkpt lat="44.49455" lon="-1.07845">
        <ele>18</ele>
        <time>2019-08-11T15:29:20Z</time>
      </trkpt>
      <trkpt lat="44.4946" lon="-1.07851">
        <ele>18</ele>
        <time>2019-08-11T15:29:25Z</time>
      </trkpt>
      <trkpt lat="44.49463" lon="-1.07852">
        <ele>18</ele>
        <time>2019-08-11T15:29:35Z</time>
      </trkpt>
      <trkpt lat="44.49457" lon="-1.07848">
        <ele>18</ele>
        <time>2019-08-11T15:29:40Z</time>
      </trkpt>
      <trkpt lat="44.4945" lon="-1.0786">
        <ele>18</ele>
        <time>2019-08-11T15:29:50Z</time>
      </trkpt>
      <trkpt lat="44.49452" lon="-1.07868">
        <ele>18</ele>
        <time>2019-08-11T15:29:55Z</time>
      </trkpt>
      <trkpt lat="44.49451" lon="-1.07876">
        <ele>18</ele>
        <time>2019-08-11T15:30:05Z</time>
      </trkpt>
      <trkpt lat="44.49451" lon="-1.07876">
        <ele>18</ele>
        <time>2019-08-11T15:30:10Z</time>
      </trkpt>
      <trkpt lat="44.49452" lon="-1.07877">
        <ele>18</ele>
        <time>2019-08-11T15:30:20Z</time>
      </trkpt>
      <trkpt lat="44.49452" lon="-1.07876">
        <ele>18</ele>
        <time>2019-08-11T15:30:25Z</time>
      </trkpt>
      <trkpt lat="44.4945" lon="-1.07876">
        <ele>18</ele>
        <time>2019-08-11T15:30:35Z</time>
      </trkpt>
      <trkpt lat="44.4945" lon="-1.07877">
        <ele>18</ele>
        <time>2019-08-11T15:30:40Z</time>
      </trkpt>
      <trkpt lat="44.49451" lon="-1.07879">
        <ele>18</ele>
        <time>2019-08-11T15:30:50Z</time>
      </trkpt>
      <trkpt lat="44.49448" lon="-1.07878">
        <ele>18</ele>
        <time>2019-08-11T15:31:00Z</time>
      </trkpt>
      <trkpt lat="44.49449" lon="-1.07878">
        <ele>18</ele>
        <time>2019-08-11T15:31:05Z</time>
      </trkpt>
      <trkpt lat="44.4945" lon="-1.07881">
        <ele>18</ele>
        <time>2019-08-11T15:31:15Z</time>
      </trkpt>
      <trkpt lat="44.49451" lon="-1.07881">
        <ele>18</ele>
        <time>2019-08-11T15:31:20Z</time>
      </trkpt>
      <trkpt lat="44.49452" lon="-1.07882">
        <ele>18</ele>
        <time>2019-08-11T15:31:30Z</time>
      </trkpt>
      <trkpt lat="44.49452" lon="-1.07883">
        <ele>18</ele>
        <time>2019-08-11T15:31:35Z</time>
      </trkpt>
      <trkpt lat="44.49452" lon="-1.07883">
        <ele>18</ele>
        <time>2019-08-11T15:31:45Z</time>
      </trkpt>
      <trkpt lat="44.49452" lon="-1.07882">
        <ele>18</ele>
        <time>2019-08-11T15:31:50Z</time>
      </trkpt>
      <trkpt lat="44.4945" lon="-1.07884">
        <ele>18</ele>
        <time>2019-08-11T15:32:00Z</time>
      </trkpt>
      <trkpt lat="44.4945" lon="-1.07885">
        <ele>18</ele>
        <time>2019-08-11T15:32:05Z</time>
      </trkpt>
      <trkpt lat="44.4945" lon="-1.07884">
        <ele>18</ele>
        <time>2019-08-11T15:32:15Z</time>
      </trkpt>
      <trkpt lat="44.49448" lon="-1.07885">
        <ele>18</ele>
        <time>2019-08-11T15:32:20Z</time>
      </trkpt>
      <trkpt lat="44.49445" lon="-1.07887">
        <ele>18</ele>
        <time>2019-08-11T15:32:30Z</time>
      </trkpt>
      <trkpt lat="44.49444" lon="-1.079">
        <ele>18</ele>
        <time>2019-08-11T15:32:40Z</time>
      </trkpt>
      <trkpt lat="44.49443" lon="-1.07908">
        <ele>18</ele>
        <time>2019-08-11T15:32:45Z</time>
      </trkpt>
      <trkpt lat="44.49438" lon="-1.07917">
        <ele>18</ele>
        <time>2019-08-11T15:32:55Z</time>
      </trkpt>
      <trkpt lat="44.49435" lon="-1.07921">
        <ele>18</ele>
        <time>2019-08-11T15:33:00Z</time>
      </trkpt>
      <trkpt lat="44.49431" lon="-1.07932">
        <ele>18</ele>
        <time>2019-08-11T15:33:10Z</time>
      </trkpt>
      <trkpt lat="44.49426" lon="-1.07933">
        <ele>18</ele>
        <time>2019-08-11T15:33:15Z</time>
      </trkpt>
      <trkpt lat="44.49421" lon="-1.07942">
        <ele>18</ele>
        <time>2019-08-11T15:33:25Z</time>
      </trkpt>
      <trkpt lat="44.4942" lon="-1.07946">
        <ele>18</ele>
        <time>2019-08-11T15:33:30Z</time>
      </trkpt>
      <trkpt lat="44.49419" lon="-1.07949">
        <ele>18</ele>
        <time>2019-08-11T15:33:40Z</time>
      </trkpt>
      <trkpt lat="44.49419" lon="-1.0795">
        <ele>18</ele>
        <time>2019-08-11T15:33:45Z</time>
      </trkpt>
      <trkpt lat="44.49419" lon="-1.0795">
        <ele>18</ele>
        <time>2019-08-11T15:33:55Z</time>
      </trkpt>
      <trkpt lat="44.49419" lon="-1.0795">
        <ele>18</ele>
        <time>2019-08-11T15:34:00Z</time>
      </trkpt>
      <trkpt lat="44.49421" lon="-1.07949">
        <ele>18</ele>
        <time>2019-08-11T15:34:10Z</time>
      </trkpt>
      <trkpt lat="44.49421" lon="-1.07948">
        <ele>18</ele>
        <time>2019-08-11T15:34:20Z</time>
      </trkpt>
      <trkpt lat="44.49421" lon="-1.07949">
        <ele>18</ele>
        <time>2019-08-11T15:34:25Z</time>
      </trkpt>
      <trkpt lat="44.49421" lon="-1.07948">
        <ele>18</ele>
        <time>2019-08-11T15:34:35Z</time>
      </trkpt>
      <trkpt lat="44.49421" lon="-1.07949">
        <ele>18</ele>
        <time>2019-08-11T15:34:40Z</time>
      </trkpt>
      <trkpt lat="44.49421" lon="-1.07949">
        <ele>18</ele>
        <time>2019-08-11T15:34:50Z</time>
      </trkpt>
      <trkpt lat="44.49421" lon="-1.0795">
        <ele>18</ele>
        <time>2019-08-11T15:34:55Z</time>
      </trkpt>
      <trkpt lat="44.49421" lon="-1.07947">
        <ele>18</ele>
        <time>2019-08-11T15:35:05Z</time>
      </trkpt>
      <trkpt lat="44.49421" lon="-1.07947">
        <ele>18</ele>
        <time>2019-08-11T15:35:10Z</time>
      </trkpt>
      <trkpt lat="44.49421" lon="-1.07946">
        <ele>18</ele>
        <time>2019-08-11T15:35:20Z</time>
      </trkpt>
      <trkpt lat="44.49421" lon="-1.07946">
        <ele>18</ele>
        <time>2019-08-11T15:35:25Z</time>
      </trkpt>
      <trkpt lat="44.49421" lon="-1.07945">
        <ele>18</ele>
        <time>2019-08-11T15:35:35Z</time>
      </trkpt>
      <trkpt lat="44.49421" lon="-1.07945">
        <ele>18</ele>
        <time>2019-08-11T15:35:45Z</time>
      </trkpt>
      <trkpt lat="44.49421" lon="-1.07946">
        <ele>18</ele>
        <time>2019-08-11T15:35:50Z</time>
      </trkpt>
      <trkpt lat="44.49421" lon="-1.07946">
        <ele>18</ele>
        <time>2019-08-11T15:36:00Z</time>
      </trkpt>
      <trkpt lat="44.49421" lon="-1.07946">
        <ele>18</ele>
        <time>2019-08-11T15:36:05Z</time>
      </trkpt>
      <trkpt lat="44.49421" lon="-1.07943">
        <ele>18</ele>
        <time>2019-08-11T15:36:15Z</time>
      </trkpt>
      <trkpt lat="44.49422" lon="-1.07943">
        <ele>18</ele>
        <time>2019-08-11T15:36:20Z</time>
      </trkpt>
      <trkpt lat="44.49422" lon="-1.07943">
        <ele>18</ele>
        <time>2019-08-11T15:36:30Z</time>
      </trkpt>
      <trkpt lat="44.49422" lon="-1.07942">
        <ele>18</ele>
        <time>2019-08-11T15:36:35Z</time>
      </trkpt>
      <trkpt lat="44.49421" lon="-1.07942">
        <ele>18</ele>
        <time>2019-08-11T15:36:45Z</time>
      </trkpt>
      <trkpt lat="44.49421" lon="-1.07943">
        <ele>18</ele>
        <time>2019-08-11T15:36:50Z</time>
      </trkpt>
      <trkpt lat="44.49421" lon="-1.07942">
        <ele>18</ele>
        <time>2019-08-11T15:37:00Z</time>
      </trkpt>
      <trkpt lat="44.49419" lon="-1.07934">
        <ele>18</ele>
        <time>2019-08-11T15:37:05Z</time>
      </trkpt>
      <trkpt lat="44.49418" lon="-1.07936">
        <ele>18</ele>
        <time>2019-08-11T15:37:15Z</time>
      </trkpt>
      <trkpt lat="44.49412" lon="-1.07936">
        <ele>18</ele>
        <time>2019-08-11T15:37:25Z</time>
      </trkpt>
      <trkpt lat="44.49412" lon="-1.07933">
        <ele>18</ele>
        <time>2019-08-11T15:37:30Z</time>
      </trkpt>
      <trkpt lat="44.49414" lon="-1.07927">
        <ele>18</ele>
        <time>2019-08-11T15:37:40Z</time>
      </trkpt>
      <trkpt lat="44.49416" lon="-1.07923">
        <ele>18</ele>
        <time>2019-08-11T15:37:45Z</time>
      </trkpt>
      <trkpt lat="44.49424" lon="-1.07919">
        <ele>18</ele>
        <time>2019-08-11T15:37:55Z</time>
      </trkpt>
      <trkpt lat="44.49428" lon="-1.07915">
        <ele>18</ele>
        <time>2019-08-11T15:38:00Z</time>
      </trkpt>
      <trkpt lat="44.49436" lon="-1.07909">
        <ele>18</ele>
        <time>2019-08-11T15:38:10Z</time>
      </trkpt>
      <trkpt lat="44.4944" lon="-1.07906">
        <ele>18</ele>
        <time>2019-08-11T15:38:15Z</time>
      </trkpt>
      <trkpt lat="44.49447" lon="-1.07897">
        <ele>18</ele>
        <time>2019-08-11T15:38:25Z</time>
      </trkpt>
      <trkpt lat="44.4945" lon="-1.07892">
        <ele>18</ele>
        <time>2019-08-11T15:38:30Z</time>
      </trkpt>
      <trkpt lat="44.49453" lon="-1.07888">
        <ele>18</ele>
        <time>2019-08-11T15:38:40Z</time>
      </trkpt>
      <trkpt lat="44.49453" lon="-1.07888">
        <ele>18</ele>
        <time>2019-08-11T15:38:45Z</time>
      </trkpt>
      <trkpt lat="44.49453" lon="-1.07889">
        <ele>18</ele>
        <time>2019-08-11T15:38:55Z</time>
      </trkpt>
      <trkpt lat="44.49453" lon="-1.07888">
        <ele>18</ele>
        <time>2019-08-11T15:39:05Z</time>
      </trkpt>
      <trkpt lat="44.49453" lon="-1.07889">
        <ele>18</ele>
        <time>2019-08-11T15:39:10Z</time>
      </trkpt>
      <trkpt lat="44.49454" lon="-1.07884">
        <ele>18</ele>
        <time>2019-08-11T15:39:20Z</time>
      </trkpt>
      <trkpt lat="44.49457" lon="-1.07882">
        <ele>18</ele>
        <time>2019-08-11T15:39:25Z</time>
      </trkpt>
      <trkpt lat="44.49464" lon="-1.07879">
        <ele>18</ele>
        <time>2019-08-11T15:39:35Z</time>
      </trkpt>
      <trkpt lat="44.49463" lon="-1.07879">
        <ele>18</ele>
        <time>2019-08-11T15:39:40Z</time>
      </trkpt>
      <trkpt lat="44.49464" lon="-1.07878">
        <ele>18</ele>
        <time>2019-08-11T15:39:50Z</time>
      </trkpt>
      <trkpt lat="44.49464" lon="-1.07878">
        <ele>18</ele>
        <time>2019-08-11T15:39:55Z</time>
      </trkpt>
      <trkpt lat="44.49462" lon="-1.07879">
        <ele>18</ele>
        <time>2019-08-11T15:40:05Z</time>
      </trkpt>
      <trkpt lat="44.49462" lon="-1.07879">
        <ele>18</ele>
        <time>2019-08-11T15:40:10Z</time>
      </trkpt>
      <trkpt lat="44.49462" lon="-1.07879">
        <ele>18</ele>
        <time>2019-08-11T15:40:20Z</time>
      </trkpt>
      <trkpt lat="44.4946" lon="-1.07879">
        <ele>18</ele>
        <time>2019-08-11T15:40:25Z</time>
      </trkpt>
      <trkpt lat="44.4946" lon="-1.07878">
        <ele>18</ele>
        <time>2019-08-11T15:40:35Z</time>
      </trkpt>
      <trkpt lat="44.4946" lon="-1.07878">
        <ele>18</ele>
        <time>2019-08-11T15:40:45Z</time>
      </trkpt>
      <trkpt lat="44.49461" lon="-1.07878">
        <ele>18</ele>
        <time>2019-08-11T15:40:50Z</time>
      </trkpt>
      <trkpt lat="44.49463" lon="-1.07876">
        <ele>18</ele>
        <time>2019-08-11T15:41:00Z</time>
      </trkpt>
      <trkpt lat="44.49463" lon="-1.07875">
        <ele>18</ele>
        <time>2019-08-11T15:41:05Z</time>
      </trkpt>
      <trkpt lat="44.49463" lon="-1.07874">
        <ele>18</ele>
        <time>2019-08-11T15:41:15Z</time>
      </trkpt>
      <trkpt lat="44.49463" lon="-1.07874">
        <ele>18</ele>
        <time>2019-08-11T15:41:20Z</time>
      </trkpt>
      <trkpt lat="44.49466" lon="-1.07874">
        <ele>18</ele>
        <time>2019-08-11T15:41:30Z</time>
      </trkpt>
      <trkpt lat="44.49467" lon="-1.07872">
        <ele>18</ele>
        <time>2019-08-11T15:41:35Z</time>
      </trkpt>
      <trkpt lat="44.49468" lon="-1.07869">
        <ele>19</ele>
        <time>2019-08-11T15:41:45Z</time>
      </trkpt>
      <trkpt lat="44.49467" lon="-1.07869">
        <ele>18</ele>
        <time>2019-08-11T15:41:50Z</time>
      </trkpt>
      <trkpt lat="44.49466" lon="-1.07869">
        <ele>18</ele>
        <time>2019-08-11T15:42:00Z</time>
      </trkpt>
      <trkpt lat="44.49466" lon="-1.07869">
        <ele>18</ele>
        <time>2019-08-11T15:42:05Z</time>
      </trkpt>
      <trkpt lat="44.49465" lon="-1.07868">
        <ele>18</ele>
        <time>2019-08-11T15:42:15Z</time>
      </trkpt>
      <trkpt lat="44.49466" lon="-1.07866">
        <ele>18</ele>
        <time>2019-08-11T15:42:25Z</time>
      </trkpt>
      <trkpt lat="44.49468" lon="-1.07868">
        <ele>19</ele>
        <time>2019-08-11T15:42:30Z</time>
      </trkpt>
      <trkpt lat="44.49469" lon="-1.07869">
        <ele>19</ele>
        <time>2019-08-11T15:42:40Z</time>
      </trkpt>
      <trkpt lat="44.49469" lon="-1.07868">
        <ele>19</ele>
        <time>2019-08-11T15:42:45Z</time>
      </trkpt>
      <trkpt lat="44.49468" lon="-1.0786">
        <ele>19</ele>
        <time>2019-08-11T15:42:55Z</time>
      </trkpt>
      <trkpt lat="44.49467" lon="-1.07857">
        <ele>19</ele>
        <time>2019-08-11T15:43:00Z</time>
      </trkpt>
      <trkpt lat="44.49467" lon="-1.07856">
        <ele>18</ele>
        <time>2019-08-11T15:43:10Z</time>
      </trkpt>
      <trkpt lat="44.49467" lon="-1.07856">
        <ele>19</ele>
        <time>2019-08-11T15:43:15Z</time>
      </trkpt>
      <trkpt lat="44.49466" lon="-1.07859">
        <ele>18</ele>
        <time>2019-08-11T15:43:25Z</time>
      </trkpt>
      <trkpt lat="44.49463" lon="-1.07862">
        <ele>18</ele>
        <time>2019-08-11T15:43:30Z</time>
      </trkpt>
      <trkpt lat="44.49455" lon="-1.07869">
        <ele>18</ele>
        <time>2019-08-11T15:43:40Z</time>
      </trkpt>
      <trkpt lat="44.49459" lon="-1.07872">
        <ele>18</ele>
        <time>2019-08-11T15:43:50Z</time>
      </trkpt>
      <trkpt lat="44.49463" lon="-1.0787">
        <ele>18</ele>
        <time>2019-08-11T15:43:55Z</time>
      </trkpt>
      <trkpt lat="44.49471" lon="-1.07865">
        <ele>19</ele>
        <time>2019-08-11T15:44:05Z</time>
      </trkpt>
      <trkpt lat="44.49471" lon="-1.07865">
        <ele>19</ele>
        <time>2019-08-11T15:44:10Z</time>
      </trkpt>
      <trkpt lat="44.49473" lon="-1.07868">
        <ele>19</ele>
        <time>2019-08-11T15:44:20Z</time>
      </trkpt>
      <trkpt lat="44.49475" lon="-1.07866">
        <ele>19</ele>
        <time>2019-08-11T15:44:25Z</time>
      </trkpt>
      <trkpt lat="44.49478" lon="-1.07867">
        <ele>19</ele>
        <time>2019-08-11T15:44:35Z</time>
      </trkpt>
      <trkpt lat="44.49479" lon="-1.07866">
        <ele>19</ele>
        <time>2019-08-11T15:44:40Z</time>
      </trkpt>
      <trkpt lat="44.49477" lon="-1.07871">
        <ele>19</ele>
        <time>2019-08-11T15:44:50Z</time>
      </trkpt>
      <trkpt lat="44.4947" lon="-1.07874">
        <ele>19</ele>
        <time>2019-08-11T15:44:55Z</time>
      </trkpt>
      <trkpt lat="44.49459" lon="-1.07863">
        <ele>18</ele>
        <time>2019-08-11T15:45:05Z</time>
      </trkpt>
      <trkpt lat="44.49457" lon="-1.07861">
        <ele>18</ele>
        <time>2019-08-11T15:45:10Z</time>
      </trkpt>
      <trkpt lat="44.49457" lon="-1.07858">
        <ele>18</ele>
        <time>2019-08-11T15:45:20Z</time>
      </trkpt>
      <trkpt lat="44.49457" lon="-1.07858">
        <ele>18</ele>
        <time>2019-08-11T15:45:30Z</time>
      </trkpt>
      <trkpt lat="44.49457" lon="-1.07858">
        <ele>18</ele>
        <time>2019-08-11T15:45:35Z</time>
      </trkpt>
      <trkpt lat="44.49457" lon="-1.07858">
        <ele>18</ele>
        <time>2019-08-11T15:45:45Z</time>
      </trkpt>
      <trkpt lat="44.49457" lon="-1.07858">
        <ele>18</ele>
        <time>2019-08-11T15:45:50Z</time>
      </trkpt>
      <trkpt lat="44.4946" lon="-1.07865">
        <ele>18</ele>
        <time>2019-08-11T15:46:00Z</time>
      </trkpt>
      <trkpt lat="44.4946" lon="-1.07866">
        <ele>18</ele>
        <time>2019-08-11T15:46:05Z</time>
      </trkpt>
      <trkpt lat="44.4946" lon="-1.07864">
        <ele>18</ele>
        <time>2019-08-11T15:46:15Z</time>
      </trkpt>
      <trkpt lat="44.4946" lon="-1.07865">
        <ele>18</ele>
        <time>2019-08-11T15:46:20Z</time>
      </trkpt>
      <trkpt lat="44.4946" lon="-1.07865">
        <ele>18</ele>
        <time>2019-08-11T15:46:30Z</time>
      </trkpt>
      <trkpt lat="44.4946" lon="-1.07865">
        <ele>18</ele>
        <time>2019-08-11T15:46:35Z</time>
      </trkpt>
      <trkpt lat="44.49469" lon="-1.07864">
        <ele>19</ele>
        <time>2019-08-11T15:46:45Z</time>
      </trkpt>
      <trkpt lat="44.49469" lon="-1.07867">
        <ele>19</ele>
        <time>2019-08-11T15:46:50Z</time>
      </trkpt>
      <trkpt lat="44.49471" lon="-1.07866">
        <ele>19</ele>
        <time>2019-08-11T15:47:00Z</time>
      </trkpt>
      <trkpt lat="44.49474" lon="-1.0786">
        <ele>20</ele>
        <time>2019-08-11T15:47:10Z</time>
      </trkpt>
      <trkpt lat="44.49476" lon="-1.07859">
        <ele>20</ele>
        <time>2019-08-11T15:47:15Z</time>
      </trkpt>
      <trkpt lat="44.49484" lon="-1.07857">
        <ele>21</ele>
        <time>2019-08-11T15:47:25Z</time>
      </trkpt>
      <trkpt lat="44.49488" lon="-1.07861">
        <ele>21</ele>
        <time>2019-08-11T15:47:30Z</time>
      </trkpt>
      <trkpt lat="44.49489" lon="-1.07853">
        <ele>22</ele>
        <time>2019-08-11T15:47:40Z</time>
      </trkpt>
      <trkpt lat="44.49488" lon="-1.07848">
        <ele>22</ele>
        <time>2019-08-11T15:47:45Z</time>
      </trkpt>
      <trkpt lat="44.49482" lon="-1.0783">
        <ele>21</ele>
        <time>2019-08-11T15:47:55Z</time>
      </trkpt>
      <trkpt lat="44.49482" lon="-1.07812">
        <ele>24</ele>
        <time>2019-08-11T15:48:00Z</time>
      </trkpt>
      <trkpt lat="44.49495" lon="-1.07787">
        <ele>27</ele>
        <time>2019-08-11T15:48:10Z</time>
      </trkpt>
      <trkpt lat="44.49502" lon="-1.07777">
        <ele>28</ele>
        <time>2019-08-11T15:48:15Z</time>
      </trkpt>
      <trkpt lat="44.49512" lon="-1.07754">
        <ele>29</ele>
        <time>2019-08-11T15:48:25Z</time>
      </trkpt>
      <trkpt lat="44.49511" lon="-1.07737">
        <ele>30</ele>
        <time>2019-08-11T15:48:30Z</time>
      </trkpt>
      <trkpt lat="44.49509" lon="-1.07688">
        <ele>30</ele>
        <time>2019-08-11T15:48:40Z</time>
      </trkpt>
      <trkpt lat="44.49508" lon="-1.0764">
        <ele>30</ele>
        <time>2019-08-11T15:48:50Z</time>
      </trkpt>
      <trkpt lat="44.49516" lon="-1.07625">
        <ele>30</ele>
        <time>2019-08-11T15:48:55Z</time>
      </trkpt>
      <trkpt lat="44.49504" lon="-1.07581">
        <ele>29</ele>
        <time>2019-08-11T15:49:05Z</time>
      </trkpt>
      <trkpt lat="44.49496" lon="-1.07563">
        <ele>29</ele>
        <time>2019-08-11T15:49:10Z</time>
      </trkpt>
      <trkpt lat="44.49506" lon="-1.07563">
        <ele>29</ele>
        <time>2019-08-11T15:49:20Z</time>
      </trkpt>
      <trkpt lat="44.49514" lon="-1.07579">
        <ele>29</ele>
        <time>2019-08-11T15:49:25Z</time>
      </trkpt>
      <trkpt lat="44.49529" lon="-1.07599">
        <ele>30</ele>
        <time>2019-08-11T15:49:35Z</time>
      </trkpt>
      <trkpt lat="44.49538" lon="-1.07597">
        <ele>30</ele>
        <time>2019-08-11T15:49:40Z</time>
      </trkpt>
      <trkpt lat="44.49555" lon="-1.07583">
        <ele>30</ele>
        <time>2019-08-11T15:49:50Z</time>
      </trkpt>
      <trkpt lat="44.4957" lon="-1.07578">
        <ele>30</ele>
        <time>2019-08-11T15:49:55Z</time>
      </trkpt>
      <trkpt lat="44.4959" lon="-1.07609">
        <ele>31</ele>
        <time>2019-08-11T15:50:05Z</time>
      </trkpt>
      <trkpt lat="44.49609" lon="-1.07606">
        <ele>31</ele>
        <time>2019-08-11T15:50:10Z</time>
      </trkpt>
      <trkpt lat="44.49644" lon="-1.07599">
        <ele>32</ele>
        <time>2019-08-11T15:50:20Z</time>
      </trkpt>
      <trkpt lat="44.49679" lon="-1.07592">
        <ele>32</ele>
        <time>2019-08-11T15:50:30Z</time>
      </trkpt>
      <trkpt lat="44.49697" lon="-1.07585">
        <ele>32</ele>
        <time>2019-08-11T15:50:35Z</time>
      </trkpt>
      <trkpt lat="44.49721" lon="-1.07546">
        <ele>33</ele>
        <time>2019-08-11T15:50:45Z</time>
      </trkpt>
      <trkpt lat="44.49741" lon="-1.07537">
        <ele>33</ele>
        <time>2019-08-11T15:50:50Z</time>
      </trkpt>
      <trkpt lat="44.49785" lon="-1.07515">
        <ele>33</ele>
        <time>2019-08-11T15:51:00Z</time>
      </trkpt>
      <trkpt lat="44.49807" lon="-1.07503">
        <ele>32</ele>
        <time>2019-08-11T15:51:05Z</time>
      </trkpt>
      <trkpt lat="44.49805" lon="-1.07463">
        <ele>33</ele>
        <time>2019-08-11T15:51:15Z</time>
      </trkpt>
      <trkpt lat="44.49801" lon="-1.07441">
        <ele>33</ele>
        <time>2019-08-11T15:51:20Z</time>
      </trkpt>
      <trkpt lat="44.49827" lon="-1.07422">
        <ele>33</ele>
        <time>2019-08-11T15:51:30Z</time>
      </trkpt>
      <trkpt lat="44.49844" lon="-1.07412">
        <ele>33</ele>
        <time>2019-08-11T15:51:35Z</time>
      </trkpt>
      <trkpt lat="44.49853" lon="-1.07396">
        <ele>33</ele>
        <time>2019-08-11T15:51:45Z</time>
      </trkpt>
      <trkpt lat="44.49853" lon="-1.07396">
        <ele>33</ele>
        <time>2019-08-11T15:51:55Z</time>
      </trkpt>
      <trkpt lat="44.49853" lon="-1.07396">
        <ele>33</ele>
        <time>2019-08-11T15:52:00Z</time>
      </trkpt>
      <trkpt lat="44.49853" lon="-1.07396">
        <ele>33</ele>
        <time>2019-08-11T15:52:10Z</time>
      </trkpt>
      <trkpt lat="44.49853" lon="-1.07396">
        <ele>33</ele>
        <time>2019-08-11T15:52:15Z</time>
      </trkpt>
      <trkpt lat="44.49855" lon="-1.07395">
        <ele>33</ele>
        <time>2019-08-11T15:52:25Z</time>
      </trkpt>
      <trkpt lat="44.49854" lon="-1.07396">
        <ele>33</ele>
        <time>2019-08-11T15:52:30Z</time>
      </trkpt>
      <trkpt lat="44.49853" lon="-1.07395">
        <ele>33</ele>
        <time>2019-08-11T15:52:40Z</time>
      </trkpt>
      <trkpt lat="44.49853" lon="-1.07395">
        <ele>33</ele>
        <time>2019-08-11T15:52:45Z</time>
      </trkpt>
      <trkpt lat="44.49853" lon="-1.07393">
        <ele>33</ele>
        <time>2019-08-11T15:52:55Z</time>
      </trkpt>
      <trkpt lat="44.49853" lon="-1.07393">
        <ele>33</ele>
        <time>2019-08-11T15:53:00Z</time>
      </trkpt>
      <trkpt lat="44.49856" lon="-1.07391">
        <ele>34</ele>
        <time>2019-08-11T15:53:10Z</time>
      </trkpt>
      <trkpt lat="44.49857" lon="-1.0739">
        <ele>34</ele>
        <time>2019-08-11T15:53:15Z</time>
      </trkpt>
      <trkpt lat="44.49856" lon="-1.07388">
        <ele>34</ele>
        <time>2019-08-11T15:53:25Z</time>
      </trkpt>
      <trkpt lat="44.49858" lon="-1.07398">
        <ele>33</ele>
        <time>2019-08-11T15:53:35Z</time>
      </trkpt>
      <trkpt lat="44.4986" lon="-1.074">
        <ele>33</ele>
        <time>2019-08-11T15:53:40Z</time>
      </trkpt>
      <trkpt lat="44.49853" lon="-1.07417">
        <ele>33</ele>
        <time>2019-08-11T15:53:50Z</time>
      </trkpt>
      <trkpt lat="44.4986" lon="-1.07436">
        <ele>33</ele>
        <time>2019-08-11T15:53:55Z</time>
      </trkpt>
      <trkpt lat="44.49864" lon="-1.07464">
        <ele>32</ele>
        <time>2019-08-11T15:54:05Z</time>
      </trkpt>
      <trkpt lat="44.49864" lon="-1.07467">
        <ele>32</ele>
        <time>2019-08-11T15:54:10Z</time>
      </trkpt>
      <trkpt lat="44.49864" lon="-1.07466">
        <ele>32</ele>
        <time>2019-08-11T15:54:20Z</time>
      </trkpt>
      <trkpt lat="44.49864" lon="-1.07466">
        <ele>32</ele>
        <time>2019-08-11T15:54:25Z</time>
      </trkpt>
      <trkpt lat="44.49862" lon="-1.07464">
        <ele>32</ele>
        <time>2019-08-11T15:54:35Z</time>
      </trkpt>
      <trkpt lat="44.49861" lon="-1.07458">
        <ele>33</ele>
        <time>2019-08-11T15:54:40Z</time>
      </trkpt>
      <trkpt lat="44.4986" lon="-1.07448">
        <ele>33</ele>
        <time>2019-08-11T15:54:50Z</time>
      </trkpt>
      <trkpt lat="44.4986" lon="-1.07448">
        <ele>33</ele>
        <time>2019-08-11T15:54:55Z</time>
      </trkpt>
      <trkpt lat="44.4986" lon="-1.0745">
        <ele>33</ele>
        <time>2019-08-11T15:55:05Z</time>
      </trkpt>
      <trkpt lat="44.49862" lon="-1.07455">
        <ele>33</ele>
        <time>2019-08-11T15:55:15Z</time>
      </trkpt>
      <trkpt lat="44.49863" lon="-1.07455">
        <ele>33</ele>
        <time>2019-08-11T15:55:20Z</time>
      </trkpt>
      <trkpt lat="44.49867" lon="-1.07461">
        <ele>32</ele>
        <time>2019-08-11T15:55:30Z</time>
      </trkpt>
      <trkpt lat="44.49868" lon="-1.0746">
        <ele>32</ele>
        <time>2019-08-11T15:55:35Z</time>
      </trkpt>
      <trkpt lat="44.49873" lon="-1.07458">
        <ele>32</ele>
        <time>2019-08-11T15:55:45Z</time>
      </trkpt>
      <trkpt lat="44.49873" lon="-1.07457">
        <ele>32</ele>
        <time>2019-08-11T15:55:50Z</time>
      </trkpt>
      <trkpt lat="44.49871" lon="-1.07455">
        <ele>32</ele>
        <time>2019-08-11T15:56:00Z</time>
      </trkpt>
      <trkpt lat="44.49868" lon="-1.07453">
        <ele>32</ele>
        <time>2019-08-11T15:56:05Z</time>
      </trkpt>
      <trkpt lat="44.4986" lon="-1.07452">
        <ele>33</ele>
        <time>2019-08-11T15:56:15Z</time>
      </trkpt>
      <trkpt lat="44.4986" lon="-1.07456">
        <ele>33</ele>
        <time>2019-08-11T15:56:20Z</time>
      </trkpt>
      <trkpt lat="44.49859" lon="-1.07459">
        <ele>33</ele>
        <time>2019-08-11T15:56:30Z</time>
      </trkpt>
      <trkpt lat="44.4986" lon="-1.0746">
        <ele>33</ele>
        <time>2019-08-11T15:56:35Z</time>
      </trkpt>
      <trkpt lat="44.49861" lon="-1.07466">
        <ele>32</ele>
        <time>2019-08-11T15:56:45Z</time>
      </trkpt>
      <trkpt lat="44.49862" lon="-1.07466">
        <ele>32</ele>
        <time>2019-08-11T15:56:55Z</time>
      </trkpt>
      <trkpt lat="44.49866" lon="-1.07465">
        <ele>32</ele>
        <time>2019-08-11T15:57:00Z</time>
      </trkpt>
      <trkpt lat="44.49871" lon="-1.07463">
        <ele>32</ele>
        <time>2019-08-11T15:57:10Z</time>
      </trkpt>
      <trkpt lat="44.49872" lon="-1.07464">
        <ele>32</ele>
        <time>2019-08-11T15:57:15Z</time>
      </trkpt>
      <trkpt lat="44.49871" lon="-1.07464">
        <ele>32</ele>
        <time>2019-08-11T15:57:25Z</time>
      </trkpt>
      <trkpt lat="44.4987" lon="-1.07464">
        <ele>32</ele>
        <time>2019-08-11T15:57:30Z</time>
      </trkpt>
      <trkpt lat="44.49871" lon="-1.07457">
        <ele>32</ele>
        <time>2019-08-11T15:57:40Z</time>
      </trkpt>
      <trkpt lat="44.4987" lon="-1.07454">
        <ele>32</ele>
        <time>2019-08-11T15:57:45Z</time>
      </trkpt>
      <trkpt lat="44.49868" lon="-1.0745">
        <ele>32</ele>
        <time>2019-08-11T15:57:55Z</time>
      </trkpt>
      <trkpt lat="44.49868" lon="-1.07449">
        <ele>32</ele>
        <time>2019-08-11T15:58:00Z</time>
      </trkpt>
      <trkpt lat="44.49868" lon="-1.07445">
        <ele>32</ele>
        <time>2019-08-11T15:58:10Z</time>
      </trkpt>
      <trkpt lat="44.49867" lon="-1.07445">
        <ele>32</ele>
        <time>2019-08-11T15:58:15Z</time>
      </trkpt>
      <trkpt lat="44.49865" lon="-1.07451">
        <ele>32</ele>
        <time>2019-08-11T15:58:25Z</time>
      </trkpt>
      <trkpt lat="44.49863" lon="-1.07454">
        <ele>33</ele>
        <time>2019-08-11T15:58:35Z</time>
      </trkpt>
      <trkpt lat="44.49863" lon="-1.07455">
        <ele>33</ele>
        <time>2019-08-11T15:58:40Z</time>
      </trkpt>
      <trkpt lat="44.4986" lon="-1.07454">
        <ele>33</ele>
        <time>2019-08-11T15:58:50Z</time>
      </trkpt>
      <trkpt lat="44.49861" lon="-1.07455">
        <ele>33</ele>
        <time>2019-08-11T15:58:55Z</time>
      </trkpt>
      <trkpt lat="44.49871" lon="-1.0747">
        <ele>32</ele>
        <time>2019-08-11T15:59:05Z</time>
      </trkpt>
      <trkpt lat="44.49872" lon="-1.07472">
        <ele>32</ele>
        <time>2019-08-11T15:59:10Z</time>
      </trkpt>
      <trkpt lat="44.49874" lon="-1.07476">
        <ele>32</ele>
        <time>2019-08-11T15:59:20Z</time>
      </trkpt>
      <trkpt lat="44.49875" lon="-1.07477">
        <ele>32</ele>
        <time>2019-08-11T15:59:25Z</time>
      </trkpt>
      <trkpt lat="44.49875" lon="-1.07478">
        <ele>32</ele>
        <time>2019-08-11T15:59:35Z</time>
      </trkpt>
      <trkpt lat="44.49875" lon="-1.07477">
        <ele>32</ele>
        <time>2019-08-11T15:59:40Z</time>
      </trkpt>
      <trkpt lat="44.49874" lon="-1.07473">
        <ele>32</ele>
        <time>2019-08-11T15:59:50Z</time>
      </trkpt>
      <trkpt lat="44.49872" lon="-1.07471">
        <ele>32</ele>
        <time>2019-08-11T16:00:00Z</time>
      </trkpt>
      <trkpt lat="44.49868" lon="-1.07465">
        <ele>32</ele>
        <time>2019-08-11T16:00:05Z</time>
      </trkpt>
      <trkpt lat="44.49864" lon="-1.07462">
        <ele>32</ele>
        <time>2019-08-11T16:00:15Z</time>
      </trkpt>
      <trkpt lat="44.49864" lon="-1.07461">
        <ele>32</ele>
        <time>2019-08-11T16:00:20Z</time>
      </trkpt>
      <trkpt lat="44.49866" lon="-1.07461">
        <ele>32</ele>
        <time>2019-08-11T16:00:30Z</time>
      </trkpt>
      <trkpt lat="44.49865" lon="-1.07458">
        <ele>32</ele>
        <time>2019-08-11T16:00:35Z</time>
      </trkpt>
      <trkpt lat="44.49862" lon="-1.07453">
        <ele>33</ele>
        <time>2019-08-11T16:00:45Z</time>
      </trkpt>
      <trkpt lat="44.49863" lon="-1.07454">
        <ele>33</ele>
        <time>2019-08-11T16:00:50Z</time>
      </trkpt>
      <trkpt lat="44.49871" lon="-1.07454">
        <ele>32</ele>
        <time>2019-08-11T16:01:00Z</time>
      </trkpt>
      <trkpt lat="44.49872" lon="-1.07456">
        <ele>32</ele>
        <time>2019-08-11T16:01:05Z</time>
      </trkpt>
      <trkpt lat="44.49873" lon="-1.07457">
        <ele>32</ele>
        <time>2019-08-11T16:01:15Z</time>
      </trkpt>
      <trkpt lat="44.49874" lon="-1.07459">
        <ele>32</ele>
        <time>2019-08-11T16:01:20Z</time>
      </trkpt>
      <trkpt lat="44.49874" lon="-1.07458">
        <ele>32</ele>
        <time>2019-08-11T16:01:30Z</time>
      </trkpt>
      <trkpt lat="44.4987" lon="-1.07457">
        <ele>32</ele>
        <time>2019-08-11T16:01:40Z</time>
      </trkpt>
      <trkpt lat="44.49869" lon="-1.07455">
        <ele>32</ele>
        <time>2019-08-11T16:01:45Z</time>
      </trkpt>
      <trkpt lat="44.49871" lon="-1.07457">
        <ele>32</ele>
        <time>2019-08-11T16:01:55Z</time>
      </trkpt>
      <trkpt lat="44.49869" lon="-1.07458">
        <ele>32</ele>
        <time>2019-08-11T16:02:00Z</time>
      </trkpt>
      <trkpt lat="44.49868" lon="-1.07462">
        <ele>32</ele>
        <time>2019-08-11T16:02:10Z</time>
      </trkpt>
      <trkpt lat="44.49869" lon="-1.07465">
        <ele>32</ele>
        <time>2019-08-11T16:02:15Z</time>
      </trkpt>
      <trkpt lat="44.49863" lon="-1.07467">
        <ele>32</ele>
        <time>2019-08-11T16:02:25Z</time>
      </trkpt>
      <trkpt lat="44.49854" lon="-1.07467">
        <ele>32</ele>
        <time>2019-08-11T16:02:30Z</time>
      </trkpt>
      <trkpt lat="44.4985" lon="-1.07468">
        <ele>32</ele>
        <time>2019-08-11T16:02:40Z</time>
      </trkpt>
      <trkpt lat="44.4985" lon="-1.07469">
        <ele>32</ele>
        <time>2019-08-11T16:02:45Z</time>
      </trkpt>
      <trkpt lat="44.4985" lon="-1.07469">
        <ele>32</ele>
        <time>2019-08-11T16:02:55Z</time>
      </trkpt>
      <trkpt lat="44.4985" lon="-1.0747">
        <ele>32</ele>
        <time>2019-08-11T16:03:00Z</time>
      </trkpt>
      <trkpt lat="44.49851" lon="-1.07472">
        <ele>32</ele>
        <time>2019-08-11T16:03:10Z</time>
      </trkpt>
      <trkpt lat="44.49856" lon="-1.07475">
        <ele>32</ele>
        <time>2019-08-11T16:03:20Z</time>
      </trkpt>
      <trkpt lat="44.49856" lon="-1.07476">
        <ele>32</ele>
        <time>2019-08-11T16:03:25Z</time>
      </trkpt>
      <trkpt lat="44.49856" lon="-1.07476">
        <ele>32</ele>
        <time>2019-08-11T16:03:35Z</time>
      </trkpt>
      <trkpt lat="44.49856" lon="-1.07476">
        <ele>32</ele>
        <time>2019-08-11T16:03:40Z</time>
      </trkpt>
      <trkpt lat="44.49854" lon="-1.07475">
        <ele>32</ele>
        <time>2019-08-11T16:03:50Z</time>
      </trkpt>
      <trkpt lat="44.49854" lon="-1.07475">
        <ele>32</ele>
        <time>2019-08-11T16:03:55Z</time>
      </trkpt>
      <trkpt lat="44.49851" lon="-1.07475">
        <ele>32</ele>
        <time>2019-08-11T16:04:05Z</time>
      </trkpt>
      <trkpt lat="44.49853" lon="-1.07475">
        <ele>32</ele>
        <time>2019-08-11T16:04:10Z</time>
      </trkpt>
      <trkpt lat="44.49849" lon="-1.07473">
        <ele>32</ele>
        <time>2019-08-11T16:04:20Z</time>
      </trkpt>
      <trkpt lat="44.49849" lon="-1.07474">
        <ele>32</ele>
        <time>2019-08-11T16:04:25Z</time>
      </trkpt>
      <trkpt lat="44.49855" lon="-1.07479">
        <ele>32</ele>
        <time>2019-08-11T16:04:35Z</time>
      </trkpt>
      <trkpt lat="44.49855" lon="-1.07481">
        <ele>32</ele>
        <time>2019-08-11T16:04:40Z</time>
      </trkpt>
      <trkpt lat="44.49856" lon="-1.0748">
        <ele>32</ele>
        <time>2019-08-11T16:04:50Z</time>
      </trkpt>
      <trkpt lat="44.49856" lon="-1.07479">
        <ele>32</ele>
        <time>2019-08-11T16:05:00Z</time>
      </trkpt>
      <trkpt lat="44.49856" lon="-1.0748">
        <ele>32</ele>
        <time>2019-08-11T16:05:05Z</time>
      </trkpt>
      <trkpt lat="44.49857" lon="-1.07479">
        <ele>32</ele>
        <time>2019-08-11T16:05:15Z</time>
      </trkpt>
      <trkpt lat="44.49857" lon="-1.0748">
        <ele>32</ele>
        <time>2019-08-11T16:05:20Z</time>
      </trkpt>
      <trkpt lat="44.4986" lon="-1.07478">
        <ele>32</ele>
        <time>2019-08-11T16:05:30Z</time>
      </trkpt>
      <trkpt lat="44.49861" lon="-1.07478">
        <ele>32</ele>
        <time>2019-08-11T16:05:35Z</time>
      </trkpt>
      <trkpt lat="44.49864" lon="-1.07475">
        <ele>32</ele>
        <time>2019-08-11T16:05:45Z</time>
      </trkpt>
      <trkpt lat="44.49863" lon="-1.07473">
        <ele>32</ele>
        <time>2019-08-11T16:05:50Z</time>
      </trkpt>
      <trkpt lat="44.49862" lon="-1.07474">
        <ele>32</ele>
        <time>2019-08-11T16:06:00Z</time>
      </trkpt>
      <trkpt lat="44.4986" lon="-1.07476">
        <ele>32</ele>
        <time>2019-08-11T16:06:05Z</time>
      </trkpt>
      <trkpt lat="44.4986" lon="-1.07477">
        <ele>32</ele>
        <time>2019-08-11T16:06:15Z</time>
      </trkpt>
      <trkpt lat="44.49864" lon="-1.07475">
        <ele>32</ele>
        <time>2019-08-11T16:06:25Z</time>
      </trkpt>
      <trkpt lat="44.49868" lon="-1.07477">
        <ele>32</ele>
        <time>2019-08-11T16:06:30Z</time>
      </trkpt>
      <trkpt lat="44.49875" lon="-1.07478">
        <ele>32</ele>
        <time>2019-08-11T16:06:40Z</time>
      </trkpt>
      <trkpt lat="44.49876" lon="-1.07477">
        <ele>32</ele>
        <time>2019-08-11T16:06:45Z</time>
      </trkpt>
      <trkpt lat="44.49875" lon="-1.07474">
        <ele>32</ele>
        <time>2019-08-11T16:06:55Z</time>
      </trkpt>
      <trkpt lat="44.49872" lon="-1.0747">
        <ele>32</ele>
        <time>2019-08-11T16:07:00Z</time>
      </trkpt>
      <trkpt lat="44.49872" lon="-1.07466">
        <ele>32</ele>
        <time>2019-08-11T16:07:10Z</time>
      </trkpt>
      <trkpt lat="44.49873" lon="-1.07469">
        <ele>32</ele>
        <time>2019-08-11T16:07:15Z</time>
      </trkpt>
      <trkpt lat="44.49869" lon="-1.07469">
        <ele>32</ele>
        <time>2019-08-11T16:07:25Z</time>
      </trkpt>
      <trkpt lat="44.49867" lon="-1.07469">
        <ele>32</ele>
        <time>2019-08-11T16:07:30Z</time>
      </trkpt>
      <trkpt lat="44.49865" lon="-1.07473">
        <ele>32</ele>
        <time>2019-08-11T16:07:40Z</time>
      </trkpt>
      <trkpt lat="44.49865" lon="-1.07475">
        <ele>32</ele>
        <time>2019-08-11T16:07:45Z</time>
      </trkpt>
      <trkpt lat="44.49864" lon="-1.07476">
        <ele>32</ele>
        <time>2019-08-11T16:07:55Z</time>
      </trkpt>
      <trkpt lat="44.49864" lon="-1.07479">
        <ele>32</ele>
        <time>2019-08-11T16:08:05Z</time>
      </trkpt>
      <trkpt lat="44.49862" lon="-1.07476">
        <ele>32</ele>
        <time>2019-08-11T16:08:10Z</time>
      </trkpt>
      <trkpt lat="44.49859" lon="-1.07471">
        <ele>32</ele>
        <time>2019-08-11T16:08:20Z</time>
      </trkpt>
      <trkpt lat="44.49859" lon="-1.07467">
        <ele>32</ele>
        <time>2019-08-11T16:08:25Z</time>
      </trkpt>
      <trkpt lat="44.49862" lon="-1.07459">
        <ele>33</ele>
        <time>2019-08-11T16:08:35Z</time>
      </trkpt>
      <trkpt lat="44.49863" lon="-1.07456">
        <ele>33</ele>
        <time>2019-08-11T16:08:40Z</time>
      </trkpt>
      <trkpt lat="44.49863" lon="-1.07452">
        <ele>33</ele>
        <time>2019-08-11T16:08:50Z</time>
      </trkpt>
      <trkpt lat="44.49862" lon="-1.07449">
        <ele>33</ele>
        <time>2019-08-11T16:08:55Z</time>
      </trkpt>
      <trkpt lat="44.4986" lon="-1.07445">
        <ele>33</ele>
        <time>2019-08-11T16:09:05Z</time>
      </trkpt>
      <trkpt lat="44.4986" lon="-1.07446">
        <ele>33</ele>
        <time>2019-08-11T16:09:10Z</time>
      </trkpt>
      <trkpt lat="44.49856" lon="-1.07446">
        <ele>33</ele>
        <time>2019-08-11T16:09:20Z</time>
      </trkpt>
      <trkpt lat="44.49853" lon="-1.07445">
        <ele>33</ele>
        <time>2019-08-11T16:09:25Z</time>
      </trkpt>
      <trkpt lat="44.49852" lon="-1.07444">
        <ele>33</ele>
        <time>2019-08-11T16:09:35Z</time>
      </trkpt>
      <trkpt lat="44.4986" lon="-1.07444">
        <ele>33</ele>
        <time>2019-08-11T16:09:45Z</time>
      </trkpt>
      <trkpt lat="44.49862" lon="-1.07448">
        <ele>33</ele>
        <time>2019-08-11T16:09:50Z</time>
      </trkpt>
      <trkpt lat="44.49863" lon="-1.07454">
        <ele>33</ele>
        <time>2019-08-11T16:10:00Z</time>
      </trkpt>
      <trkpt lat="44.4986" lon="-1.07456">
        <ele>33</ele>
        <time>2019-08-11T16:10:05Z</time>
      </trkpt>
      <trkpt lat="44.49859" lon="-1.07461">
        <ele>32</ele>
        <time>2019-08-11T16:10:15Z</time>
      </trkpt>
      <trkpt lat="44.4986" lon="-1.07462">
        <ele>32</ele>
        <time>2019-08-11T16:10:20Z</time>
      </trkpt>
      <trkpt lat="44.49861" lon="-1.07462">
        <ele>32</ele>
        <time>2019-08-11T16:10:30Z</time>
      </trkpt>
      <trkpt lat="44.49862" lon="-1.07458">
        <ele>33</ele>
        <time>2019-08-11T16:10:35Z</time>
      </trkpt>
      <trkpt lat="44.49864" lon="-1.07459">
        <ele>33</ele>
        <time>2019-08-11T16:10:45Z</time>
      </trkpt>
      <trkpt lat="44.49866" lon="-1.07462">
        <ele>32</ele>
        <time>2019-08-11T16:10:50Z</time>
      </trkpt>
      <trkpt lat="44.49865" lon="-1.07463">
        <ele>32</ele>
        <time>2019-08-11T16:11:00Z</time>
      </trkpt>
      <trkpt lat="44.49864" lon="-1.07462">
        <ele>32</ele>
        <time>2019-08-11T16:11:05Z</time>
      </trkpt>
      <trkpt lat="44.49864" lon="-1.07458">
        <ele>33</ele>
        <time>2019-08-11T16:11:15Z</time>
      </trkpt>
      <trkpt lat="44.49862" lon="-1.07455">
        <ele>33</ele>
        <time>2019-08-11T16:11:25Z</time>
      </trkpt>
      <trkpt lat="44.49862" lon="-1.07455">
        <ele>33</ele>
        <time>2019-08-11T16:11:30Z</time>
      </trkpt>
      <trkpt lat="44.49863" lon="-1.07453">
        <ele>33</ele>
        <time>2019-08-11T16:11:40Z</time>
      </trkpt>
      <trkpt lat="44.49863" lon="-1.0745">
        <ele>33</ele>
        <time>2019-08-11T16:11:45Z</time>
      </trkpt>
      <trkpt lat="44.49861" lon="-1.07447">
        <ele>33</ele>
        <time>2019-08-11T16:11:55Z</time>
      </trkpt>
      <trkpt lat="44.49859" lon="-1.07452">
        <ele>33</ele>
        <time>2019-08-11T16:12:00Z</time>
      </trkpt>
      <trkpt lat="44.49855" lon="-1.0746">
        <ele>32</ele>
        <time>2019-08-11T16:12:10Z</time>
      </trkpt>
      <trkpt lat="44.49855" lon="-1.07461">
        <ele>32</ele>
        <time>2019-08-11T16:12:15Z</time>
      </trkpt>
      <trkpt lat="44.49856" lon="-1.0746">
        <ele>33</ele>
        <time>2019-08-11T16:12:25Z</time>
      </trkpt>
      <trkpt lat="44.49857" lon="-1.07458">
        <ele>33</ele>
        <time>2019-08-11T16:12:30Z</time>
      </trkpt>
      <trkpt lat="44.49859" lon="-1.07457">
        <ele>33</ele>
        <time>2019-08-11T16:12:40Z</time>
      </trkpt>
      <trkpt lat="44.49862" lon="-1.07457">
        <ele>33</ele>
        <time>2019-08-11T16:12:45Z</time>
      </trkpt>
      <trkpt lat="44.49868" lon="-1.07461">
        <ele>32</ele>
        <time>2019-08-11T16:12:55Z</time>
      </trkpt>
      <trkpt lat="44.49874" lon="-1.07462">
        <ele>32</ele>
        <time>2019-08-11T16:13:05Z</time>
      </trkpt>
      <trkpt lat="44.49872" lon="-1.07462">
        <ele>32</ele>
        <time>2019-08-11T16:13:10Z</time>
      </trkpt>
      <trkpt lat="44.4987" lon="-1.07466">
        <ele>32</ele>
        <time>2019-08-11T16:13:20Z</time>
      </trkpt>
      <trkpt lat="44.49868" lon="-1.07467">
        <ele>32</ele>
        <time>2019-08-11T16:13:25Z</time>
      </trkpt>
      <trkpt lat="44.49869" lon="-1.07471">
        <ele>32</ele>
        <time>2019-08-11T16:13:35Z</time>
      </trkpt>
      <trkpt lat="44.4987" lon="-1.0747">
        <ele>32</ele>
        <time>2019-08-11T16:13:40Z</time>
      </trkpt>
      <trkpt lat="44.49871" lon="-1.07471">
        <ele>32</ele>
        <time>2019-08-11T16:13:50Z</time>
      </trkpt>
      <trkpt lat="44.49872" lon="-1.07468">
        <ele>32</ele>
        <time>2019-08-11T16:13:55Z</time>
      </trkpt>
      <trkpt lat="44.49867" lon="-1.07469">
        <ele>32</ele>
        <time>2019-08-11T16:14:05Z</time>
      </trkpt>
      <trkpt lat="44.4986" lon="-1.07467">
        <ele>32</ele>
        <time>2019-08-11T16:14:10Z</time>
      </trkpt>
      <trkpt lat="44.49857" lon="-1.07463">
        <ele>32</ele>
        <time>2019-08-11T16:14:20Z</time>
      </trkpt>
      <trkpt lat="44.49858" lon="-1.07459">
        <ele>33</ele>
        <time>2019-08-11T16:14:30Z</time>
      </trkpt>
      <trkpt lat="44.49855" lon="-1.07455">
        <ele>33</ele>
        <time>2019-08-11T16:14:35Z</time>
      </trkpt>
      <trkpt lat="44.49861" lon="-1.07463">
        <ele>32</ele>
        <time>2019-08-11T16:14:45Z</time>
      </trkpt>
      <trkpt lat="44.49862" lon="-1.0746">
        <ele>32</ele>
        <time>2019-08-11T16:14:50Z</time>
      </trkpt>
      <trkpt lat="44.4985" lon="-1.07429">
        <ele>33</ele>
        <time>2019-08-11T16:15:00Z</time>
      </trkpt>
      <trkpt lat="44.49845" lon="-1.07429">
        <ele>33</ele>
        <time>2019-08-11T16:15:05Z</time>
      </trkpt>
      <trkpt lat="44.49851" lon="-1.07464">
        <ele>32</ele>
        <time>2019-08-11T16:15:15Z</time>
      </trkpt>
      <trkpt lat="44.49855" lon="-1.07468">
        <ele>32</ele>
        <time>2019-08-11T16:15:20Z</time>
      </trkpt>
      <trkpt lat="44.49853" lon="-1.0747">
        <ele>32</ele>
        <time>2019-08-11T16:15:30Z</time>
      </trkpt>
      <trkpt lat="44.49847" lon="-1.07464">
        <ele>32</ele>
        <time>2019-08-11T16:15:35Z</time>
      </trkpt>
      <trkpt lat="44.49851" lon="-1.07482">
        <ele>32</ele>
        <time>2019-08-11T16:15:45Z</time>
      </trkpt>
      <trkpt lat="44.49846" lon="-1.07476">
        <ele>32</ele>
        <time>2019-08-11T16:15:50Z</time>
      </trkpt>
      <trkpt lat="44.4984" lon="-1.07473">
        <ele>32</ele>
        <time>2019-08-11T16:16:00Z</time>
      </trkpt>
      <trkpt lat="44.49842" lon="-1.07471">
        <ele>32</ele>
        <time>2019-08-11T16:16:10Z</time>
      </trkpt>
      <trkpt lat="44.49842" lon="-1.0747">
        <ele>32</ele>
        <time>2019-08-11T16:16:15Z</time>
      </trkpt>
      <trkpt lat="44.49842" lon="-1.07471">
        <ele>32</ele>
        <time>2019-08-11T16:16:25Z</time>
      </trkpt>
      <trkpt lat="44.49842" lon="-1.0747">
        <ele>32</ele>
        <time>2019-08-11T16:16:30Z</time>
      </trkpt>
      <trkpt lat="44.49852" lon="-1.0747">
        <ele>32</ele>
        <time>2019-08-11T16:16:40Z</time>
      </trkpt>
      <trkpt lat="44.49856" lon="-1.07468">
        <ele>32</ele>
        <time>2019-08-11T16:16:45Z</time>
      </trkpt>
      <trkpt lat="44.49858" lon="-1.07462">
        <ele>32</ele>
        <time>2019-08-11T16:16:55Z</time>
      </trkpt>
      <trkpt lat="44.49858" lon="-1.07461">
        <ele>32</ele>
        <time>2019-08-11T16:17:00Z</time>
      </trkpt>
      <trkpt lat="44.49855" lon="-1.07462">
        <ele>32</ele>
        <time>2019-08-11T16:17:10Z</time>
      </trkpt>
      <trkpt lat="44.49856" lon="-1.07462">
        <ele>32</ele>
        <time>2019-08-11T16:17:15Z</time>
      </trkpt>
      <trkpt lat="44.49864" lon="-1.07455">
        <ele>33</ele>
        <time>2019-08-11T16:17:25Z</time>
      </trkpt>
      <trkpt lat="44.49864" lon="-1.07452">
        <ele>33</ele>
        <time>2019-08-11T16:17:30Z</time>
      </trkpt>
      <trkpt lat="44.49858" lon="-1.07456">
        <ele>33</ele>
        <time>2019-08-11T16:17:40Z</time>
      </trkpt>
      <trkpt lat="44.49862" lon="-1.07459">
        <ele>33</ele>
        <time>2019-08-11T16:17:50Z</time>
      </trkpt>
      <trkpt lat="44.49864" lon="-1.0746">
        <ele>33</ele>
        <time>2019-08-11T16:17:55Z</time>
      </trkpt>
      <trkpt lat="44.49869" lon="-1.07462">
        <ele>32</ele>
        <time>2019-08-11T16:18:05Z</time>
      </trkpt>
      <trkpt lat="44.4987" lon="-1.07463">
        <ele>32</ele>
        <time>2019-08-11T16:18:10Z</time>
      </trkpt>
      <trkpt lat="44.49873" lon="-1.07458">
        <ele>32</ele>
        <time>2019-08-11T16:18:20Z</time>
      </trkpt>
      <trkpt lat="44.49874" lon="-1.07455">
        <ele>32</ele>
        <time>2019-08-11T16:18:25Z</time>
      </trkpt>
      <trkpt lat="44.49869" lon="-1.07459">
        <ele>32</ele>
        <time>2019-08-11T16:18:35Z</time>
      </trkpt>
      <trkpt lat="44.49868" lon="-1.0746">
        <ele>32</ele>
        <time>2019-08-11T16:18:40Z</time>
      </trkpt>
      <trkpt lat="44.49872" lon="-1.07461">
        <ele>32</ele>
        <time>2019-08-11T16:18:50Z</time>
      </trkpt>
      <trkpt lat="44.49873" lon="-1.07465">
        <ele>32</ele>
        <time>2019-08-11T16:18:55Z</time>
      </trkpt>
      <trkpt lat="44.49873" lon="-1.07465">
        <ele>32</ele>
        <time>2019-08-11T16:19:05Z</time>
      </trkpt>
      <trkpt lat="44.49878" lon="-1.07466">
        <ele>33</ele>
        <time>2019-08-11T16:19:10Z</time>
      </trkpt>
      <trkpt lat="44.4988" lon="-1.07465">
        <ele>33</ele>
        <time>2019-08-11T16:19:20Z</time>
      </trkpt>
      <trkpt lat="44.49878" lon="-1.07463">
        <ele>33</ele>
        <time>2019-08-11T16:19:30Z</time>
      </trkpt>
      <trkpt lat="44.49878" lon="-1.07461">
        <ele>33</ele>
        <time>2019-08-11T16:19:35Z</time>
      </trkpt>
      <trkpt lat="44.49879" lon="-1.07461">
        <ele>33</ele>
        <time>2019-08-11T16:19:45Z</time>
      </trkpt>
      <trkpt lat="44.49879" lon="-1.07461">
        <ele>33</ele>
        <time>2019-08-11T16:19:50Z</time>
      </trkpt>
      <trkpt lat="44.49879" lon="-1.07457">
        <ele>32</ele>
        <time>2019-08-11T16:20:00Z</time>
      </trkpt>
      <trkpt lat="44.49877" lon="-1.07454">
        <ele>32</ele>
        <time>2019-08-11T16:20:05Z</time>
      </trkpt>
      <trkpt lat="44.49882" lon="-1.07455">
        <ele>32</ele>
        <time>2019-08-11T16:20:15Z</time>
      </trkpt>
      <trkpt lat="44.4988" lon="-1.07453">
        <ele>32</ele>
        <time>2019-08-11T16:20:20Z</time>
      </trkpt>
      <trkpt lat="44.49867" lon="-1.07455">
        <ele>32</ele>
        <time>2019-08-11T16:20:30Z</time>
      </trkpt>
      <trkpt lat="44.49867" lon="-1.07455">
        <ele>32</ele>
        <time>2019-08-11T16:20:35Z</time>
      </trkpt>
      <trkpt lat="44.49864" lon="-1.07458">
        <ele>33</ele>
        <time>2019-08-11T16:20:45Z</time>
      </trkpt>
      <trkpt lat="44.49861" lon="-1.07459">
        <ele>33</ele>
        <time>2019-08-11T16:20:50Z</time>
      </trkpt>
      <trkpt lat="44.49856" lon="-1.07461">
        <ele>32</ele>
        <time>2019-08-11T16:21:00Z</time>
      </trkpt>
      <trkpt lat="44.49854" lon="-1.07465">
        <ele>32</ele>
        <time>2019-08-11T16:21:10Z</time>
      </trkpt>
      <trkpt lat="44.49855" lon="-1.07467">
        <ele>32</ele>
        <time>2019-08-11T16:21:15Z</time>
      </trkpt>
      <trkpt lat="44.49866" lon="-1.07473">
        <ele>32</ele>
        <time>2019-08-11T16:21:25Z</time>
      </trkpt>
      <trkpt lat="44.49872" lon="-1.07474">
        <ele>32</ele>
        <time>2019-08-11T16:21:30Z</time>
      </trkpt>
      <trkpt lat="44.49876" lon="-1.07471">
        <ele>32</ele>
        <time>2019-08-11T16:21:40Z</time>
      </trkpt>
      <trkpt lat="44.49879" lon="-1.0747">
        <ele>33</ele>
        <time>2019-08-11T16:21:45Z</time>
      </trkpt>
      <trkpt lat="44.49881" lon="-1.07467">
        <ele>33</ele>
        <time>2019-08-11T16:21:55Z</time>
      </trkpt>
      <trkpt lat="44.49882" lon="-1.07464">
        <ele>33</ele>
        <time>2019-08-11T16:22:00Z</time>
      </trkpt>
      <trkpt lat="44.49885" lon="-1.07462">
        <ele>33</ele>
        <time>2019-08-11T16:22:10Z</time>
      </trkpt>
      <trkpt lat="44.49885" lon="-1.07463">
        <ele>33</ele>
        <time>2019-08-11T16:22:15Z</time>
      </trkpt>
      <trkpt lat="44.49887" lon="-1.07463">
        <ele>33</ele>
        <time>2019-08-11T16:22:25Z</time>
      </trkpt>
      <trkpt lat="44.49885" lon="-1.07464">
        <ele>33</ele>
        <time>2019-08-11T16:22:35Z</time>
      </trkpt>
      <trkpt lat="44.49882" lon="-1.07463">
        <ele>33</ele>
        <time>2019-08-11T16:22:40Z</time>
      </trkpt>
      <trkpt lat="44.49883" lon="-1.07466">
        <ele>33</ele>
        <time>2019-08-11T16:22:50Z</time>
      </trkpt>
      <trkpt lat="44.49882" lon="-1.07465">
        <ele>33</ele>
        <time>2019-08-11T16:22:55Z</time>
      </trkpt>
      <trkpt lat="44.49868" lon="-1.07465">
        <ele>32</ele>
        <time>2019-08-11T16:23:05Z</time>
      </trkpt>
      <trkpt lat="44.49865" lon="-1.07467">
        <ele>32</ele>
        <time>2019-08-11T16:23:10Z</time>
      </trkpt>
      <trkpt lat="44.49862" lon="-1.07472">
        <ele>32</ele>
        <time>2019-08-11T16:23:20Z</time>
      </trkpt>
      <trkpt lat="44.49862" lon="-1.07473">
        <ele>32</ele>
        <time>2019-08-11T16:23:25Z</time>
      </trkpt>
      <trkpt lat="44.49862" lon="-1.07472">
        <ele>32</ele>
        <time>2019-08-11T16:23:35Z</time>
      </trkpt>
      <trkpt lat="44.49863" lon="-1.07474">
        <ele>32</ele>
        <time>2019-08-11T16:23:40Z</time>
      </trkpt>
      <trkpt lat="44.49865" lon="-1.07481">
        <ele>32</ele>
        <time>2019-08-11T16:23:50Z</time>
      </trkpt>
      <trkpt lat="44.49866" lon="-1.07486">
        <ele>32</ele>
        <time>2019-08-11T16:23:55Z</time>
      </trkpt>
      <trkpt lat="44.49865" lon="-1.07482">
        <ele>32</ele>
        <time>2019-08-11T16:24:05Z</time>
      </trkpt>
      <trkpt lat="44.49865" lon="-1.07478">
        <ele>32</ele>
        <time>2019-08-11T16:24:15Z</time>
      </trkpt>
      <trkpt lat="44.49866" lon="-1.07474">
        <ele>32</ele>
        <time>2019-08-11T16:24:20Z</time>
      </trkpt>
      <trkpt lat="44.49865" lon="-1.07468">
        <ele>32</ele>
        <time>2019-08-11T16:24:30Z</time>
      </trkpt>
      <trkpt lat="44.49865" lon="-1.07467">
        <ele>32</ele>
        <time>2019-08-11T16:24:35Z</time>
      </trkpt>
      <trkpt lat="44.49865" lon="-1.07465">
        <ele>32</ele>
        <time>2019-08-11T16:24:45Z</time>
      </trkpt>
      <trkpt lat="44.49865" lon="-1.07466">
        <ele>32</ele>
        <time>2019-08-11T16:24:50Z</time>
      </trkpt>
      <trkpt lat="44.49871" lon="-1.07469">
        <ele>32</ele>
        <time>2019-08-11T16:25:00Z</time>
      </trkpt>
      <trkpt lat="44.49872" lon="-1.07467">
        <ele>32</ele>
        <time>2019-08-11T16:25:05Z</time>
      </trkpt>
      <trkpt lat="44.4987" lon="-1.07465">
        <ele>32</ele>
        <time>2019-08-11T16:25:15Z</time>
      </trkpt>
      <trkpt lat="44.49869" lon="-1.07465">
        <ele>32</ele>
        <time>2019-08-11T16:25:20Z</time>
      </trkpt>
      <trkpt lat="44.49866" lon="-1.07472">
        <ele>32</ele>
        <time>2019-08-11T16:25:30Z</time>
      </trkpt>
      <trkpt lat="44.49865" lon="-1.07472">
        <ele>32</ele>
        <time>2019-08-11T16:25:35Z</time>
      </trkpt>
      <trkpt lat="44.49865" lon="-1.07473">
        <ele>32</ele>
        <time>2019-08-11T16:25:45Z</time>
      </trkpt>
      <trkpt lat="44.49864" lon="-1.07472">
        <ele>32</ele>
        <time>2019-08-11T16:25:55Z</time>
      </trkpt>
      <trkpt lat="44.49864" lon="-1.07472">
        <ele>32</ele>
        <time>2019-08-11T16:26:00Z</time>
      </trkpt>
      <trkpt lat="44.49865" lon="-1.0747">
        <ele>32</ele>
        <time>2019-08-11T16:26:10Z</time>
      </trkpt>
      <trkpt lat="44.49865" lon="-1.07467">
        <ele>32</ele>
        <time>2019-08-11T16:26:15Z</time>
      </trkpt>
      <trkpt lat="44.49864" lon="-1.07463">
        <ele>32</ele>
        <time>2019-08-11T16:26:25Z</time>
      </trkpt>
      <trkpt lat="44.49864" lon="-1.07461">
        <ele>32</ele>
        <time>2019-08-11T16:26:30Z</time>
      </trkpt>
      <trkpt lat="44.49867" lon="-1.07463">
        <ele>32</ele>
        <time>2019-08-11T16:26:40Z</time>
      </trkpt>
      <trkpt lat="44.49868" lon="-1.07463">
        <ele>32</ele>
        <time>2019-08-11T16:26:45Z</time>
      </trkpt>
      <trkpt lat="44.49868" lon="-1.07465">
        <ele>32</ele>
        <time>2019-08-11T16:26:55Z</time>
      </trkpt>
      <trkpt lat="44.49868" lon="-1.07465">
        <ele>32</ele>
        <time>2019-08-11T16:27:00Z</time>
      </trkpt>
      <trkpt lat="44.49868" lon="-1.07465">
        <ele>32</ele>
        <time>2019-08-11T16:27:10Z</time>
      </trkpt>
      <trkpt lat="44.49866" lon="-1.07464">
        <ele>32</ele>
        <time>2019-08-11T16:27:15Z</time>
      </trkpt>
      <trkpt lat="44.49865" lon="-1.07464">
        <ele>32</ele>
        <time>2019-08-11T16:27:25Z</time>
      </trkpt>
      <trkpt lat="44.49865" lon="-1.07463">
        <ele>32</ele>
        <time>2019-08-11T16:27:35Z</time>
      </trkpt>
      <trkpt lat="44.49866" lon="-1.07463">
        <ele>32</ele>
        <time>2019-08-11T16:27:40Z</time>
      </trkpt>
      <trkpt lat="44.49867" lon="-1.07462">
        <ele>32</ele>
        <time>2019-08-11T16:27:50Z</time>
      </trkpt>
      <trkpt lat="44.49868" lon="-1.07461">
        <ele>32</ele>
        <time>2019-08-11T16:27:55Z</time>
      </trkpt>
      <trkpt lat="44.49871" lon="-1.07459">
        <ele>32</ele>
        <time>2019-08-11T16:28:05Z</time>
      </trkpt>
      <trkpt lat="44.49872" lon="-1.07459">
        <ele>32</ele>
        <time>2019-08-11T16:28:10Z</time>
      </trkpt>
      <trkpt lat="44.49872" lon="-1.07461">
        <ele>32</ele>
        <time>2019-08-11T16:28:20Z</time>
      </trkpt>
      <trkpt lat="44.49871" lon="-1.07461">
        <ele>32</ele>
        <time>2019-08-11T16:28:25Z</time>
      </trkpt>
      <trkpt lat="44.49873" lon="-1.07462">
        <ele>32</ele>
        <time>2019-08-11T16:28:35Z</time>
      </trkpt>
      <trkpt lat="44.49872" lon="-1.07462">
        <ele>32</ele>
        <time>2019-08-11T16:28:40Z</time>
      </trkpt>
      <trkpt lat="44.49868" lon="-1.07455">
        <ele>32</ele>
        <time>2019-08-11T16:28:50Z</time>
      </trkpt>
      <trkpt lat="44.49866" lon="-1.07451">
        <ele>32</ele>
        <time>2019-08-11T16:28:55Z</time>
      </trkpt>
      <trkpt lat="44.49866" lon="-1.07449">
        <ele>32</ele>
        <time>2019-08-11T16:29:05Z</time>
      </trkpt>
      <trkpt lat="44.49867" lon="-1.07452">
        <ele>32</ele>
        <time>2019-08-11T16:29:15Z</time>
      </trkpt>
      <trkpt lat="44.4987" lon="-1.07455">
        <ele>32</ele>
        <time>2019-08-11T16:29:20Z</time>
      </trkpt>
      <trkpt lat="44.49873" lon="-1.07457">
        <ele>32</ele>
        <time>2019-08-11T16:29:30Z</time>
      </trkpt>
      <trkpt lat="44.49874" lon="-1.07457">
        <ele>32</ele>
        <time>2019-08-11T16:29:35Z</time>
      </trkpt>
      <trkpt lat="44.49873" lon="-1.07459">
        <ele>32</ele>
        <time>2019-08-11T16:29:45Z</time>
      </trkpt>
      <trkpt lat="44.49874" lon="-1.07461">
        <ele>32</ele>
        <time>2019-08-11T16:29:50Z</time>
      </trkpt>
      <trkpt lat="44.49871" lon="-1.07448">
        <ele>32</ele>
        <time>2019-08-11T16:30:00Z</time>
      </trkpt>
      <trkpt lat="44.49865" lon="-1.07433">
        <ele>33</ele>
        <time>2019-08-11T16:30:05Z</time>
      </trkpt>
      <trkpt lat="44.49842" lon="-1.07412">
        <ele>33</ele>
        <time>2019-08-11T16:30:15Z</time>
      </trkpt>
      <trkpt lat="44.49825" lon="-1.07424">
        <ele>33</ele>
        <time>2019-08-11T16:30:20Z</time>
      </trkpt>
      <trkpt lat="44.49801" lon="-1.07456">
        <ele>33</ele>
        <time>2019-08-11T16:30:30Z</time>
      </trkpt>
      <trkpt lat="44.49805" lon="-1.07504">
        <ele>32</ele>
        <time>2019-08-11T16:30:40Z</time>
      </trkpt>
      <trkpt lat="44.49786" lon="-1.07515">
        <ele>33</ele>
        <time>2019-08-11T16:30:45Z</time>
      </trkpt>
      <trkpt lat="44.49746" lon="-1.07533">
        <ele>33</ele>
        <time>2019-08-11T16:30:55Z</time>
      </trkpt>
      <trkpt lat="44.49725" lon="-1.07542">
        <ele>33</ele>
        <time>2019-08-11T16:31:00Z</time>
      </trkpt>
      <trkpt lat="44.49697" lon="-1.07583">
        <ele>32</ele>
        <time>2019-08-11T16:31:10Z</time>
      </trkpt>
      <trkpt lat="44.49682" lon="-1.07597">
        <ele>32</ele>
        <time>2019-08-11T16:31:15Z</time>
      </trkpt>
      <trkpt lat="44.49638" lon="-1.076">
        <ele>32</ele>
        <time>2019-08-11T16:31:25Z</time>
      </trkpt>
      <trkpt lat="44.49617" lon="-1.07604">
        <ele>31</ele>
        <time>2019-08-11T16:31:30Z</time>
      </trkpt>
      <trkpt lat="44.49582" lon="-1.07611">
        <ele>31</ele>
        <time>2019-08-11T16:31:40Z</time>
      </trkpt>
      <trkpt lat="44.4958" lon="-1.07612">
        <ele>31</ele>
        <time>2019-08-11T16:31:45Z</time>
      </trkpt>
      <trkpt lat="44.4958" lon="-1.07612">
        <ele>31</ele>
        <time>2019-08-11T16:31:55Z</time>
      </trkpt>
      <trkpt lat="44.4958" lon="-1.07611">
        <ele>31</ele>
        <time>2019-08-11T16:32:00Z</time>
      </trkpt>
      <trkpt lat="44.49578" lon="-1.07612">
        <ele>31</ele>
        <time>2019-08-11T16:32:10Z</time>
      </trkpt>
      <trkpt lat="44.49578" lon="-1.07612">
        <ele>31</ele>
        <time>2019-08-11T16:32:20Z</time>
      </trkpt>
      <trkpt lat="44.49578" lon="-1.07612">
        <ele>31</ele>
        <time>2019-08-11T16:32:25Z</time>
      </trkpt>
      <trkpt lat="44.49579" lon="-1.07612">
        <ele>31</ele>
        <time>2019-08-11T16:32:35Z</time>
      </trkpt>
      <trkpt lat="44.4958" lon="-1.07612">
        <ele>31</ele>
        <time>2019-08-11T16:32:40Z</time>
      </trkpt>
      <trkpt lat="44.4958" lon="-1.07612">
        <ele>31</ele>
        <time>2019-08-11T16:32:50Z</time>
      </trkpt>
      <trkpt lat="44.4958" lon="-1.07612">
        <ele>31</ele>
        <time>2019-08-11T16:32:55Z</time>
      </trkpt>
      <trkpt lat="44.49575" lon="-1.07614">
        <ele>31</ele>
        <time>2019-08-11T16:33:05Z</time>
      </trkpt>
      <trkpt lat="44.49572" lon="-1.07614">
        <ele>31</ele>
        <time>2019-08-11T16:33:10Z</time>
      </trkpt>
      <trkpt lat="44.49569" lon="-1.07615">
        <ele>31</ele>
        <time>2019-08-11T16:33:20Z</time>
      </trkpt>
      <trkpt lat="44.49567" lon="-1.07615">
        <ele>31</ele>
        <time>2019-08-11T16:33:25Z</time>
      </trkpt>
      <trkpt lat="44.49562" lon="-1.07616">
        <ele>31</ele>
        <time>2019-08-11T16:33:35Z</time>
      </trkpt>
      <trkpt lat="44.49562" lon="-1.07616">
        <ele>31</ele>
        <time>2019-08-11T16:33:40Z</time>
      </trkpt>
      <trkpt lat="44.49561" lon="-1.0762">
        <ele>31</ele>
        <time>2019-08-11T16:33:50Z</time>
      </trkpt>
      <trkpt lat="44.49562" lon="-1.07622">
        <ele>31</ele>
        <time>2019-08-11T16:34:00Z</time>
      </trkpt>
      <trkpt lat="44.49562" lon="-1.07623">
        <ele>31</ele>
        <time>2019-08-11T16:34:05Z</time>
      </trkpt>
      <trkpt lat="44.49562" lon="-1.07624">
        <ele>31</ele>
        <time>2019-08-11T16:34:15Z</time>
      </trkpt>
      <trkpt lat="44.49562" lon="-1.07624">
        <ele>31</ele>
        <time>2019-08-11T16:34:20Z</time>
      </trkpt>
      <trkpt lat="44.49562" lon="-1.07624">
        <ele>31</ele>
        <time>2019-08-11T16:34:30Z</time>
      </trkpt>
      <trkpt lat="44.49562" lon="-1.07624">
        <ele>31</ele>
        <time>2019-08-11T16:34:35Z</time>
      </trkpt>
      <trkpt lat="44.49562" lon="-1.07624">
        <ele>31</ele>
        <time>2019-08-11T16:34:45Z</time>
      </trkpt>
      <trkpt lat="44.49562" lon="-1.07624">
        <ele>31</ele>
        <time>2019-08-11T16:34:50Z</time>
      </trkpt>
      <trkpt lat="44.49562" lon="-1.07624">
        <ele>31</ele>
        <time>2019-08-11T16:35:00Z</time>
      </trkpt>
      <trkpt lat="44.49562" lon="-1.07625">
        <ele>31</ele>
        <time>2019-08-11T16:35:05Z</time>
      </trkpt>
      <trkpt lat="44.49562" lon="-1.07625">
        <ele>31</ele>
        <time>2019-08-11T16:35:15Z</time>
      </trkpt>
      <trkpt lat="44.49562" lon="-1.07625">
        <ele>31</ele>
        <time>2019-08-11T16:35:20Z</time>
      </trkpt>
      <trkpt lat="44.49562" lon="-1.07625">
        <ele>31</ele>
        <time>2019-08-11T16:35:30Z</time>
      </trkpt>
      <trkpt lat="44.49562" lon="-1.07625">
        <ele>31</ele>
        <time>2019-08-11T16:35:40Z</time>
      </trkpt>
      <trkpt lat="44.49562" lon="-1.07625">
        <ele>31</ele>
        <time>2019-08-11T16:35:45Z</time>
      </trkpt>
      <trkpt lat="44.49562" lon="-1.07625">
        <ele>31</ele>
        <time>2019-08-11T16:35:55Z</time>
      </trkpt>
      <trkpt lat="44.49562" lon="-1.07625">
        <ele>31</ele>
        <time>2019-08-11T16:36:00Z</time>
      </trkpt>
      <trkpt lat="44.49562" lon="-1.07625">
        <ele>31</ele>
        <time>2019-08-11T16:36:10Z</time>
      </trkpt>
      <trkpt lat="44.49562" lon="-1.07625">
        <ele>31</ele>
        <time>2019-08-11T16:36:15Z</time>
      </trkpt>
      <trkpt lat="44.49562" lon="-1.07625">
        <ele>31</ele>
        <time>2019-08-11T16:36:25Z</time>
      </trkpt>
      <trkpt lat="44.49562" lon="-1.07625">
        <ele>31</ele>
        <time>2019-08-11T16:36:30Z</time>
      </trkpt>
      <trkpt lat="44.49562" lon="-1.07625">
        <ele>31</ele>
        <time>2019-08-11T16:36:40Z</time>
      </trkpt>
      <trkpt lat="44.49562" lon="-1.07625">
        <ele>31</ele>
        <time>2019-08-11T16:36:45Z</time>
      </trkpt>
      <trkpt lat="44.49562" lon="-1.07625">
        <ele>31</ele>
        <time>2019-08-11T16:36:55Z</time>
      </trkpt>
      <trkpt lat="44.49562" lon="-1.07625">
        <ele>31</ele>
        <time>2019-08-11T16:37:05Z</time>
      </trkpt>
      <trkpt lat="44.49562" lon="-1.07625">
        <ele>31</ele>
        <time>2019-08-11T16:37:10Z</time>
      </trkpt>
      <trkpt lat="44.49563" lon="-1.07625">
        <ele>31</ele>
        <time>2019-08-11T16:37:20Z</time>
      </trkpt>
      <trkpt lat="44.49563" lon="-1.07626">
        <ele>31</ele>
        <time>2019-08-11T16:37:25Z</time>
      </trkpt>
      <trkpt lat="44.49565" lon="-1.07629">
        <ele>31</ele>
        <time>2019-08-11T16:37:35Z</time>
      </trkpt>
      <trkpt lat="44.49567" lon="-1.07628">
        <ele>31</ele>
        <time>2019-08-11T16:37:40Z</time>
      </trkpt>
      <trkpt lat="44.49566" lon="-1.07628">
        <ele>31</ele>
        <time>2019-08-11T16:37:50Z</time>
      </trkpt>
      <trkpt lat="44.49564" lon="-1.07628">
        <ele>31</ele>
        <time>2019-08-11T16:37:55Z</time>
      </trkpt>
      <trkpt lat="44.49563" lon="-1.07626">
        <ele>31</ele>
        <time>2019-08-11T16:38:05Z</time>
      </trkpt>
      <trkpt lat="44.49563" lon="-1.07625">
        <ele>31</ele>
        <time>2019-08-11T16:38:10Z</time>
      </trkpt>
      <trkpt lat="44.49563" lon="-1.07625">
        <ele>31</ele>
        <time>2019-08-11T16:38:20Z</time>
      </trkpt>
      <trkpt lat="44.49564" lon="-1.07625">
        <ele>31</ele>
        <time>2019-08-11T16:38:25Z</time>
      </trkpt>
      <trkpt lat="44.49564" lon="-1.07623">
        <ele>31</ele>
        <time>2019-08-11T16:38:35Z</time>
      </trkpt>
      <trkpt lat="44.49565" lon="-1.07623">
        <ele>31</ele>
        <time>2019-08-11T16:38:45Z</time>
      </trkpt>
      <trkpt lat="44.49565" lon="-1.07623">
        <ele>31</ele>
        <time>2019-08-11T16:38:50Z</time>
      </trkpt>
      <trkpt lat="44.49565" lon="-1.07623">
        <ele>31</ele>
        <time>2019-08-11T16:39:00Z</time>
      </trkpt>
      <trkpt lat="44.49565" lon="-1.07622">
        <ele>31</ele>
        <time>2019-08-11T16:39:05Z</time>
      </trkpt>
      <trkpt lat="44.49565" lon="-1.07623">
        <ele>31</ele>
        <time>2019-08-11T16:39:15Z</time>
      </trkpt>
      <trkpt lat="44.49565" lon="-1.07623">
        <ele>31</ele>
        <time>2019-08-11T16:39:20Z</time>
      </trkpt>
      <trkpt lat="44.49564" lon="-1.07624">
        <ele>31</ele>
        <time>2019-08-11T16:39:30Z</time>
      </trkpt>
      <trkpt lat="44.49564" lon="-1.07625">
        <ele>31</ele>
        <time>2019-08-11T16:39:35Z</time>
      </trkpt>
      <trkpt lat="44.49564" lon="-1.07624">
        <ele>31</ele>
        <time>2019-08-11T16:39:45Z</time>
      </trkpt>
      <trkpt lat="44.49564" lon="-1.07624">
        <ele>31</ele>
        <time>2019-08-11T16:39:50Z</time>
      </trkpt>
      <trkpt lat="44.49564" lon="-1.07623">
        <ele>31</ele>
        <time>2019-08-11T16:40:00Z</time>
      </trkpt>
      <trkpt lat="44.49565" lon="-1.07623">
        <ele>31</ele>
        <time>2019-08-11T16:40:05Z</time>
      </trkpt>
      <trkpt lat="44.49566" lon="-1.07626">
        <ele>31</ele>
        <time>2019-08-11T16:40:15Z</time>
      </trkpt>
      <trkpt lat="44.49566" lon="-1.07626">
        <ele>31</ele>
        <time>2019-08-11T16:40:25Z</time>
      </trkpt>
      <trkpt lat="44.49566" lon="-1.07626">
        <ele>31</ele>
        <time>2019-08-11T16:40:30Z</time>
      </trkpt>
      <trkpt lat="44.49566" lon="-1.07626">
        <ele>31</ele>
        <time>2019-08-11T16:40:40Z</time>
      </trkpt>
      <trkpt lat="44.49566" lon="-1.07626">
        <ele>31</ele>
        <time>2019-08-11T16:40:45Z</time>
      </trkpt>
      <trkpt lat="44.49566" lon="-1.07626">
        <ele>31</ele>
        <time>2019-08-11T16:40:55Z</time>
      </trkpt>
      <trkpt lat="44.49566" lon="-1.07627">
        <ele>31</ele>
        <time>2019-08-11T16:41:00Z</time>
      </trkpt>
      <trkpt lat="44.49566" lon="-1.07628">
        <ele>31</ele>
        <time>2019-08-11T16:41:10Z</time>
      </trkpt>
      <trkpt lat="44.49566" lon="-1.07629">
        <ele>31</ele>
        <time>2019-08-11T16:41:15Z</time>
      </trkpt>
      <trkpt lat="44.49567" lon="-1.07631">
        <ele>31</ele>
        <time>2019-08-11T16:41:25Z</time>
      </trkpt>
      <trkpt lat="44.49567" lon="-1.0763">
        <ele>31</ele>
        <time>2019-08-11T16:41:30Z</time>
      </trkpt>
      <trkpt lat="44.49567" lon="-1.07629">
        <ele>31</ele>
        <time>2019-08-11T16:41:40Z</time>
      </trkpt>
      <trkpt lat="44.49567" lon="-1.07628">
        <ele>31</ele>
        <time>2019-08-11T16:41:45Z</time>
      </trkpt>
      <trkpt lat="44.49566" lon="-1.07624">
        <ele>31</ele>
        <time>2019-08-11T16:41:55Z</time>
      </trkpt>
      <trkpt lat="44.49564" lon="-1.07626">
        <ele>31</ele>
        <time>2019-08-11T16:42:05Z</time>
      </trkpt>
      <trkpt lat="44.49565" lon="-1.07625">
        <ele>31</ele>
        <time>2019-08-11T16:42:10Z</time>
      </trkpt>
      <trkpt lat="44.49562" lon="-1.07624">
        <ele>31</ele>
        <time>2019-08-11T16:42:20Z</time>
      </trkpt>
      <trkpt lat="44.49563" lon="-1.07624">
        <ele>31</ele>
        <time>2019-08-11T16:42:25Z</time>
      </trkpt>
      <trkpt lat="44.49563" lon="-1.07623">
        <ele>31</ele>
        <time>2019-08-11T16:42:35Z</time>
      </trkpt>
      <trkpt lat="44.49563" lon="-1.07622">
        <ele>31</ele>
        <time>2019-08-11T16:42:40Z</time>
      </trkpt>
      <trkpt lat="44.49564" lon="-1.07622">
        <ele>31</ele>
        <time>2019-08-11T16:42:50Z</time>
      </trkpt>
      <trkpt lat="44.49564" lon="-1.07622">
        <ele>31</ele>
        <time>2019-08-11T16:42:55Z</time>
      </trkpt>
      <trkpt lat="44.49565" lon="-1.07621">
        <ele>31</ele>
        <time>2019-08-11T16:43:05Z</time>
      </trkpt>
      <trkpt lat="44.49565" lon="-1.07622">
        <ele>31</ele>
        <time>2019-08-11T16:43:10Z</time>
      </trkpt>
      <trkpt lat="44.49566" lon="-1.0762">
        <ele>31</ele>
        <time>2019-08-11T16:43:20Z</time>
      </trkpt>
      <trkpt lat="44.49566" lon="-1.07619">
        <ele>31</ele>
        <time>2019-08-11T16:43:25Z</time>
      </trkpt>
      <trkpt lat="44.49566" lon="-1.07622">
        <ele>31</ele>
        <time>2019-08-11T16:43:35Z</time>
      </trkpt>
      <trkpt lat="44.49568" lon="-1.07622">
        <ele>31</ele>
        <time>2019-08-11T16:43:45Z</time>
      </trkpt>
      <trkpt lat="44.49568" lon="-1.07623">
        <ele>31</ele>
        <time>2019-08-11T16:43:50Z</time>
      </trkpt>
      <trkpt lat="44.4956" lon="-1.07623">
        <ele>31</ele>
        <time>2019-08-11T16:44:00Z</time>
      </trkpt>
      <trkpt lat="44.4956" lon="-1.07622">
        <ele>31</ele>
        <time>2019-08-11T16:44:05Z</time>
      </trkpt>
      <trkpt lat="44.49559" lon="-1.07624">
        <ele>31</ele>
        <time>2019-08-11T16:44:15Z</time>
      </trkpt>
      <trkpt lat="44.49559" lon="-1.07625">
        <ele>31</ele>
        <time>2019-08-11T16:44:20Z</time>
      </trkpt>
      <trkpt lat="44.49561" lon="-1.07626">
        <ele>31</ele>
        <time>2019-08-11T16:44:30Z</time>
      </trkpt>
      <trkpt lat="44.49561" lon="-1.07627">
        <ele>31</ele>
        <time>2019-08-11T16:44:35Z</time>
      </trkpt>
      <trkpt lat="44.4956" lon="-1.07628">
        <ele>31</ele>
        <time>2019-08-11T16:44:45Z</time>
      </trkpt>
      <trkpt lat="44.4956" lon="-1.07626">
        <ele>31</ele>
        <time>2019-08-11T16:44:50Z</time>
      </trkpt>
      <trkpt lat="44.4956" lon="-1.07625">
        <ele>31</ele>
        <time>2019-08-11T16:45:00Z</time>
      </trkpt>
      <trkpt lat="44.4956" lon="-1.07625">
        <ele>31</ele>
        <time>2019-08-11T16:45:10Z</time>
      </trkpt>
      <trkpt lat="44.4956" lon="-1.07625">
        <ele>31</ele>
        <time>2019-08-11T16:45:15Z</time>
      </trkpt>
      <trkpt lat="44.4956" lon="-1.07625">
        <ele>31</ele>
        <time>2019-08-11T16:45:25Z</time>
      </trkpt>
      <trkpt lat="44.4956" lon="-1.07625">
        <ele>31</ele>
        <time>2019-08-11T16:45:30Z</time>
      </trkpt>
      <trkpt lat="44.4956" lon="-1.07625">
        <ele>31</ele>
        <time>2019-08-11T16:45:40Z</time>
      </trkpt>
      <trkpt lat="44.4956" lon="-1.07625">
        <ele>31</ele>
        <time>2019-08-11T16:45:45Z</time>
      </trkpt>
      <trkpt lat="44.4956" lon="-1.07625">
        <ele>31</ele>
        <time>2019-08-11T16:45:55Z</time>
      </trkpt>
      <trkpt lat="44.4956" lon="-1.07625">
        <ele>31</ele>
        <time>2019-08-11T16:46:00Z</time>
      </trkpt>
      <trkpt lat="44.4956" lon="-1.07625">
        <ele>31</ele>
        <time>2019-08-11T16:46:10Z</time>
      </trkpt>
      <trkpt lat="44.4956" lon="-1.07625">
        <ele>31</ele>
        <time>2019-08-11T16:46:15Z</time>
      </trkpt>
      <trkpt lat="44.4956" lon="-1.07625">
        <ele>31</ele>
        <time>2019-08-11T16:46:25Z</time>
      </trkpt>
      <trkpt lat="44.4956" lon="-1.07625">
        <ele>31</ele>
        <time>2019-08-11T16:46:30Z</time>
      </trkpt>
      <trkpt lat="44.4956" lon="-1.07625">
        <ele>31</ele>
        <time>2019-08-11T16:46:40Z</time>
      </trkpt>
      <trkpt lat="44.4956" lon="-1.07625">
        <ele>31</ele>
        <time>2019-08-11T16:46:50Z</time>
      </trkpt>
      <trkpt lat="44.4956" lon="-1.07625">
        <ele>31</ele>
        <time>2019-08-11T16:46:55Z</time>
      </trkpt>
      <trkpt lat="44.4956" lon="-1.07625">
        <ele>31</ele>
        <time>2019-08-11T16:47:05Z</time>
      </trkpt>
      <trkpt lat="44.4956" lon="-1.07625">
        <ele>31</ele>
        <time>2019-08-11T16:47:10Z</time>
      </trkpt>
      <trkpt lat="44.4956" lon="-1.07625">
        <ele>31</ele>
        <time>2019-08-11T16:47:20Z</time>
      </trkpt>
      <trkpt lat="44.4956" lon="-1.07625">
        <ele>31</ele>
        <time>2019-08-11T16:47:25Z</time>
      </trkpt>
      <trkpt lat="44.4956" lon="-1.07625">
        <ele>31</ele>
        <time>2019-08-11T16:47:35Z</time>
      </trkpt>
      <trkpt lat="44.4956" lon="-1.07625">
        <ele>31</ele>
        <time>2019-08-11T16:47:40Z</time>
      </trkpt>
      <trkpt lat="44.4956" lon="-1.07625">
        <ele>31</ele>
        <time>2019-08-11T16:47:50Z</time>
      </trkpt>
      <trkpt lat="44.4956" lon="-1.07625">
        <ele>31</ele>
        <time>2019-08-11T16:47:55Z</time>
      </trkpt>
      <trkpt lat="44.4956" lon="-1.07625">
        <ele>31</ele>
        <time>2019-08-11T16:48:05Z</time>
      </trkpt>
      <trkpt lat="44.4956" lon="-1.07625">
        <ele>31</ele>
        <time>2019-08-11T16:48:10Z</time>
      </trkpt>
      <trkpt lat="44.4956" lon="-1.07625">
        <ele>31</ele>
        <time>2019-08-11T16:48:20Z</time>
      </trkpt>
      <trkpt lat="44.4956" lon="-1.07625">
        <ele>31</ele>
        <time>2019-08-11T16:48:30Z</time>
      </trkpt>
      <trkpt lat="44.4956" lon="-1.07625">
        <ele>31</ele>
        <time>2019-08-11T16:48:35Z</time>
      </trkpt>
      <trkpt lat="44.4956" lon="-1.07626">
        <ele>31</ele>
        <time>2019-08-11T16:48:45Z</time>
      </trkpt>
      <trkpt lat="44.4956" lon="-1.07626">
        <ele>31</ele>
        <time>2019-08-11T16:48:50Z</time>
      </trkpt>
      <trkpt lat="44.4956" lon="-1.07626">
        <ele>31</ele>
        <time>2019-08-11T16:49:00Z</time>
      </trkpt>
      <trkpt lat="44.4956" lon="-1.07626">
        <ele>31</ele>
        <time>2019-08-11T16:49:05Z</time>
      </trkpt>
      <trkpt lat="44.4956" lon="-1.07626">
        <ele>31</ele>
        <time>2019-08-11T16:49:15Z</time>
      </trkpt>
      <trkpt lat="44.4956" lon="-1.07626">
        <ele>31</ele>
        <time>2019-08-11T16:49:20Z</time>
      </trkpt>
      <trkpt lat="44.4956" lon="-1.07626">
        <ele>31</ele>
        <time>2019-08-11T16:49:30Z</time>
      </trkpt>
      <trkpt lat="44.4956" lon="-1.07626">
        <ele>31</ele>
        <time>2019-08-11T16:49:35Z</time>
      </trkpt>
      <trkpt lat="44.4956" lon="-1.07626">
        <ele>31</ele>
        <time>2019-08-11T16:49:45Z</time>
      </trkpt>
      <trkpt lat="44.4956" lon="-1.07626">
        <ele>31</ele>
        <time>2019-08-11T16:49:50Z</time>
      </trkpt>
      <trkpt lat="44.4956" lon="-1.07626">
        <ele>31</ele>
        <time>2019-08-11T16:50:00Z</time>
      </trkpt>
      <trkpt lat="44.49561" lon="-1.07626">
        <ele>31</ele>
        <time>2019-08-11T16:50:10Z</time>
      </trkpt>
      <trkpt lat="44.49561" lon="-1.07626">
        <ele>31</ele>
        <time>2019-08-11T16:50:15Z</time>
      </trkpt>
      <trkpt lat="44.49561" lon="-1.07626">
        <ele>31</ele>
        <time>2019-08-11T16:50:25Z</time>
      </trkpt>
      <trkpt lat="44.49561" lon="-1.07626">
        <ele>31</ele>
        <time>2019-08-11T16:50:30Z</time>
      </trkpt>
      <trkpt lat="44.49561" lon="-1.07626">
        <ele>31</ele>
        <time>2019-08-11T16:50:40Z</time>
      </trkpt>
      <trkpt lat="44.49561" lon="-1.07626">
        <ele>31</ele>
        <time>2019-08-11T16:50:45Z</time>
      </trkpt>
      <trkpt lat="44.49561" lon="-1.07626">
        <ele>31</ele>
        <time>2019-08-11T16:50:55Z</time>
      </trkpt>
      <trkpt lat="44.49561" lon="-1.07626">
        <ele>31</ele>
        <time>2019-08-11T16:51:00Z</time>
      </trkpt>
      <trkpt lat="44.49561" lon="-1.07626">
        <ele>31</ele>
        <time>2019-08-11T16:51:10Z</time>
      </trkpt>
      <trkpt lat="44.49561" lon="-1.07626">
        <ele>31</ele>
        <time>2019-08-11T16:51:15Z</time>
      </trkpt>
      <trkpt lat="44.49561" lon="-1.07626">
        <ele>31</ele>
        <time>2019-08-11T16:51:25Z</time>
      </trkpt>
      <trkpt lat="44.49561" lon="-1.07625">
        <ele>31</ele>
        <time>2019-08-11T16:51:30Z</time>
      </trkpt>
      <trkpt lat="44.49561" lon="-1.07625">
        <ele>31</ele>
        <time>2019-08-11T16:51:40Z</time>
      </trkpt>
      <trkpt lat="44.49561" lon="-1.07625">
        <ele>31</ele>
        <time>2019-08-11T16:51:50Z</time>
      </trkpt>
      <trkpt lat="44.49561" lon="-1.07626">
        <ele>31</ele>
        <time>2019-08-11T16:51:55Z</time>
      </trkpt>
      <trkpt lat="44.49561" lon="-1.07626">
        <ele>31</ele>
        <time>2019-08-11T16:52:05Z</time>
      </trkpt>
      <trkpt lat="44.49561" lon="-1.07626">
        <ele>31</ele>
        <time>2019-08-11T16:52:10Z</time>
      </trkpt>
      <trkpt lat="44.49562" lon="-1.07626">
        <ele>31</ele>
        <time>2019-08-11T16:52:20Z</time>
      </trkpt>
      <trkpt lat="44.49562" lon="-1.07626">
        <ele>31</ele>
        <time>2019-08-11T16:52:25Z</time>
      </trkpt>
      <trkpt lat="44.49562" lon="-1.07626">
        <ele>31</ele>
        <time>2019-08-11T16:52:35Z</time>
      </trkpt>
      <trkpt lat="44.49562" lon="-1.07626">
        <ele>31</ele>
        <time>2019-08-11T16:52:40Z</time>
      </trkpt>
      <trkpt lat="44.49562" lon="-1.07626">
        <ele>31</ele>
        <time>2019-08-11T16:52:50Z</time>
      </trkpt>
      <trkpt lat="44.49562" lon="-1.07626">
        <ele>31</ele>
        <time>2019-08-11T16:52:55Z</time>
      </trkpt>
      <trkpt lat="44.49562" lon="-1.07626">
        <ele>31</ele>
        <time>2019-08-11T16:53:05Z</time>
      </trkpt>
      <trkpt lat="44.49562" lon="-1.07627">
        <ele>31</ele>
        <time>2019-08-11T16:53:15Z</time>
      </trkpt>
      <trkpt lat="44.49562" lon="-1.07627">
        <ele>31</ele>
        <time>2019-08-11T16:53:20Z</time>
      </trkpt>
      <trkpt lat="44.49562" lon="-1.07627">
        <ele>31</ele>
        <time>2019-08-11T16:53:30Z</time>
      </trkpt>
      <trkpt lat="44.49562" lon="-1.07627">
        <ele>31</ele>
        <time>2019-08-11T16:53:35Z</time>
      </trkpt>
      <trkpt lat="44.49562" lon="-1.07627">
        <ele>31</ele>
        <time>2019-08-11T16:53:45Z</time>
      </trkpt>
      <trkpt lat="44.49562" lon="-1.07627">
        <ele>31</ele>
        <time>2019-08-11T16:53:50Z</time>
      </trkpt>
      <trkpt lat="44.49562" lon="-1.07627">
        <ele>31</ele>
        <time>2019-08-11T16:54:00Z</time>
      </trkpt>
      <trkpt lat="44.49562" lon="-1.07627">
        <ele>31</ele>
        <time>2019-08-11T16:54:05Z</time>
      </trkpt>
      <trkpt lat="44.49562" lon="-1.07627">
        <ele>31</ele>
        <time>2019-08-11T16:54:15Z</time>
      </trkpt>
      <trkpt lat="44.49562" lon="-1.07627">
        <ele>31</ele>
        <time>2019-08-11T16:54:20Z</time>
      </trkpt>
      <trkpt lat="44.49562" lon="-1.07628">
        <ele>31</ele>
        <time>2019-08-11T16:54:30Z</time>
      </trkpt>
      <trkpt lat="44.49562" lon="-1.07627">
        <ele>31</ele>
        <time>2019-08-11T16:54:35Z</time>
      </trkpt>
      <trkpt lat="44.49562" lon="-1.07627">
        <ele>31</ele>
        <time>2019-08-11T16:54:45Z</time>
      </trkpt>
      <trkpt lat="44.49562" lon="-1.07627">
        <ele>31</ele>
        <time>2019-08-11T16:54:55Z</time>
      </trkpt>
      <trkpt lat="44.49562" lon="-1.07627">
        <ele>31</ele>
        <time>2019-08-11T16:55:00Z</time>
      </trkpt>
      <trkpt lat="44.49562" lon="-1.07627">
        <ele>31</ele>
        <time>2019-08-11T16:55:10Z</time>
      </trkpt>
      <trkpt lat="44.49562" lon="-1.07627">
        <ele>31</ele>
        <time>2019-08-11T16:55:15Z</time>
      </trkpt>
      <trkpt lat="44.49562" lon="-1.07627">
        <ele>31</ele>
        <time>2019-08-11T16:55:25Z</time>
      </trkpt>
      <trkpt lat="44.49562" lon="-1.07627">
        <ele>31</ele>
        <time>2019-08-11T16:55:30Z</time>
      </trkpt>
      <trkpt lat="44.49562" lon="-1.07627">
        <ele>31</ele>
        <time>2019-08-11T16:55:40Z</time>
      </trkpt>
      <trkpt lat="44.49562" lon="-1.07627">
        <ele>31</ele>
        <time>2019-08-11T16:55:45Z</time>
      </trkpt>
      <trkpt lat="44.49562" lon="-1.07627">
        <ele>31</ele>
        <time>2019-08-11T16:55:55Z</time>
      </trkpt>
      <trkpt lat="44.49562" lon="-1.07627">
        <ele>31</ele>
        <time>2019-08-11T16:56:00Z</time>
      </trkpt>
      <trkpt lat="44.49562" lon="-1.07627">
        <ele>31</ele>
        <time>2019-08-11T16:56:10Z</time>
      </trkpt>
      <trkpt lat="44.49562" lon="-1.07627">
        <ele>31</ele>
        <time>2019-08-11T16:56:15Z</time>
      </trkpt>
      <trkpt lat="44.49562" lon="-1.07627">
        <ele>31</ele>
        <time>2019-08-11T16:56:25Z</time>
      </trkpt>
      <trkpt lat="44.49562" lon="-1.07627">
        <ele>31</ele>
        <time>2019-08-11T16:56:35Z</time>
      </trkpt>
      <trkpt lat="44.49562" lon="-1.07627">
        <ele>31</ele>
        <time>2019-08-11T16:56:40Z</time>
      </trkpt>
      <trkpt lat="44.49562" lon="-1.07627">
        <ele>31</ele>
        <time>2019-08-11T16:56:50Z</time>
      </trkpt>
      <trkpt lat="44.49562" lon="-1.07627">
        <ele>31</ele>
        <time>2019-08-11T16:56:55Z</time>
      </trkpt>
      <trkpt lat="44.49562" lon="-1.07627">
        <ele>31</ele>
        <time>2019-08-11T16:57:05Z</time>
      </trkpt>
      <trkpt lat="44.49562" lon="-1.07627">
        <ele>31</ele>
        <time>2019-08-11T16:57:10Z</time>
      </trkpt>
      <trkpt lat="44.49562" lon="-1.07627">
        <ele>31</ele>
        <time>2019-08-11T16:57:20Z</time>
      </trkpt>
      <trkpt lat="44.49562" lon="-1.07627">
        <ele>31</ele>
        <time>2019-08-11T16:57:25Z</time>
      </trkpt>
      <trkpt lat="44.49562" lon="-1.07627">
        <ele>31</ele>
        <time>2019-08-11T16:57:35Z</time>
      </trkpt>
      <trkpt lat="44.49563" lon="-1.07627">
        <ele>31</ele>
        <time>2019-08-11T16:57:40Z</time>
      </trkpt>
      <trkpt lat="44.49564" lon="-1.07628">
        <ele>31</ele>
        <time>2019-08-11T16:57:50Z</time>
      </trkpt>
      <trkpt lat="44.49565" lon="-1.07628">
        <ele>31</ele>
        <time>2019-08-11T16:57:55Z</time>
      </trkpt>
      <trkpt lat="44.49565" lon="-1.07629">
        <ele>31</ele>
        <time>2019-08-11T16:58:05Z</time>
      </trkpt>
      <trkpt lat="44.49566" lon="-1.07629">
        <ele>31</ele>
        <time>2019-08-11T16:58:15Z</time>
      </trkpt>
      <trkpt lat="44.49567" lon="-1.0763">
        <ele>31</ele>
        <time>2019-08-11T16:58:20Z</time>
      </trkpt>
      <trkpt lat="44.4957" lon="-1.07629">
        <ele>31</ele>
        <time>2019-08-11T16:58:30Z</time>
      </trkpt>
      <trkpt lat="44.4957" lon="-1.07629">
        <ele>31</ele>
        <time>2019-08-11T16:58:35Z</time>
      </trkpt>
      <trkpt lat="44.49571" lon="-1.0763">
        <ele>31</ele>
        <time>2019-08-11T16:58:45Z</time>
      </trkpt>
      <trkpt lat="44.49571" lon="-1.07631">
        <ele>31</ele>
        <time>2019-08-11T16:58:50Z</time>
      </trkpt>
      <trkpt lat="44.4957" lon="-1.07631">
        <ele>31</ele>
        <time>2019-08-11T16:59:00Z</time>
      </trkpt>
      <trkpt lat="44.4957" lon="-1.07631">
        <ele>31</ele>
        <time>2019-08-11T16:59:05Z</time>
      </trkpt>
      <trkpt lat="44.49571" lon="-1.07634">
        <ele>31</ele>
        <time>2019-08-11T16:59:15Z</time>
      </trkpt>
      <trkpt lat="44.49571" lon="-1.07635">
        <ele>31</ele>
        <time>2019-08-11T16:59:20Z</time>
      </trkpt>
      <trkpt lat="44.49572" lon="-1.07637">
        <ele>31</ele>
        <time>2019-08-11T16:59:30Z</time>
      </trkpt>
      <trkpt lat="44.49572" lon="-1.07638">
        <ele>31</ele>
        <time>2019-08-11T16:59:35Z</time>
      </trkpt>
      <trkpt lat="44.49572" lon="-1.07638">
        <ele>31</ele>
        <time>2019-08-11T16:59:45Z</time>
      </trkpt>
      <trkpt lat="44.49572" lon="-1.07638">
        <ele>31</ele>
        <time>2019-08-11T16:59:55Z</time>
      </trkpt>
      <trkpt lat="44.49572" lon="-1.07638">
        <ele>31</ele>
        <time>2019-08-11T17:00:00Z</time>
      </trkpt>
      <trkpt lat="44.49572" lon="-1.07638">
        <ele>31</ele>
        <time>2019-08-11T17:00:10Z</time>
      </trkpt>
      <trkpt lat="44.49572" lon="-1.07638">
        <ele>31</ele>
        <time>2019-08-11T17:00:15Z</time>
      </trkpt>
      <trkpt lat="44.49572" lon="-1.07638">
        <ele>31</ele>
        <time>2019-08-11T17:00:25Z</time>
      </trkpt>
      <trkpt lat="44.49572" lon="-1.07638">
        <ele>31</ele>
        <time>2019-08-11T17:00:30Z</time>
      </trkpt>
      <trkpt lat="44.49572" lon="-1.07638">
        <ele>31</ele>
        <time>2019-08-11T17:00:40Z</time>
      </trkpt>
      <trkpt lat="44.49572" lon="-1.07638">
        <ele>31</ele>
        <time>2019-08-11T17:00:45Z</time>
      </trkpt>
      <trkpt lat="44.49572" lon="-1.07638">
        <ele>31</ele>
        <time>2019-08-11T17:00:55Z</time>
      </trkpt>
      <trkpt lat="44.49572" lon="-1.07638">
        <ele>31</ele>
        <time>2019-08-11T17:01:00Z</time>
      </trkpt>
      <trkpt lat="44.49572" lon="-1.07638">
        <ele>31</ele>
        <time>2019-08-11T17:01:10Z</time>
      </trkpt>
      <trkpt lat="44.49572" lon="-1.07638">
        <ele>31</ele>
        <time>2019-08-11T17:01:20Z</time>
      </trkpt>
      <trkpt lat="44.49572" lon="-1.07638">
        <ele>31</ele>
        <time>2019-08-11T17:01:25Z</time>
      </trkpt>
      <trkpt lat="44.49572" lon="-1.07638">
        <ele>31</ele>
        <time>2019-08-11T17:01:35Z</time>
      </trkpt>
      <trkpt lat="44.49572" lon="-1.07638">
        <ele>31</ele>
        <time>2019-08-11T17:01:40Z</time>
      </trkpt>
      <trkpt lat="44.49572" lon="-1.07638">
        <ele>31</ele>
        <time>2019-08-11T17:01:50Z</time>
      </trkpt>
      <trkpt lat="44.49572" lon="-1.07638">
        <ele>31</ele>
        <time>2019-08-11T17:01:55Z</time>
      </trkpt>
      <trkpt lat="44.49572" lon="-1.07638">
        <ele>31</ele>
        <time>2019-08-11T17:02:05Z</time>
      </trkpt>
      <trkpt lat="44.49572" lon="-1.07638">
        <ele>31</ele>
        <time>2019-08-11T17:02:10Z</time>
      </trkpt>
      <trkpt lat="44.49572" lon="-1.07638">
        <ele>31</ele>
        <time>2019-08-11T17:02:20Z</time>
      </trkpt>
      <trkpt lat="44.49572" lon="-1.07638">
        <ele>31</ele>
        <time>2019-08-11T17:02:25Z</time>
      </trkpt>
      <trkpt lat="44.49572" lon="-1.07638">
        <ele>31</ele>
        <time>2019-08-11T17:02:35Z</time>
      </trkpt>
      <trkpt lat="44.49572" lon="-1.07638">
        <ele>31</ele>
        <time>2019-08-11T17:02:40Z</time>
      </trkpt>
      <trkpt lat="44.49572" lon="-1.07638">
        <ele>31</ele>
        <time>2019-08-11T17:02:50Z</time>
      </trkpt>
      <trkpt lat="44.49572" lon="-1.07637">
        <ele>31</ele>
        <time>2019-08-11T17:03:00Z</time>
      </trkpt>
      <trkpt lat="44.49572" lon="-1.07637">
        <ele>31</ele>
        <time>2019-08-11T17:03:05Z</time>
      </trkpt>
      <trkpt lat="44.49572" lon="-1.07637">
        <ele>31</ele>
        <time>2019-08-11T17:03:15Z</time>
      </trkpt>
      <trkpt lat="44.49572" lon="-1.07637">
        <ele>31</ele>
        <time>2019-08-11T17:03:20Z</time>
      </trkpt>
      <trkpt lat="44.49572" lon="-1.07637">
        <ele>31</ele>
        <time>2019-08-11T17:03:30Z</time>
      </trkpt>
      <trkpt lat="44.49572" lon="-1.07637">
        <ele>31</ele>
        <time>2019-08-11T17:03:35Z</time>
      </trkpt>
      <trkpt lat="44.49571" lon="-1.07637">
        <ele>31</ele>
        <time>2019-08-11T17:03:45Z</time>
      </trkpt>
      <trkpt lat="44.49572" lon="-1.07637">
        <ele>31</ele>
        <time>2019-08-11T17:03:50Z</time>
      </trkpt>
      <trkpt lat="44.49572" lon="-1.07637">
        <ele>31</ele>
        <time>2019-08-11T17:04:00Z</time>
      </trkpt>
      <trkpt lat="44.49572" lon="-1.07637">
        <ele>31</ele>
        <time>2019-08-11T17:04:05Z</time>
      </trkpt>
      <trkpt lat="44.49572" lon="-1.07637">
        <ele>31</ele>
        <time>2019-08-11T17:04:15Z</time>
      </trkpt>
      <trkpt lat="44.49571" lon="-1.07638">
        <ele>31</ele>
        <time>2019-08-11T17:04:20Z</time>
      </trkpt>
      <trkpt lat="44.49571" lon="-1.07637">
        <ele>31</ele>
        <time>2019-08-11T17:04:30Z</time>
      </trkpt>
      <trkpt lat="44.49573" lon="-1.07635">
        <ele>31</ele>
        <time>2019-08-11T17:04:40Z</time>
      </trkpt>
      <trkpt lat="44.4958" lon="-1.07632">
        <ele>31</ele>
        <time>2019-08-11T17:04:45Z</time>
      </trkpt>
      <trkpt lat="44.4958" lon="-1.07631">
        <ele>31</ele>
        <time>2019-08-11T17:04:55Z</time>
      </trkpt>
      <trkpt lat="44.49581" lon="-1.07632">
        <ele>31</ele>
        <time>2019-08-11T17:05:00Z</time>
      </trkpt>
      <trkpt lat="44.49581" lon="-1.07632">
        <ele>31</ele>
        <time>2019-08-11T17:05:10Z</time>
      </trkpt>
      <trkpt lat="44.49581" lon="-1.07632">
        <ele>31</ele>
        <time>2019-08-11T17:05:15Z</time>
      </trkpt>
      <trkpt lat="44.49581" lon="-1.07632">
        <ele>31</ele>
        <time>2019-08-11T17:05:25Z</time>
      </trkpt>
      <trkpt lat="44.49581" lon="-1.07632">
        <ele>31</ele>
        <time>2019-08-11T17:05:30Z</time>
      </trkpt>
      <trkpt lat="44.49581" lon="-1.07632">
        <ele>31</ele>
        <time>2019-08-11T17:05:40Z</time>
      </trkpt>
      <trkpt lat="44.49581" lon="-1.07632">
        <ele>31</ele>
        <time>2019-08-11T17:05:45Z</time>
      </trkpt>
      <trkpt lat="44.49581" lon="-1.07632">
        <ele>31</ele>
        <time>2019-08-11T17:05:55Z</time>
      </trkpt>
      <trkpt lat="44.49581" lon="-1.07632">
        <ele>31</ele>
        <time>2019-08-11T17:06:00Z</time>
      </trkpt>
      <trkpt lat="44.4958" lon="-1.07632">
        <ele>31</ele>
        <time>2019-08-11T17:06:10Z</time>
      </trkpt>
      <trkpt lat="44.4958" lon="-1.07632">
        <ele>31</ele>
        <time>2019-08-11T17:06:20Z</time>
      </trkpt>
      <trkpt lat="44.4958" lon="-1.07632">
        <ele>31</ele>
        <time>2019-08-11T17:06:25Z</time>
      </trkpt>
      <trkpt lat="44.49581" lon="-1.07632">
        <ele>31</ele>
        <time>2019-08-11T17:06:35Z</time>
      </trkpt>
      <trkpt lat="44.49581" lon="-1.07633">
        <ele>31</ele>
        <time>2019-08-11T17:06:40Z</time>
      </trkpt>
      <trkpt lat="44.49581" lon="-1.07633">
        <ele>31</ele>
        <time>2019-08-11T17:06:50Z</time>
      </trkpt>
      <trkpt lat="44.49581" lon="-1.07633">
        <ele>31</ele>
        <time>2019-08-11T17:06:55Z</time>
      </trkpt>
      <trkpt lat="44.49581" lon="-1.07633">
        <ele>31</ele>
        <time>2019-08-11T17:07:05Z</time>
      </trkpt>
      <trkpt lat="44.49581" lon="-1.07633">
        <ele>31</ele>
        <time>2019-08-11T17:07:10Z</time>
      </trkpt>
      <trkpt lat="44.49581" lon="-1.07633">
        <ele>31</ele>
        <time>2019-08-11T17:07:20Z</time>
      </trkpt>
      <trkpt lat="44.49581" lon="-1.07633">
        <ele>31</ele>
        <time>2019-08-11T17:07:25Z</time>
      </trkpt>
      <trkpt lat="44.49581" lon="-1.07633">
        <ele>31</ele>
        <time>2019-08-11T17:07:35Z</time>
      </trkpt>
      <trkpt lat="44.49581" lon="-1.07633">
        <ele>31</ele>
        <time>2019-08-11T17:07:45Z</time>
      </trkpt>
      <trkpt lat="44.4958" lon="-1.07633">
        <ele>31</ele>
        <time>2019-08-11T17:07:50Z</time>
      </trkpt>
      <trkpt lat="44.4958" lon="-1.07633">
        <ele>31</ele>
        <time>2019-08-11T17:08:00Z</time>
      </trkpt>
      <trkpt lat="44.4958" lon="-1.07632">
        <ele>31</ele>
        <time>2019-08-11T17:08:05Z</time>
      </trkpt>
      <trkpt lat="44.4958" lon="-1.07632">
        <ele>31</ele>
        <time>2019-08-11T17:08:15Z</time>
      </trkpt>
      <trkpt lat="44.4958" lon="-1.07632">
        <ele>31</ele>
        <time>2019-08-11T17:08:20Z</time>
      </trkpt>
      <trkpt lat="44.4958" lon="-1.07632">
        <ele>31</ele>
        <time>2019-08-11T17:08:30Z</time>
      </trkpt>
      <trkpt lat="44.4958" lon="-1.07632">
        <ele>31</ele>
        <time>2019-08-11T17:08:35Z</time>
      </trkpt>
      <trkpt lat="44.4958" lon="-1.07632">
        <ele>31</ele>
        <time>2019-08-11T17:08:45Z</time>
      </trkpt>
      <trkpt lat="44.4958" lon="-1.07632">
        <ele>31</ele>
        <time>2019-08-11T17:08:50Z</time>
      </trkpt>
      <trkpt lat="44.4958" lon="-1.07632">
        <ele>31</ele>
        <time>2019-08-11T17:09:00Z</time>
      </trkpt>
      <trkpt lat="44.4958" lon="-1.07632">
        <ele>31</ele>
        <time>2019-08-11T17:09:05Z</time>
      </trkpt>
      <trkpt lat="44.4958" lon="-1.07632">
        <ele>31</ele>
        <time>2019-08-11T17:09:15Z</time>
      </trkpt>
      <trkpt lat="44.4958" lon="-1.07632">
        <ele>31</ele>
        <time>2019-08-11T17:09:25Z</time>
      </trkpt>
      <trkpt lat="44.4958" lon="-1.07632">
        <ele>31</ele>
        <time>2019-08-11T17:09:30Z</time>
      </trkpt>
      <trkpt lat="44.4958" lon="-1.07632">
        <ele>31</ele>
        <time>2019-08-11T17:09:40Z</time>
      </trkpt>
      <trkpt lat="44.4958" lon="-1.07632">
        <ele>31</ele>
        <time>2019-08-11T17:09:45Z</time>
      </trkpt>
      <trkpt lat="44.4958" lon="-1.07632">
        <ele>31</ele>
        <time>2019-08-11T17:09:55Z</time>
      </trkpt>
      <trkpt lat="44.4958" lon="-1.07632">
        <ele>31</ele>
        <time>2019-08-11T17:10:00Z</time>
      </trkpt>
      <trkpt lat="44.4958" lon="-1.07632">
        <ele>31</ele>
        <time>2019-08-11T17:10:10Z</time>
      </trkpt>
      <trkpt lat="44.4958" lon="-1.07632">
        <ele>31</ele>
        <time>2019-08-11T17:10:15Z</time>
      </trkpt>
      <trkpt lat="44.4958" lon="-1.07632">
        <ele>31</ele>
        <time>2019-08-11T17:10:25Z</time>
      </trkpt>
      <trkpt lat="44.4958" lon="-1.07632">
        <ele>31</ele>
        <time>2019-08-11T17:10:30Z</time>
      </trkpt>
      <trkpt lat="44.4958" lon="-1.07632">
        <ele>31</ele>
        <time>2019-08-11T17:10:40Z</time>
      </trkpt>
      <trkpt lat="44.4958" lon="-1.07632">
        <ele>31</ele>
        <time>2019-08-11T17:10:45Z</time>
      </trkpt>
      <trkpt lat="44.4958" lon="-1.07632">
        <ele>31</ele>
        <time>2019-08-11T17:10:55Z</time>
      </trkpt>
      <trkpt lat="44.4958" lon="-1.07632">
        <ele>31</ele>
        <time>2019-08-11T17:11:05Z</time>
      </trkpt>
      <trkpt lat="44.4958" lon="-1.07632">
        <ele>31</ele>
        <time>2019-08-11T17:11:10Z</time>
      </trkpt>
      <trkpt lat="44.4958" lon="-1.07632">
        <ele>31</ele>
        <time>2019-08-11T17:11:20Z</time>
      </trkpt>
      <trkpt lat="44.4958" lon="-1.07632">
        <ele>31</ele>
        <time>2019-08-11T17:11:25Z</time>
      </trkpt>
      <trkpt lat="44.4958" lon="-1.07632">
        <ele>31</ele>
        <time>2019-08-11T17:11:35Z</time>
      </trkpt>
      <trkpt lat="44.49579" lon="-1.07632">
        <ele>31</ele>
        <time>2019-08-11T17:11:40Z</time>
      </trkpt>
      <trkpt lat="44.49579" lon="-1.07632">
        <ele>31</ele>
        <time>2019-08-11T17:11:50Z</time>
      </trkpt>
      <trkpt lat="44.49579" lon="-1.07632">
        <ele>31</ele>
        <time>2019-08-11T17:11:55Z</time>
      </trkpt>
      <trkpt lat="44.49579" lon="-1.07632">
        <ele>31</ele>
        <time>2019-08-11T17:12:05Z</time>
      </trkpt>
      <trkpt lat="44.49579" lon="-1.07632">
        <ele>31</ele>
        <time>2019-08-11T17:12:10Z</time>
      </trkpt>
      <trkpt lat="44.49579" lon="-1.07632">
        <ele>31</ele>
        <time>2019-08-11T17:12:20Z</time>
      </trkpt>
      <trkpt lat="44.49579" lon="-1.07632">
        <ele>31</ele>
        <time>2019-08-11T17:12:25Z</time>
      </trkpt>
      <trkpt lat="44.49579" lon="-1.07632">
        <ele>31</ele>
        <time>2019-08-11T17:12:35Z</time>
      </trkpt>
      <trkpt lat="44.49579" lon="-1.07632">
        <ele>31</ele>
        <time>2019-08-11T17:12:45Z</time>
      </trkpt>
      <trkpt lat="44.49579" lon="-1.07632">
        <ele>31</ele>
        <time>2019-08-11T17:12:50Z</time>
      </trkpt>
      <trkpt lat="44.49579" lon="-1.07631">
        <ele>31</ele>
        <time>2019-08-11T17:13:00Z</time>
      </trkpt>
      <trkpt lat="44.49579" lon="-1.07631">
        <ele>31</ele>
        <time>2019-08-11T17:13:05Z</time>
      </trkpt>
      <trkpt lat="44.49579" lon="-1.07631">
        <ele>31</ele>
        <time>2019-08-11T17:13:15Z</time>
      </trkpt>
      <trkpt lat="44.49579" lon="-1.07631">
        <ele>31</ele>
        <time>2019-08-11T17:13:20Z</time>
      </trkpt>
      <trkpt lat="44.49579" lon="-1.07631">
        <ele>31</ele>
        <time>2019-08-11T17:13:30Z</time>
      </trkpt>
      <trkpt lat="44.49579" lon="-1.07631">
        <ele>31</ele>
        <time>2019-08-11T17:13:35Z</time>
      </trkpt>
      <trkpt lat="44.49579" lon="-1.07631">
        <ele>31</ele>
        <time>2019-08-11T17:13:45Z</time>
      </trkpt>
      <trkpt lat="44.49579" lon="-1.07631">
        <ele>31</ele>
        <time>2019-08-11T17:13:50Z</time>
      </trkpt>
      <trkpt lat="44.49578" lon="-1.07631">
        <ele>31</ele>
        <time>2019-08-11T17:14:00Z</time>
      </trkpt>
      <trkpt lat="44.49578" lon="-1.07631">
        <ele>31</ele>
        <time>2019-08-11T17:14:05Z</time>
      </trkpt>
      <trkpt lat="44.49578" lon="-1.07631">
        <ele>31</ele>
        <time>2019-08-11T17:14:15Z</time>
      </trkpt>
      <trkpt lat="44.49578" lon="-1.07631">
        <ele>31</ele>
        <time>2019-08-11T17:14:25Z</time>
      </trkpt>
      <trkpt lat="44.49578" lon="-1.07631">
        <ele>31</ele>
        <time>2019-08-11T17:14:30Z</time>
      </trkpt>
      <trkpt lat="44.49577" lon="-1.0763">
        <ele>31</ele>
        <time>2019-08-11T17:14:40Z</time>
      </trkpt>
      <trkpt lat="44.49577" lon="-1.0763">
        <ele>31</ele>
        <time>2019-08-11T17:14:45Z</time>
      </trkpt>
      <trkpt lat="44.49577" lon="-1.0763">
        <ele>31</ele>
        <time>2019-08-11T17:14:55Z</time>
      </trkpt>
      <trkpt lat="44.49576" lon="-1.0763">
        <ele>31</ele>
        <time>2019-08-11T17:15:00Z</time>
      </trkpt>
      <trkpt lat="44.49576" lon="-1.07629">
        <ele>31</ele>
        <time>2019-08-11T17:15:10Z</time>
      </trkpt>
      <trkpt lat="44.49575" lon="-1.07629">
        <ele>31</ele>
        <time>2019-08-11T17:15:15Z</time>
      </trkpt>
      <trkpt lat="44.49574" lon="-1.07628">
        <ele>31</ele>
        <time>2019-08-11T17:15:25Z</time>
      </trkpt>
      <trkpt lat="44.49574" lon="-1.07628">
        <ele>31</ele>
        <time>2019-08-11T17:15:30Z</time>
      </trkpt>
      <trkpt lat="44.49574" lon="-1.07628">
        <ele>31</ele>
        <time>2019-08-11T17:15:40Z</time>
      </trkpt>
      <trkpt lat="44.49574" lon="-1.07627">
        <ele>31</ele>
        <time>2019-08-11T17:15:50Z</time>
      </trkpt>
      <trkpt lat="44.49574" lon="-1.07627">
        <ele>31</ele>
        <time>2019-08-11T17:15:55Z</time>
      </trkpt>
      <trkpt lat="44.49574" lon="-1.07627">
        <ele>31</ele>
        <time>2019-08-11T17:16:05Z</time>
      </trkpt>
      <trkpt lat="44.49574" lon="-1.07627">
        <ele>31</ele>
        <time>2019-08-11T17:16:10Z</time>
      </trkpt>
      <trkpt lat="44.49573" lon="-1.07627">
        <ele>31</ele>
        <time>2019-08-11T17:16:20Z</time>
      </trkpt>
      <trkpt lat="44.49573" lon="-1.07627">
        <ele>31</ele>
        <time>2019-08-11T17:16:25Z</time>
      </trkpt>
      <trkpt lat="44.49573" lon="-1.07627">
        <ele>31</ele>
        <time>2019-08-11T17:16:35Z</time>
      </trkpt>
      <trkpt lat="44.49573" lon="-1.07627">
        <ele>31</ele>
        <time>2019-08-11T17:16:40Z</time>
      </trkpt>
      <trkpt lat="44.49573" lon="-1.07627">
        <ele>31</ele>
        <time>2019-08-11T17:16:50Z</time>
      </trkpt>
      <trkpt lat="44.49572" lon="-1.07627">
        <ele>31</ele>
        <time>2019-08-11T17:16:55Z</time>
      </trkpt>
      <trkpt lat="44.49572" lon="-1.07626">
        <ele>31</ele>
        <time>2019-08-11T17:17:05Z</time>
      </trkpt>
      <trkpt lat="44.49572" lon="-1.07626">
        <ele>31</ele>
        <time>2019-08-11T17:17:10Z</time>
      </trkpt>
      <trkpt lat="44.49571" lon="-1.07626">
        <ele>31</ele>
        <time>2019-08-11T17:17:20Z</time>
      </trkpt>
      <trkpt lat="44.49571" lon="-1.07626">
        <ele>31</ele>
        <time>2019-08-11T17:17:30Z</time>
      </trkpt>
      <trkpt lat="44.49571" lon="-1.07626">
        <ele>31</ele>
        <time>2019-08-11T17:17:35Z</time>
      </trkpt>
      <trkpt lat="44.49571" lon="-1.07625">
        <ele>31</ele>
        <time>2019-08-11T17:17:45Z</time>
      </trkpt>
      <trkpt lat="44.49571" lon="-1.07625">
        <ele>31</ele>
        <time>2019-08-11T17:17:50Z</time>
      </trkpt>
      <trkpt lat="44.49571" lon="-1.07625">
        <ele>31</ele>
        <time>2019-08-11T17:18:00Z</time>
      </trkpt>
      <trkpt lat="44.49571" lon="-1.07625">
        <ele>31</ele>
        <time>2019-08-11T17:18:05Z</time>
      </trkpt>
      <trkpt lat="44.4957" lon="-1.07625">
        <ele>31</ele>
        <time>2019-08-11T17:18:15Z</time>
      </trkpt>
      <trkpt lat="44.4957" lon="-1.07625">
        <ele>31</ele>
        <time>2019-08-11T17:18:20Z</time>
      </trkpt>
      <trkpt lat="44.4957" lon="-1.07625">
        <ele>31</ele>
        <time>2019-08-11T17:18:30Z</time>
      </trkpt>
      <trkpt lat="44.4957" lon="-1.07625">
        <ele>31</ele>
        <time>2019-08-11T17:18:35Z</time>
      </trkpt>
      <trkpt lat="44.4957" lon="-1.07625">
        <ele>31</ele>
        <time>2019-08-11T17:18:45Z</time>
      </trkpt>
      <trkpt lat="44.4957" lon="-1.07625">
        <ele>31</ele>
        <time>2019-08-11T17:18:50Z</time>
      </trkpt>
      <trkpt lat="44.4957" lon="-1.07625">
        <ele>31</ele>
        <time>2019-08-11T17:19:00Z</time>
      </trkpt>
      <trkpt lat="44.4957" lon="-1.07625">
        <ele>31</ele>
        <time>2019-08-11T17:19:10Z</time>
      </trkpt>
      <trkpt lat="44.4957" lon="-1.07625">
        <ele>31</ele>
        <time>2019-08-11T17:19:15Z</time>
      </trkpt>
      <trkpt lat="44.4957" lon="-1.07625">
        <ele>31</ele>
        <time>2019-08-11T17:19:25Z</time>
      </trkpt>
      <trkpt lat="44.49569" lon="-1.07625">
        <ele>31</ele>
        <time>2019-08-11T17:19:30Z</time>
      </trkpt>
      <trkpt lat="44.49569" lon="-1.07625">
        <ele>31</ele>
        <time>2019-08-11T17:19:40Z</time>
      </trkpt>
      <trkpt lat="44.49569" lon="-1.07625">
        <ele>31</ele>
        <time>2019-08-11T17:19:45Z</time>
      </trkpt>
      <trkpt lat="44.49569" lon="-1.07625">
        <ele>31</ele>
        <time>2019-08-11T17:19:55Z</time>
      </trkpt>
      <trkpt lat="44.49569" lon="-1.07625">
        <ele>31</ele>
        <time>2019-08-11T17:20:00Z</time>
      </trkpt>
      <trkpt lat="44.49569" lon="-1.07625">
        <ele>31</ele>
        <time>2019-08-11T17:20:10Z</time>
      </trkpt>
      <trkpt lat="44.49569" lon="-1.07625">
        <ele>31</ele>
        <time>2019-08-11T17:20:15Z</time>
      </trkpt>
      <trkpt lat="44.49568" lon="-1.07625">
        <ele>31</ele>
        <time>2019-08-11T17:20:25Z</time>
      </trkpt>
      <trkpt lat="44.49568" lon="-1.07625">
        <ele>31</ele>
        <time>2019-08-11T17:20:30Z</time>
      </trkpt>
      <trkpt lat="44.49568" lon="-1.07625">
        <ele>31</ele>
        <time>2019-08-11T17:20:40Z</time>
      </trkpt>
      <trkpt lat="44.49568" lon="-1.07625">
        <ele>31</ele>
        <time>2019-08-11T17:20:50Z</time>
      </trkpt>
      <trkpt lat="44.49567" lon="-1.07625">
        <ele>31</ele>
        <time>2019-08-11T17:20:55Z</time>
      </trkpt>
      <trkpt lat="44.49567" lon="-1.07625">
        <ele>31</ele>
        <time>2019-08-11T17:21:05Z</time>
      </trkpt>
      <trkpt lat="44.49566" lon="-1.07625">
        <ele>31</ele>
        <time>2019-08-11T17:21:10Z</time>
      </trkpt>
      <trkpt lat="44.49565" lon="-1.07624">
        <ele>31</ele>
        <time>2019-08-11T17:21:20Z</time>
      </trkpt>
      <trkpt lat="44.49564" lon="-1.07623">
        <ele>31</ele>
        <time>2019-08-11T17:21:25Z</time>
      </trkpt>
      <trkpt lat="44.49562" lon="-1.07623">
        <ele>31</ele>
        <time>2019-08-11T17:21:35Z</time>
      </trkpt>
      <trkpt lat="44.49562" lon="-1.07623">
        <ele>31</ele>
        <time>2019-08-11T17:21:40Z</time>
      </trkpt>
      <trkpt lat="44.49562" lon="-1.07623">
        <ele>31</ele>
        <time>2019-08-11T17:21:50Z</time>
      </trkpt>
      <trkpt lat="44.49562" lon="-1.07623">
        <ele>31</ele>
        <time>2019-08-11T17:21:55Z</time>
      </trkpt>
      <trkpt lat="44.49561" lon="-1.07622">
        <ele>31</ele>
        <time>2019-08-11T17:22:05Z</time>
      </trkpt>
      <trkpt lat="44.49561" lon="-1.07622">
        <ele>31</ele>
        <time>2019-08-11T17:22:10Z</time>
      </trkpt>
      <trkpt lat="44.4956" lon="-1.07622">
        <ele>31</ele>
        <time>2019-08-11T17:22:20Z</time>
      </trkpt>
      <trkpt lat="44.4956" lon="-1.07621">
        <ele>31</ele>
        <time>2019-08-11T17:22:30Z</time>
      </trkpt>
      <trkpt lat="44.4956" lon="-1.0762">
        <ele>31</ele>
        <time>2019-08-11T17:22:35Z</time>
      </trkpt>
      <trkpt lat="44.49559" lon="-1.0762">
        <ele>31</ele>
        <time>2019-08-11T17:22:45Z</time>
      </trkpt>
      <trkpt lat="44.49558" lon="-1.07619">
        <ele>31</ele>
        <time>2019-08-11T17:22:50Z</time>
      </trkpt>
      <trkpt lat="44.49558" lon="-1.07619">
        <ele>31</ele>
        <time>2019-08-11T17:23:00Z</time>
      </trkpt>
      <trkpt lat="44.49558" lon="-1.07618">
        <ele>31</ele>
        <time>2019-08-11T17:23:05Z</time>
      </trkpt>
      <trkpt lat="44.49557" lon="-1.07618">
        <ele>31</ele>
        <time>2019-08-11T17:23:15Z</time>
      </trkpt>
      <trkpt lat="44.49557" lon="-1.07618">
        <ele>31</ele>
        <time>2019-08-11T17:23:20Z</time>
      </trkpt>
      <trkpt lat="44.49556" lon="-1.07618">
        <ele>31</ele>
        <time>2019-08-11T17:23:30Z</time>
      </trkpt>
      <trkpt lat="44.49556" lon="-1.07618">
        <ele>31</ele>
        <time>2019-08-11T17:23:35Z</time>
      </trkpt>
      <trkpt lat="44.49556" lon="-1.07618">
        <ele>31</ele>
        <time>2019-08-11T17:23:45Z</time>
      </trkpt>
      <trkpt lat="44.49556" lon="-1.07618">
        <ele>31</ele>
        <time>2019-08-11T17:23:55Z</time>
      </trkpt>
      <trkpt lat="44.49556" lon="-1.07618">
        <ele>31</ele>
        <time>2019-08-11T17:24:00Z</time>
      </trkpt>
      <trkpt lat="44.49556" lon="-1.07618">
        <ele>31</ele>
        <time>2019-08-11T17:24:10Z</time>
      </trkpt>
      <trkpt lat="44.49556" lon="-1.07618">
        <ele>31</ele>
        <time>2019-08-11T17:24:15Z</time>
      </trkpt>
      <trkpt lat="44.49554" lon="-1.07617">
        <ele>31</ele>
        <time>2019-08-11T17:24:25Z</time>
      </trkpt>
      <trkpt lat="44.49554" lon="-1.07617">
        <ele>31</ele>
        <time>2019-08-11T17:24:30Z</time>
      </trkpt>
      <trkpt lat="44.49553" lon="-1.07616">
        <ele>31</ele>
        <time>2019-08-11T17:24:40Z</time>
      </trkpt>
      <trkpt lat="44.49553" lon="-1.07614">
        <ele>30</ele>
        <time>2019-08-11T17:24:45Z</time>
      </trkpt>
      <trkpt lat="44.49552" lon="-1.07614">
        <ele>30</ele>
        <time>2019-08-11T17:24:55Z</time>
      </trkpt>
      <trkpt lat="44.49552" lon="-1.07615">
        <ele>31</ele>
        <time>2019-08-11T17:25:00Z</time>
      </trkpt>
      <trkpt lat="44.49552" lon="-1.07615">
        <ele>31</ele>
        <time>2019-08-11T17:25:10Z</time>
      </trkpt>
      <trkpt lat="44.49552" lon="-1.07615">
        <ele>31</ele>
        <time>2019-08-11T17:25:15Z</time>
      </trkpt>
      <trkpt lat="44.49552" lon="-1.07615">
        <ele>31</ele>
        <time>2019-08-11T17:25:25Z</time>
      </trkpt>
      <trkpt lat="44.49552" lon="-1.07615">
        <ele>31</ele>
        <time>2019-08-11T17:25:35Z</time>
      </trkpt>
      <trkpt lat="44.49551" lon="-1.07614">
        <ele>30</ele>
        <time>2019-08-11T17:25:40Z</time>
      </trkpt>
      <trkpt lat="44.49551" lon="-1.07614">
        <ele>30</ele>
        <time>2019-08-11T17:25:50Z</time>
      </trkpt>
      <trkpt lat="44.49551" lon="-1.07614">
        <ele>30</ele>
        <time>2019-08-11T17:25:55Z</time>
      </trkpt>
      <trkpt lat="44.49551" lon="-1.07613">
        <ele>30</ele>
        <time>2019-08-11T17:26:05Z</time>
      </trkpt>
      <trkpt lat="44.49551" lon="-1.07612">
        <ele>30</ele>
        <time>2019-08-11T17:26:10Z</time>
      </trkpt>
      <trkpt lat="44.4955" lon="-1.07612">
        <ele>30</ele>
        <time>2019-08-11T17:26:20Z</time>
      </trkpt>
      <trkpt lat="44.4955" lon="-1.07612">
        <ele>30</ele>
        <time>2019-08-11T17:26:25Z</time>
      </trkpt>
      <trkpt lat="44.49549" lon="-1.07612">
        <ele>30</ele>
        <time>2019-08-11T17:26:35Z</time>
      </trkpt>
      <trkpt lat="44.49549" lon="-1.07612">
        <ele>30</ele>
        <time>2019-08-11T17:26:40Z</time>
      </trkpt>
      <trkpt lat="44.49549" lon="-1.07612">
        <ele>30</ele>
        <time>2019-08-11T17:26:50Z</time>
      </trkpt>
      <trkpt lat="44.49549" lon="-1.07612">
        <ele>30</ele>
        <time>2019-08-11T17:26:55Z</time>
      </trkpt>
      <trkpt lat="44.49549" lon="-1.07612">
        <ele>30</ele>
        <time>2019-08-11T17:27:05Z</time>
      </trkpt>
      <trkpt lat="44.49549" lon="-1.07612">
        <ele>30</ele>
        <time>2019-08-11T17:27:15Z</time>
      </trkpt>
      <trkpt lat="44.49549" lon="-1.07612">
        <ele>30</ele>
        <time>2019-08-11T17:27:20Z</time>
      </trkpt>
      <trkpt lat="44.49549" lon="-1.07612">
        <ele>30</ele>
        <time>2019-08-11T17:27:30Z</time>
      </trkpt>
      <trkpt lat="44.49549" lon="-1.07612">
        <ele>30</ele>
        <time>2019-08-11T17:27:35Z</time>
      </trkpt>
      <trkpt lat="44.49549" lon="-1.07612">
        <ele>30</ele>
        <time>2019-08-11T17:27:45Z</time>
      </trkpt>
      <trkpt lat="44.49549" lon="-1.07612">
        <ele>30</ele>
        <time>2019-08-11T17:27:50Z</time>
      </trkpt>
      <trkpt lat="44.4955" lon="-1.07612">
        <ele>30</ele>
        <time>2019-08-11T17:28:00Z</time>
      </trkpt>
      <trkpt lat="44.4955" lon="-1.07612">
        <ele>30</ele>
        <time>2019-08-11T17:28:05Z</time>
      </trkpt>
      <trkpt lat="44.4955" lon="-1.07612">
        <ele>30</ele>
        <time>2019-08-11T17:28:15Z</time>
      </trkpt>
      <trkpt lat="44.4955" lon="-1.07612">
        <ele>30</ele>
        <time>2019-08-11T17:28:20Z</time>
      </trkpt>
      <trkpt lat="44.49549" lon="-1.07611">
        <ele>30</ele>
        <time>2019-08-11T17:28:30Z</time>
      </trkpt>
      <trkpt lat="44.49549" lon="-1.07611">
        <ele>30</ele>
        <time>2019-08-11T17:28:35Z</time>
      </trkpt>
      <trkpt lat="44.49549" lon="-1.07611">
        <ele>30</ele>
        <time>2019-08-11T17:28:45Z</time>
      </trkpt>
      <trkpt lat="44.49549" lon="-1.07611">
        <ele>30</ele>
        <time>2019-08-11T17:28:55Z</time>
      </trkpt>
      <trkpt lat="44.49549" lon="-1.07611">
        <ele>30</ele>
        <time>2019-08-11T17:29:00Z</time>
      </trkpt>
      <trkpt lat="44.49549" lon="-1.07611">
        <ele>30</ele>
        <time>2019-08-11T17:29:10Z</time>
      </trkpt>
      <trkpt lat="44.49549" lon="-1.07611">
        <ele>30</ele>
        <time>2019-08-11T17:29:15Z</time>
      </trkpt>
      <trkpt lat="44.49549" lon="-1.07611">
        <ele>30</ele>
        <time>2019-08-11T17:29:25Z</time>
      </trkpt>
      <trkpt lat="44.49549" lon="-1.07611">
        <ele>30</ele>
        <time>2019-08-11T17:29:30Z</time>
      </trkpt>
      <trkpt lat="44.49549" lon="-1.07611">
        <ele>30</ele>
        <time>2019-08-11T17:29:40Z</time>
      </trkpt>
      <trkpt lat="44.49549" lon="-1.07611">
        <ele>30</ele>
        <time>2019-08-11T17:29:45Z</time>
      </trkpt>
      <trkpt lat="44.49555" lon="-1.07614">
        <ele>31</ele>
        <time>2019-08-11T17:29:55Z</time>
      </trkpt>
      <trkpt lat="44.49558" lon="-1.07615">
        <ele>31</ele>
        <time>2019-08-11T17:30:00Z</time>
      </trkpt>
      <trkpt lat="44.49562" lon="-1.07622">
        <ele>31</ele>
        <time>2019-08-11T17:30:10Z</time>
      </trkpt>
      <trkpt lat="44.49563" lon="-1.07623">
        <ele>31</ele>
        <time>2019-08-11T17:30:15Z</time>
      </trkpt>
      <trkpt lat="44.4956" lon="-1.07627">
        <ele>31</ele>
        <time>2019-08-11T17:30:25Z</time>
      </trkpt>
      <trkpt lat="44.49554" lon="-1.07637">
        <ele>31</ele>
        <time>2019-08-11T17:30:35Z</time>
      </trkpt>
      <trkpt lat="44.49553" lon="-1.07636">
        <ele>31</ele>
        <time>2019-08-11T17:30:40Z</time>
      </trkpt>
      <trkpt lat="44.49557" lon="-1.07627">
        <ele>31</ele>
        <time>2019-08-11T17:30:50Z</time>
      </trkpt>
      <trkpt lat="44.49561" lon="-1.07621">
        <ele>31</ele>
        <time>2019-08-11T17:30:55Z</time>
      </trkpt>
      <trkpt lat="44.49562" lon="-1.07621">
        <ele>31</ele>
        <time>2019-08-11T17:31:05Z</time>
      </trkpt>
      <trkpt lat="44.49563" lon="-1.07621">
        <ele>31</ele>
        <time>2019-08-11T17:31:10Z</time>
      </trkpt>
      <trkpt lat="44.49564" lon="-1.07621">
        <ele>31</ele>
        <time>2019-08-11T17:31:20Z</time>
      </trkpt>
      <trkpt lat="44.49564" lon="-1.07621">
        <ele>31</ele>
        <time>2019-08-11T17:31:25Z</time>
      </trkpt>
      <trkpt lat="44.49563" lon="-1.07621">
        <ele>31</ele>
        <time>2019-08-11T17:31:35Z</time>
      </trkpt>
      <trkpt lat="44.49563" lon="-1.07621">
        <ele>31</ele>
        <time>2019-08-11T17:31:40Z</time>
      </trkpt>
      <trkpt lat="44.49564" lon="-1.07621">
        <ele>31</ele>
        <time>2019-08-11T17:31:50Z</time>
      </trkpt>
      <trkpt lat="44.49564" lon="-1.07621">
        <ele>31</ele>
        <time>2019-08-11T17:32:00Z</time>
      </trkpt>
      <trkpt lat="44.49564" lon="-1.07621">
        <ele>31</ele>
        <time>2019-08-11T17:32:05Z</time>
      </trkpt>
      <trkpt lat="44.49564" lon="-1.07621">
        <ele>31</ele>
        <time>2019-08-11T17:32:15Z</time>
      </trkpt>
      <trkpt lat="44.49564" lon="-1.07621">
        <ele>31</ele>
        <time>2019-08-11T17:32:20Z</time>
      </trkpt>
      <trkpt lat="44.49564" lon="-1.07621">
        <ele>31</ele>
        <time>2019-08-11T17:32:30Z</time>
      </trkpt>
      <trkpt lat="44.49564" lon="-1.07621">
        <ele>31</ele>
        <time>2019-08-11T17:32:35Z</time>
      </trkpt>
      <trkpt lat="44.49564" lon="-1.07621">
        <ele>31</ele>
        <time>2019-08-11T17:32:45Z</time>
      </trkpt>
      <trkpt lat="44.49564" lon="-1.07621">
        <ele>31</ele>
        <time>2019-08-11T17:32:50Z</time>
      </trkpt>
      <trkpt lat="44.49563" lon="-1.07621">
        <ele>31</ele>
        <time>2019-08-11T17:33:00Z</time>
      </trkpt>
      <trkpt lat="44.49563" lon="-1.07621">
        <ele>31</ele>
        <time>2019-08-11T17:33:05Z</time>
      </trkpt>
      <trkpt lat="44.49563" lon="-1.07621">
        <ele>31</ele>
        <time>2019-08-11T17:33:15Z</time>
      </trkpt>
      <trkpt lat="44.49563" lon="-1.07621">
        <ele>31</ele>
        <time>2019-08-11T17:33:20Z</time>
      </trkpt>
      <trkpt lat="44.49563" lon="-1.07621">
        <ele>31</ele>
        <time>2019-08-11T17:33:30Z</time>
      </trkpt>
      <trkpt lat="44.49563" lon="-1.07621">
        <ele>31</ele>
        <time>2019-08-11T17:33:40Z</time>
      </trkpt>
      <trkpt lat="44.49563" lon="-1.0762">
        <ele>31</ele>
        <time>2019-08-11T17:33:45Z</time>
      </trkpt>
      <trkpt lat="44.49563" lon="-1.07619">
        <ele>31</ele>
        <time>2019-08-11T17:33:55Z</time>
      </trkpt>
      <trkpt lat="44.49563" lon="-1.07619">
        <ele>31</ele>
        <time>2019-08-11T17:34:00Z</time>
      </trkpt>
      <trkpt lat="44.49563" lon="-1.07619">
        <ele>31</ele>
        <time>2019-08-11T17:34:10Z</time>
      </trkpt>
      <trkpt lat="44.49562" lon="-1.07619">
        <ele>31</ele>
        <time>2019-08-11T17:34:15Z</time>
      </trkpt>
      <trkpt lat="44.49562" lon="-1.0762">
        <ele>31</ele>
        <time>2019-08-11T17:34:25Z</time>
      </trkpt>
      <trkpt lat="44.49562" lon="-1.0762">
        <ele>31</ele>
        <time>2019-08-11T17:34:30Z</time>
      </trkpt>
      <trkpt lat="44.49562" lon="-1.0762">
        <ele>31</ele>
        <time>2019-08-11T17:34:40Z</time>
      </trkpt>
      <trkpt lat="44.49562" lon="-1.0762">
        <ele>31</ele>
        <time>2019-08-11T17:34:45Z</time>
      </trkpt>
      <trkpt lat="44.49562" lon="-1.0762">
        <ele>31</ele>
        <time>2019-08-11T17:34:55Z</time>
      </trkpt>
      <trkpt lat="44.49562" lon="-1.0762">
        <ele>31</ele>
        <time>2019-08-11T17:35:00Z</time>
      </trkpt>
      <trkpt lat="44.49562" lon="-1.0762">
        <ele>31</ele>
        <time>2019-08-11T17:35:10Z</time>
      </trkpt>
      <trkpt lat="44.49562" lon="-1.0762">
        <ele>31</ele>
        <time>2019-08-11T17:35:20Z</time>
      </trkpt>
      <trkpt lat="44.49562" lon="-1.0762">
        <ele>31</ele>
        <time>2019-08-11T17:35:25Z</time>
      </trkpt>
      <trkpt lat="44.49562" lon="-1.0762">
        <ele>31</ele>
        <time>2019-08-11T17:35:35Z</time>
      </trkpt>
      <trkpt lat="44.49562" lon="-1.0762">
        <ele>31</ele>
        <time>2019-08-11T17:35:40Z</time>
      </trkpt>
      <trkpt lat="44.49562" lon="-1.0762">
        <ele>31</ele>
        <time>2019-08-11T17:35:50Z</time>
      </trkpt>
      <trkpt lat="44.49562" lon="-1.0762">
        <ele>31</ele>
        <time>2019-08-11T17:35:55Z</time>
      </trkpt>
      <trkpt lat="44.49562" lon="-1.0762">
        <ele>31</ele>
        <time>2019-08-11T17:36:05Z</time>
      </trkpt>
      <trkpt lat="44.49562" lon="-1.0762">
        <ele>31</ele>
        <time>2019-08-11T17:36:10Z</time>
      </trkpt>
      <trkpt lat="44.49562" lon="-1.07619">
        <ele>31</ele>
        <time>2019-08-11T17:36:20Z</time>
      </trkpt>
      <trkpt lat="44.49562" lon="-1.07619">
        <ele>31</ele>
        <time>2019-08-11T17:36:25Z</time>
      </trkpt>
      <trkpt lat="44.49561" lon="-1.0762">
        <ele>31</ele>
        <time>2019-08-11T17:36:35Z</time>
      </trkpt>
      <trkpt lat="44.49561" lon="-1.0762">
        <ele>31</ele>
        <time>2019-08-11T17:36:40Z</time>
      </trkpt>
      <trkpt lat="44.49561" lon="-1.0762">
        <ele>31</ele>
        <time>2019-08-11T17:36:50Z</time>
      </trkpt>
      <trkpt lat="44.49561" lon="-1.0762">
        <ele>31</ele>
        <time>2019-08-11T17:37:00Z</time>
      </trkpt>
      <trkpt lat="44.49561" lon="-1.0762">
        <ele>31</ele>
        <time>2019-08-11T17:37:05Z</time>
      </trkpt>
      <trkpt lat="44.49561" lon="-1.0762">
        <ele>31</ele>
        <time>2019-08-11T17:37:15Z</time>
      </trkpt>
      <trkpt lat="44.49561" lon="-1.07621">
        <ele>31</ele>
        <time>2019-08-11T17:37:20Z</time>
      </trkpt>
      <trkpt lat="44.49562" lon="-1.07621">
        <ele>31</ele>
        <time>2019-08-11T17:37:30Z</time>
      </trkpt>
      <trkpt lat="44.49562" lon="-1.07621">
        <ele>31</ele>
        <time>2019-08-11T17:37:35Z</time>
      </trkpt>
      <trkpt lat="44.49562" lon="-1.07621">
        <ele>31</ele>
        <time>2019-08-11T17:37:45Z</time>
      </trkpt>
      <trkpt lat="44.49562" lon="-1.07622">
        <ele>31</ele>
        <time>2019-08-11T17:37:50Z</time>
      </trkpt>
      <trkpt lat="44.49562" lon="-1.07622">
        <ele>31</ele>
        <time>2019-08-11T17:38:00Z</time>
      </trkpt>
      <trkpt lat="44.49562" lon="-1.07622">
        <ele>31</ele>
        <time>2019-08-11T17:38:05Z</time>
      </trkpt>
      <trkpt lat="44.49562" lon="-1.07622">
        <ele>31</ele>
        <time>2019-08-11T17:38:15Z</time>
      </trkpt>
      <trkpt lat="44.49562" lon="-1.07622">
        <ele>31</ele>
        <time>2019-08-11T17:38:25Z</time>
      </trkpt>
      <trkpt lat="44.49562" lon="-1.07622">
        <ele>31</ele>
        <time>2019-08-11T17:38:30Z</time>
      </trkpt>
      <trkpt lat="44.49562" lon="-1.07622">
        <ele>31</ele>
        <time>2019-08-11T17:38:40Z</time>
      </trkpt>
      <trkpt lat="44.49562" lon="-1.07622">
        <ele>31</ele>
        <time>2019-08-11T17:38:45Z</time>
      </trkpt>
      <trkpt lat="44.49562" lon="-1.07622">
        <ele>31</ele>
        <time>2019-08-11T17:38:55Z</time>
      </trkpt>
      <trkpt lat="44.49562" lon="-1.07622">
        <ele>31</ele>
        <time>2019-08-11T17:39:00Z</time>
      </trkpt>
      <trkpt lat="44.49562" lon="-1.07622">
        <ele>31</ele>
        <time>2019-08-11T17:39:10Z</time>
      </trkpt>
      <trkpt lat="44.49562" lon="-1.07622">
        <ele>31</ele>
        <time>2019-08-11T17:39:15Z</time>
      </trkpt>
      <trkpt lat="44.49562" lon="-1.07622">
        <ele>31</ele>
        <time>2019-08-11T17:39:25Z</time>
      </trkpt>
      <trkpt lat="44.49562" lon="-1.07622">
        <ele>31</ele>
        <time>2019-08-11T17:39:30Z</time>
      </trkpt>
      <trkpt lat="44.49562" lon="-1.07622">
        <ele>31</ele>
        <time>2019-08-11T17:39:40Z</time>
      </trkpt>
      <trkpt lat="44.49562" lon="-1.07622">
        <ele>31</ele>
        <time>2019-08-11T17:39:45Z</time>
      </trkpt>
      <trkpt lat="44.49562" lon="-1.07622">
        <ele>31</ele>
        <time>2019-08-11T17:39:55Z</time>
      </trkpt>
      <trkpt lat="44.49562" lon="-1.07622">
        <ele>31</ele>
        <time>2019-08-11T17:40:05Z</time>
      </trkpt>
      <trkpt lat="44.49562" lon="-1.07622">
        <ele>31</ele>
        <time>2019-08-11T17:40:10Z</time>
      </trkpt>
      <trkpt lat="44.49562" lon="-1.07622">
        <ele>31</ele>
        <time>2019-08-11T17:40:20Z</time>
      </trkpt>
      <trkpt lat="44.49562" lon="-1.07622">
        <ele>31</ele>
        <time>2019-08-11T17:40:25Z</time>
      </trkpt>
      <trkpt lat="44.49562" lon="-1.07621">
        <ele>31</ele>
        <time>2019-08-11T17:40:35Z</time>
      </trkpt>
      <trkpt lat="44.49562" lon="-1.07621">
        <ele>31</ele>
        <time>2019-08-11T17:40:40Z</time>
      </trkpt>
      <trkpt lat="44.49562" lon="-1.0762">
        <ele>31</ele>
        <time>2019-08-11T17:40:50Z</time>
      </trkpt>
      <trkpt lat="44.49561" lon="-1.0762">
        <ele>31</ele>
        <time>2019-08-11T17:40:55Z</time>
      </trkpt>
      <trkpt lat="44.49561" lon="-1.0762">
        <ele>31</ele>
        <time>2019-08-11T17:41:05Z</time>
      </trkpt>
      <trkpt lat="44.49561" lon="-1.07619">
        <ele>31</ele>
        <time>2019-08-11T17:41:10Z</time>
      </trkpt>
      <trkpt lat="44.49561" lon="-1.07619">
        <ele>31</ele>
        <time>2019-08-11T17:41:20Z</time>
      </trkpt>
      <trkpt lat="44.4956" lon="-1.07618">
        <ele>31</ele>
        <time>2019-08-11T17:41:25Z</time>
      </trkpt>
      <trkpt lat="44.4956" lon="-1.07618">
        <ele>31</ele>
        <time>2019-08-11T17:41:35Z</time>
      </trkpt>
      <trkpt lat="44.4956" lon="-1.07618">
        <ele>31</ele>
        <time>2019-08-11T17:41:45Z</time>
      </trkpt>
      <trkpt lat="44.4956" lon="-1.07618">
        <ele>31</ele>
        <time>2019-08-11T17:41:50Z</time>
      </trkpt>
      <trkpt lat="44.4956" lon="-1.07617">
        <ele>31</ele>
        <time>2019-08-11T17:42:00Z</time>
      </trkpt>
      <trkpt lat="44.4956" lon="-1.07617">
        <ele>31</ele>
        <time>2019-08-11T17:42:05Z</time>
      </trkpt>
      <trkpt lat="44.4956" lon="-1.07617">
        <ele>31</ele>
        <time>2019-08-11T17:42:15Z</time>
      </trkpt>
      <trkpt lat="44.4956" lon="-1.07617">
        <ele>31</ele>
        <time>2019-08-11T17:42:20Z</time>
      </trkpt>
      <trkpt lat="44.4956" lon="-1.07617">
        <ele>31</ele>
        <time>2019-08-11T17:42:30Z</time>
      </trkpt>
      <trkpt lat="44.4956" lon="-1.07617">
        <ele>31</ele>
        <time>2019-08-11T17:42:35Z</time>
      </trkpt>
      <trkpt lat="44.4956" lon="-1.07617">
        <ele>31</ele>
        <time>2019-08-11T17:42:45Z</time>
      </trkpt>
      <trkpt lat="44.4956" lon="-1.07617">
        <ele>31</ele>
        <time>2019-08-11T17:42:50Z</time>
      </trkpt>
      <trkpt lat="44.4956" lon="-1.07617">
        <ele>31</ele>
        <time>2019-08-11T17:43:00Z</time>
      </trkpt>
      <trkpt lat="44.4956" lon="-1.07618">
        <ele>31</ele>
        <time>2019-08-11T17:43:05Z</time>
      </trkpt>
      <trkpt lat="44.4956" lon="-1.07618">
        <ele>31</ele>
        <time>2019-08-11T17:43:15Z</time>
      </trkpt>
      <trkpt lat="44.4956" lon="-1.07618">
        <ele>31</ele>
        <time>2019-08-11T17:43:25Z</time>
      </trkpt>
      <trkpt lat="44.4956" lon="-1.07618">
        <ele>31</ele>
        <time>2019-08-11T17:43:30Z</time>
      </trkpt>
      <trkpt lat="44.49561" lon="-1.07618">
        <ele>31</ele>
        <time>2019-08-11T17:43:40Z</time>
      </trkpt>
      <trkpt lat="44.49561" lon="-1.07618">
        <ele>31</ele>
        <time>2019-08-11T17:43:45Z</time>
      </trkpt>
      <trkpt lat="44.49561" lon="-1.07618">
        <ele>31</ele>
        <time>2019-08-11T17:43:55Z</time>
      </trkpt>
      <trkpt lat="44.49561" lon="-1.07618">
        <ele>31</ele>
        <time>2019-08-11T17:44:00Z</time>
      </trkpt>
      <trkpt lat="44.49561" lon="-1.07618">
        <ele>31</ele>
        <time>2019-08-11T17:44:10Z</time>
      </trkpt>
      <trkpt lat="44.49561" lon="-1.07618">
        <ele>31</ele>
        <time>2019-08-11T17:44:15Z</time>
      </trkpt>
      <trkpt lat="44.49561" lon="-1.07618">
        <ele>31</ele>
        <time>2019-08-11T17:44:25Z</time>
      </trkpt>
      <trkpt lat="44.49561" lon="-1.07618">
        <ele>31</ele>
        <time>2019-08-11T17:44:30Z</time>
      </trkpt>
      <trkpt lat="44.49561" lon="-1.07618">
        <ele>31</ele>
        <time>2019-08-11T17:44:40Z</time>
      </trkpt>
      <trkpt lat="44.49561" lon="-1.07618">
        <ele>31</ele>
        <time>2019-08-11T17:44:45Z</time>
      </trkpt>
      <trkpt lat="44.49561" lon="-1.07619">
        <ele>31</ele>
        <time>2019-08-11T17:44:55Z</time>
      </trkpt>
      <trkpt lat="44.49561" lon="-1.07619">
        <ele>31</ele>
        <time>2019-08-11T17:45:05Z</time>
      </trkpt>
      <trkpt lat="44.49561" lon="-1.07619">
        <ele>31</ele>
        <time>2019-08-11T17:45:10Z</time>
      </trkpt>
      <trkpt lat="44.49562" lon="-1.07619">
        <ele>31</ele>
        <time>2019-08-11T17:45:20Z</time>
      </trkpt>
      <trkpt lat="44.49562" lon="-1.07619">
        <ele>31</ele>
        <time>2019-08-11T17:45:25Z</time>
      </trkpt>
      <trkpt lat="44.49561" lon="-1.07619">
        <ele>31</ele>
        <time>2019-08-11T17:45:35Z</time>
      </trkpt>
      <trkpt lat="44.49561" lon="-1.07619">
        <ele>31</ele>
        <time>2019-08-11T17:45:40Z</time>
      </trkpt>
      <trkpt lat="44.49561" lon="-1.07619">
        <ele>31</ele>
        <time>2019-08-11T17:45:50Z</time>
      </trkpt>
      <trkpt lat="44.49561" lon="-1.07619">
        <ele>31</ele>
        <time>2019-08-11T17:45:55Z</time>
      </trkpt>
      <trkpt lat="44.49562" lon="-1.0762">
        <ele>31</ele>
        <time>2019-08-11T17:46:05Z</time>
      </trkpt>
      <trkpt lat="44.49562" lon="-1.0762">
        <ele>31</ele>
        <time>2019-08-11T17:46:10Z</time>
      </trkpt>
      <trkpt lat="44.49562" lon="-1.0762">
        <ele>31</ele>
        <time>2019-08-11T17:46:20Z</time>
      </trkpt>
      <trkpt lat="44.49562" lon="-1.0762">
        <ele>31</ele>
        <time>2019-08-11T17:46:30Z</time>
      </trkpt>
      <trkpt lat="44.49562" lon="-1.0762">
        <ele>31</ele>
        <time>2019-08-11T17:46:35Z</time>
      </trkpt>
      <trkpt lat="44.49562" lon="-1.0762">
        <ele>31</ele>
        <time>2019-08-11T17:46:45Z</time>
      </trkpt>
      <trkpt lat="44.49562" lon="-1.0762">
        <ele>31</ele>
        <time>2019-08-11T17:46:50Z</time>
      </trkpt>
      <trkpt lat="44.49562" lon="-1.0762">
        <ele>31</ele>
        <time>2019-08-11T17:47:00Z</time>
      </trkpt>
      <trkpt lat="44.49562" lon="-1.0762">
        <ele>31</ele>
        <time>2019-08-11T17:47:05Z</time>
      </trkpt>
      <trkpt lat="44.49562" lon="-1.0762">
        <ele>31</ele>
        <time>2019-08-11T17:47:15Z</time>
      </trkpt>
      <trkpt lat="44.49562" lon="-1.0762">
        <ele>31</ele>
        <time>2019-08-11T17:47:20Z</time>
      </trkpt>
      <trkpt lat="44.49562" lon="-1.0762">
        <ele>31</ele>
        <time>2019-08-11T17:47:30Z</time>
      </trkpt>
      <trkpt lat="44.49562" lon="-1.0762">
        <ele>31</ele>
        <time>2019-08-11T17:47:35Z</time>
      </trkpt>
      <trkpt lat="44.49562" lon="-1.0762">
        <ele>31</ele>
        <time>2019-08-11T17:47:45Z</time>
      </trkpt>
      <trkpt lat="44.49562" lon="-1.0762">
        <ele>31</ele>
        <time>2019-08-11T17:47:50Z</time>
      </trkpt>
      <trkpt lat="44.49562" lon="-1.0762">
        <ele>31</ele>
        <time>2019-08-11T17:48:00Z</time>
      </trkpt>
      <trkpt lat="44.49562" lon="-1.0762">
        <ele>31</ele>
        <time>2019-08-11T17:48:10Z</time>
      </trkpt>
      <trkpt lat="44.49562" lon="-1.0762">
        <ele>31</ele>
        <time>2019-08-11T17:48:15Z</time>
      </trkpt>
      <trkpt lat="44.49562" lon="-1.0762">
        <ele>31</ele>
        <time>2019-08-11T17:48:25Z</time>
      </trkpt>
      <trkpt lat="44.49562" lon="-1.0762">
        <ele>31</ele>
        <time>2019-08-11T17:48:30Z</time>
      </trkpt>
      <trkpt lat="44.49562" lon="-1.0762">
        <ele>31</ele>
        <time>2019-08-11T17:48:40Z</time>
      </trkpt>
      <trkpt lat="44.49562" lon="-1.0762">
        <ele>31</ele>
        <time>2019-08-11T17:48:45Z</time>
      </trkpt>
      <trkpt lat="44.49562" lon="-1.0762">
        <ele>31</ele>
        <time>2019-08-11T17:48:55Z</time>
      </trkpt>
      <trkpt lat="44.49562" lon="-1.0762">
        <ele>31</ele>
        <time>2019-08-11T17:49:00Z</time>
      </trkpt>
      <trkpt lat="44.49562" lon="-1.0762">
        <ele>31</ele>
        <time>2019-08-11T17:49:10Z</time>
      </trkpt>
      <trkpt lat="44.49562" lon="-1.0762">
        <ele>31</ele>
        <time>2019-08-11T17:49:15Z</time>
      </trkpt>
      <trkpt lat="44.49562" lon="-1.0762">
        <ele>31</ele>
        <time>2019-08-11T17:49:25Z</time>
      </trkpt>
      <trkpt lat="44.49562" lon="-1.0762">
        <ele>31</ele>
        <time>2019-08-11T17:49:30Z</time>
      </trkpt>
      <trkpt lat="44.49562" lon="-1.0762">
        <ele>31</ele>
        <time>2019-08-11T17:49:40Z</time>
      </trkpt>
      <trkpt lat="44.49562" lon="-1.0762">
        <ele>31</ele>
        <time>2019-08-11T17:49:50Z</time>
      </trkpt>
      <trkpt lat="44.49562" lon="-1.0762">
        <ele>31</ele>
        <time>2019-08-11T17:49:55Z</time>
      </trkpt>
      <trkpt lat="44.49562" lon="-1.0762">
        <ele>31</ele>
        <time>2019-08-11T17:50:05Z</time>
      </trkpt>
      <trkpt lat="44.49562" lon="-1.0762">
        <ele>31</ele>
        <time>2019-08-11T17:50:10Z</time>
      </trkpt>
      <trkpt lat="44.49563" lon="-1.0762">
        <ele>31</ele>
        <time>2019-08-11T17:50:20Z</time>
      </trkpt>
      <trkpt lat="44.49563" lon="-1.0762">
        <ele>31</ele>
        <time>2019-08-11T17:50:25Z</time>
      </trkpt>
      <trkpt lat="44.49563" lon="-1.0762">
        <ele>31</ele>
        <time>2019-08-11T17:50:35Z</time>
      </trkpt>
      <trkpt lat="44.49563" lon="-1.0762">
        <ele>31</ele>
        <time>2019-08-11T17:50:40Z</time>
      </trkpt>
      <trkpt lat="44.49562" lon="-1.0762">
        <ele>31</ele>
        <time>2019-08-11T17:50:50Z</time>
      </trkpt>
      <trkpt lat="44.49563" lon="-1.0762">
        <ele>31</ele>
        <time>2019-08-11T17:50:55Z</time>
      </trkpt>
      <trkpt lat="44.49563" lon="-1.0762">
        <ele>31</ele>
        <time>2019-08-11T17:51:05Z</time>
      </trkpt>
      <trkpt lat="44.49563" lon="-1.0762">
        <ele>31</ele>
        <time>2019-08-11T17:51:10Z</time>
      </trkpt>
      <trkpt lat="44.49563" lon="-1.0762">
        <ele>31</ele>
        <time>2019-08-11T17:51:20Z</time>
      </trkpt>
      <trkpt lat="44.49563" lon="-1.0762">
        <ele>31</ele>
        <time>2019-08-11T17:51:30Z</time>
      </trkpt>
      <trkpt lat="44.49563" lon="-1.0762">
        <ele>31</ele>
        <time>2019-08-11T17:51:35Z</time>
      </trkpt>
      <trkpt lat="44.49563" lon="-1.0762">
        <ele>31</ele>
        <time>2019-08-11T17:51:45Z</time>
      </trkpt>
      <trkpt lat="44.49563" lon="-1.0762">
        <ele>31</ele>
        <time>2019-08-11T17:51:50Z</time>
      </trkpt>
      <trkpt lat="44.49563" lon="-1.0762">
        <ele>31</ele>
        <time>2019-08-11T17:52:00Z</time>
      </trkpt>
      <trkpt lat="44.49563" lon="-1.0762">
        <ele>31</ele>
        <time>2019-08-11T17:52:05Z</time>
      </trkpt>
      <trkpt lat="44.49563" lon="-1.0762">
        <ele>31</ele>
        <time>2019-08-11T17:52:15Z</time>
      </trkpt>
      <trkpt lat="44.49563" lon="-1.0762">
        <ele>31</ele>
        <time>2019-08-11T17:52:20Z</time>
      </trkpt>
      <trkpt lat="44.49563" lon="-1.0762">
        <ele>31</ele>
        <time>2019-08-11T17:52:30Z</time>
      </trkpt>
      <trkpt lat="44.49563" lon="-1.0762">
        <ele>31</ele>
        <time>2019-08-11T17:52:35Z</time>
      </trkpt>
      <trkpt lat="44.49563" lon="-1.0762">
        <ele>31</ele>
        <time>2019-08-11T17:52:45Z</time>
      </trkpt>
      <trkpt lat="44.49563" lon="-1.0762">
        <ele>31</ele>
        <time>2019-08-11T17:52:50Z</time>
      </trkpt>
      <trkpt lat="44.49563" lon="-1.0762">
        <ele>31</ele>
        <time>2019-08-11T17:53:00Z</time>
      </trkpt>
      <trkpt lat="44.49563" lon="-1.0762">
        <ele>31</ele>
        <time>2019-08-11T17:53:10Z</time>
      </trkpt>
      <trkpt lat="44.49563" lon="-1.0762">
        <ele>31</ele>
        <time>2019-08-11T17:53:15Z</time>
      </trkpt>
      <trkpt lat="44.49563" lon="-1.0762">
        <ele>31</ele>
        <time>2019-08-11T17:53:25Z</time>
      </trkpt>
      <trkpt lat="44.49563" lon="-1.0762">
        <ele>31</ele>
        <time>2019-08-11T17:53:30Z</time>
      </trkpt>
      <trkpt lat="44.49563" lon="-1.0762">
        <ele>31</ele>
        <time>2019-08-11T17:53:40Z</time>
      </trkpt>
      <trkpt lat="44.49563" lon="-1.0762">
        <ele>31</ele>
        <time>2019-08-11T17:53:45Z</time>
      </trkpt>
      <trkpt lat="44.49563" lon="-1.0762">
        <ele>31</ele>
        <time>2019-08-11T17:53:55Z</time>
      </trkpt>
      <trkpt lat="44.49563" lon="-1.0762">
        <ele>31</ele>
        <time>2019-08-11T17:54:00Z</time>
      </trkpt>
      <trkpt lat="44.49563" lon="-1.07621">
        <ele>31</ele>
        <time>2019-08-11T17:54:10Z</time>
      </trkpt>
      <trkpt lat="44.49563" lon="-1.07621">
        <ele>31</ele>
        <time>2019-08-11T17:54:15Z</time>
      </trkpt>
      <trkpt lat="44.49563" lon="-1.07621">
        <ele>31</ele>
        <time>2019-08-11T17:54:25Z</time>
      </trkpt>
      <trkpt lat="44.49564" lon="-1.07621">
        <ele>31</ele>
        <time>2019-08-11T17:54:35Z</time>
      </trkpt>
      <trkpt lat="44.49563" lon="-1.07621">
        <ele>31</ele>
        <time>2019-08-11T17:54:40Z</time>
      </trkpt>
      <trkpt lat="44.49563" lon="-1.07621">
        <ele>31</ele>
        <time>2019-08-11T17:54:50Z</time>
      </trkpt>
      <trkpt lat="44.49563" lon="-1.07621">
        <ele>31</ele>
        <time>2019-08-11T17:54:55Z</time>
      </trkpt>
      <trkpt lat="44.49563" lon="-1.07621">
        <ele>31</ele>
        <time>2019-08-11T17:55:05Z</time>
      </trkpt>
      <trkpt lat="44.49563" lon="-1.07621">
        <ele>31</ele>
        <time>2019-08-11T17:55:10Z</time>
      </trkpt>
      <trkpt lat="44.49563" lon="-1.07621">
        <ele>31</ele>
        <time>2019-08-11T17:55:20Z</time>
      </trkpt>
      <trkpt lat="44.49563" lon="-1.07621">
        <ele>31</ele>
        <time>2019-08-11T17:55:25Z</time>
      </trkpt>
      <trkpt lat="44.49563" lon="-1.07621">
        <ele>31</ele>
        <time>2019-08-11T17:55:35Z</time>
      </trkpt>
      <trkpt lat="44.49563" lon="-1.07621">
        <ele>31</ele>
        <time>2019-08-11T17:55:40Z</time>
      </trkpt>
      <trkpt lat="44.49563" lon="-1.07621">
        <ele>31</ele>
        <time>2019-08-11T17:55:50Z</time>
      </trkpt>
      <trkpt lat="44.49563" lon="-1.07621">
        <ele>31</ele>
        <time>2019-08-11T17:55:55Z</time>
      </trkpt>
      <trkpt lat="44.49563" lon="-1.07621">
        <ele>31</ele>
        <time>2019-08-11T17:56:05Z</time>
      </trkpt>
      <trkpt lat="44.49563" lon="-1.07621">
        <ele>31</ele>
        <time>2019-08-11T17:56:15Z</time>
      </trkpt>
      <trkpt lat="44.49563" lon="-1.07621">
        <ele>31</ele>
        <time>2019-08-11T17:56:20Z</time>
      </trkpt>
      <trkpt lat="44.49563" lon="-1.07621">
        <ele>31</ele>
        <time>2019-08-11T17:56:30Z</time>
      </trkpt>
      <trkpt lat="44.49563" lon="-1.07621">
        <ele>31</ele>
        <time>2019-08-11T17:56:35Z</time>
      </trkpt>
      <trkpt lat="44.49563" lon="-1.07621">
        <ele>31</ele>
        <time>2019-08-11T17:56:45Z</time>
      </trkpt>
      <trkpt lat="44.49563" lon="-1.07621">
        <ele>31</ele>
        <time>2019-08-11T17:56:50Z</time>
      </trkpt>
      <trkpt lat="44.49563" lon="-1.07621">
        <ele>31</ele>
        <time>2019-08-11T17:57:00Z</time>
      </trkpt>
      <trkpt lat="44.49563" lon="-1.0762">
        <ele>31</ele>
        <time>2019-08-11T17:57:05Z</time>
      </trkpt>
      <trkpt lat="44.49563" lon="-1.0762">
        <ele>31</ele>
        <time>2019-08-11T17:57:15Z</time>
      </trkpt>
      <trkpt lat="44.49563" lon="-1.0762">
        <ele>31</ele>
        <time>2019-08-11T17:57:20Z</time>
      </trkpt>
      <trkpt lat="44.49563" lon="-1.0762">
        <ele>31</ele>
        <time>2019-08-11T17:57:30Z</time>
      </trkpt>
      <trkpt lat="44.49563" lon="-1.0762">
        <ele>31</ele>
        <time>2019-08-11T17:57:35Z</time>
      </trkpt>
      <trkpt lat="44.49563" lon="-1.0762">
        <ele>31</ele>
        <time>2019-08-11T17:57:45Z</time>
      </trkpt>
      <trkpt lat="44.49563" lon="-1.0762">
        <ele>31</ele>
        <time>2019-08-11T17:57:55Z</time>
      </trkpt>
      <trkpt lat="44.49563" lon="-1.0762">
        <ele>31</ele>
        <time>2019-08-11T17:58:00Z</time>
      </trkpt>
      <trkpt lat="44.49563" lon="-1.0762">
        <ele>31</ele>
        <time>2019-08-11T17:58:10Z</time>
      </trkpt>
      <trkpt lat="44.49563" lon="-1.0762">
        <ele>31</ele>
        <time>2019-08-11T17:58:15Z</time>
      </trkpt>
      <trkpt lat="44.49563" lon="-1.0762">
        <ele>31</ele>
        <time>2019-08-11T17:58:25Z</time>
      </trkpt>
      <trkpt lat="44.49563" lon="-1.0762">
        <ele>31</ele>
        <time>2019-08-11T17:58:30Z</time>
      </trkpt>
      <trkpt lat="44.49563" lon="-1.0762">
        <ele>31</ele>
        <time>2019-08-11T17:58:40Z</time>
      </trkpt>
      <trkpt lat="44.49563" lon="-1.0762">
        <ele>31</ele>
        <time>2019-08-11T17:58:45Z</time>
      </trkpt>
      <trkpt lat="44.49563" lon="-1.0762">
        <ele>31</ele>
        <time>2019-08-11T17:58:55Z</time>
      </trkpt>
      <trkpt lat="44.49563" lon="-1.0762">
        <ele>31</ele>
        <time>2019-08-11T17:59:00Z</time>
      </trkpt>
      <trkpt lat="44.49563" lon="-1.07619">
        <ele>31</ele>
        <time>2019-08-11T17:59:10Z</time>
      </trkpt>
      <trkpt lat="44.49563" lon="-1.07619">
        <ele>31</ele>
        <time>2019-08-11T17:59:15Z</time>
      </trkpt>
      <trkpt lat="44.49563" lon="-1.07619">
        <ele>31</ele>
        <time>2019-08-11T17:59:25Z</time>
      </trkpt>
      <trkpt lat="44.49562" lon="-1.07619">
        <ele>31</ele>
        <time>2019-08-11T17:59:35Z</time>
      </trkpt>
      <trkpt lat="44.49562" lon="-1.07619">
        <ele>31</ele>
        <time>2019-08-11T17:59:40Z</time>
      </trkpt>
      <trkpt lat="44.49562" lon="-1.07619">
        <ele>31</ele>
        <time>2019-08-11T17:59:50Z</time>
      </trkpt>
      <trkpt lat="44.49562" lon="-1.07619">
        <ele>31</ele>
        <time>2019-08-11T17:59:55Z</time>
      </trkpt>
      <trkpt lat="44.49562" lon="-1.07619">
        <ele>31</ele>
        <time>2019-08-11T18:00:05Z</time>
      </trkpt>
      <trkpt lat="44.49562" lon="-1.07619">
        <ele>31</ele>
        <time>2019-08-11T18:00:10Z</time>
      </trkpt>
      <trkpt lat="44.49562" lon="-1.07618">
        <ele>31</ele>
        <time>2019-08-11T18:00:20Z</time>
      </trkpt>
      <trkpt lat="44.49562" lon="-1.07618">
        <ele>31</ele>
        <time>2019-08-11T18:00:25Z</time>
      </trkpt>
      <trkpt lat="44.49562" lon="-1.07618">
        <ele>31</ele>
        <time>2019-08-11T18:00:35Z</time>
      </trkpt>
      <trkpt lat="44.49562" lon="-1.07618">
        <ele>31</ele>
        <time>2019-08-11T18:00:40Z</time>
      </trkpt>
      <trkpt lat="44.49562" lon="-1.07618">
        <ele>31</ele>
        <time>2019-08-11T18:00:50Z</time>
      </trkpt>
      <trkpt lat="44.49562" lon="-1.07618">
        <ele>31</ele>
        <time>2019-08-11T18:00:55Z</time>
      </trkpt>
      <trkpt lat="44.49562" lon="-1.07618">
        <ele>31</ele>
        <time>2019-08-11T18:01:05Z</time>
      </trkpt>
      <trkpt lat="44.49562" lon="-1.07618">
        <ele>31</ele>
        <time>2019-08-11T18:01:15Z</time>
      </trkpt>
      <trkpt lat="44.4956" lon="-1.07622">
        <ele>31</ele>
        <time>2019-08-11T18:01:20Z</time>
      </trkpt>
      <trkpt lat="44.4956" lon="-1.07622">
        <ele>31</ele>
        <time>2019-08-11T18:01:30Z</time>
      </trkpt>
      <trkpt lat="44.4956" lon="-1.07622">
        <ele>31</ele>
        <time>2019-08-11T18:01:35Z</time>
      </trkpt>
      <trkpt lat="44.4956" lon="-1.07622">
        <ele>31</ele>
        <time>2019-08-11T18:01:45Z</time>
      </trkpt>
      <trkpt lat="44.4956" lon="-1.07622">
        <ele>31</ele>
        <time>2019-08-11T18:01:50Z</time>
      </trkpt>
      <trkpt lat="44.4956" lon="-1.07622">
        <ele>31</ele>
        <time>2019-08-11T18:02:00Z</time>
      </trkpt>
      <trkpt lat="44.4956" lon="-1.07622">
        <ele>31</ele>
        <time>2019-08-11T18:02:05Z</time>
      </trkpt>
      <trkpt lat="44.4956" lon="-1.07622">
        <ele>31</ele>
        <time>2019-08-11T18:02:15Z</time>
      </trkpt>
      <trkpt lat="44.4956" lon="-1.07622">
        <ele>31</ele>
        <time>2019-08-11T18:02:20Z</time>
      </trkpt>
      <trkpt lat="44.4956" lon="-1.07622">
        <ele>31</ele>
        <time>2019-08-11T18:02:30Z</time>
      </trkpt>
      <trkpt lat="44.4956" lon="-1.07622">
        <ele>31</ele>
        <time>2019-08-11T18:02:40Z</time>
      </trkpt>
      <trkpt lat="44.4956" lon="-1.07622">
        <ele>31</ele>
        <time>2019-08-11T18:02:45Z</time>
      </trkpt>
      <trkpt lat="44.4956" lon="-1.07622">
        <ele>31</ele>
        <time>2019-08-11T18:02:55Z</time>
      </trkpt>
      <trkpt lat="44.4956" lon="-1.07622">
        <ele>31</ele>
        <time>2019-08-11T18:03:00Z</time>
      </trkpt>
      <trkpt lat="44.4956" lon="-1.07622">
        <ele>31</ele>
        <time>2019-08-11T18:03:10Z</time>
      </trkpt>
      <trkpt lat="44.4956" lon="-1.07622">
        <ele>31</ele>
        <time>2019-08-11T18:03:15Z</time>
      </trkpt>
      <trkpt lat="44.4956" lon="-1.07622">
        <ele>31</ele>
        <time>2019-08-11T18:03:25Z</time>
      </trkpt>
      <trkpt lat="44.4956" lon="-1.07622">
        <ele>31</ele>
        <time>2019-08-11T18:03:30Z</time>
      </trkpt>
      <trkpt lat="44.4956" lon="-1.07622">
        <ele>31</ele>
        <time>2019-08-11T18:03:40Z</time>
      </trkpt>
      <trkpt lat="44.4956" lon="-1.07622">
        <ele>31</ele>
        <time>2019-08-11T18:03:45Z</time>
      </trkpt>
      <trkpt lat="44.4956" lon="-1.07622">
        <ele>31</ele>
        <time>2019-08-11T18:03:55Z</time>
      </trkpt>
      <trkpt lat="44.4956" lon="-1.07622">
        <ele>31</ele>
        <time>2019-08-11T18:04:00Z</time>
      </trkpt>
      <trkpt lat="44.4956" lon="-1.07622">
        <ele>31</ele>
        <time>2019-08-11T18:04:10Z</time>
      </trkpt>
      <trkpt lat="44.4956" lon="-1.07622">
        <ele>31</ele>
        <time>2019-08-11T18:04:20Z</time>
      </trkpt>
      <trkpt lat="44.4956" lon="-1.07622">
        <ele>31</ele>
        <time>2019-08-11T18:04:25Z</time>
      </trkpt>
      <trkpt lat="44.4956" lon="-1.07622">
        <ele>31</ele>
        <time>2019-08-11T18:04:35Z</time>
      </trkpt>
      <trkpt lat="44.4956" lon="-1.07622">
        <ele>31</ele>
        <time>2019-08-11T18:04:40Z</time>
      </trkpt>
      <trkpt lat="44.4956" lon="-1.07622">
        <ele>31</ele>
        <time>2019-08-11T18:04:50Z</time>
      </trkpt>
      <trkpt lat="44.4956" lon="-1.07622">
        <ele>31</ele>
        <time>2019-08-11T18:04:55Z</time>
      </trkpt>
      <trkpt lat="44.4956" lon="-1.07622">
        <ele>31</ele>
        <time>2019-08-11T18:05:05Z</time>
      </trkpt>
      <trkpt lat="44.4956" lon="-1.07622">
        <ele>31</ele>
        <time>2019-08-11T18:05:10Z</time>
      </trkpt>
      <trkpt lat="44.4956" lon="-1.07621">
        <ele>31</ele>
        <time>2019-08-11T18:05:20Z</time>
      </trkpt>
      <trkpt lat="44.4956" lon="-1.07621">
        <ele>31</ele>
        <time>2019-08-11T18:05:25Z</time>
      </trkpt>
      <trkpt lat="44.4956" lon="-1.07621">
        <ele>31</ele>
        <time>2019-08-11T18:05:35Z</time>
      </trkpt>
      <trkpt lat="44.4956" lon="-1.0762">
        <ele>31</ele>
        <time>2019-08-11T18:05:40Z</time>
      </trkpt>
      <trkpt lat="44.49559" lon="-1.0762">
        <ele>31</ele>
        <time>2019-08-11T18:05:50Z</time>
      </trkpt>
      <trkpt lat="44.49559" lon="-1.07621">
        <ele>31</ele>
        <time>2019-08-11T18:06:00Z</time>
      </trkpt>
      <trkpt lat="44.49559" lon="-1.0762">
        <ele>31</ele>
        <time>2019-08-11T18:06:05Z</time>
      </trkpt>
      <trkpt lat="44.49559" lon="-1.0762">
        <ele>31</ele>
        <time>2019-08-11T18:06:15Z</time>
      </trkpt>
      <trkpt lat="44.49559" lon="-1.0762">
        <ele>31</ele>
        <time>2019-08-11T18:06:20Z</time>
      </trkpt>
      <trkpt lat="44.49559" lon="-1.0762">
        <ele>31</ele>
        <time>2019-08-11T18:06:30Z</time>
      </trkpt>
      <trkpt lat="44.49559" lon="-1.0762">
        <ele>31</ele>
        <time>2019-08-11T18:06:35Z</time>
      </trkpt>
      <trkpt lat="44.49559" lon="-1.0762">
        <ele>31</ele>
        <time>2019-08-11T18:06:45Z</time>
      </trkpt>
      <trkpt lat="44.49559" lon="-1.0762">
        <ele>31</ele>
        <time>2019-08-11T18:06:50Z</time>
      </trkpt>
      <trkpt lat="44.49559" lon="-1.0762">
        <ele>31</ele>
        <time>2019-08-11T18:07:00Z</time>
      </trkpt>
      <trkpt lat="44.49559" lon="-1.0762">
        <ele>31</ele>
        <time>2019-08-11T18:07:05Z</time>
      </trkpt>
      <trkpt lat="44.49559" lon="-1.0762">
        <ele>31</ele>
        <time>2019-08-11T18:07:15Z</time>
      </trkpt>
      <trkpt lat="44.49558" lon="-1.0762">
        <ele>31</ele>
        <time>2019-08-11T18:07:20Z</time>
      </trkpt>
      <trkpt lat="44.49559" lon="-1.0762">
        <ele>31</ele>
        <time>2019-08-11T18:07:30Z</time>
      </trkpt>
      <trkpt lat="44.49559" lon="-1.07618">
        <ele>31</ele>
        <time>2019-08-11T18:07:40Z</time>
      </trkpt>
      <trkpt lat="44.49559" lon="-1.07618">
        <ele>31</ele>
        <time>2019-08-11T18:07:45Z</time>
      </trkpt>
      <trkpt lat="44.49559" lon="-1.07618">
        <ele>31</ele>
        <time>2019-08-11T18:07:55Z</time>
      </trkpt>
      <trkpt lat="44.49559" lon="-1.07619">
        <ele>31</ele>
        <time>2019-08-11T18:08:00Z</time>
      </trkpt>
      <trkpt lat="44.49559" lon="-1.07619">
        <ele>31</ele>
        <time>2019-08-11T18:08:10Z</time>
      </trkpt>
      <trkpt lat="44.49559" lon="-1.07619">
        <ele>31</ele>
        <time>2019-08-11T18:08:15Z</time>
      </trkpt>
      <trkpt lat="44.49559" lon="-1.07618">
        <ele>31</ele>
        <time>2019-08-11T18:08:25Z</time>
      </trkpt>
      <trkpt lat="44.49559" lon="-1.07617">
        <ele>31</ele>
        <time>2019-08-11T18:08:30Z</time>
      </trkpt>
      <trkpt lat="44.49558" lon="-1.07617">
        <ele>31</ele>
        <time>2019-08-11T18:08:40Z</time>
      </trkpt>
      <trkpt lat="44.49558" lon="-1.07617">
        <ele>31</ele>
        <time>2019-08-11T18:08:45Z</time>
      </trkpt>
      <trkpt lat="44.49558" lon="-1.07617">
        <ele>31</ele>
        <time>2019-08-11T18:08:55Z</time>
      </trkpt>
      <trkpt lat="44.49558" lon="-1.07617">
        <ele>31</ele>
        <time>2019-08-11T18:09:05Z</time>
      </trkpt>
      <trkpt lat="44.49558" lon="-1.07617">
        <ele>31</ele>
        <time>2019-08-11T18:09:10Z</time>
      </trkpt>
      <trkpt lat="44.49558" lon="-1.07617">
        <ele>31</ele>
        <time>2019-08-11T18:09:20Z</time>
      </trkpt>
      <trkpt lat="44.49558" lon="-1.07616">
        <ele>31</ele>
        <time>2019-08-11T18:09:25Z</time>
      </trkpt>
      <trkpt lat="44.49557" lon="-1.07615">
        <ele>31</ele>
        <time>2019-08-11T18:09:35Z</time>
      </trkpt>
      <trkpt lat="44.49557" lon="-1.07615">
        <ele>31</ele>
        <time>2019-08-11T18:09:40Z</time>
      </trkpt>
      <trkpt lat="44.49556" lon="-1.07614">
        <ele>31</ele>
        <time>2019-08-11T18:09:50Z</time>
      </trkpt>
      <trkpt lat="44.49556" lon="-1.07614">
        <ele>31</ele>
        <time>2019-08-11T18:09:55Z</time>
      </trkpt>
      <trkpt lat="44.49556" lon="-1.07615">
        <ele>31</ele>
        <time>2019-08-11T18:10:05Z</time>
      </trkpt>
      <trkpt lat="44.49556" lon="-1.07615">
        <ele>31</ele>
        <time>2019-08-11T18:10:10Z</time>
      </trkpt>
      <trkpt lat="44.49556" lon="-1.07615">
        <ele>31</ele>
        <time>2019-08-11T18:10:20Z</time>
      </trkpt>
      <trkpt lat="44.49556" lon="-1.07615">
        <ele>31</ele>
        <time>2019-08-11T18:10:25Z</time>
      </trkpt>
      <trkpt lat="44.49556" lon="-1.07615">
        <ele>31</ele>
        <time>2019-08-11T18:10:35Z</time>
      </trkpt>
      <trkpt lat="44.49556" lon="-1.07615">
        <ele>31</ele>
        <time>2019-08-11T18:10:45Z</time>
      </trkpt>
      <trkpt lat="44.49556" lon="-1.07615">
        <ele>31</ele>
        <time>2019-08-11T18:10:50Z</time>
      </trkpt>
      <trkpt lat="44.49556" lon="-1.07615">
        <ele>31</ele>
        <time>2019-08-11T18:11:00Z</time>
      </trkpt>
      <trkpt lat="44.49556" lon="-1.07615">
        <ele>31</ele>
        <time>2019-08-11T18:11:05Z</time>
      </trkpt>
      <trkpt lat="44.49556" lon="-1.07615">
        <ele>31</ele>
        <time>2019-08-11T18:11:15Z</time>
      </trkpt>
      <trkpt lat="44.49556" lon="-1.07616">
        <ele>31</ele>
        <time>2019-08-11T18:11:20Z</time>
      </trkpt>
      <trkpt lat="44.49556" lon="-1.07616">
        <ele>31</ele>
        <time>2019-08-11T18:11:30Z</time>
      </trkpt>
      <trkpt lat="44.49556" lon="-1.07616">
        <ele>31</ele>
        <time>2019-08-11T18:11:35Z</time>
      </trkpt>
      <trkpt lat="44.49556" lon="-1.07616">
        <ele>31</ele>
        <time>2019-08-11T18:11:45Z</time>
      </trkpt>
      <trkpt lat="44.49556" lon="-1.07616">
        <ele>31</ele>
        <time>2019-08-11T18:11:50Z</time>
      </trkpt>
      <trkpt lat="44.49555" lon="-1.07617">
        <ele>31</ele>
        <time>2019-08-11T18:12:00Z</time>
      </trkpt>
      <trkpt lat="44.49555" lon="-1.07617">
        <ele>31</ele>
        <time>2019-08-11T18:12:05Z</time>
      </trkpt>
      <trkpt lat="44.49555" lon="-1.07618">
        <ele>31</ele>
        <time>2019-08-11T18:12:15Z</time>
      </trkpt>
      <trkpt lat="44.49555" lon="-1.07618">
        <ele>31</ele>
        <time>2019-08-11T18:12:25Z</time>
      </trkpt>
      <trkpt lat="44.49554" lon="-1.07619">
        <ele>31</ele>
        <time>2019-08-11T18:12:30Z</time>
      </trkpt>
      <trkpt lat="44.49554" lon="-1.07619">
        <ele>31</ele>
        <time>2019-08-11T18:12:40Z</time>
      </trkpt>
      <trkpt lat="44.49554" lon="-1.07619">
        <ele>31</ele>
        <time>2019-08-11T18:12:45Z</time>
      </trkpt>
      <trkpt lat="44.49554" lon="-1.0762">
        <ele>31</ele>
        <time>2019-08-11T18:12:55Z</time>
      </trkpt>
      <trkpt lat="44.49554" lon="-1.0762">
        <ele>31</ele>
        <time>2019-08-11T18:13:00Z</time>
      </trkpt>
      <trkpt lat="44.49554" lon="-1.07621">
        <ele>31</ele>
        <time>2019-08-11T18:13:10Z</time>
      </trkpt>
      <trkpt lat="44.49553" lon="-1.07622">
        <ele>31</ele>
        <time>2019-08-11T18:13:15Z</time>
      </trkpt>
      <trkpt lat="44.49553" lon="-1.07623">
        <ele>31</ele>
        <time>2019-08-11T18:13:25Z</time>
      </trkpt>
      <trkpt lat="44.49553" lon="-1.07623">
        <ele>31</ele>
        <time>2019-08-11T18:13:30Z</time>
      </trkpt>
      <trkpt lat="44.49552" lon="-1.07624">
        <ele>31</ele>
        <time>2019-08-11T18:13:40Z</time>
      </trkpt>
      <trkpt lat="44.49552" lon="-1.07624">
        <ele>31</ele>
        <time>2019-08-11T18:13:45Z</time>
      </trkpt>
      <trkpt lat="44.49551" lon="-1.07625">
        <ele>31</ele>
        <time>2019-08-11T18:13:55Z</time>
      </trkpt>
      <trkpt lat="44.49551" lon="-1.07625">
        <ele>31</ele>
        <time>2019-08-11T18:14:05Z</time>
      </trkpt>
      <trkpt lat="44.49551" lon="-1.07625">
        <ele>31</ele>
        <time>2019-08-11T18:14:10Z</time>
      </trkpt>
      <trkpt lat="44.4955" lon="-1.07626">
        <ele>31</ele>
        <time>2019-08-11T18:14:20Z</time>
      </trkpt>
      <trkpt lat="44.4955" lon="-1.07626">
        <ele>31</ele>
        <time>2019-08-11T18:14:25Z</time>
      </trkpt>
      <trkpt lat="44.49549" lon="-1.07627">
        <ele>31</ele>
        <time>2019-08-11T18:14:35Z</time>
      </trkpt>
      <trkpt lat="44.49549" lon="-1.07627">
        <ele>31</ele>
        <time>2019-08-11T18:14:40Z</time>
      </trkpt>
      <trkpt lat="44.4955" lon="-1.07626">
        <ele>31</ele>
        <time>2019-08-11T18:14:50Z</time>
      </trkpt>
      <trkpt lat="44.4955" lon="-1.07627">
        <ele>31</ele>
        <time>2019-08-11T18:14:55Z</time>
      </trkpt>
      <trkpt lat="44.4955" lon="-1.07627">
        <ele>31</ele>
        <time>2019-08-11T18:15:05Z</time>
      </trkpt>
      <trkpt lat="44.4955" lon="-1.07627">
        <ele>31</ele>
        <time>2019-08-11T18:15:10Z</time>
      </trkpt>
      <trkpt lat="44.4955" lon="-1.07626">
        <ele>31</ele>
        <time>2019-08-11T18:15:20Z</time>
      </trkpt>
      <trkpt lat="44.49553" lon="-1.07628">
        <ele>31</ele>
        <time>2019-08-11T18:15:25Z</time>
      </trkpt>
      <trkpt lat="44.49556" lon="-1.07632">
        <ele>31</ele>
        <time>2019-08-11T18:15:35Z</time>
      </trkpt>
      <trkpt lat="44.49567" lon="-1.07637">
        <ele>31</ele>
        <time>2019-08-11T18:15:45Z</time>
      </trkpt>
      <trkpt lat="44.49572" lon="-1.07641">
        <ele>32</ele>
        <time>2019-08-11T18:15:50Z</time>
      </trkpt>
      <trkpt lat="44.49577" lon="-1.07645">
        <ele>32</ele>
        <time>2019-08-11T18:16:00Z</time>
      </trkpt>
      <trkpt lat="44.4958" lon="-1.07645">
        <ele>32</ele>
        <time>2019-08-11T18:16:05Z</time>
      </trkpt>
      <trkpt lat="44.4958" lon="-1.07645">
        <ele>32</ele>
        <time>2019-08-11T18:16:15Z</time>
      </trkpt>
      <trkpt lat="44.49585" lon="-1.07651">
        <ele>32</ele>
        <time>2019-08-11T18:16:20Z</time>
      </trkpt>
      <trkpt lat="44.49581" lon="-1.07647">
        <ele>32</ele>
        <time>2019-08-11T18:16:30Z</time>
      </trkpt>
      <trkpt lat="44.4958" lon="-1.07647">
        <ele>32</ele>
        <time>2019-08-11T18:16:35Z</time>
      </trkpt>
      <trkpt lat="44.4958" lon="-1.07648">
        <ele>32</ele>
        <time>2019-08-11T18:16:45Z</time>
      </trkpt>
      <trkpt lat="44.4958" lon="-1.07647">
        <ele>32</ele>
        <time>2019-08-11T18:16:50Z</time>
      </trkpt>
      <trkpt lat="44.4958" lon="-1.07647">
        <ele>32</ele>
        <time>2019-08-11T18:17:00Z</time>
      </trkpt>
      <trkpt lat="44.49579" lon="-1.07647">
        <ele>32</ele>
        <time>2019-08-11T18:17:10Z</time>
      </trkpt>
      <trkpt lat="44.49579" lon="-1.07647">
        <ele>32</ele>
        <time>2019-08-11T18:17:15Z</time>
      </trkpt>
      <trkpt lat="44.49579" lon="-1.0765">
        <ele>32</ele>
        <time>2019-08-11T18:17:25Z</time>
      </trkpt>
      <trkpt lat="44.49576" lon="-1.07655">
        <ele>32</ele>
        <time>2019-08-11T18:17:30Z</time>
      </trkpt>
      <trkpt lat="44.49572" lon="-1.07653">
        <ele>32</ele>
        <time>2019-08-11T18:17:40Z</time>
      </trkpt>
      <trkpt lat="44.4957" lon="-1.07649">
        <ele>31</ele>
        <time>2019-08-11T18:17:45Z</time>
      </trkpt>
      <trkpt lat="44.4957" lon="-1.07648">
        <ele>31</ele>
        <time>2019-08-11T18:17:55Z</time>
      </trkpt>
      <trkpt lat="44.49572" lon="-1.07654">
        <ele>32</ele>
        <time>2019-08-11T18:18:00Z</time>
      </trkpt>
      <trkpt lat="44.49571" lon="-1.07657">
        <ele>32</ele>
        <time>2019-08-11T18:18:10Z</time>
      </trkpt>
      <trkpt lat="44.49571" lon="-1.07656">
        <ele>32</ele>
        <time>2019-08-11T18:18:15Z</time>
      </trkpt>
      <trkpt lat="44.49571" lon="-1.07652">
        <ele>32</ele>
        <time>2019-08-11T18:18:25Z</time>
      </trkpt>
      <trkpt lat="44.49569" lon="-1.07649">
        <ele>32</ele>
        <time>2019-08-11T18:18:30Z</time>
      </trkpt>
      <trkpt lat="44.49569" lon="-1.07645">
        <ele>31</ele>
        <time>2019-08-11T18:18:40Z</time>
      </trkpt>
      <trkpt lat="44.49573" lon="-1.0764">
        <ele>31</ele>
        <time>2019-08-11T18:18:50Z</time>
      </trkpt>
      <trkpt lat="44.49572" lon="-1.0764">
        <ele>32</ele>
        <time>2019-08-11T18:18:55Z</time>
      </trkpt>
      <trkpt lat="44.49571" lon="-1.07637">
        <ele>31</ele>
        <time>2019-08-11T18:19:05Z</time>
      </trkpt>
      <trkpt lat="44.4957" lon="-1.07635">
        <ele>31</ele>
        <time>2019-08-11T18:19:10Z</time>
      </trkpt>
      <trkpt lat="44.4957" lon="-1.07631">
        <ele>31</ele>
        <time>2019-08-11T18:19:20Z</time>
      </trkpt>
      <trkpt lat="44.4957" lon="-1.0763">
        <ele>31</ele>
        <time>2019-08-11T18:19:25Z</time>
      </trkpt>
      <trkpt lat="44.49572" lon="-1.07631">
        <ele>31</ele>
        <time>2019-08-11T18:19:35Z</time>
      </trkpt>
      <trkpt lat="44.49573" lon="-1.07633">
        <ele>31</ele>
        <time>2019-08-11T18:19:40Z</time>
      </trkpt>
      <trkpt lat="44.49573" lon="-1.07635">
        <ele>31</ele>
        <time>2019-08-11T18:19:50Z</time>
      </trkpt>
      <trkpt lat="44.49573" lon="-1.07634">
        <ele>31</ele>
        <time>2019-08-11T18:19:55Z</time>
      </trkpt>
      <trkpt lat="44.49571" lon="-1.07629">
        <ele>31</ele>
        <time>2019-08-11T18:20:05Z</time>
      </trkpt>
      <trkpt lat="44.4957" lon="-1.07629">
        <ele>31</ele>
        <time>2019-08-11T18:20:10Z</time>
      </trkpt>
      <trkpt lat="44.4957" lon="-1.07629">
        <ele>31</ele>
        <time>2019-08-11T18:20:20Z</time>
      </trkpt>
      <trkpt lat="44.4957" lon="-1.07631">
        <ele>31</ele>
        <time>2019-08-11T18:20:30Z</time>
      </trkpt>
      <trkpt lat="44.4957" lon="-1.07631">
        <ele>31</ele>
        <time>2019-08-11T18:20:35Z</time>
      </trkpt>
      <trkpt lat="44.4957" lon="-1.07632">
        <ele>31</ele>
        <time>2019-08-11T18:20:45Z</time>
      </trkpt>
      <trkpt lat="44.49571" lon="-1.07634">
        <ele>31</ele>
        <time>2019-08-11T18:20:50Z</time>
      </trkpt>
      <trkpt lat="44.49572" lon="-1.07635">
        <ele>31</ele>
        <time>2019-08-11T18:21:00Z</time>
      </trkpt>
      <trkpt lat="44.49572" lon="-1.07636">
        <ele>31</ele>
        <time>2019-08-11T18:21:05Z</time>
      </trkpt>
      <trkpt lat="44.49571" lon="-1.07637">
        <ele>31</ele>
        <time>2019-08-11T18:21:15Z</time>
      </trkpt>
      <trkpt lat="44.4957" lon="-1.07638">
        <ele>31</ele>
        <time>2019-08-11T18:21:20Z</time>
      </trkpt>
      <trkpt lat="44.49569" lon="-1.07638">
        <ele>31</ele>
        <time>2019-08-11T18:21:30Z</time>
      </trkpt>
      <trkpt lat="44.49569" lon="-1.07639">
        <ele>31</ele>
        <time>2019-08-11T18:21:35Z</time>
      </trkpt>
      <trkpt lat="44.49569" lon="-1.07641">
        <ele>31</ele>
        <time>2019-08-11T18:21:45Z</time>
      </trkpt>
      <trkpt lat="44.49568" lon="-1.07642">
        <ele>31</ele>
        <time>2019-08-11T18:21:50Z</time>
      </trkpt>
      <trkpt lat="44.49568" lon="-1.07644">
        <ele>31</ele>
        <time>2019-08-11T18:22:00Z</time>
      </trkpt>
      <trkpt lat="44.49567" lon="-1.07645">
        <ele>31</ele>
        <time>2019-08-11T18:22:10Z</time>
      </trkpt>
      <trkpt lat="44.49569" lon="-1.07644">
        <ele>31</ele>
        <time>2019-08-11T18:22:15Z</time>
      </trkpt>
      <trkpt lat="44.49569" lon="-1.07645">
        <ele>31</ele>
        <time>2019-08-11T18:22:25Z</time>
      </trkpt>
      <trkpt lat="44.49569" lon="-1.07645">
        <ele>31</ele>
        <time>2019-08-11T18:22:30Z</time>
      </trkpt>
      <trkpt lat="44.49567" lon="-1.07645">
        <ele>31</ele>
        <time>2019-08-11T18:22:40Z</time>
      </trkpt>
      <trkpt lat="44.49567" lon="-1.07645">
        <ele>31</ele>
        <time>2019-08-11T18:22:45Z</time>
      </trkpt>
      <trkpt lat="44.49566" lon="-1.07645">
        <ele>31</ele>
        <time>2019-08-11T18:22:55Z</time>
      </trkpt>
      <trkpt lat="44.49566" lon="-1.07645">
        <ele>31</ele>
        <time>2019-08-11T18:23:00Z</time>
      </trkpt>
      <trkpt lat="44.49566" lon="-1.07644">
        <ele>31</ele>
        <time>2019-08-11T18:23:10Z</time>
      </trkpt>
      <trkpt lat="44.49566" lon="-1.07644">
        <ele>31</ele>
        <time>2019-08-11T18:23:15Z</time>
      </trkpt>
      <trkpt lat="44.49567" lon="-1.07645">
        <ele>31</ele>
        <time>2019-08-11T18:23:25Z</time>
      </trkpt>
      <trkpt lat="44.49567" lon="-1.07645">
        <ele>31</ele>
        <time>2019-08-11T18:23:30Z</time>
      </trkpt>
      <trkpt lat="44.49568" lon="-1.07645">
        <ele>31</ele>
        <time>2019-08-11T18:23:40Z</time>
      </trkpt>
      <trkpt lat="44.49568" lon="-1.07645">
        <ele>31</ele>
        <time>2019-08-11T18:23:50Z</time>
      </trkpt>
      <trkpt lat="44.49568" lon="-1.07646">
        <ele>31</ele>
        <time>2019-08-11T18:23:55Z</time>
      </trkpt>
      <trkpt lat="44.49568" lon="-1.07646">
        <ele>31</ele>
        <time>2019-08-11T18:24:05Z</time>
      </trkpt>
      <trkpt lat="44.49568" lon="-1.07645">
        <ele>31</ele>
        <time>2019-08-11T18:24:10Z</time>
      </trkpt>
      <trkpt lat="44.49568" lon="-1.07645">
        <ele>31</ele>
        <time>2019-08-11T18:24:20Z</time>
      </trkpt>
      <trkpt lat="44.49567" lon="-1.07645">
        <ele>31</ele>
        <time>2019-08-11T18:24:25Z</time>
      </trkpt>
      <trkpt lat="44.49568" lon="-1.07645">
        <ele>31</ele>
        <time>2019-08-11T18:24:35Z</time>
      </trkpt>
      <trkpt lat="44.49568" lon="-1.07646">
        <ele>31</ele>
        <time>2019-08-11T18:24:40Z</time>
      </trkpt>
      <trkpt lat="44.49567" lon="-1.07647">
        <ele>31</ele>
        <time>2019-08-11T18:24:50Z</time>
      </trkpt>
      <trkpt lat="44.49567" lon="-1.07647">
        <ele>31</ele>
        <time>2019-08-11T18:24:55Z</time>
      </trkpt>
      <trkpt lat="44.49568" lon="-1.07649">
        <ele>32</ele>
        <time>2019-08-11T18:25:05Z</time>
      </trkpt>
      <trkpt lat="44.49569" lon="-1.0765">
        <ele>32</ele>
        <time>2019-08-11T18:25:15Z</time>
      </trkpt>
      <trkpt lat="44.49569" lon="-1.0765">
        <ele>32</ele>
        <time>2019-08-11T18:25:20Z</time>
      </trkpt>
      <trkpt lat="44.49569" lon="-1.07648">
        <ele>31</ele>
        <time>2019-08-11T18:25:30Z</time>
      </trkpt>
      <trkpt lat="44.49569" lon="-1.07647">
        <ele>31</ele>
        <time>2019-08-11T18:25:35Z</time>
      </trkpt>
      <trkpt lat="44.4957" lon="-1.07647">
        <ele>31</ele>
        <time>2019-08-11T18:25:45Z</time>
      </trkpt>
      <trkpt lat="44.49569" lon="-1.07645">
        <ele>31</ele>
        <time>2019-08-11T18:25:50Z</time>
      </trkpt>
      <trkpt lat="44.49569" lon="-1.07645">
        <ele>31</ele>
        <time>2019-08-11T18:26:00Z</time>
      </trkpt>
      <trkpt lat="44.49569" lon="-1.07645">
        <ele>31</ele>
        <time>2019-08-11T18:26:05Z</time>
      </trkpt>
      <trkpt lat="44.49569" lon="-1.07646">
        <ele>31</ele>
        <time>2019-08-11T18:26:15Z</time>
      </trkpt>
      <trkpt lat="44.49569" lon="-1.07646">
        <ele>31</ele>
        <time>2019-08-11T18:26:20Z</time>
      </trkpt>
      <trkpt lat="44.49569" lon="-1.07646">
        <ele>31</ele>
        <time>2019-08-11T18:26:30Z</time>
      </trkpt>
      <trkpt lat="44.49569" lon="-1.07646">
        <ele>31</ele>
        <time>2019-08-11T18:26:35Z</time>
      </trkpt>
      <trkpt lat="44.49569" lon="-1.07647">
        <ele>31</ele>
        <time>2019-08-11T18:26:45Z</time>
      </trkpt>
      <trkpt lat="44.49569" lon="-1.07647">
        <ele>31</ele>
        <time>2019-08-11T18:26:55Z</time>
      </trkpt>
      <trkpt lat="44.49569" lon="-1.07648">
        <ele>31</ele>
        <time>2019-08-11T18:27:00Z</time>
      </trkpt>
      <trkpt lat="44.4957" lon="-1.07648">
        <ele>31</ele>
        <time>2019-08-11T18:27:10Z</time>
      </trkpt>
      <trkpt lat="44.49571" lon="-1.07648">
        <ele>31</ele>
        <time>2019-08-11T18:27:15Z</time>
      </trkpt>
      <trkpt lat="44.4957" lon="-1.07645">
        <ele>31</ele>
        <time>2019-08-11T18:27:25Z</time>
      </trkpt>
      <trkpt lat="44.49571" lon="-1.07645">
        <ele>31</ele>
        <time>2019-08-11T18:27:30Z</time>
      </trkpt>
      <trkpt lat="44.49572" lon="-1.07642">
        <ele>32</ele>
        <time>2019-08-11T18:27:40Z</time>
      </trkpt>
      <trkpt lat="44.49573" lon="-1.07642">
        <ele>32</ele>
        <time>2019-08-11T18:27:45Z</time>
      </trkpt>
      <trkpt lat="44.49573" lon="-1.07641">
        <ele>32</ele>
        <time>2019-08-11T18:27:55Z</time>
      </trkpt>
      <trkpt lat="44.49573" lon="-1.0764">
        <ele>31</ele>
        <time>2019-08-11T18:28:00Z</time>
      </trkpt>
      <trkpt lat="44.49572" lon="-1.07638">
        <ele>31</ele>
        <time>2019-08-11T18:28:10Z</time>
      </trkpt>
      <trkpt lat="44.49571" lon="-1.07637">
        <ele>31</ele>
        <time>2019-08-11T18:28:15Z</time>
      </trkpt>
      <trkpt lat="44.49568" lon="-1.07636">
        <ele>31</ele>
        <time>2019-08-11T18:28:25Z</time>
      </trkpt>
      <trkpt lat="44.49571" lon="-1.07642">
        <ele>31</ele>
        <time>2019-08-11T18:28:35Z</time>
      </trkpt>
      <trkpt lat="44.49569" lon="-1.07639">
        <ele>31</ele>
        <time>2019-08-11T18:28:40Z</time>
      </trkpt>
      <trkpt lat="44.49569" lon="-1.07643">
        <ele>31</ele>
        <time>2019-08-11T18:28:50Z</time>
      </trkpt>
      <trkpt lat="44.49569" lon="-1.07645">
        <ele>31</ele>
        <time>2019-08-11T18:28:55Z</time>
      </trkpt>
      <trkpt lat="44.49571" lon="-1.07654">
        <ele>32</ele>
        <time>2019-08-11T18:29:05Z</time>
      </trkpt>
      <trkpt lat="44.49574" lon="-1.07656">
        <ele>32</ele>
        <time>2019-08-11T18:29:10Z</time>
      </trkpt>
      <trkpt lat="44.49567" lon="-1.07641">
        <ele>31</ele>
        <time>2019-08-11T18:29:20Z</time>
      </trkpt>
      <trkpt lat="44.49568" lon="-1.07636">
        <ele>31</ele>
        <time>2019-08-11T18:29:25Z</time>
      </trkpt>
      <trkpt lat="44.49569" lon="-1.07634">
        <ele>31</ele>
        <time>2019-08-11T18:29:35Z</time>
      </trkpt>
      <trkpt lat="44.49569" lon="-1.07634">
        <ele>31</ele>
        <time>2019-08-11T18:29:40Z</time>
      </trkpt>
      <trkpt lat="44.49568" lon="-1.07631">
        <ele>31</ele>
        <time>2019-08-11T18:29:50Z</time>
      </trkpt>
      <trkpt lat="44.49568" lon="-1.07632">
        <ele>31</ele>
        <time>2019-08-11T18:29:55Z</time>
      </trkpt>
      <trkpt lat="44.49569" lon="-1.07633">
        <ele>31</ele>
        <time>2019-08-11T18:30:05Z</time>
      </trkpt>
      <trkpt lat="44.49568" lon="-1.07634">
        <ele>31</ele>
        <time>2019-08-11T18:30:15Z</time>
      </trkpt>
      <trkpt lat="44.49565" lon="-1.07635">
        <ele>31</ele>
        <time>2019-08-11T18:30:20Z</time>
      </trkpt>
      <trkpt lat="44.49566" lon="-1.07634">
        <ele>31</ele>
        <time>2019-08-11T18:30:30Z</time>
      </trkpt>
      <trkpt lat="44.49567" lon="-1.07634">
        <ele>31</ele>
        <time>2019-08-11T18:30:35Z</time>
      </trkpt>
      <trkpt lat="44.49568" lon="-1.07631">
        <ele>31</ele>
        <time>2019-08-11T18:30:45Z</time>
      </trkpt>
      <trkpt lat="44.49569" lon="-1.07629">
        <ele>31</ele>
        <time>2019-08-11T18:30:50Z</time>
      </trkpt>
      <trkpt lat="44.49572" lon="-1.07628">
        <ele>31</ele>
        <time>2019-08-11T18:31:00Z</time>
      </trkpt>
      <trkpt lat="44.49573" lon="-1.0763">
        <ele>31</ele>
        <time>2019-08-11T18:31:05Z</time>
      </trkpt>
      <trkpt lat="44.49572" lon="-1.07631">
        <ele>31</ele>
        <time>2019-08-11T18:31:15Z</time>
      </trkpt>
      <trkpt lat="44.49572" lon="-1.07632">
        <ele>31</ele>
        <time>2019-08-11T18:31:20Z</time>
      </trkpt>
      <trkpt lat="44.49569" lon="-1.07637">
        <ele>31</ele>
        <time>2019-08-11T18:31:30Z</time>
      </trkpt>
      <trkpt lat="44.4957" lon="-1.07637">
        <ele>31</ele>
        <time>2019-08-11T18:31:35Z</time>
      </trkpt>
      <trkpt lat="44.49567" lon="-1.07635">
        <ele>31</ele>
        <time>2019-08-11T18:31:45Z</time>
      </trkpt>
      <trkpt lat="44.49565" lon="-1.07632">
        <ele>31</ele>
        <time>2019-08-11T18:31:55Z</time>
      </trkpt>
      <trkpt lat="44.49565" lon="-1.07632">
        <ele>31</ele>
        <time>2019-08-11T18:32:00Z</time>
      </trkpt>
      <trkpt lat="44.49565" lon="-1.07633">
        <ele>31</ele>
        <time>2019-08-11T18:32:10Z</time>
      </trkpt>
      <trkpt lat="44.49565" lon="-1.07633">
        <ele>31</ele>
        <time>2019-08-11T18:32:15Z</time>
      </trkpt>
      <trkpt lat="44.49563" lon="-1.07628">
        <ele>31</ele>
        <time>2019-08-11T18:32:25Z</time>
      </trkpt>
      <trkpt lat="44.49563" lon="-1.07628">
        <ele>31</ele>
        <time>2019-08-11T18:32:30Z</time>
      </trkpt>
      <trkpt lat="44.49563" lon="-1.07628">
        <ele>31</ele>
        <time>2019-08-11T18:32:40Z</time>
      </trkpt>
      <trkpt lat="44.49563" lon="-1.07628">
        <ele>31</ele>
        <time>2019-08-11T18:32:45Z</time>
      </trkpt>
      <trkpt lat="44.49563" lon="-1.07628">
        <ele>31</ele>
        <time>2019-08-11T18:32:55Z</time>
      </trkpt>
      <trkpt lat="44.49563" lon="-1.07628">
        <ele>31</ele>
        <time>2019-08-11T18:33:00Z</time>
      </trkpt>
      <trkpt lat="44.49563" lon="-1.07628">
        <ele>31</ele>
        <time>2019-08-11T18:33:10Z</time>
      </trkpt>
      <trkpt lat="44.49563" lon="-1.07628">
        <ele>31</ele>
        <time>2019-08-11T18:33:20Z</time>
      </trkpt>
      <trkpt lat="44.49563" lon="-1.07628">
        <ele>31</ele>
        <time>2019-08-11T18:33:25Z</time>
      </trkpt>
      <trkpt lat="44.49563" lon="-1.07628">
        <ele>31</ele>
        <time>2019-08-11T18:33:35Z</time>
      </trkpt>
      <trkpt lat="44.49563" lon="-1.07628">
        <ele>31</ele>
        <time>2019-08-11T18:33:40Z</time>
      </trkpt>
      <trkpt lat="44.49563" lon="-1.07628">
        <ele>31</ele>
        <time>2019-08-11T18:33:50Z</time>
      </trkpt>
      <trkpt lat="44.49563" lon="-1.07628">
        <ele>31</ele>
        <time>2019-08-11T18:33:55Z</time>
      </trkpt>
      <trkpt lat="44.49563" lon="-1.07628">
        <ele>31</ele>
        <time>2019-08-11T18:34:05Z</time>
      </trkpt>
      <trkpt lat="44.49563" lon="-1.07628">
        <ele>31</ele>
        <time>2019-08-11T18:34:10Z</time>
      </trkpt>
      <trkpt lat="44.49563" lon="-1.07628">
        <ele>31</ele>
        <time>2019-08-11T18:34:20Z</time>
      </trkpt>
      <trkpt lat="44.49563" lon="-1.07628">
        <ele>31</ele>
        <time>2019-08-11T18:34:25Z</time>
      </trkpt>
      <trkpt lat="44.49563" lon="-1.07628">
        <ele>31</ele>
        <time>2019-08-11T18:34:35Z</time>
      </trkpt>
      <trkpt lat="44.49563" lon="-1.07628">
        <ele>31</ele>
        <time>2019-08-11T18:34:40Z</time>
      </trkpt>
      <trkpt lat="44.49563" lon="-1.07628">
        <ele>31</ele>
        <time>2019-08-11T18:34:50Z</time>
      </trkpt>
      <trkpt lat="44.49563" lon="-1.07628">
        <ele>31</ele>
        <time>2019-08-11T18:35:00Z</time>
      </trkpt>
      <trkpt lat="44.49563" lon="-1.07628">
        <ele>31</ele>
        <time>2019-08-11T18:35:05Z</time>
      </trkpt>
      <trkpt lat="44.49563" lon="-1.07628">
        <ele>31</ele>
        <time>2019-08-11T18:35:15Z</time>
      </trkpt>
      <trkpt lat="44.49563" lon="-1.07628">
        <ele>31</ele>
        <time>2019-08-11T18:35:20Z</time>
      </trkpt>
      <trkpt lat="44.49563" lon="-1.07628">
        <ele>31</ele>
        <time>2019-08-11T18:35:30Z</time>
      </trkpt>
      <trkpt lat="44.49563" lon="-1.07629">
        <ele>31</ele>
        <time>2019-08-11T18:35:35Z</time>
      </trkpt>
      <trkpt lat="44.49563" lon="-1.07629">
        <ele>31</ele>
        <time>2019-08-11T18:35:45Z</time>
      </trkpt>
      <trkpt lat="44.49563" lon="-1.07629">
        <ele>31</ele>
        <time>2019-08-11T18:35:50Z</time>
      </trkpt>
      <trkpt lat="44.49564" lon="-1.07629">
        <ele>31</ele>
        <time>2019-08-11T18:36:00Z</time>
      </trkpt>
      <trkpt lat="44.49565" lon="-1.07629">
        <ele>31</ele>
        <time>2019-08-11T18:36:05Z</time>
      </trkpt>
      <trkpt lat="44.49569" lon="-1.07635">
        <ele>31</ele>
        <time>2019-08-11T18:36:15Z</time>
      </trkpt>
      <trkpt lat="44.4957" lon="-1.07638">
        <ele>31</ele>
        <time>2019-08-11T18:36:20Z</time>
      </trkpt>
      <trkpt lat="44.49571" lon="-1.0764">
        <ele>31</ele>
        <time>2019-08-11T18:36:30Z</time>
      </trkpt>
      <trkpt lat="44.49573" lon="-1.07639">
        <ele>31</ele>
        <time>2019-08-11T18:36:40Z</time>
      </trkpt>
      <trkpt lat="44.4957" lon="-1.07639">
        <ele>31</ele>
        <time>2019-08-11T18:36:45Z</time>
      </trkpt>
      <trkpt lat="44.49567" lon="-1.07637">
        <ele>31</ele>
        <time>2019-08-11T18:36:55Z</time>
      </trkpt>
      <trkpt lat="44.49567" lon="-1.07637">
        <ele>31</ele>
        <time>2019-08-11T18:37:00Z</time>
      </trkpt>
      <trkpt lat="44.49567" lon="-1.07638">
        <ele>31</ele>
        <time>2019-08-11T18:37:10Z</time>
      </trkpt>
      <trkpt lat="44.49567" lon="-1.07637">
        <ele>31</ele>
        <time>2019-08-11T18:37:15Z</time>
      </trkpt>
      <trkpt lat="44.49567" lon="-1.07637">
        <ele>31</ele>
        <time>2019-08-11T18:37:25Z</time>
      </trkpt>
      <trkpt lat="44.49567" lon="-1.07637">
        <ele>31</ele>
        <time>2019-08-11T18:37:30Z</time>
      </trkpt>
      <trkpt lat="44.49567" lon="-1.07636">
        <ele>31</ele>
        <time>2019-08-11T18:37:40Z</time>
      </trkpt>
      <trkpt lat="44.49567" lon="-1.07636">
        <ele>31</ele>
        <time>2019-08-11T18:37:45Z</time>
      </trkpt>
      <trkpt lat="44.49568" lon="-1.07636">
        <ele>31</ele>
        <time>2019-08-11T18:37:55Z</time>
      </trkpt>
      <trkpt lat="44.49569" lon="-1.07636">
        <ele>31</ele>
        <time>2019-08-11T18:38:00Z</time>
      </trkpt>
      <trkpt lat="44.49572" lon="-1.07638">
        <ele>31</ele>
        <time>2019-08-11T18:38:10Z</time>
      </trkpt>
      <trkpt lat="44.49573" lon="-1.07638">
        <ele>31</ele>
        <time>2019-08-11T18:38:20Z</time>
      </trkpt>
      <trkpt lat="44.49574" lon="-1.07637">
        <ele>31</ele>
        <time>2019-08-11T18:38:25Z</time>
      </trkpt>
      <trkpt lat="44.49575" lon="-1.07635">
        <ele>31</ele>
        <time>2019-08-11T18:38:35Z</time>
      </trkpt>
      <trkpt lat="44.49575" lon="-1.07635">
        <ele>31</ele>
        <time>2019-08-11T18:38:40Z</time>
      </trkpt>
      <trkpt lat="44.49576" lon="-1.07635">
        <ele>31</ele>
        <time>2019-08-11T18:38:50Z</time>
      </trkpt>
      <trkpt lat="44.49576" lon="-1.07635">
        <ele>31</ele>
        <time>2019-08-11T18:38:55Z</time>
      </trkpt>
      <trkpt lat="44.49576" lon="-1.07635">
        <ele>31</ele>
        <time>2019-08-11T18:39:05Z</time>
      </trkpt>
      <trkpt lat="44.49575" lon="-1.07635">
        <ele>31</ele>
        <time>2019-08-11T18:39:10Z</time>
      </trkpt>
      <trkpt lat="44.49574" lon="-1.07635">
        <ele>31</ele>
        <time>2019-08-11T18:39:20Z</time>
      </trkpt>
      <trkpt lat="44.49573" lon="-1.07633">
        <ele>31</ele>
        <time>2019-08-11T18:39:25Z</time>
      </trkpt>
      <trkpt lat="44.49571" lon="-1.07628">
        <ele>31</ele>
        <time>2019-08-11T18:39:35Z</time>
      </trkpt>
      <trkpt lat="44.49569" lon="-1.07628">
        <ele>31</ele>
        <time>2019-08-11T18:39:45Z</time>
      </trkpt>
      <trkpt lat="44.49568" lon="-1.07629">
        <ele>31</ele>
        <time>2019-08-11T18:39:50Z</time>
      </trkpt>
      <trkpt lat="44.49569" lon="-1.07632">
        <ele>31</ele>
        <time>2019-08-11T18:40:00Z</time>
      </trkpt>
      <trkpt lat="44.49564" lon="-1.07634">
        <ele>31</ele>
        <time>2019-08-11T18:40:05Z</time>
      </trkpt>
      <trkpt lat="44.49563" lon="-1.07635">
        <ele>31</ele>
        <time>2019-08-11T18:40:15Z</time>
      </trkpt>
      <trkpt lat="44.49563" lon="-1.07635">
        <ele>31</ele>
        <time>2019-08-11T18:40:20Z</time>
      </trkpt>
      <trkpt lat="44.49563" lon="-1.07635">
        <ele>31</ele>
        <time>2019-08-11T18:40:30Z</time>
      </trkpt>
      <trkpt lat="44.49563" lon="-1.07635">
        <ele>31</ele>
        <time>2019-08-11T18:40:35Z</time>
      </trkpt>
      <trkpt lat="44.49564" lon="-1.07635">
        <ele>31</ele>
        <time>2019-08-11T18:40:45Z</time>
      </trkpt>
      <trkpt lat="44.49565" lon="-1.07635">
        <ele>31</ele>
        <time>2019-08-11T18:40:50Z</time>
      </trkpt>
      <trkpt lat="44.49571" lon="-1.07639">
        <ele>31</ele>
        <time>2019-08-11T18:41:00Z</time>
      </trkpt>
      <trkpt lat="44.49573" lon="-1.07641">
        <ele>32</ele>
        <time>2019-08-11T18:41:05Z</time>
      </trkpt>
      <trkpt lat="44.49573" lon="-1.07639">
        <ele>31</ele>
        <time>2019-08-11T18:41:15Z</time>
      </trkpt>
      <trkpt lat="44.49573" lon="-1.07638">
        <ele>31</ele>
        <time>2019-08-11T18:41:25Z</time>
      </trkpt>
      <trkpt lat="44.49573" lon="-1.07638">
        <ele>31</ele>
        <time>2019-08-11T18:41:30Z</time>
      </trkpt>
      <trkpt lat="44.49573" lon="-1.07637">
        <ele>31</ele>
        <time>2019-08-11T18:41:40Z</time>
      </trkpt>
      <trkpt lat="44.49573" lon="-1.07637">
        <ele>31</ele>
        <time>2019-08-11T18:41:45Z</time>
      </trkpt>
      <trkpt lat="44.49571" lon="-1.07638">
        <ele>31</ele>
        <time>2019-08-11T18:41:55Z</time>
      </trkpt>
      <trkpt lat="44.49571" lon="-1.07638">
        <ele>31</ele>
        <time>2019-08-11T18:42:00Z</time>
      </trkpt>
      <trkpt lat="44.49571" lon="-1.07637">
        <ele>31</ele>
        <time>2019-08-11T18:42:10Z</time>
      </trkpt>
      <trkpt lat="44.4957" lon="-1.07636">
        <ele>31</ele>
        <time>2019-08-11T18:42:15Z</time>
      </trkpt>
      <trkpt lat="44.49569" lon="-1.07637">
        <ele>31</ele>
        <time>2019-08-11T18:42:25Z</time>
      </trkpt>
      <trkpt lat="44.49569" lon="-1.07636">
        <ele>31</ele>
        <time>2019-08-11T18:42:30Z</time>
      </trkpt>
      <trkpt lat="44.49569" lon="-1.07636">
        <ele>31</ele>
        <time>2019-08-11T18:42:40Z</time>
      </trkpt>
      <trkpt lat="44.49569" lon="-1.07636">
        <ele>31</ele>
        <time>2019-08-11T18:42:45Z</time>
      </trkpt>
      <trkpt lat="44.49569" lon="-1.07636">
        <ele>31</ele>
        <time>2019-08-11T18:42:55Z</time>
      </trkpt>
      <trkpt lat="44.49569" lon="-1.07636">
        <ele>31</ele>
        <time>2019-08-11T18:43:05Z</time>
      </trkpt>
      <trkpt lat="44.49569" lon="-1.07636">
        <ele>31</ele>
        <time>2019-08-11T18:43:10Z</time>
      </trkpt>
      <trkpt lat="44.49569" lon="-1.07636">
        <ele>31</ele>
        <time>2019-08-11T18:43:20Z</time>
      </trkpt>
      <trkpt lat="44.49569" lon="-1.07636">
        <ele>31</ele>
        <time>2019-08-11T18:43:25Z</time>
      </trkpt>
      <trkpt lat="44.49569" lon="-1.07636">
        <ele>31</ele>
        <time>2019-08-11T18:43:35Z</time>
      </trkpt>
      <trkpt lat="44.49569" lon="-1.07636">
        <ele>31</ele>
        <time>2019-08-11T18:43:40Z</time>
      </trkpt>
      <trkpt lat="44.49569" lon="-1.07636">
        <ele>31</ele>
        <time>2019-08-11T18:43:50Z</time>
      </trkpt>
      <trkpt lat="44.49569" lon="-1.07636">
        <ele>31</ele>
        <time>2019-08-11T18:43:55Z</time>
      </trkpt>
      <trkpt lat="44.49569" lon="-1.07636">
        <ele>31</ele>
        <time>2019-08-11T18:44:05Z</time>
      </trkpt>
      <trkpt lat="44.49569" lon="-1.07636">
        <ele>31</ele>
        <time>2019-08-11T18:44:10Z</time>
      </trkpt>
      <trkpt lat="44.49569" lon="-1.07636">
        <ele>31</ele>
        <time>2019-08-11T18:44:20Z</time>
      </trkpt>
      <trkpt lat="44.49569" lon="-1.07636">
        <ele>31</ele>
        <time>2019-08-11T18:44:25Z</time>
      </trkpt>
      <trkpt lat="44.49569" lon="-1.07636">
        <ele>31</ele>
        <time>2019-08-11T18:44:35Z</time>
      </trkpt>
      <trkpt lat="44.49569" lon="-1.07636">
        <ele>31</ele>
        <time>2019-08-11T18:44:45Z</time>
      </trkpt>
      <trkpt lat="44.49569" lon="-1.07636">
        <ele>31</ele>
        <time>2019-08-11T18:44:50Z</time>
      </trkpt>
      <trkpt lat="44.49569" lon="-1.07636">
        <ele>31</ele>
        <time>2019-08-11T18:45:00Z</time>
      </trkpt>
      <trkpt lat="44.49569" lon="-1.07636">
        <ele>31</ele>
        <time>2019-08-11T18:45:05Z</time>
      </trkpt>
      <trkpt lat="44.49569" lon="-1.07636">
        <ele>31</ele>
        <time>2019-08-11T18:45:15Z</time>
      </trkpt>
      <trkpt lat="44.49569" lon="-1.07636">
        <ele>31</ele>
        <time>2019-08-11T18:45:20Z</time>
      </trkpt>
      <trkpt lat="44.49569" lon="-1.07636">
        <ele>31</ele>
        <time>2019-08-11T18:45:30Z</time>
      </trkpt>
      <trkpt lat="44.49569" lon="-1.07636">
        <ele>31</ele>
        <time>2019-08-11T18:45:35Z</time>
      </trkpt>
      <trkpt lat="44.49569" lon="-1.07636">
        <ele>31</ele>
        <time>2019-08-11T18:45:45Z</time>
      </trkpt>
      <trkpt lat="44.49569" lon="-1.07636">
        <ele>31</ele>
        <time>2019-08-11T18:45:50Z</time>
      </trkpt>
      <trkpt lat="44.49569" lon="-1.07636">
        <ele>31</ele>
        <time>2019-08-11T18:46:00Z</time>
      </trkpt>
      <trkpt lat="44.49569" lon="-1.07636">
        <ele>31</ele>
        <time>2019-08-11T18:46:05Z</time>
      </trkpt>
      <trkpt lat="44.49569" lon="-1.07636">
        <ele>31</ele>
        <time>2019-08-11T18:46:15Z</time>
      </trkpt>
      <trkpt lat="44.49569" lon="-1.07636">
        <ele>31</ele>
        <time>2019-08-11T18:46:25Z</time>
      </trkpt>
      <trkpt lat="44.49569" lon="-1.07636">
        <ele>31</ele>
        <time>2019-08-11T18:46:30Z</time>
      </trkpt>
      <trkpt lat="44.49569" lon="-1.07636">
        <ele>31</ele>
        <time>2019-08-11T18:46:40Z</time>
      </trkpt>
      <trkpt lat="44.49569" lon="-1.07636">
        <ele>31</ele>
        <time>2019-08-11T18:46:45Z</time>
      </trkpt>
      <trkpt lat="44.49569" lon="-1.07636">
        <ele>31</ele>
        <time>2019-08-11T18:46:55Z</time>
      </trkpt>
      <trkpt lat="44.49569" lon="-1.07636">
        <ele>31</ele>
        <time>2019-08-11T18:47:00Z</time>
      </trkpt>
      <trkpt lat="44.49569" lon="-1.07636">
        <ele>31</ele>
        <time>2019-08-11T18:47:10Z</time>
      </trkpt>
      <trkpt lat="44.49569" lon="-1.07636">
        <ele>31</ele>
        <time>2019-08-11T18:47:15Z</time>
      </trkpt>
      <trkpt lat="44.49569" lon="-1.07636">
        <ele>31</ele>
        <time>2019-08-11T18:47:25Z</time>
      </trkpt>
      <trkpt lat="44.49569" lon="-1.07636">
        <ele>31</ele>
        <time>2019-08-11T18:47:30Z</time>
      </trkpt>
      <trkpt lat="44.49569" lon="-1.07636">
        <ele>31</ele>
        <time>2019-08-11T18:47:40Z</time>
      </trkpt>
      <trkpt lat="44.49569" lon="-1.07636">
        <ele>31</ele>
        <time>2019-08-11T18:47:50Z</time>
      </trkpt>
      <trkpt lat="44.49569" lon="-1.07636">
        <ele>31</ele>
        <time>2019-08-11T18:47:55Z</time>
      </trkpt>
      <trkpt lat="44.49569" lon="-1.07636">
        <ele>31</ele>
        <time>2019-08-11T18:48:05Z</time>
      </trkpt>
      <trkpt lat="44.49569" lon="-1.07636">
        <ele>31</ele>
        <time>2019-08-11T18:48:10Z</time>
      </trkpt>
      <trkpt lat="44.49569" lon="-1.07636">
        <ele>31</ele>
        <time>2019-08-11T18:48:20Z</time>
      </trkpt>
      <trkpt lat="44.49569" lon="-1.07636">
        <ele>31</ele>
        <time>2019-08-11T18:48:25Z</time>
      </trkpt>
      <trkpt lat="44.49569" lon="-1.07636">
        <ele>31</ele>
        <time>2019-08-11T18:48:35Z</time>
      </trkpt>
      <trkpt lat="44.49569" lon="-1.07636">
        <ele>31</ele>
        <time>2019-08-11T18:48:40Z</time>
      </trkpt>
      <trkpt lat="44.49569" lon="-1.07636">
        <ele>31</ele>
        <time>2019-08-11T18:48:50Z</time>
      </trkpt>
      <trkpt lat="44.49569" lon="-1.07636">
        <ele>31</ele>
        <time>2019-08-11T18:48:55Z</time>
      </trkpt>
      <trkpt lat="44.49569" lon="-1.07636">
        <ele>31</ele>
        <time>2019-08-11T18:49:05Z</time>
      </trkpt>
      <trkpt lat="44.49569" lon="-1.07636">
        <ele>31</ele>
        <time>2019-08-11T18:49:10Z</time>
      </trkpt>
      <trkpt lat="44.49569" lon="-1.07636">
        <ele>31</ele>
        <time>2019-08-11T18:49:20Z</time>
      </trkpt>
      <trkpt lat="44.49568" lon="-1.07635">
        <ele>31</ele>
        <time>2019-08-11T18:49:30Z</time>
      </trkpt>
      <trkpt lat="44.49568" lon="-1.07634">
        <ele>31</ele>
        <time>2019-08-11T18:49:35Z</time>
      </trkpt>
      <trkpt lat="44.49568" lon="-1.07633">
        <ele>31</ele>
        <time>2019-08-11T18:49:45Z</time>
      </trkpt>
      <trkpt lat="44.49568" lon="-1.07632">
        <ele>31</ele>
        <time>2019-08-11T18:49:50Z</time>
      </trkpt>
      <trkpt lat="44.49567" lon="-1.07629">
        <ele>31</ele>
        <time>2019-08-11T18:50:00Z</time>
      </trkpt>
      <trkpt lat="44.49567" lon="-1.07627">
        <ele>31</ele>
        <time>2019-08-11T18:50:05Z</time>
      </trkpt>
      <trkpt lat="44.49564" lon="-1.07622">
        <ele>31</ele>
        <time>2019-08-11T18:50:15Z</time>
      </trkpt>
      <trkpt lat="44.49564" lon="-1.07621">
        <ele>31</ele>
        <time>2019-08-11T18:50:20Z</time>
      </trkpt>
      <trkpt lat="44.49564" lon="-1.07618">
        <ele>31</ele>
        <time>2019-08-11T18:50:30Z</time>
      </trkpt>
      <trkpt lat="44.49564" lon="-1.07618">
        <ele>31</ele>
        <time>2019-08-11T18:50:35Z</time>
      </trkpt>
      <trkpt lat="44.49565" lon="-1.07618">
        <ele>31</ele>
        <time>2019-08-11T18:50:45Z</time>
      </trkpt>
      <trkpt lat="44.49565" lon="-1.07619">
        <ele>31</ele>
        <time>2019-08-11T18:50:50Z</time>
      </trkpt>
      <trkpt lat="44.49564" lon="-1.07621">
        <ele>31</ele>
        <time>2019-08-11T18:51:00Z</time>
      </trkpt>
      <trkpt lat="44.49564" lon="-1.0762">
        <ele>31</ele>
        <time>2019-08-11T18:51:10Z</time>
      </trkpt>
      <trkpt lat="44.49565" lon="-1.07619">
        <ele>31</ele>
        <time>2019-08-11T18:51:15Z</time>
      </trkpt>
      <trkpt lat="44.49564" lon="-1.07623">
        <ele>31</ele>
        <time>2019-08-11T18:51:25Z</time>
      </trkpt>
      <trkpt lat="44.49563" lon="-1.07631">
        <ele>31</ele>
        <time>2019-08-11T18:51:30Z</time>
      </trkpt>
      <trkpt lat="44.49563" lon="-1.07635">
        <ele>31</ele>
        <time>2019-08-11T18:51:40Z</time>
      </trkpt>
      <trkpt lat="44.49564" lon="-1.07635">
        <ele>31</ele>
        <time>2019-08-11T18:51:45Z</time>
      </trkpt>
      <trkpt lat="44.49565" lon="-1.07633">
        <ele>31</ele>
        <time>2019-08-11T18:51:55Z</time>
      </trkpt>
      <trkpt lat="44.49566" lon="-1.07629">
        <ele>31</ele>
        <time>2019-08-11T18:52:00Z</time>
      </trkpt>
      <trkpt lat="44.49568" lon="-1.0763">
        <ele>31</ele>
        <time>2019-08-11T18:52:10Z</time>
      </trkpt>
      <trkpt lat="44.49569" lon="-1.0763">
        <ele>31</ele>
        <time>2019-08-11T18:52:15Z</time>
      </trkpt>
      <trkpt lat="44.49569" lon="-1.0763">
        <ele>31</ele>
        <time>2019-08-11T18:52:25Z</time>
      </trkpt>
      <trkpt lat="44.49569" lon="-1.0763">
        <ele>31</ele>
        <time>2019-08-11T18:52:30Z</time>
      </trkpt>
      <trkpt lat="44.49569" lon="-1.0763">
        <ele>31</ele>
        <time>2019-08-11T18:52:40Z</time>
      </trkpt>
      <trkpt lat="44.49569" lon="-1.0763">
        <ele>31</ele>
        <time>2019-08-11T18:52:50Z</time>
      </trkpt>
      <trkpt lat="44.49569" lon="-1.0763">
        <ele>31</ele>
        <time>2019-08-11T18:52:55Z</time>
      </trkpt>
      <trkpt lat="44.49569" lon="-1.0763">
        <ele>31</ele>
        <time>2019-08-11T18:53:05Z</time>
      </trkpt>
      <trkpt lat="44.49569" lon="-1.0763">
        <ele>31</ele>
        <time>2019-08-11T18:53:10Z</time>
      </trkpt>
      <trkpt lat="44.49568" lon="-1.0763">
        <ele>31</ele>
        <time>2019-08-11T18:53:20Z</time>
      </trkpt>
      <trkpt lat="44.49568" lon="-1.0763">
        <ele>31</ele>
        <time>2019-08-11T18:53:25Z</time>
      </trkpt>
      <trkpt lat="44.49568" lon="-1.0763">
        <ele>31</ele>
        <time>2019-08-11T18:53:35Z</time>
      </trkpt>
      <trkpt lat="44.49568" lon="-1.0763">
        <ele>31</ele>
        <time>2019-08-11T18:53:40Z</time>
      </trkpt>
      <trkpt lat="44.49569" lon="-1.0763">
        <ele>31</ele>
        <time>2019-08-11T18:53:50Z</time>
      </trkpt>
      <trkpt lat="44.49569" lon="-1.0763">
        <ele>31</ele>
        <time>2019-08-11T18:53:55Z</time>
      </trkpt>
      <trkpt lat="44.49569" lon="-1.0763">
        <ele>31</ele>
        <time>2019-08-11T18:54:05Z</time>
      </trkpt>
      <trkpt lat="44.49568" lon="-1.0763">
        <ele>31</ele>
        <time>2019-08-11T18:54:10Z</time>
      </trkpt>
      <trkpt lat="44.49568" lon="-1.0763">
        <ele>31</ele>
        <time>2019-08-11T18:54:20Z</time>
      </trkpt>
      <trkpt lat="44.49568" lon="-1.07629">
        <ele>31</ele>
        <time>2019-08-11T18:54:30Z</time>
      </trkpt>
      <trkpt lat="44.49569" lon="-1.07627">
        <ele>31</ele>
        <time>2019-08-11T18:54:35Z</time>
      </trkpt>
      <trkpt lat="44.49569" lon="-1.07627">
        <ele>31</ele>
        <time>2019-08-11T18:54:45Z</time>
      </trkpt>
      <trkpt lat="44.49569" lon="-1.07627">
        <ele>31</ele>
        <time>2019-08-11T18:54:50Z</time>
      </trkpt>
      <trkpt lat="44.49569" lon="-1.07627">
        <ele>31</ele>
        <time>2019-08-11T18:55:00Z</time>
      </trkpt>
      <trkpt lat="44.49569" lon="-1.07627">
        <ele>31</ele>
        <time>2019-08-11T18:55:05Z</time>
      </trkpt>
      <trkpt lat="44.49572" lon="-1.07626">
        <ele>31</ele>
        <time>2019-08-11T18:55:15Z</time>
      </trkpt>
      <trkpt lat="44.49576" lon="-1.07623">
        <ele>31</ele>
        <time>2019-08-11T18:55:20Z</time>
      </trkpt>
      <trkpt lat="44.49581" lon="-1.07618">
        <ele>31</ele>
        <time>2019-08-11T18:55:30Z</time>
      </trkpt>
      <trkpt lat="44.49582" lon="-1.07615">
        <ele>31</ele>
        <time>2019-08-11T18:55:35Z</time>
      </trkpt>
      <trkpt lat="44.49581" lon="-1.07615">
        <ele>31</ele>
        <time>2019-08-11T18:55:45Z</time>
      </trkpt>
      <trkpt lat="44.49581" lon="-1.07616">
        <ele>31</ele>
        <time>2019-08-11T18:55:55Z</time>
      </trkpt>
      <trkpt lat="44.49581" lon="-1.07616">
        <ele>31</ele>
        <time>2019-08-11T18:56:00Z</time>
      </trkpt>
      <trkpt lat="44.49581" lon="-1.07616">
        <ele>31</ele>
        <time>2019-08-11T18:56:10Z</time>
      </trkpt>
      <trkpt lat="44.49581" lon="-1.07616">
        <ele>31</ele>
        <time>2019-08-11T18:56:15Z</time>
      </trkpt>
      <trkpt lat="44.49581" lon="-1.07616">
        <ele>31</ele>
        <time>2019-08-11T18:56:25Z</time>
      </trkpt>
      <trkpt lat="44.49581" lon="-1.07616">
        <ele>31</ele>
        <time>2019-08-11T18:56:30Z</time>
      </trkpt>
      <trkpt lat="44.49581" lon="-1.07616">
        <ele>31</ele>
        <time>2019-08-11T18:56:40Z</time>
      </trkpt>
      <trkpt lat="44.49581" lon="-1.07616">
        <ele>31</ele>
        <time>2019-08-11T18:56:45Z</time>
      </trkpt>
      <trkpt lat="44.49581" lon="-1.07616">
        <ele>31</ele>
        <time>2019-08-11T18:56:55Z</time>
      </trkpt>
      <trkpt lat="44.49581" lon="-1.07616">
        <ele>31</ele>
        <time>2019-08-11T18:57:00Z</time>
      </trkpt>
      <trkpt lat="44.49581" lon="-1.07616">
        <ele>31</ele>
        <time>2019-08-11T18:57:10Z</time>
      </trkpt>
      <trkpt lat="44.49581" lon="-1.07616">
        <ele>31</ele>
        <time>2019-08-11T18:57:15Z</time>
      </trkpt>
      <trkpt lat="44.49581" lon="-1.07616">
        <ele>31</ele>
        <time>2019-08-11T18:57:25Z</time>
      </trkpt>
      <trkpt lat="44.49581" lon="-1.07616">
        <ele>31</ele>
        <time>2019-08-11T18:57:35Z</time>
      </trkpt>
      <trkpt lat="44.49581" lon="-1.07616">
        <ele>31</ele>
        <time>2019-08-11T18:57:40Z</time>
      </trkpt>
      <trkpt lat="44.49581" lon="-1.07616">
        <ele>31</ele>
        <time>2019-08-11T18:57:50Z</time>
      </trkpt>
      <trkpt lat="44.49581" lon="-1.07616">
        <ele>31</ele>
        <time>2019-08-11T18:57:55Z</time>
      </trkpt>
      <trkpt lat="44.49581" lon="-1.07616">
        <ele>31</ele>
        <time>2019-08-11T18:58:05Z</time>
      </trkpt>
      <trkpt lat="44.49581" lon="-1.07616">
        <ele>31</ele>
        <time>2019-08-11T18:58:10Z</time>
      </trkpt>
      <trkpt lat="44.49581" lon="-1.07616">
        <ele>31</ele>
        <time>2019-08-11T18:58:20Z</time>
      </trkpt>
      <trkpt lat="44.49587" lon="-1.07615">
        <ele>31</ele>
        <time>2019-08-11T18:58:25Z</time>
      </trkpt>
      <trkpt lat="44.49631" lon="-1.07606">
        <ele>32</ele>
        <time>2019-08-11T18:58:35Z</time>
      </trkpt>
      <trkpt lat="44.49651" lon="-1.07605">
        <ele>32</ele>
        <time>2019-08-11T18:58:40Z</time>
      </trkpt>
      <trkpt lat="44.49689" lon="-1.07597">
        <ele>32</ele>
        <time>2019-08-11T18:58:50Z</time>
      </trkpt>
      <trkpt lat="44.49701" lon="-1.07586">
        <ele>32</ele>
        <time>2019-08-11T18:58:55Z</time>
      </trkpt>
      <trkpt lat="44.49706" lon="-1.07562">
        <ele>33</ele>
        <time>2019-08-11T18:59:05Z</time>
      </trkpt>
      <trkpt lat="44.49734" lon="-1.07548">
        <ele>33</ele>
        <time>2019-08-11T18:59:15Z</time>
      </trkpt>
      <trkpt lat="44.4975" lon="-1.0754">
        <ele>33</ele>
        <time>2019-08-11T18:59:20Z</time>
      </trkpt>
      <trkpt lat="44.49781" lon="-1.07524">
        <ele>33</ele>
        <time>2019-08-11T18:59:30Z</time>
      </trkpt>
      <trkpt lat="44.49797" lon="-1.07515">
        <ele>32</ele>
        <time>2019-08-11T18:59:35Z</time>
      </trkpt>
      <trkpt lat="44.49809" lon="-1.07489">
        <ele>32</ele>
        <time>2019-08-11T18:59:45Z</time>
      </trkpt>
      <trkpt lat="44.49804" lon="-1.0747">
        <ele>33</ele>
        <time>2019-08-11T18:59:50Z</time>
      </trkpt>
      <trkpt lat="44.49808" lon="-1.07438">
        <ele>33</ele>
        <time>2019-08-11T19:00:00Z</time>
      </trkpt>
      <trkpt lat="44.49823" lon="-1.07431">
        <ele>33</ele>
        <time>2019-08-11T19:00:05Z</time>
      </trkpt>
      <trkpt lat="44.49847" lon="-1.07418">
        <ele>33</ele>
        <time>2019-08-11T19:00:15Z</time>
      </trkpt>
      <trkpt lat="44.49854" lon="-1.07417">
        <ele>33</ele>
        <time>2019-08-11T19:00:20Z</time>
      </trkpt>
      <trkpt lat="44.49865" lon="-1.07452">
        <ele>32</ele>
        <time>2019-08-11T19:00:30Z</time>
      </trkpt>
      <trkpt lat="44.49867" lon="-1.07467">
        <ele>32</ele>
        <time>2019-08-11T19:00:35Z</time>
      </trkpt>
      <trkpt lat="44.49867" lon="-1.0747">
        <ele>32</ele>
        <time>2019-08-11T19:00:45Z</time>
      </trkpt>
      <trkpt lat="44.49868" lon="-1.07472">
        <ele>32</ele>
        <time>2019-08-11T19:00:55Z</time>
      </trkpt>
      <trkpt lat="44.49868" lon="-1.07471">
        <ele>32</ele>
        <time>2019-08-11T19:01:00Z</time>
      </trkpt>
      <trkpt lat="44.49868" lon="-1.07472">
        <ele>32</ele>
        <time>2019-08-11T19:01:10Z</time>
      </trkpt>
      <trkpt lat="44.49868" lon="-1.07472">
        <ele>32</ele>
        <time>2019-08-11T19:01:15Z</time>
      </trkpt>
      <trkpt lat="44.49868" lon="-1.07472">
        <ele>32</ele>
        <time>2019-08-11T19:01:25Z</time>
      </trkpt>
      <trkpt lat="44.49868" lon="-1.07472">
        <ele>32</ele>
        <time>2019-08-11T19:01:30Z</time>
      </trkpt>
      <trkpt lat="44.49866" lon="-1.07472">
        <ele>32</ele>
        <time>2019-08-11T19:01:40Z</time>
      </trkpt>
      <trkpt lat="44.49864" lon="-1.07473">
        <ele>32</ele>
        <time>2019-08-11T19:01:45Z</time>
      </trkpt>
      <trkpt lat="44.49866" lon="-1.07476">
        <ele>32</ele>
        <time>2019-08-11T19:01:55Z</time>
      </trkpt>
      <trkpt lat="44.49867" lon="-1.07475">
        <ele>32</ele>
        <time>2019-08-11T19:02:00Z</time>
      </trkpt>
      <trkpt lat="44.49867" lon="-1.07475">
        <ele>32</ele>
        <time>2019-08-11T19:02:10Z</time>
      </trkpt>
      <trkpt lat="44.49867" lon="-1.07475">
        <ele>32</ele>
        <time>2019-08-11T19:02:12Z</time>
      </trkpt>
    </trkseg>
  </trk>
</gpx>